<?xml version="1.0" encoding="UTF-8" standalone="no" ?>
<gpx xmlns="http://www.topografix.com/GPX/1/1" xmlns:xsi="http://www.w3.org/2001/XMLSchema-instance" xsi:schemaLocation="http://www.topografix.com/GPX/1/1 http://www.topografix.com/GPX/1/1/gpx.xsd" version="1.1" creator="VisuGPX - https://www.visugpx.com">
  <metadata>
    <name>Rando sac à dos Guillaume Bouchanières</name>
  </metadata>
  <trk>
    <name><![CDATA[Rando sac à dos Guillaume Bouchanières]]></name>
    <trkseg>
      <trkpt lat="44.10568" lon="6.84658">
        <ele>862.12</ele>
        <time>2021-10-27T07:28:05Z</time>
      </trkpt>
      <trkpt lat="44.10571" lon="6.84652">
        <ele>862.1</ele>
        <time>2021-10-27T07:28:10Z</time>
      </trkpt>
      <trkpt lat="44.10573" lon="6.84655">
        <ele>863.23</ele>
        <time>2021-10-27T07:28:16Z</time>
      </trkpt>
      <trkpt lat="44.10571" lon="6.84652">
        <ele>862.1</ele>
        <time>2021-10-27T07:28:27Z</time>
      </trkpt>
      <trkpt lat="44.1057" lon="6.84655">
        <ele>862.28</ele>
        <time>2021-10-27T07:28:47Z</time>
      </trkpt>
      <trkpt lat="44.1057" lon="6.8466">
        <ele>863.11</ele>
        <time>2021-10-27T07:28:49Z</time>
      </trkpt>
      <trkpt lat="44.10568" lon="6.84664">
        <ele>863.06</ele>
        <time>2021-10-27T07:28:52Z</time>
      </trkpt>
      <trkpt lat="44.10566" lon="6.84666">
        <ele>862.66</ele>
        <time>2021-10-27T07:28:54Z</time>
      </trkpt>
      <trkpt lat="44.10563" lon="6.84669">
        <ele>862.02</ele>
        <time>2021-10-27T07:28:56Z</time>
      </trkpt>
      <trkpt lat="44.10561" lon="6.84673">
        <ele>861.87</ele>
        <time>2021-10-27T07:28:59Z</time>
      </trkpt>
      <trkpt lat="44.10559" lon="6.84677">
        <ele>861.73</ele>
        <time>2021-10-27T07:29:02Z</time>
      </trkpt>
      <trkpt lat="44.10556" lon="6.84679">
        <ele>860.94</ele>
        <time>2021-10-27T07:29:03Z</time>
      </trkpt>
      <trkpt lat="44.10553" lon="6.84681">
        <ele>860.84</ele>
        <time>2021-10-27T07:29:05Z</time>
      </trkpt>
      <trkpt lat="44.10549" lon="6.84683">
        <ele>860.78</ele>
        <time>2021-10-27T07:29:09Z</time>
      </trkpt>
      <trkpt lat="44.10545" lon="6.84685">
        <ele>860.75</ele>
        <time>2021-10-27T07:29:11Z</time>
      </trkpt>
      <trkpt lat="44.10544" lon="6.8469">
        <ele>861.46</ele>
        <time>2021-10-27T07:29:14Z</time>
      </trkpt>
      <trkpt lat="44.10544" lon="6.84697">
        <ele>862.72</ele>
        <time>2021-10-27T07:29:18Z</time>
      </trkpt>
      <trkpt lat="44.10545" lon="6.84701">
        <ele>863.66</ele>
        <time>2021-10-27T07:29:20Z</time>
      </trkpt>
      <trkpt lat="44.10547" lon="6.84706">
        <ele>864.88</ele>
        <time>2021-10-27T07:29:23Z</time>
      </trkpt>
      <trkpt lat="44.10549" lon="6.8471">
        <ele>865.89</ele>
        <time>2021-10-27T07:29:25Z</time>
      </trkpt>
      <trkpt lat="44.10551" lon="6.84713">
        <ele>866.68</ele>
        <time>2021-10-27T07:29:29Z</time>
      </trkpt>
      <trkpt lat="44.10549" lon="6.84717">
        <ele>867.4</ele>
        <time>2021-10-27T07:29:52Z</time>
      </trkpt>
      <trkpt lat="44.10547" lon="6.8472">
        <ele>867.9</ele>
        <time>2021-10-27T07:30:03Z</time>
      </trkpt>
      <trkpt lat="44.10545" lon="6.84722">
        <ele>868.19</ele>
        <time>2021-10-27T07:30:11Z</time>
      </trkpt>
      <trkpt lat="44.10543" lon="6.84725">
        <ele>868.9</ele>
        <time>2021-10-27T07:30:18Z</time>
      </trkpt>
      <trkpt lat="44.1054" lon="6.84726">
        <ele>868.97</ele>
        <time>2021-10-27T07:30:24Z</time>
      </trkpt>
      <trkpt lat="44.10537" lon="6.84726">
        <ele>868.75</ele>
        <time>2021-10-27T07:30:31Z</time>
      </trkpt>
      <trkpt lat="44.10534" lon="6.84727">
        <ele>868.82</ele>
        <time>2021-10-27T07:30:34Z</time>
      </trkpt>
      <trkpt lat="44.10531" lon="6.84725">
        <ele>868.03</ele>
        <time>2021-10-27T07:30:39Z</time>
      </trkpt>
      <trkpt lat="44.10528" lon="6.84726">
        <ele>868.1</ele>
        <time>2021-10-27T07:30:43Z</time>
      </trkpt>
      <trkpt lat="44.10526" lon="6.8473">
        <ele>868.5</ele>
        <time>2021-10-27T07:30:45Z</time>
      </trkpt>
      <trkpt lat="44.10525" lon="6.84734">
        <ele>869.21</ele>
        <time>2021-10-27T07:30:48Z</time>
      </trkpt>
      <trkpt lat="44.10523" lon="6.84738">
        <ele>869.46</ele>
        <time>2021-10-27T07:30:51Z</time>
      </trkpt>
      <trkpt lat="44.10522" lon="6.84742">
        <ele>870.11</ele>
        <time>2021-10-27T07:30:57Z</time>
      </trkpt>
      <trkpt lat="44.10521" lon="6.84746">
        <ele>870.75</ele>
        <time>2021-10-27T07:31:01Z</time>
      </trkpt>
      <trkpt lat="44.10519" lon="6.8475">
        <ele>870.89</ele>
        <time>2021-10-27T07:31:04Z</time>
      </trkpt>
      <trkpt lat="44.10519" lon="6.84754">
        <ele>871.85</ele>
        <time>2021-10-27T07:31:07Z</time>
      </trkpt>
      <trkpt lat="44.10518" lon="6.84758">
        <ele>872.35</ele>
        <time>2021-10-27T07:31:11Z</time>
      </trkpt>
      <trkpt lat="44.10518" lon="6.84763">
        <ele>873.56</ele>
        <time>2021-10-27T07:31:15Z</time>
      </trkpt>
      <trkpt lat="44.1052" lon="6.84768">
        <ele>875.61</ele>
        <time>2021-10-27T07:31:19Z</time>
      </trkpt>
      <trkpt lat="44.1052" lon="6.84773">
        <ele>876.79</ele>
        <time>2021-10-27T07:31:24Z</time>
      </trkpt>
      <trkpt lat="44.10519" lon="6.84777">
        <ele>877.34</ele>
        <time>2021-10-27T07:31:27Z</time>
      </trkpt>
      <trkpt lat="44.10516" lon="6.84779">
        <ele>876.59</ele>
        <time>2021-10-27T07:31:30Z</time>
      </trkpt>
      <trkpt lat="44.10514" lon="6.84781">
        <ele>876.24</ele>
        <time>2021-10-27T07:31:33Z</time>
      </trkpt>
      <trkpt lat="44.10511" lon="6.84784">
        <ele>875.75</ele>
        <time>2021-10-27T07:31:36Z</time>
      </trkpt>
      <trkpt lat="44.10509" lon="6.84786">
        <ele>875.44</ele>
        <time>2021-10-27T07:31:39Z</time>
      </trkpt>
      <trkpt lat="44.10506" lon="6.84789">
        <ele>875.03</ele>
        <time>2021-10-27T07:31:41Z</time>
      </trkpt>
      <trkpt lat="44.10504" lon="6.84791">
        <ele>874.78</ele>
        <time>2021-10-27T07:31:44Z</time>
      </trkpt>
      <trkpt lat="44.10501" lon="6.84793">
        <ele>874.19</ele>
        <time>2021-10-27T07:31:49Z</time>
      </trkpt>
      <trkpt lat="44.105" lon="6.84797">
        <ele>874.84</ele>
        <time>2021-10-27T07:31:53Z</time>
      </trkpt>
      <trkpt lat="44.10497" lon="6.848">
        <ele>873.7</ele>
        <time>2021-10-27T07:32:01Z</time>
      </trkpt>
      <trkpt lat="44.10495" lon="6.84803">
        <ele>873.25</ele>
        <time>2021-10-27T07:32:05Z</time>
      </trkpt>
      <trkpt lat="44.10492" lon="6.84807">
        <ele>872.48</ele>
        <time>2021-10-27T07:32:08Z</time>
      </trkpt>
      <trkpt lat="44.10491" lon="6.8481">
        <ele>872.66</ele>
        <time>2021-10-27T07:32:11Z</time>
      </trkpt>
      <trkpt lat="44.10489" lon="6.84813">
        <ele>872.25</ele>
        <time>2021-10-27T07:32:14Z</time>
      </trkpt>
      <trkpt lat="44.10488" lon="6.84818">
        <ele>872.99</ele>
        <time>2021-10-27T07:32:19Z</time>
      </trkpt>
      <trkpt lat="44.10486" lon="6.84821">
        <ele>872.6</ele>
        <time>2021-10-27T07:32:23Z</time>
      </trkpt>
      <trkpt lat="44.10484" lon="6.84823">
        <ele>871.97</ele>
        <time>2021-10-27T07:32:29Z</time>
      </trkpt>
      <trkpt lat="44.10483" lon="6.84827">
        <ele>872.47</ele>
        <time>2021-10-27T07:32:33Z</time>
      </trkpt>
      <trkpt lat="44.10482" lon="6.84831">
        <ele>872.99</ele>
        <time>2021-10-27T07:32:37Z</time>
      </trkpt>
      <trkpt lat="44.10481" lon="6.84835">
        <ele>873.52</ele>
        <time>2021-10-27T07:32:42Z</time>
      </trkpt>
      <trkpt lat="44.1048" lon="6.84839">
        <ele>874.09</ele>
        <time>2021-10-27T07:32:47Z</time>
      </trkpt>
      <trkpt lat="44.10478" lon="6.84841">
        <ele>873.58</ele>
        <time>2021-10-27T07:32:56Z</time>
      </trkpt>
      <trkpt lat="44.10475" lon="6.84844">
        <ele>872.9</ele>
        <time>2021-10-27T07:33:02Z</time>
      </trkpt>
      <trkpt lat="44.10474" lon="6.84847">
        <ele>873.33</ele>
        <time>2021-10-27T07:33:09Z</time>
      </trkpt>
      <trkpt lat="44.10473" lon="6.8485">
        <ele>873.78</ele>
        <time>2021-10-27T07:33:12Z</time>
      </trkpt>
      <trkpt lat="44.10471" lon="6.84854">
        <ele>874</ele>
        <time>2021-10-27T07:33:16Z</time>
      </trkpt>
      <trkpt lat="44.10469" lon="6.84856">
        <ele>873.51</ele>
        <time>2021-10-27T07:33:20Z</time>
      </trkpt>
      <trkpt lat="44.10467" lon="6.84858">
        <ele>873.01</ele>
        <time>2021-10-27T07:33:23Z</time>
      </trkpt>
      <trkpt lat="44.10464" lon="6.84859">
        <ele>871.6</ele>
        <time>2021-10-27T07:33:26Z</time>
      </trkpt>
      <trkpt lat="44.10461" lon="6.8486">
        <ele>870.19</ele>
        <time>2021-10-27T07:33:43Z</time>
      </trkpt>
      <trkpt lat="44.10458" lon="6.84859">
        <ele>868.16</ele>
        <time>2021-10-27T07:34:09Z</time>
      </trkpt>
      <trkpt lat="44.1046" lon="6.84856">
        <ele>868.38</ele>
        <time>2021-10-27T07:34:14Z</time>
      </trkpt>
      <trkpt lat="44.10463" lon="6.84854">
        <ele>869.47</ele>
        <time>2021-10-27T07:34:19Z</time>
      </trkpt>
      <trkpt lat="44.10465" lon="6.84851">
        <ele>869.66</ele>
        <time>2021-10-27T07:34:23Z</time>
      </trkpt>
      <trkpt lat="44.10468" lon="6.84848">
        <ele>870.39</ele>
        <time>2021-10-27T07:34:26Z</time>
      </trkpt>
      <trkpt lat="44.10471" lon="6.84849">
        <ele>872.39</ele>
        <time>2021-10-27T07:35:28Z</time>
      </trkpt>
      <trkpt lat="44.10473" lon="6.84846">
        <ele>872.5</ele>
        <time>2021-10-27T07:35:30Z</time>
      </trkpt>
      <trkpt lat="44.10474" lon="6.84842">
        <ele>871.75</ele>
        <time>2021-10-27T07:35:34Z</time>
      </trkpt>
      <trkpt lat="44.10471" lon="6.8484">
        <ele>869.49</ele>
        <time>2021-10-27T07:35:53Z</time>
      </trkpt>
      <trkpt lat="44.10472" lon="6.84836">
        <ele>868.74</ele>
        <time>2021-10-27T07:36:13Z</time>
      </trkpt>
      <trkpt lat="44.10472" lon="6.84841">
        <ele>870.36</ele>
        <time>2021-10-27T07:36:32Z</time>
      </trkpt>
      <trkpt lat="44.1047" lon="6.84847">
        <ele>871.19</ele>
        <time>2021-10-27T07:36:36Z</time>
      </trkpt>
      <trkpt lat="44.10469" lon="6.8485">
        <ele>871.59</ele>
        <time>2021-10-27T07:36:37Z</time>
      </trkpt>
      <trkpt lat="44.10468" lon="6.84854">
        <ele>872.3</ele>
        <time>2021-10-27T07:36:41Z</time>
      </trkpt>
      <trkpt lat="44.10466" lon="6.84858">
        <ele>872.43</ele>
        <time>2021-10-27T07:36:45Z</time>
      </trkpt>
      <trkpt lat="44.10464" lon="6.84861">
        <ele>872.23</ele>
        <time>2021-10-27T07:36:53Z</time>
      </trkpt>
      <trkpt lat="44.10463" lon="6.84865">
        <ele>872.53</ele>
        <time>2021-10-27T07:36:56Z</time>
      </trkpt>
      <trkpt lat="44.10461" lon="6.84869">
        <ele>872.24</ele>
        <time>2021-10-27T07:37:02Z</time>
      </trkpt>
      <trkpt lat="44.1046" lon="6.84872">
        <ele>872.31</ele>
        <time>2021-10-27T07:37:06Z</time>
      </trkpt>
      <trkpt lat="44.10458" lon="6.84875">
        <ele>871.81</ele>
        <time>2021-10-27T07:37:09Z</time>
      </trkpt>
      <trkpt lat="44.10456" lon="6.84879">
        <ele>871.52</ele>
        <time>2021-10-27T07:37:12Z</time>
      </trkpt>
      <trkpt lat="44.10454" lon="6.84882">
        <ele>871.02</ele>
        <time>2021-10-27T07:37:15Z</time>
      </trkpt>
      <trkpt lat="44.10454" lon="6.84886">
        <ele>871.88</ele>
        <time>2021-10-27T07:37:18Z</time>
      </trkpt>
      <trkpt lat="44.10457" lon="6.84888">
        <ele>874.04</ele>
        <time>2021-10-27T07:37:30Z</time>
      </trkpt>
      <trkpt lat="44.1046" lon="6.84889">
        <ele>875.98</ele>
        <time>2021-10-27T07:37:34Z</time>
      </trkpt>
      <trkpt lat="44.10464" lon="6.8489">
        <ele>878.44</ele>
        <time>2021-10-27T07:37:39Z</time>
      </trkpt>
      <trkpt lat="44.10467" lon="6.8489">
        <ele>880.18</ele>
        <time>2021-10-27T07:37:42Z</time>
      </trkpt>
      <trkpt lat="44.10466" lon="6.84896">
        <ele>880.58</ele>
        <time>2021-10-27T07:37:51Z</time>
      </trkpt>
      <trkpt lat="44.10467" lon="6.849">
        <ele>881.84</ele>
        <time>2021-10-27T07:38:08Z</time>
      </trkpt>
      <trkpt lat="44.10468" lon="6.84904">
        <ele>883.12</ele>
        <time>2021-10-27T07:38:13Z</time>
      </trkpt>
      <trkpt lat="44.10468" lon="6.84908">
        <ele>883.8</ele>
        <time>2021-10-27T07:38:24Z</time>
      </trkpt>
      <trkpt lat="44.10468" lon="6.84912">
        <ele>884.48</ele>
        <time>2021-10-27T07:38:28Z</time>
      </trkpt>
      <trkpt lat="44.10469" lon="6.84916">
        <ele>885.8</ele>
        <time>2021-10-27T07:38:30Z</time>
      </trkpt>
      <trkpt lat="44.10471" lon="6.84914">
        <ele>886.74</ele>
        <time>2021-10-27T07:38:42Z</time>
      </trkpt>
      <trkpt lat="44.10472" lon="6.8491">
        <ele>886.66</ele>
        <time>2021-10-27T07:38:47Z</time>
      </trkpt>
      <trkpt lat="44.10473" lon="6.84906">
        <ele>886.47</ele>
        <time>2021-10-27T07:38:51Z</time>
      </trkpt>
      <trkpt lat="44.10475" lon="6.84901">
        <ele>886.51</ele>
        <time>2021-10-27T07:38:54Z</time>
      </trkpt>
      <trkpt lat="44.10477" lon="6.84898">
        <ele>886.87</ele>
        <time>2021-10-27T07:39:02Z</time>
      </trkpt>
      <trkpt lat="44.10479" lon="6.84895">
        <ele>887.19</ele>
        <time>2021-10-27T07:39:05Z</time>
      </trkpt>
      <trkpt lat="44.10481" lon="6.84892">
        <ele>887.46</ele>
        <time>2021-10-27T07:39:07Z</time>
      </trkpt>
      <trkpt lat="44.10484" lon="6.84891">
        <ele>888.56</ele>
        <time>2021-10-27T07:39:12Z</time>
      </trkpt>
      <trkpt lat="44.10487" lon="6.84888">
        <ele>889.19</ele>
        <time>2021-10-27T07:39:18Z</time>
      </trkpt>
      <trkpt lat="44.1049" lon="6.84887">
        <ele>890.27</ele>
        <time>2021-10-27T07:39:22Z</time>
      </trkpt>
      <trkpt lat="44.10492" lon="6.84886">
        <ele>890.92</ele>
        <time>2021-10-27T07:39:27Z</time>
      </trkpt>
      <trkpt lat="44.10494" lon="6.84882">
        <ele>890.92</ele>
        <time>2021-10-27T07:39:34Z</time>
      </trkpt>
      <trkpt lat="44.10496" lon="6.84879">
        <ele>891.14</ele>
        <time>2021-10-27T07:39:37Z</time>
      </trkpt>
      <trkpt lat="44.10499" lon="6.84877">
        <ele>892</ele>
        <time>2021-10-27T07:39:42Z</time>
      </trkpt>
      <trkpt lat="44.10502" lon="6.84876">
        <ele>892.9</ele>
        <time>2021-10-27T07:39:47Z</time>
      </trkpt>
      <trkpt lat="44.10502" lon="6.8488">
        <ele>893.78</ele>
        <time>2021-10-27T07:40:00Z</time>
      </trkpt>
      <trkpt lat="44.10501" lon="6.84885">
        <ele>894.51</ele>
        <time>2021-10-27T07:40:03Z</time>
      </trkpt>
      <trkpt lat="44.105" lon="6.84888">
        <ele>894.81</ele>
        <time>2021-10-27T07:40:06Z</time>
      </trkpt>
      <trkpt lat="44.10499" lon="6.84893">
        <ele>895.74</ele>
        <time>2021-10-27T07:40:12Z</time>
      </trkpt>
      <trkpt lat="44.10497" lon="6.84897">
        <ele>895.95</ele>
        <time>2021-10-27T07:40:18Z</time>
      </trkpt>
      <trkpt lat="44.10496" lon="6.849">
        <ele>896.3</ele>
        <time>2021-10-27T07:40:21Z</time>
      </trkpt>
      <trkpt lat="44.10494" lon="6.84904">
        <ele>896.41</ele>
        <time>2021-10-27T07:40:24Z</time>
      </trkpt>
      <trkpt lat="44.10492" lon="6.84908">
        <ele>896.45</ele>
        <time>2021-10-27T07:40:29Z</time>
      </trkpt>
      <trkpt lat="44.10491" lon="6.84911">
        <ele>896.71</ele>
        <time>2021-10-27T07:40:32Z</time>
      </trkpt>
      <trkpt lat="44.10491" lon="6.84916">
        <ele>897.97</ele>
        <time>2021-10-27T07:40:40Z</time>
      </trkpt>
      <trkpt lat="44.10491" lon="6.8492">
        <ele>898.7</ele>
        <time>2021-10-27T07:40:46Z</time>
      </trkpt>
      <trkpt lat="44.10494" lon="6.84918">
        <ele>899.99</ele>
        <time>2021-10-27T07:41:02Z</time>
      </trkpt>
      <trkpt lat="44.10496" lon="6.84914">
        <ele>900.11</ele>
        <time>2021-10-27T07:41:06Z</time>
      </trkpt>
      <trkpt lat="44.10498" lon="6.84911">
        <ele>900.33</ele>
        <time>2021-10-27T07:41:10Z</time>
      </trkpt>
      <trkpt lat="44.10501" lon="6.84908">
        <ele>900.84</ele>
        <time>2021-10-27T07:41:14Z</time>
      </trkpt>
      <trkpt lat="44.10503" lon="6.84905">
        <ele>900.66</ele>
        <time>2021-10-27T07:41:18Z</time>
      </trkpt>
      <trkpt lat="44.10506" lon="6.84903">
        <ele>901.11</ele>
        <time>2021-10-27T07:41:21Z</time>
      </trkpt>
      <trkpt lat="44.10508" lon="6.849">
        <ele>900.96</ele>
        <time>2021-10-27T07:41:26Z</time>
      </trkpt>
      <trkpt lat="44.10511" lon="6.84898">
        <ele>901.45</ele>
        <time>2021-10-27T07:41:29Z</time>
      </trkpt>
      <trkpt lat="44.10514" lon="6.84895">
        <ele>901.69</ele>
        <time>2021-10-27T07:41:39Z</time>
      </trkpt>
      <trkpt lat="44.10517" lon="6.84895">
        <ele>902.75</ele>
        <time>2021-10-27T07:41:41Z</time>
      </trkpt>
      <trkpt lat="44.1052" lon="6.84895">
        <ele>903.8</ele>
        <time>2021-10-27T07:41:44Z</time>
      </trkpt>
      <trkpt lat="44.10523" lon="6.84892">
        <ele>904.08</ele>
        <time>2021-10-27T07:41:47Z</time>
      </trkpt>
      <trkpt lat="44.10525" lon="6.84889">
        <ele>904.03</ele>
        <time>2021-10-27T07:41:51Z</time>
      </trkpt>
      <trkpt lat="44.10526" lon="6.84886">
        <ele>903.64</ele>
        <time>2021-10-27T07:41:55Z</time>
      </trkpt>
      <trkpt lat="44.10528" lon="6.84882">
        <ele>903.37</ele>
        <time>2021-10-27T07:42:00Z</time>
      </trkpt>
      <trkpt lat="44.1053" lon="6.84879">
        <ele>903.6</ele>
        <time>2021-10-27T07:42:03Z</time>
      </trkpt>
      <trkpt lat="44.10532" lon="6.84876">
        <ele>903.81</ele>
        <time>2021-10-27T07:42:07Z</time>
      </trkpt>
      <trkpt lat="44.10535" lon="6.84875">
        <ele>905.01</ele>
        <time>2021-10-27T07:42:11Z</time>
      </trkpt>
      <trkpt lat="44.10538" lon="6.84877">
        <ele>907</ele>
        <time>2021-10-27T07:42:15Z</time>
      </trkpt>
      <trkpt lat="44.10537" lon="6.84881">
        <ele>907.57</ele>
        <time>2021-10-27T07:42:20Z</time>
      </trkpt>
      <trkpt lat="44.10537" lon="6.84885">
        <ele>908.62</ele>
        <time>2021-10-27T07:42:23Z</time>
      </trkpt>
      <trkpt lat="44.10535" lon="6.84889">
        <ele>908.67</ele>
        <time>2021-10-27T07:42:29Z</time>
      </trkpt>
      <trkpt lat="44.10535" lon="6.84893">
        <ele>909.75</ele>
        <time>2021-10-27T07:42:34Z</time>
      </trkpt>
      <trkpt lat="44.10532" lon="6.84895">
        <ele>908.73</ele>
        <time>2021-10-27T07:42:41Z</time>
      </trkpt>
      <trkpt lat="44.10529" lon="6.84898">
        <ele>907.94</ele>
        <time>2021-10-27T07:42:47Z</time>
      </trkpt>
      <trkpt lat="44.10526" lon="6.84899">
        <ele>906.93</ele>
        <time>2021-10-27T07:42:51Z</time>
      </trkpt>
      <trkpt lat="44.10525" lon="6.84903">
        <ele>907.61</ele>
        <time>2021-10-27T07:42:55Z</time>
      </trkpt>
      <trkpt lat="44.10524" lon="6.84906">
        <ele>908.04</ele>
        <time>2021-10-27T07:43:01Z</time>
      </trkpt>
      <trkpt lat="44.10521" lon="6.84909">
        <ele>907.8</ele>
        <time>2021-10-27T07:43:06Z</time>
      </trkpt>
      <trkpt lat="44.10519" lon="6.84909">
        <ele>907.14</ele>
        <time>2021-10-27T07:43:20Z</time>
      </trkpt>
      <trkpt lat="44.10521" lon="6.84906">
        <ele>907.02</ele>
        <time>2021-10-27T07:43:25Z</time>
      </trkpt>
      <trkpt lat="44.10524" lon="6.84907">
        <ele>908.29</ele>
        <time>2021-10-27T07:43:29Z</time>
      </trkpt>
      <trkpt lat="44.10527" lon="6.84908">
        <ele>909.56</ele>
        <time>2021-10-27T07:43:34Z</time>
      </trkpt>
      <trkpt lat="44.10529" lon="6.84911">
        <ele>911.26</ele>
        <time>2021-10-27T07:43:39Z</time>
      </trkpt>
      <trkpt lat="44.10532" lon="6.84911">
        <ele>912.94</ele>
        <time>2021-10-27T07:43:41Z</time>
      </trkpt>
      <trkpt lat="44.10535" lon="6.84909">
        <ele>914.08</ele>
        <time>2021-10-27T07:43:51Z</time>
      </trkpt>
      <trkpt lat="44.10538" lon="6.84907">
        <ele>915.2</ele>
        <time>2021-10-27T07:43:55Z</time>
      </trkpt>
      <trkpt lat="44.10541" lon="6.84907">
        <ele>916.85</ele>
        <time>2021-10-27T07:44:04Z</time>
      </trkpt>
      <trkpt lat="44.10544" lon="6.84906">
        <ele>918.21</ele>
        <time>2021-10-27T07:44:08Z</time>
      </trkpt>
      <trkpt lat="44.10546" lon="6.8491">
        <ele>920.5</ele>
        <time>2021-10-27T07:44:18Z</time>
      </trkpt>
      <trkpt lat="44.10548" lon="6.84911">
        <ele>921.92</ele>
        <time>2021-10-27T07:44:29Z</time>
      </trkpt>
      <trkpt lat="44.10551" lon="6.84913">
        <ele>924.23</ele>
        <time>2021-10-27T07:44:37Z</time>
      </trkpt>
      <trkpt lat="44.10554" lon="6.84913">
        <ele>925.93</ele>
        <time>2021-10-27T07:44:42Z</time>
      </trkpt>
      <trkpt lat="44.10556" lon="6.84916">
        <ele>928.01</ele>
        <time>2021-10-27T07:44:50Z</time>
      </trkpt>
      <trkpt lat="44.10553" lon="6.84917">
        <ele>926.64</ele>
        <time>2021-10-27T07:44:55Z</time>
      </trkpt>
      <trkpt lat="44.10556" lon="6.84917">
        <ele>928.34</ele>
        <time>2021-10-27T07:45:09Z</time>
      </trkpt>
      <trkpt lat="44.10558" lon="6.84915">
        <ele>928.7</ele>
        <time>2021-10-27T07:45:17Z</time>
      </trkpt>
      <trkpt lat="44.10561" lon="6.84915">
        <ele>930.22</ele>
        <time>2021-10-27T07:45:31Z</time>
      </trkpt>
      <trkpt lat="44.10564" lon="6.84915">
        <ele>931.73</ele>
        <time>2021-10-27T07:45:34Z</time>
      </trkpt>
      <trkpt lat="44.10567" lon="6.84915">
        <ele>933.25</ele>
        <time>2021-10-27T07:45:38Z</time>
      </trkpt>
      <trkpt lat="44.1057" lon="6.84916">
        <ele>935.08</ele>
        <time>2021-10-27T07:45:45Z</time>
      </trkpt>
      <trkpt lat="44.10572" lon="6.84913">
        <ele>935.18</ele>
        <time>2021-10-27T07:45:59Z</time>
      </trkpt>
      <trkpt lat="44.10575" lon="6.84913">
        <ele>936.7</ele>
        <time>2021-10-27T07:46:05Z</time>
      </trkpt>
      <trkpt lat="44.10578" lon="6.84913">
        <ele>938.23</ele>
        <time>2021-10-27T07:46:14Z</time>
      </trkpt>
      <trkpt lat="44.10581" lon="6.84912">
        <ele>939.47</ele>
        <time>2021-10-27T07:46:17Z</time>
      </trkpt>
      <trkpt lat="44.10582" lon="6.84915">
        <ele>940.85</ele>
        <time>2021-10-27T07:46:23Z</time>
      </trkpt>
      <trkpt lat="44.10585" lon="6.84917">
        <ele>942.41</ele>
        <time>2021-10-27T07:46:28Z</time>
      </trkpt>
      <trkpt lat="44.10588" lon="6.84917">
        <ele>942.96</ele>
        <time>2021-10-27T07:46:34Z</time>
      </trkpt>
      <trkpt lat="44.1059" lon="6.84914">
        <ele>942.36</ele>
        <time>2021-10-27T07:46:38Z</time>
      </trkpt>
      <trkpt lat="44.10593" lon="6.84913">
        <ele>942.55</ele>
        <time>2021-10-27T07:46:47Z</time>
      </trkpt>
      <trkpt lat="44.10595" lon="6.84911">
        <ele>942.21</ele>
        <time>2021-10-27T07:46:52Z</time>
      </trkpt>
      <trkpt lat="44.10598" lon="6.84909">
        <ele>941.99</ele>
        <time>2021-10-27T07:46:59Z</time>
      </trkpt>
      <trkpt lat="44.10598" lon="6.84913">
        <ele>943.37</ele>
        <time>2021-10-27T07:47:08Z</time>
      </trkpt>
      <trkpt lat="44.10597" lon="6.84917">
        <ele>944.6</ele>
        <time>2021-10-27T07:47:11Z</time>
      </trkpt>
      <trkpt lat="44.10597" lon="6.84921">
        <ele>946.32</ele>
        <time>2021-10-27T07:47:36Z</time>
      </trkpt>
      <trkpt lat="44.10596" lon="6.84926">
        <ele>948.22</ele>
        <time>2021-10-27T07:47:46Z</time>
      </trkpt>
      <trkpt lat="44.10595" lon="6.84929">
        <ele>949.21</ele>
        <time>2021-10-27T07:47:51Z</time>
      </trkpt>
      <trkpt lat="44.10598" lon="6.84927">
        <ele>949.17</ele>
        <time>2021-10-27T07:48:10Z</time>
      </trkpt>
      <trkpt lat="44.106" lon="6.8493">
        <ele>951.05</ele>
        <time>2021-10-27T07:48:17Z</time>
      </trkpt>
      <trkpt lat="44.106" lon="6.84935">
        <ele>953.32</ele>
        <time>2021-10-27T07:48:29Z</time>
      </trkpt>
      <trkpt lat="44.10599" lon="6.84938">
        <ele>954.33</ele>
        <time>2021-10-27T07:48:33Z</time>
      </trkpt>
      <trkpt lat="44.10599" lon="6.84942">
        <ele>956.11</ele>
        <time>2021-10-27T07:48:40Z</time>
      </trkpt>
      <trkpt lat="44.10601" lon="6.84945">
        <ele>958.26</ele>
        <time>2021-10-27T07:48:57Z</time>
      </trkpt>
      <trkpt lat="44.10603" lon="6.84944">
        <ele>958.58</ele>
        <time>2021-10-27T07:49:06Z</time>
      </trkpt>
      <trkpt lat="44.10606" lon="6.84945">
        <ele>960.24</ele>
        <time>2021-10-27T07:49:16Z</time>
      </trkpt>
      <trkpt lat="44.10609" lon="6.84943">
        <ele>960.41</ele>
        <time>2021-10-27T07:49:21Z</time>
      </trkpt>
      <trkpt lat="44.10611" lon="6.84942">
        <ele>960.64</ele>
        <time>2021-10-27T07:49:36Z</time>
      </trkpt>
      <trkpt lat="44.10612" lon="6.84946">
        <ele>962.98</ele>
        <time>2021-10-27T07:50:45Z</time>
      </trkpt>
      <trkpt lat="44.1061" lon="6.84952">
        <ele>965.1</ele>
        <time>2021-10-27T07:50:50Z</time>
      </trkpt>
      <trkpt lat="44.10609" lon="6.84956">
        <ele>966.57</ele>
        <time>2021-10-27T07:50:52Z</time>
      </trkpt>
      <trkpt lat="44.10609" lon="6.84961">
        <ele>968.91</ele>
        <time>2021-10-27T07:50:55Z</time>
      </trkpt>
      <trkpt lat="44.10608" lon="6.84964">
        <ele>969.92</ele>
        <time>2021-10-27T07:50:59Z</time>
      </trkpt>
      <trkpt lat="44.10605" lon="6.84966">
        <ele>969.67</ele>
        <time>2021-10-27T07:51:03Z</time>
      </trkpt>
      <trkpt lat="44.10607" lon="6.84965">
        <ele>969.99</ele>
        <time>2021-10-27T07:51:12Z</time>
      </trkpt>
      <trkpt lat="44.10611" lon="6.84968">
        <ele>972.98</ele>
        <time>2021-10-27T07:51:16Z</time>
      </trkpt>
      <trkpt lat="44.10614" lon="6.84969">
        <ele>974.23</ele>
        <time>2021-10-27T07:51:21Z</time>
      </trkpt>
      <trkpt lat="44.10617" lon="6.84969">
        <ele>975</ele>
        <time>2021-10-27T07:51:25Z</time>
      </trkpt>
      <trkpt lat="44.10618" lon="6.84973">
        <ele>976.92</ele>
        <time>2021-10-27T07:51:32Z</time>
      </trkpt>
      <trkpt lat="44.10618" lon="6.84977">
        <ele>977.85</ele>
        <time>2021-10-27T07:51:42Z</time>
      </trkpt>
      <trkpt lat="44.10621" lon="6.84979">
        <ele>979.23</ele>
        <time>2021-10-27T07:51:50Z</time>
      </trkpt>
      <trkpt lat="44.10624" lon="6.84979">
        <ele>980.15</ele>
        <time>2021-10-27T07:52:00Z</time>
      </trkpt>
      <trkpt lat="44.10627" lon="6.84979">
        <ele>981.06</ele>
        <time>2021-10-27T07:52:06Z</time>
      </trkpt>
      <trkpt lat="44.1063" lon="6.84979">
        <ele>981.98</ele>
        <time>2021-10-27T07:52:11Z</time>
      </trkpt>
      <trkpt lat="44.10633" lon="6.8498">
        <ele>983.24</ele>
        <time>2021-10-27T07:52:17Z</time>
      </trkpt>
      <trkpt lat="44.10636" lon="6.84982">
        <ele>984.92</ele>
        <time>2021-10-27T07:52:22Z</time>
      </trkpt>
      <trkpt lat="44.10638" lon="6.84983">
        <ele>985.97</ele>
        <time>2021-10-27T07:52:37Z</time>
      </trkpt>
      <trkpt lat="44.1064" lon="6.84987">
        <ele>988.14</ele>
        <time>2021-10-27T07:52:44Z</time>
      </trkpt>
      <trkpt lat="44.10641" lon="6.84991">
        <ele>990.05</ele>
        <time>2021-10-27T07:52:47Z</time>
      </trkpt>
      <trkpt lat="44.10638" lon="6.84992">
        <ele>989.47</ele>
        <time>2021-10-27T07:53:11Z</time>
      </trkpt>
      <trkpt lat="44.10635" lon="6.84993">
        <ele>988.62</ele>
        <time>2021-10-27T07:53:16Z</time>
      </trkpt>
      <trkpt lat="44.10633" lon="6.84996">
        <ele>988.84</ele>
        <time>2021-10-27T07:53:19Z</time>
      </trkpt>
      <trkpt lat="44.10631" lon="6.84999">
        <ele>988.97</ele>
        <time>2021-10-27T07:53:22Z</time>
      </trkpt>
      <trkpt lat="44.10629" lon="6.85002">
        <ele>988.92</ele>
        <time>2021-10-27T07:53:25Z</time>
      </trkpt>
      <trkpt lat="44.10632" lon="6.85002">
        <ele>990.35</ele>
        <time>2021-10-27T07:53:33Z</time>
      </trkpt>
      <trkpt lat="44.10635" lon="6.85">
        <ele>991.18</ele>
        <time>2021-10-27T07:53:37Z</time>
      </trkpt>
      <trkpt lat="44.10637" lon="6.84998">
        <ele>991.35</ele>
        <time>2021-10-27T07:53:45Z</time>
      </trkpt>
      <trkpt lat="44.1064" lon="6.84997">
        <ele>992.19</ele>
        <time>2021-10-27T07:53:56Z</time>
      </trkpt>
      <trkpt lat="44.10643" lon="6.84999">
        <ele>994.05</ele>
        <time>2021-10-27T07:54:00Z</time>
      </trkpt>
      <trkpt lat="44.10645" lon="6.84997">
        <ele>993.87</ele>
        <time>2021-10-27T07:54:05Z</time>
      </trkpt>
      <trkpt lat="44.10649" lon="6.84994">
        <ele>993.79</ele>
        <time>2021-10-27T07:54:12Z</time>
      </trkpt>
      <trkpt lat="44.10651" lon="6.84993">
        <ele>993.93</ele>
        <time>2021-10-27T07:54:23Z</time>
      </trkpt>
      <trkpt lat="44.10654" lon="6.84996">
        <ele>996.39</ele>
        <time>2021-10-27T07:54:29Z</time>
      </trkpt>
      <trkpt lat="44.10655" lon="6.85001">
        <ele>999.04</ele>
        <time>2021-10-27T07:54:33Z</time>
      </trkpt>
      <trkpt lat="44.10655" lon="6.85005">
        <ele>1000</ele>
        <time>2021-10-27T07:54:39Z</time>
      </trkpt>
      <trkpt lat="44.10653" lon="6.85008">
        <ele>1000.09</ele>
        <time>2021-10-27T07:54:43Z</time>
      </trkpt>
      <trkpt lat="44.10653" lon="6.85013">
        <ele>1001.34</ele>
        <time>2021-10-27T07:54:59Z</time>
      </trkpt>
      <trkpt lat="44.10652" lon="6.85016">
        <ele>1001.82</ele>
        <time>2021-10-27T07:55:06Z</time>
      </trkpt>
      <trkpt lat="44.1065" lon="6.85019">
        <ele>1002.06</ele>
        <time>2021-10-27T07:55:15Z</time>
      </trkpt>
      <trkpt lat="44.10653" lon="6.85019">
        <ele>1002.85</ele>
        <time>2021-10-27T07:55:23Z</time>
      </trkpt>
      <trkpt lat="44.10656" lon="6.85018">
        <ele>1003.4</ele>
        <time>2021-10-27T07:55:28Z</time>
      </trkpt>
      <trkpt lat="44.10658" lon="6.85021">
        <ele>1004.6</ele>
        <time>2021-10-27T07:55:35Z</time>
      </trkpt>
      <trkpt lat="44.10661" lon="6.85022">
        <ele>1005.57</ele>
        <time>2021-10-27T07:55:56Z</time>
      </trkpt>
      <trkpt lat="44.10664" lon="6.85022">
        <ele>1006.3</ele>
        <time>2021-10-27T07:56:03Z</time>
      </trkpt>
      <trkpt lat="44.10666" lon="6.85024">
        <ele>1007.16</ele>
        <time>2021-10-27T07:56:11Z</time>
      </trkpt>
      <trkpt lat="44.10664" lon="6.85026">
        <ele>1007.08</ele>
        <time>2021-10-27T07:56:23Z</time>
      </trkpt>
      <trkpt lat="44.10661" lon="6.85026">
        <ele>1006.4</ele>
        <time>2021-10-27T07:56:35Z</time>
      </trkpt>
      <trkpt lat="44.10659" lon="6.85029">
        <ele>1006.74</ele>
        <time>2021-10-27T07:56:45Z</time>
      </trkpt>
      <trkpt lat="44.10662" lon="6.85028">
        <ele>1007.07</ele>
        <time>2021-10-27T07:56:57Z</time>
      </trkpt>
      <trkpt lat="44.10665" lon="6.8503">
        <ele>1008.42</ele>
        <time>2021-10-27T07:57:01Z</time>
      </trkpt>
      <trkpt lat="44.10664" lon="6.85034">
        <ele>1009.58</ele>
        <time>2021-10-27T07:57:18Z</time>
      </trkpt>
      <trkpt lat="44.10662" lon="6.85036">
        <ele>1009.75</ele>
        <time>2021-10-27T07:57:23Z</time>
      </trkpt>
      <trkpt lat="44.1066" lon="6.85039">
        <ele>1010.21</ele>
        <time>2021-10-27T07:57:29Z</time>
      </trkpt>
      <trkpt lat="44.10658" lon="6.85042">
        <ele>1010.61</ele>
        <time>2021-10-27T07:57:34Z</time>
      </trkpt>
      <trkpt lat="44.10657" lon="6.85046">
        <ele>1011.56</ele>
        <time>2021-10-27T07:57:38Z</time>
      </trkpt>
      <trkpt lat="44.10654" lon="6.85049">
        <ele>1011.51</ele>
        <time>2021-10-27T07:57:41Z</time>
      </trkpt>
      <trkpt lat="44.10652" lon="6.85048">
        <ele>1010.57</ele>
        <time>2021-10-27T07:57:46Z</time>
      </trkpt>
      <trkpt lat="44.10652" lon="6.85052">
        <ele>1011.71</ele>
        <time>2021-10-27T07:57:58Z</time>
      </trkpt>
      <trkpt lat="44.10652" lon="6.85056">
        <ele>1012.81</ele>
        <time>2021-10-27T07:58:07Z</time>
      </trkpt>
      <trkpt lat="44.10654" lon="6.85059">
        <ele>1014.15</ele>
        <time>2021-10-27T07:58:31Z</time>
      </trkpt>
      <trkpt lat="44.10651" lon="6.85059">
        <ele>1013</ele>
        <time>2021-10-27T07:59:21Z</time>
      </trkpt>
      <trkpt lat="44.10653" lon="6.85058">
        <ele>1013.57</ele>
        <time>2021-10-27T07:59:57Z</time>
      </trkpt>
      <trkpt lat="44.10652" lon="6.85061">
        <ele>1013.77</ele>
        <time>2021-10-27T08:01:18Z</time>
      </trkpt>
      <trkpt lat="44.10653" lon="6.85064">
        <ele>1014.76</ele>
        <time>2021-10-27T08:01:25Z</time>
      </trkpt>
      <trkpt lat="44.10656" lon="6.85065">
        <ele>1016.23</ele>
        <time>2021-10-27T08:01:30Z</time>
      </trkpt>
      <trkpt lat="44.10659" lon="6.85063">
        <ele>1017.01</ele>
        <time>2021-10-27T08:01:47Z</time>
      </trkpt>
      <trkpt lat="44.10661" lon="6.8506">
        <ele>1017.08</ele>
        <time>2021-10-27T08:01:54Z</time>
      </trkpt>
      <trkpt lat="44.10663" lon="6.85058">
        <ele>1017.33</ele>
        <time>2021-10-27T08:01:59Z</time>
      </trkpt>
      <trkpt lat="44.10667" lon="6.85055">
        <ele>1017.88</ele>
        <time>2021-10-27T08:02:03Z</time>
      </trkpt>
      <trkpt lat="44.10669" lon="6.85054">
        <ele>1018</ele>
        <time>2021-10-27T08:02:06Z</time>
      </trkpt>
      <trkpt lat="44.10672" lon="6.85055">
        <ele>1019.12</ele>
        <time>2021-10-27T08:02:10Z</time>
      </trkpt>
      <trkpt lat="44.10671" lon="6.85058">
        <ele>1019.82</ele>
        <time>2021-10-27T08:02:18Z</time>
      </trkpt>
      <trkpt lat="44.10668" lon="6.8506">
        <ele>1019.63</ele>
        <time>2021-10-27T08:02:20Z</time>
      </trkpt>
      <trkpt lat="44.10666" lon="6.85063">
        <ele>1019.87</ele>
        <time>2021-10-27T08:02:26Z</time>
      </trkpt>
      <trkpt lat="44.10665" lon="6.85066">
        <ele>1020.3</ele>
        <time>2021-10-27T08:02:31Z</time>
      </trkpt>
      <trkpt lat="44.10662" lon="6.85069">
        <ele>1019.79</ele>
        <time>2021-10-27T08:02:36Z</time>
      </trkpt>
      <trkpt lat="44.10661" lon="6.85073">
        <ele>1020.34</ele>
        <time>2021-10-27T08:02:41Z</time>
      </trkpt>
      <trkpt lat="44.10661" lon="6.85077">
        <ele>1021.35</ele>
        <time>2021-10-27T08:02:44Z</time>
      </trkpt>
      <trkpt lat="44.10661" lon="6.85081">
        <ele>1022.35</ele>
        <time>2021-10-27T08:02:48Z</time>
      </trkpt>
      <trkpt lat="44.10661" lon="6.85086">
        <ele>1023.7</ele>
        <time>2021-10-27T08:02:58Z</time>
      </trkpt>
      <trkpt lat="44.1066" lon="6.8509">
        <ele>1024.22</ele>
        <time>2021-10-27T08:03:02Z</time>
      </trkpt>
      <trkpt lat="44.10661" lon="6.85094">
        <ele>1026</ele>
        <time>2021-10-27T08:03:09Z</time>
      </trkpt>
      <trkpt lat="44.10661" lon="6.85098">
        <ele>1027.14</ele>
        <time>2021-10-27T08:03:17Z</time>
      </trkpt>
      <trkpt lat="44.10664" lon="6.85095">
        <ele>1028.36</ele>
        <time>2021-10-27T08:03:29Z</time>
      </trkpt>
      <trkpt lat="44.10667" lon="6.85093">
        <ele>1029.6</ele>
        <time>2021-10-27T08:03:33Z</time>
      </trkpt>
      <trkpt lat="44.1067" lon="6.85091">
        <ele>1029.97</ele>
        <time>2021-10-27T08:03:37Z</time>
      </trkpt>
      <trkpt lat="44.10672" lon="6.85089">
        <ele>1029.92</ele>
        <time>2021-10-27T08:03:44Z</time>
      </trkpt>
      <trkpt lat="44.10674" lon="6.85086">
        <ele>1029.44</ele>
        <time>2021-10-27T08:04:01Z</time>
      </trkpt>
      <trkpt lat="44.10676" lon="6.85083">
        <ele>1028.92</ele>
        <time>2021-10-27T08:04:13Z</time>
      </trkpt>
      <trkpt lat="44.10679" lon="6.85083">
        <ele>1029.89</ele>
        <time>2021-10-27T08:04:17Z</time>
      </trkpt>
      <trkpt lat="44.10682" lon="6.85082">
        <ele>1030.53</ele>
        <time>2021-10-27T08:04:22Z</time>
      </trkpt>
      <trkpt lat="44.10684" lon="6.85085">
        <ele>1032.37</ele>
        <time>2021-10-27T08:04:29Z</time>
      </trkpt>
      <trkpt lat="44.10682" lon="6.85087">
        <ele>1032.58</ele>
        <time>2021-10-27T08:04:34Z</time>
      </trkpt>
      <trkpt lat="44.10679" lon="6.85089">
        <ele>1032.4</ele>
        <time>2021-10-27T08:04:39Z</time>
      </trkpt>
      <trkpt lat="44.10678" lon="6.85092">
        <ele>1033.3</ele>
        <time>2021-10-27T08:04:44Z</time>
      </trkpt>
      <trkpt lat="44.10678" lon="6.85096">
        <ele>1034.98</ele>
        <time>2021-10-27T08:04:49Z</time>
      </trkpt>
      <trkpt lat="44.10677" lon="6.851">
        <ele>1036.24</ele>
        <time>2021-10-27T08:04:57Z</time>
      </trkpt>
      <trkpt lat="44.10679" lon="6.85103">
        <ele>1038.33</ele>
        <time>2021-10-27T08:05:10Z</time>
      </trkpt>
      <trkpt lat="44.10682" lon="6.85103">
        <ele>1039.61</ele>
        <time>2021-10-27T08:05:16Z</time>
      </trkpt>
      <trkpt lat="44.10682" lon="6.85107">
        <ele>1041.37</ele>
        <time>2021-10-27T08:05:30Z</time>
      </trkpt>
      <trkpt lat="44.10683" lon="6.85112">
        <ele>1043.63</ele>
        <time>2021-10-27T08:05:37Z</time>
      </trkpt>
      <trkpt lat="44.10684" lon="6.85116">
        <ele>1044.07</ele>
        <time>2021-10-27T08:05:42Z</time>
      </trkpt>
      <trkpt lat="44.10684" lon="6.8512">
        <ele>1044.03</ele>
        <time>2021-10-27T08:05:47Z</time>
      </trkpt>
      <trkpt lat="44.10685" lon="6.85124">
        <ele>1044.56</ele>
        <time>2021-10-27T08:05:53Z</time>
      </trkpt>
      <trkpt lat="44.10685" lon="6.85128">
        <ele>1044.56</ele>
        <time>2021-10-27T08:05:57Z</time>
      </trkpt>
      <trkpt lat="44.10685" lon="6.85132">
        <ele>1044.55</ele>
        <time>2021-10-27T08:06:04Z</time>
      </trkpt>
      <trkpt lat="44.10684" lon="6.85137">
        <ele>1043.87</ele>
        <time>2021-10-27T08:06:11Z</time>
      </trkpt>
      <trkpt lat="44.10685" lon="6.85141">
        <ele>1044.34</ele>
        <time>2021-10-27T08:06:15Z</time>
      </trkpt>
      <trkpt lat="44.10685" lon="6.85145">
        <ele>1043.95</ele>
        <time>2021-10-27T08:06:25Z</time>
      </trkpt>
      <trkpt lat="44.10685" lon="6.8515">
        <ele>1043.47</ele>
        <time>2021-10-27T08:06:29Z</time>
      </trkpt>
      <trkpt lat="44.10685" lon="6.85154">
        <ele>1043.08</ele>
        <time>2021-10-27T08:06:34Z</time>
      </trkpt>
      <trkpt lat="44.10685" lon="6.85158">
        <ele>1042.7</ele>
        <time>2021-10-27T08:06:44Z</time>
      </trkpt>
      <trkpt lat="44.10686" lon="6.85161">
        <ele>1043.15</ele>
        <time>2021-10-27T08:06:51Z</time>
      </trkpt>
      <trkpt lat="44.10686" lon="6.85166">
        <ele>1042.68</ele>
        <time>2021-10-27T08:06:54Z</time>
      </trkpt>
      <trkpt lat="44.10686" lon="6.85169">
        <ele>1042.09</ele>
        <time>2021-10-27T08:06:59Z</time>
      </trkpt>
      <trkpt lat="44.10687" lon="6.85173">
        <ele>1041.94</ele>
        <time>2021-10-27T08:07:04Z</time>
      </trkpt>
      <trkpt lat="44.1069" lon="6.85175">
        <ele>1043.79</ele>
        <time>2021-10-27T08:07:15Z</time>
      </trkpt>
      <trkpt lat="44.10692" lon="6.85174">
        <ele>1045.54</ele>
        <time>2021-10-27T08:07:24Z</time>
      </trkpt>
      <trkpt lat="44.10695" lon="6.85174">
        <ele>1047.55</ele>
        <time>2021-10-27T08:07:31Z</time>
      </trkpt>
      <trkpt lat="44.10697" lon="6.8517">
        <ele>1048.87</ele>
        <time>2021-10-27T08:07:35Z</time>
      </trkpt>
      <trkpt lat="44.10697" lon="6.85166">
        <ele>1049.6</ele>
        <time>2021-10-27T08:07:40Z</time>
      </trkpt>
      <trkpt lat="44.10696" lon="6.85162">
        <ele>1049.65</ele>
        <time>2021-10-27T08:07:48Z</time>
      </trkpt>
      <trkpt lat="44.10698" lon="6.85159">
        <ele>1050.25</ele>
        <time>2021-10-27T08:07:52Z</time>
      </trkpt>
      <trkpt lat="44.107" lon="6.85156">
        <ele>1050.81</ele>
        <time>2021-10-27T08:08:03Z</time>
      </trkpt>
      <trkpt lat="44.10702" lon="6.85152">
        <ele>1051.4</ele>
        <time>2021-10-27T08:08:11Z</time>
      </trkpt>
      <trkpt lat="44.10703" lon="6.85148">
        <ele>1051.78</ele>
        <time>2021-10-27T08:08:18Z</time>
      </trkpt>
      <trkpt lat="44.10704" lon="6.85145">
        <ele>1052.09</ele>
        <time>2021-10-27T08:08:25Z</time>
      </trkpt>
      <trkpt lat="44.10707" lon="6.85144">
        <ele>1052.61</ele>
        <time>2021-10-27T08:08:31Z</time>
      </trkpt>
      <trkpt lat="44.10707" lon="6.85139">
        <ele>1052.8</ele>
        <time>2021-10-27T08:08:42Z</time>
      </trkpt>
      <trkpt lat="44.10709" lon="6.85135">
        <ele>1052.52</ele>
        <time>2021-10-27T08:08:47Z</time>
      </trkpt>
      <trkpt lat="44.10712" lon="6.85132">
        <ele>1052.41</ele>
        <time>2021-10-27T08:08:51Z</time>
      </trkpt>
      <trkpt lat="44.10715" lon="6.85132">
        <ele>1052.73</ele>
        <time>2021-10-27T08:08:53Z</time>
      </trkpt>
      <trkpt lat="44.10718" lon="6.85133">
        <ele>1053.25</ele>
        <time>2021-10-27T08:08:57Z</time>
      </trkpt>
      <trkpt lat="44.1072" lon="6.85135">
        <ele>1053.88</ele>
        <time>2021-10-27T08:09:16Z</time>
      </trkpt>
      <trkpt lat="44.10723" lon="6.85133">
        <ele>1053.77</ele>
        <time>2021-10-27T08:09:21Z</time>
      </trkpt>
      <trkpt lat="44.10725" lon="6.85135">
        <ele>1054.29</ele>
        <time>2021-10-27T08:09:39Z</time>
      </trkpt>
      <trkpt lat="44.10724" lon="6.85139">
        <ele>1055.07</ele>
        <time>2021-10-27T08:09:52Z</time>
      </trkpt>
      <trkpt lat="44.10723" lon="6.85142">
        <ele>1055.04</ele>
        <time>2021-10-27T08:10:04Z</time>
      </trkpt>
      <trkpt lat="44.10723" lon="6.85146">
        <ele>1055.06</ele>
        <time>2021-10-27T08:10:14Z</time>
      </trkpt>
      <trkpt lat="44.10723" lon="6.8515">
        <ele>1055.07</ele>
        <time>2021-10-27T08:10:21Z</time>
      </trkpt>
      <trkpt lat="44.10722" lon="6.85154">
        <ele>1054.96</ele>
        <time>2021-10-27T08:10:27Z</time>
      </trkpt>
      <trkpt lat="44.10722" lon="6.85159">
        <ele>1054.96</ele>
        <time>2021-10-27T08:10:33Z</time>
      </trkpt>
      <trkpt lat="44.10722" lon="6.85162">
        <ele>1054.95</ele>
        <time>2021-10-27T08:10:37Z</time>
      </trkpt>
      <trkpt lat="44.10722" lon="6.85167">
        <ele>1054.92</ele>
        <time>2021-10-27T08:10:53Z</time>
      </trkpt>
      <trkpt lat="44.1072" lon="6.8517">
        <ele>1054.13</ele>
        <time>2021-10-27T08:11:02Z</time>
      </trkpt>
      <trkpt lat="44.10721" lon="6.85175">
        <ele>1053.8</ele>
        <time>2021-10-27T08:11:07Z</time>
      </trkpt>
      <trkpt lat="44.10722" lon="6.85179">
        <ele>1053.61</ele>
        <time>2021-10-27T08:11:14Z</time>
      </trkpt>
      <trkpt lat="44.10723" lon="6.85183">
        <ele>1053.43</ele>
        <time>2021-10-27T08:11:20Z</time>
      </trkpt>
      <trkpt lat="44.10724" lon="6.85186">
        <ele>1053.37</ele>
        <time>2021-10-27T08:11:28Z</time>
      </trkpt>
      <trkpt lat="44.10725" lon="6.8519">
        <ele>1053.23</ele>
        <time>2021-10-27T08:11:35Z</time>
      </trkpt>
      <trkpt lat="44.10727" lon="6.85193">
        <ele>1053.51</ele>
        <time>2021-10-27T08:11:42Z</time>
      </trkpt>
      <trkpt lat="44.10728" lon="6.85197">
        <ele>1053.13</ele>
        <time>2021-10-27T08:11:53Z</time>
      </trkpt>
      <trkpt lat="44.1073" lon="6.852">
        <ele>1053.1</ele>
        <time>2021-10-27T08:12:03Z</time>
      </trkpt>
      <trkpt lat="44.10732" lon="6.85202">
        <ele>1053.28</ele>
        <time>2021-10-27T08:12:11Z</time>
      </trkpt>
      <trkpt lat="44.10734" lon="6.85199">
        <ele>1054.48</ele>
        <time>2021-10-27T08:12:19Z</time>
      </trkpt>
      <trkpt lat="44.10735" lon="6.85196">
        <ele>1055.37</ele>
        <time>2021-10-27T08:12:23Z</time>
      </trkpt>
      <trkpt lat="44.10736" lon="6.85192">
        <ele>1056.1</ele>
        <time>2021-10-27T08:12:28Z</time>
      </trkpt>
      <trkpt lat="44.10736" lon="6.85187">
        <ele>1056.37</ele>
        <time>2021-10-27T08:12:34Z</time>
      </trkpt>
      <trkpt lat="44.10738" lon="6.85189">
        <ele>1056.8</ele>
        <time>2021-10-27T08:13:03Z</time>
      </trkpt>
      <trkpt lat="44.1074" lon="6.85185">
        <ele>1057.49</ele>
        <time>2021-10-27T08:13:17Z</time>
      </trkpt>
      <trkpt lat="44.10742" lon="6.85182">
        <ele>1058.08</ele>
        <time>2021-10-27T08:13:23Z</time>
      </trkpt>
      <trkpt lat="44.10744" lon="6.85179">
        <ele>1058.63</ele>
        <time>2021-10-27T08:13:42Z</time>
      </trkpt>
      <trkpt lat="44.10747" lon="6.85178">
        <ele>1059.33</ele>
        <time>2021-10-27T08:13:50Z</time>
      </trkpt>
      <trkpt lat="44.10748" lon="6.85181">
        <ele>1059.53</ele>
        <time>2021-10-27T08:13:59Z</time>
      </trkpt>
      <trkpt lat="44.10751" lon="6.85181">
        <ele>1060.45</ele>
        <time>2021-10-27T08:14:11Z</time>
      </trkpt>
      <trkpt lat="44.10748" lon="6.85179">
        <ele>1059.54</ele>
        <time>2021-10-27T08:14:54Z</time>
      </trkpt>
      <trkpt lat="44.10748" lon="6.85176">
        <ele>1059.57</ele>
        <time>2021-10-27T08:15:09Z</time>
      </trkpt>
      <trkpt lat="44.10751" lon="6.85176">
        <ele>1060.44</ele>
        <time>2021-10-27T08:16:24Z</time>
      </trkpt>
      <trkpt lat="44.10754" lon="6.85174">
        <ele>1061.77</ele>
        <time>2021-10-27T08:16:30Z</time>
      </trkpt>
      <trkpt lat="44.10756" lon="6.85173">
        <ele>1062.64</ele>
        <time>2021-10-27T08:16:32Z</time>
      </trkpt>
      <trkpt lat="44.10759" lon="6.85171">
        <ele>1063.94</ele>
        <time>2021-10-27T08:16:34Z</time>
      </trkpt>
      <trkpt lat="44.10761" lon="6.85169">
        <ele>1064.79</ele>
        <time>2021-10-27T08:16:37Z</time>
      </trkpt>
      <trkpt lat="44.10764" lon="6.85167">
        <ele>1066.05</ele>
        <time>2021-10-27T08:16:42Z</time>
      </trkpt>
      <trkpt lat="44.10767" lon="6.85169">
        <ele>1067.4</ele>
        <time>2021-10-27T08:16:51Z</time>
      </trkpt>
      <trkpt lat="44.1077" lon="6.85168">
        <ele>1068.67</ele>
        <time>2021-10-27T08:16:56Z</time>
      </trkpt>
      <trkpt lat="44.10773" lon="6.85168">
        <ele>1069.98</ele>
        <time>2021-10-27T08:17:03Z</time>
      </trkpt>
      <trkpt lat="44.10775" lon="6.85167">
        <ele>1070.81</ele>
        <time>2021-10-27T08:17:06Z</time>
      </trkpt>
      <trkpt lat="44.10778" lon="6.85165">
        <ele>1071.66</ele>
        <time>2021-10-27T08:17:13Z</time>
      </trkpt>
      <trkpt lat="44.10781" lon="6.85165">
        <ele>1072.73</ele>
        <time>2021-10-27T08:17:21Z</time>
      </trkpt>
      <trkpt lat="44.10784" lon="6.85166">
        <ele>1074.07</ele>
        <time>2021-10-27T08:17:24Z</time>
      </trkpt>
      <trkpt lat="44.10787" lon="6.85166">
        <ele>1075.14</ele>
        <time>2021-10-27T08:17:31Z</time>
      </trkpt>
      <trkpt lat="44.1079" lon="6.85163">
        <ele>1075.42</ele>
        <time>2021-10-27T08:17:37Z</time>
      </trkpt>
      <trkpt lat="44.10791" lon="6.85167">
        <ele>1076.79</ele>
        <time>2021-10-27T08:17:46Z</time>
      </trkpt>
      <trkpt lat="44.10791" lon="6.85171">
        <ele>1077.14</ele>
        <time>2021-10-27T08:17:49Z</time>
      </trkpt>
      <trkpt lat="44.10788" lon="6.85171">
        <ele>1076.01</ele>
        <time>2021-10-27T08:17:57Z</time>
      </trkpt>
      <trkpt lat="44.10791" lon="6.85172">
        <ele>1077.23</ele>
        <time>2021-10-27T08:18:34Z</time>
      </trkpt>
      <trkpt lat="44.10793" lon="6.85172">
        <ele>1077.99</ele>
        <time>2021-10-27T08:18:42Z</time>
      </trkpt>
      <trkpt lat="44.10797" lon="6.85173">
        <ele>1079.62</ele>
        <time>2021-10-27T08:18:47Z</time>
      </trkpt>
      <trkpt lat="44.10799" lon="6.85171">
        <ele>1080.15</ele>
        <time>2021-10-27T08:18:51Z</time>
      </trkpt>
      <trkpt lat="44.10802" lon="6.8517">
        <ele>1081.15</ele>
        <time>2021-10-27T08:19:04Z</time>
      </trkpt>
      <trkpt lat="44.10805" lon="6.85171">
        <ele>1082.41</ele>
        <time>2021-10-27T08:19:13Z</time>
      </trkpt>
      <trkpt lat="44.10808" lon="6.85172">
        <ele>1084.13</ele>
        <time>2021-10-27T08:19:18Z</time>
      </trkpt>
      <trkpt lat="44.10811" lon="6.85175">
        <ele>1086.16</ele>
        <time>2021-10-27T08:19:20Z</time>
      </trkpt>
      <trkpt lat="44.10813" lon="6.85177">
        <ele>1087.48</ele>
        <time>2021-10-27T08:19:24Z</time>
      </trkpt>
      <trkpt lat="44.10815" lon="6.85179">
        <ele>1088.76</ele>
        <time>2021-10-27T08:19:27Z</time>
      </trkpt>
      <trkpt lat="44.10818" lon="6.85183">
        <ele>1090.73</ele>
        <time>2021-10-27T08:19:30Z</time>
      </trkpt>
      <trkpt lat="44.10815" lon="6.85182">
        <ele>1089.08</ele>
        <time>2021-10-27T08:19:36Z</time>
      </trkpt>
      <trkpt lat="44.10817" lon="6.85182">
        <ele>1090.12</ele>
        <time>2021-10-27T08:19:53Z</time>
      </trkpt>
      <trkpt lat="44.10819" lon="6.85186">
        <ele>1091.52</ele>
        <time>2021-10-27T08:19:57Z</time>
      </trkpt>
      <trkpt lat="44.10822" lon="6.85188">
        <ele>1093.18</ele>
        <time>2021-10-27T08:20:02Z</time>
      </trkpt>
      <trkpt lat="44.10822" lon="6.85192">
        <ele>1093.5</ele>
        <time>2021-10-27T08:20:17Z</time>
      </trkpt>
      <trkpt lat="44.10821" lon="6.85195">
        <ele>1093.15</ele>
        <time>2021-10-27T08:20:23Z</time>
      </trkpt>
      <trkpt lat="44.1082" lon="6.85199">
        <ele>1092.17</ele>
        <time>2021-10-27T08:20:33Z</time>
      </trkpt>
      <trkpt lat="44.10817" lon="6.85202">
        <ele>1090.52</ele>
        <time>2021-10-27T08:20:38Z</time>
      </trkpt>
      <trkpt lat="44.10818" lon="6.85206">
        <ele>1090.48</ele>
        <time>2021-10-27T08:20:49Z</time>
      </trkpt>
      <trkpt lat="44.10821" lon="6.85206">
        <ele>1091.66</ele>
        <time>2021-10-27T08:20:52Z</time>
      </trkpt>
      <trkpt lat="44.10821" lon="6.85202">
        <ele>1092.2</ele>
        <time>2021-10-27T08:21:05Z</time>
      </trkpt>
      <trkpt lat="44.10824" lon="6.85204">
        <ele>1093.15</ele>
        <time>2021-10-27T08:21:11Z</time>
      </trkpt>
      <trkpt lat="44.10827" lon="6.85204">
        <ele>1094.36</ele>
        <time>2021-10-27T08:21:24Z</time>
      </trkpt>
      <trkpt lat="44.10829" lon="6.85205">
        <ele>1094.99</ele>
        <time>2021-10-27T08:21:30Z</time>
      </trkpt>
      <trkpt lat="44.10832" lon="6.85206">
        <ele>1095.98</ele>
        <time>2021-10-27T08:21:36Z</time>
      </trkpt>
      <trkpt lat="44.10835" lon="6.85207">
        <ele>1096.64</ele>
        <time>2021-10-27T08:21:40Z</time>
      </trkpt>
      <trkpt lat="44.10838" lon="6.85209">
        <ele>1096.87</ele>
        <time>2021-10-27T08:21:51Z</time>
      </trkpt>
      <trkpt lat="44.10841" lon="6.8521">
        <ele>1097.33</ele>
        <time>2021-10-27T08:21:56Z</time>
      </trkpt>
      <trkpt lat="44.10844" lon="6.8521">
        <ele>1097.99</ele>
        <time>2021-10-27T08:22:00Z</time>
      </trkpt>
      <trkpt lat="44.10847" lon="6.8521">
        <ele>1098.65</ele>
        <time>2021-10-27T08:22:08Z</time>
      </trkpt>
      <trkpt lat="44.10849" lon="6.85213">
        <ele>1098.57</ele>
        <time>2021-10-27T08:22:16Z</time>
      </trkpt>
      <trkpt lat="44.10851" lon="6.85215">
        <ele>1098.68</ele>
        <time>2021-10-27T08:22:24Z</time>
      </trkpt>
      <trkpt lat="44.10854" lon="6.85214">
        <ele>1099.54</ele>
        <time>2021-10-27T08:22:52Z</time>
      </trkpt>
      <trkpt lat="44.10857" lon="6.85215">
        <ele>1100.08</ele>
        <time>2021-10-27T08:22:57Z</time>
      </trkpt>
      <trkpt lat="44.1086" lon="6.85214">
        <ele>1100.93</ele>
        <time>2021-10-27T08:23:08Z</time>
      </trkpt>
      <trkpt lat="44.10863" lon="6.85213">
        <ele>1102.12</ele>
        <time>2021-10-27T08:23:17Z</time>
      </trkpt>
      <trkpt lat="44.10866" lon="6.85213">
        <ele>1103.38</ele>
        <time>2021-10-27T08:23:22Z</time>
      </trkpt>
      <trkpt lat="44.1087" lon="6.85213">
        <ele>1105.06</ele>
        <time>2021-10-27T08:23:27Z</time>
      </trkpt>
      <trkpt lat="44.10872" lon="6.85214">
        <ele>1105.82</ele>
        <time>2021-10-27T08:23:37Z</time>
      </trkpt>
      <trkpt lat="44.10875" lon="6.85214">
        <ele>1107.09</ele>
        <time>2021-10-27T08:23:45Z</time>
      </trkpt>
      <trkpt lat="44.10878" lon="6.85214">
        <ele>1108.37</ele>
        <time>2021-10-27T08:23:52Z</time>
      </trkpt>
      <trkpt lat="44.1088" lon="6.85211">
        <ele>1109.36</ele>
        <time>2021-10-27T08:23:57Z</time>
      </trkpt>
      <trkpt lat="44.10882" lon="6.85209">
        <ele>1110.25</ele>
        <time>2021-10-27T08:24:12Z</time>
      </trkpt>
      <trkpt lat="44.10884" lon="6.85206">
        <ele>1111.12</ele>
        <time>2021-10-27T08:24:19Z</time>
      </trkpt>
      <trkpt lat="44.10886" lon="6.85203">
        <ele>1111.94</ele>
        <time>2021-10-27T08:24:26Z</time>
      </trkpt>
      <trkpt lat="44.10888" lon="6.852">
        <ele>1112.69</ele>
        <time>2021-10-27T08:24:32Z</time>
      </trkpt>
      <trkpt lat="44.1089" lon="6.85197">
        <ele>1113.3</ele>
        <time>2021-10-27T08:24:34Z</time>
      </trkpt>
      <trkpt lat="44.10893" lon="6.85195">
        <ele>1114.05</ele>
        <time>2021-10-27T08:24:39Z</time>
      </trkpt>
      <trkpt lat="44.10896" lon="6.85195">
        <ele>1114.82</ele>
        <time>2021-10-27T08:24:50Z</time>
      </trkpt>
      <trkpt lat="44.10897" lon="6.85198">
        <ele>1115.27</ele>
        <time>2021-10-27T08:25:10Z</time>
      </trkpt>
      <trkpt lat="44.10896" lon="6.85202">
        <ele>1115.21</ele>
        <time>2021-10-27T08:25:17Z</time>
      </trkpt>
      <trkpt lat="44.10897" lon="6.85206">
        <ele>1115.77</ele>
        <time>2021-10-27T08:25:23Z</time>
      </trkpt>
      <trkpt lat="44.10899" lon="6.85209">
        <ele>1116.69</ele>
        <time>2021-10-27T08:25:36Z</time>
      </trkpt>
      <trkpt lat="44.10898" lon="6.85213">
        <ele>1116.61</ele>
        <time>2021-10-27T08:25:52Z</time>
      </trkpt>
      <trkpt lat="44.10897" lon="6.85208">
        <ele>1115.9</ele>
        <time>2021-10-27T08:26:05Z</time>
      </trkpt>
      <trkpt lat="44.10899" lon="6.8521">
        <ele>1116.77</ele>
        <time>2021-10-27T08:26:44Z</time>
      </trkpt>
      <trkpt lat="44.10901" lon="6.85213">
        <ele>1117.8</ele>
        <time>2021-10-27T08:26:47Z</time>
      </trkpt>
      <trkpt lat="44.10903" lon="6.85217">
        <ele>1119.03</ele>
        <time>2021-10-27T08:26:51Z</time>
      </trkpt>
      <trkpt lat="44.10905" lon="6.85216">
        <ele>1119.76</ele>
        <time>2021-10-27T08:26:57Z</time>
      </trkpt>
      <trkpt lat="44.10908" lon="6.85215">
        <ele>1120.87</ele>
        <time>2021-10-27T08:27:05Z</time>
      </trkpt>
      <trkpt lat="44.1091" lon="6.85212">
        <ele>1121.2</ele>
        <time>2021-10-27T08:27:12Z</time>
      </trkpt>
      <trkpt lat="44.10913" lon="6.85212">
        <ele>1122.37</ele>
        <time>2021-10-27T08:27:21Z</time>
      </trkpt>
      <trkpt lat="44.10916" lon="6.85212">
        <ele>1123.53</ele>
        <time>2021-10-27T08:27:27Z</time>
      </trkpt>
      <trkpt lat="44.10918" lon="6.85213">
        <ele>1124.65</ele>
        <time>2021-10-27T08:27:33Z</time>
      </trkpt>
      <trkpt lat="44.10921" lon="6.85214">
        <ele>1126.3</ele>
        <time>2021-10-27T08:27:36Z</time>
      </trkpt>
      <trkpt lat="44.10922" lon="6.85218">
        <ele>1127.61</ele>
        <time>2021-10-27T08:27:41Z</time>
      </trkpt>
      <trkpt lat="44.10925" lon="6.8522">
        <ele>1129.44</ele>
        <time>2021-10-27T08:27:52Z</time>
      </trkpt>
      <trkpt lat="44.10928" lon="6.85221">
        <ele>1131.06</ele>
        <time>2021-10-27T08:28:00Z</time>
      </trkpt>
      <trkpt lat="44.1093" lon="6.85224">
        <ele>1132.05</ele>
        <time>2021-10-27T08:28:17Z</time>
      </trkpt>
      <trkpt lat="44.10933" lon="6.85226">
        <ele>1133.21</ele>
        <time>2021-10-27T08:28:23Z</time>
      </trkpt>
      <trkpt lat="44.10935" lon="6.85228">
        <ele>1133.89</ele>
        <time>2021-10-27T08:28:27Z</time>
      </trkpt>
      <trkpt lat="44.10937" lon="6.85231">
        <ele>1134.42</ele>
        <time>2021-10-27T08:28:30Z</time>
      </trkpt>
      <trkpt lat="44.1094" lon="6.85233">
        <ele>1135.49</ele>
        <time>2021-10-27T08:28:33Z</time>
      </trkpt>
      <trkpt lat="44.10942" lon="6.85236">
        <ele>1135.96</ele>
        <time>2021-10-27T08:28:39Z</time>
      </trkpt>
      <trkpt lat="44.10944" lon="6.85239">
        <ele>1136.4</ele>
        <time>2021-10-27T08:28:51Z</time>
      </trkpt>
      <trkpt lat="44.10947" lon="6.8524">
        <ele>1137.02</ele>
        <time>2021-10-27T08:28:55Z</time>
      </trkpt>
      <trkpt lat="44.1095" lon="6.8524">
        <ele>1137.7</ele>
        <time>2021-10-27T08:29:00Z</time>
      </trkpt>
      <trkpt lat="44.10953" lon="6.8524">
        <ele>1138.37</ele>
        <time>2021-10-27T08:29:04Z</time>
      </trkpt>
      <trkpt lat="44.10956" lon="6.85239">
        <ele>1139.17</ele>
        <time>2021-10-27T08:29:13Z</time>
      </trkpt>
      <trkpt lat="44.10958" lon="6.85238">
        <ele>1139.72</ele>
        <time>2021-10-27T08:29:20Z</time>
      </trkpt>
      <trkpt lat="44.10961" lon="6.85236">
        <ele>1140.59</ele>
        <time>2021-10-27T08:29:27Z</time>
      </trkpt>
      <trkpt lat="44.10964" lon="6.85236">
        <ele>1141.23</ele>
        <time>2021-10-27T08:29:31Z</time>
      </trkpt>
      <trkpt lat="44.10967" lon="6.85236">
        <ele>1141.88</ele>
        <time>2021-10-27T08:29:35Z</time>
      </trkpt>
      <trkpt lat="44.1097" lon="6.85237">
        <ele>1142.45</ele>
        <time>2021-10-27T08:29:39Z</time>
      </trkpt>
      <trkpt lat="44.10973" lon="6.85238">
        <ele>1143.1</ele>
        <time>2021-10-27T08:29:46Z</time>
      </trkpt>
      <trkpt lat="44.10976" lon="6.85236">
        <ele>1144.16</ele>
        <time>2021-10-27T08:29:51Z</time>
      </trkpt>
      <trkpt lat="44.10979" lon="6.85235">
        <ele>1145.14</ele>
        <time>2021-10-27T08:29:56Z</time>
      </trkpt>
      <trkpt lat="44.10981" lon="6.85232">
        <ele>1145.94</ele>
        <time>2021-10-27T08:30:03Z</time>
      </trkpt>
      <trkpt lat="44.10984" lon="6.8523">
        <ele>1146.95</ele>
        <time>2021-10-27T08:30:08Z</time>
      </trkpt>
      <trkpt lat="44.10986" lon="6.85228">
        <ele>1147.66</ele>
        <time>2021-10-27T08:30:12Z</time>
      </trkpt>
      <trkpt lat="44.10989" lon="6.85226">
        <ele>1148.64</ele>
        <time>2021-10-27T08:30:17Z</time>
      </trkpt>
      <trkpt lat="44.10992" lon="6.85226">
        <ele>1149.52</ele>
        <time>2021-10-27T08:30:19Z</time>
      </trkpt>
      <trkpt lat="44.10995" lon="6.85225">
        <ele>1150.44</ele>
        <time>2021-10-27T08:30:23Z</time>
      </trkpt>
      <trkpt lat="44.10998" lon="6.85225">
        <ele>1151.32</ele>
        <time>2021-10-27T08:30:27Z</time>
      </trkpt>
      <trkpt lat="44.11001" lon="6.85224">
        <ele>1152.4</ele>
        <time>2021-10-27T08:30:35Z</time>
      </trkpt>
      <trkpt lat="44.11004" lon="6.85224">
        <ele>1153.79</ele>
        <time>2021-10-27T08:30:42Z</time>
      </trkpt>
      <trkpt lat="44.11007" lon="6.85224">
        <ele>1155.18</ele>
        <time>2021-10-27T08:30:46Z</time>
      </trkpt>
      <trkpt lat="44.11009" lon="6.85225">
        <ele>1156.05</ele>
        <time>2021-10-27T08:30:54Z</time>
      </trkpt>
      <trkpt lat="44.11012" lon="6.85226">
        <ele>1157.36</ele>
        <time>2021-10-27T08:31:03Z</time>
      </trkpt>
      <trkpt lat="44.11015" lon="6.85227">
        <ele>1158.66</ele>
        <time>2021-10-27T08:31:08Z</time>
      </trkpt>
      <trkpt lat="44.11018" lon="6.85229">
        <ele>1159.86</ele>
        <time>2021-10-27T08:31:12Z</time>
      </trkpt>
      <trkpt lat="44.11021" lon="6.8523">
        <ele>1161.12</ele>
        <time>2021-10-27T08:31:15Z</time>
      </trkpt>
      <trkpt lat="44.11025" lon="6.85231">
        <ele>1162.82</ele>
        <time>2021-10-27T08:31:25Z</time>
      </trkpt>
      <trkpt lat="44.11027" lon="6.85232">
        <ele>1163.6</ele>
        <time>2021-10-27T08:31:28Z</time>
      </trkpt>
      <trkpt lat="44.11031" lon="6.85234">
        <ele>1164.84</ele>
        <time>2021-10-27T08:31:36Z</time>
      </trkpt>
      <trkpt lat="44.11035" lon="6.85237">
        <ele>1165.87</ele>
        <time>2021-10-27T08:31:38Z</time>
      </trkpt>
      <trkpt lat="44.11037" lon="6.85238">
        <ele>1166.43</ele>
        <time>2021-10-27T08:32:03Z</time>
      </trkpt>
      <trkpt lat="44.1104" lon="6.8524">
        <ele>1167.2</ele>
        <time>2021-10-27T08:32:08Z</time>
      </trkpt>
      <trkpt lat="44.11042" lon="6.85243">
        <ele>1167.49</ele>
        <time>2021-10-27T08:32:14Z</time>
      </trkpt>
      <trkpt lat="44.11044" lon="6.85245">
        <ele>1167.9</ele>
        <time>2021-10-27T08:32:20Z</time>
      </trkpt>
      <trkpt lat="44.11047" lon="6.85248">
        <ele>1168.49</ele>
        <time>2021-10-27T08:32:23Z</time>
      </trkpt>
      <trkpt lat="44.11049" lon="6.8525">
        <ele>1168.88</ele>
        <time>2021-10-27T08:32:27Z</time>
      </trkpt>
      <trkpt lat="44.11051" lon="6.85253">
        <ele>1168.73</ele>
        <time>2021-10-27T08:32:33Z</time>
      </trkpt>
      <trkpt lat="44.11053" lon="6.85255">
        <ele>1168.8</ele>
        <time>2021-10-27T08:32:41Z</time>
      </trkpt>
      <trkpt lat="44.11056" lon="6.85257">
        <ele>1169.12</ele>
        <time>2021-10-27T08:32:50Z</time>
      </trkpt>
      <trkpt lat="44.11058" lon="6.85258">
        <ele>1169.46</ele>
        <time>2021-10-27T08:33:00Z</time>
      </trkpt>
      <trkpt lat="44.11061" lon="6.85261">
        <ele>1169.52</ele>
        <time>2021-10-27T08:33:08Z</time>
      </trkpt>
      <trkpt lat="44.11064" lon="6.8526">
        <ele>1170.75</ele>
        <time>2021-10-27T08:34:51Z</time>
      </trkpt>
      <trkpt lat="44.11063" lon="6.85256">
        <ele>1171.63</ele>
        <time>2021-10-27T08:35:26Z</time>
      </trkpt>
      <trkpt lat="44.11064" lon="6.85259">
        <ele>1171.05</ele>
        <time>2021-10-27T08:35:35Z</time>
      </trkpt>
      <trkpt lat="44.11064" lon="6.85255">
        <ele>1172.24</ele>
        <time>2021-10-27T08:37:17Z</time>
      </trkpt>
      <trkpt lat="44.11061" lon="6.85256">
        <ele>1170.99</ele>
        <time>2021-10-27T08:37:27Z</time>
      </trkpt>
      <trkpt lat="44.11063" lon="6.85258">
        <ele>1171.03</ele>
        <time>2021-10-27T08:38:22Z</time>
      </trkpt>
      <trkpt lat="44.11065" lon="6.85261">
        <ele>1170.76</ele>
        <time>2021-10-27T08:38:46Z</time>
      </trkpt>
      <trkpt lat="44.11063" lon="6.85264">
        <ele>1169.24</ele>
        <time>2021-10-27T08:40:37Z</time>
      </trkpt>
      <trkpt lat="44.11066" lon="6.85263">
        <ele>1170.46</ele>
        <time>2021-10-27T08:41:40Z</time>
      </trkpt>
      <trkpt lat="44.11065" lon="6.85267">
        <ele>1168.96</ele>
        <time>2021-10-27T08:43:08Z</time>
      </trkpt>
      <trkpt lat="44.11064" lon="6.85263">
        <ele>1169.85</ele>
        <time>2021-10-27T08:44:29Z</time>
      </trkpt>
      <trkpt lat="44.11065" lon="6.85267">
        <ele>1168.96</ele>
        <time>2021-10-27T08:46:44Z</time>
      </trkpt>
      <trkpt lat="44.11067" lon="6.85268">
        <ele>1169.26</ele>
        <time>2021-10-27T08:47:08Z</time>
      </trkpt>
      <trkpt lat="44.11069" lon="6.8527">
        <ele>1169.25</ele>
        <time>2021-10-27T08:47:14Z</time>
      </trkpt>
      <trkpt lat="44.11073" lon="6.85272">
        <ele>1169.82</ele>
        <time>2021-10-27T08:47:21Z</time>
      </trkpt>
      <trkpt lat="44.11076" lon="6.85273">
        <ele>1170.39</ele>
        <time>2021-10-27T08:47:26Z</time>
      </trkpt>
      <trkpt lat="44.11078" lon="6.85275">
        <ele>1170.34</ele>
        <time>2021-10-27T08:47:39Z</time>
      </trkpt>
      <trkpt lat="44.1108" lon="6.85279">
        <ele>1169.84</ele>
        <time>2021-10-27T08:47:43Z</time>
      </trkpt>
      <trkpt lat="44.11082" lon="6.85282">
        <ele>1169.98</ele>
        <time>2021-10-27T08:47:58Z</time>
      </trkpt>
      <trkpt lat="44.11084" lon="6.85285">
        <ele>1170.27</ele>
        <time>2021-10-27T08:48:04Z</time>
      </trkpt>
      <trkpt lat="44.11087" lon="6.85286">
        <ele>1171.52</ele>
        <time>2021-10-27T08:48:09Z</time>
      </trkpt>
      <trkpt lat="44.11089" lon="6.85288">
        <ele>1172.2</ele>
        <time>2021-10-27T08:48:16Z</time>
      </trkpt>
      <trkpt lat="44.1109" lon="6.85292">
        <ele>1172.2</ele>
        <time>2021-10-27T08:48:22Z</time>
      </trkpt>
      <trkpt lat="44.11093" lon="6.85294">
        <ele>1173.45</ele>
        <time>2021-10-27T08:48:31Z</time>
      </trkpt>
      <trkpt lat="44.11095" lon="6.85292">
        <ele>1174.64</ele>
        <time>2021-10-27T08:48:36Z</time>
      </trkpt>
      <trkpt lat="44.11096" lon="6.85289">
        <ele>1175.41</ele>
        <time>2021-10-27T08:48:40Z</time>
      </trkpt>
      <trkpt lat="44.11099" lon="6.85286">
        <ele>1177.08</ele>
        <time>2021-10-27T08:48:46Z</time>
      </trkpt>
      <trkpt lat="44.111" lon="6.85282">
        <ele>1177.87</ele>
        <time>2021-10-27T08:48:49Z</time>
      </trkpt>
      <trkpt lat="44.11102" lon="6.85278">
        <ele>1179.05</ele>
        <time>2021-10-27T08:48:53Z</time>
      </trkpt>
      <trkpt lat="44.11103" lon="6.85274">
        <ele>1180.53</ele>
        <time>2021-10-27T08:49:02Z</time>
      </trkpt>
      <trkpt lat="44.11103" lon="6.8527">
        <ele>1181.62</ele>
        <time>2021-10-27T08:49:14Z</time>
      </trkpt>
      <trkpt lat="44.11105" lon="6.85267">
        <ele>1183.25</ele>
        <time>2021-10-27T08:49:18Z</time>
      </trkpt>
      <trkpt lat="44.11106" lon="6.85263">
        <ele>1184.71</ele>
        <time>2021-10-27T08:49:29Z</time>
      </trkpt>
      <trkpt lat="44.11106" lon="6.85259">
        <ele>1185.77</ele>
        <time>2021-10-27T08:49:37Z</time>
      </trkpt>
      <trkpt lat="44.11108" lon="6.85256">
        <ele>1187.32</ele>
        <time>2021-10-27T08:49:41Z</time>
      </trkpt>
      <trkpt lat="44.11108" lon="6.85252">
        <ele>1188.36</ele>
        <time>2021-10-27T08:49:45Z</time>
      </trkpt>
      <trkpt lat="44.11111" lon="6.85252">
        <ele>1189.46</ele>
        <time>2021-10-27T08:49:57Z</time>
      </trkpt>
      <trkpt lat="44.11113" lon="6.85254">
        <ele>1189.74</ele>
        <time>2021-10-27T08:50:02Z</time>
      </trkpt>
      <trkpt lat="44.11115" lon="6.85257">
        <ele>1189.78</ele>
        <time>2021-10-27T08:50:09Z</time>
      </trkpt>
      <trkpt lat="44.11117" lon="6.8526">
        <ele>1189.81</ele>
        <time>2021-10-27T08:50:12Z</time>
      </trkpt>
      <trkpt lat="44.11119" lon="6.85263">
        <ele>1189.85</ele>
        <time>2021-10-27T08:50:17Z</time>
      </trkpt>
      <trkpt lat="44.1112" lon="6.85266">
        <ele>1189.49</ele>
        <time>2021-10-27T08:50:22Z</time>
      </trkpt>
      <trkpt lat="44.11123" lon="6.85271">
        <ele>1189.42</ele>
        <time>2021-10-27T08:50:29Z</time>
      </trkpt>
      <trkpt lat="44.11124" lon="6.85275">
        <ele>1188.8</ele>
        <time>2021-10-27T08:50:33Z</time>
      </trkpt>
      <trkpt lat="44.11125" lon="6.85279">
        <ele>1188.39</ele>
        <time>2021-10-27T08:50:37Z</time>
      </trkpt>
      <trkpt lat="44.11124" lon="6.85282">
        <ele>1187.74</ele>
        <time>2021-10-27T08:50:51Z</time>
      </trkpt>
      <trkpt lat="44.11125" lon="6.85286">
        <ele>1187.76</ele>
        <time>2021-10-27T08:50:56Z</time>
      </trkpt>
      <trkpt lat="44.11127" lon="6.8529">
        <ele>1188.1</ele>
        <time>2021-10-27T08:51:00Z</time>
      </trkpt>
      <trkpt lat="44.11128" lon="6.85294">
        <ele>1188.04</ele>
        <time>2021-10-27T08:51:03Z</time>
      </trkpt>
      <trkpt lat="44.11128" lon="6.85298">
        <ele>1187.63</ele>
        <time>2021-10-27T08:51:10Z</time>
      </trkpt>
      <trkpt lat="44.1113" lon="6.85301">
        <ele>1187.94</ele>
        <time>2021-10-27T08:51:16Z</time>
      </trkpt>
      <trkpt lat="44.11132" lon="6.85299">
        <ele>1188.78</ele>
        <time>2021-10-27T08:51:28Z</time>
      </trkpt>
      <trkpt lat="44.11134" lon="6.85296">
        <ele>1189.79</ele>
        <time>2021-10-27T08:51:37Z</time>
      </trkpt>
      <trkpt lat="44.11136" lon="6.85293">
        <ele>1190.83</ele>
        <time>2021-10-27T08:51:44Z</time>
      </trkpt>
      <trkpt lat="44.11138" lon="6.8529">
        <ele>1191.93</ele>
        <time>2021-10-27T08:51:51Z</time>
      </trkpt>
      <trkpt lat="44.1114" lon="6.85286">
        <ele>1193.16</ele>
        <time>2021-10-27T08:51:54Z</time>
      </trkpt>
      <trkpt lat="44.11142" lon="6.85283">
        <ele>1194.19</ele>
        <time>2021-10-27T08:51:57Z</time>
      </trkpt>
      <trkpt lat="44.11143" lon="6.85279">
        <ele>1195.02</ele>
        <time>2021-10-27T08:52:01Z</time>
      </trkpt>
      <trkpt lat="44.11144" lon="6.85275">
        <ele>1196.14</ele>
        <time>2021-10-27T08:52:10Z</time>
      </trkpt>
      <trkpt lat="44.11146" lon="6.85275">
        <ele>1196.7</ele>
        <time>2021-10-27T08:52:16Z</time>
      </trkpt>
      <trkpt lat="44.11148" lon="6.85278">
        <ele>1196.6</ele>
        <time>2021-10-27T08:52:24Z</time>
      </trkpt>
      <trkpt lat="44.11149" lon="6.85282">
        <ele>1196.41</ele>
        <time>2021-10-27T08:52:29Z</time>
      </trkpt>
      <trkpt lat="44.11151" lon="6.85286">
        <ele>1196.56</ele>
        <time>2021-10-27T08:52:33Z</time>
      </trkpt>
      <trkpt lat="44.11153" lon="6.85288">
        <ele>1196.97</ele>
        <time>2021-10-27T08:52:36Z</time>
      </trkpt>
      <trkpt lat="44.11155" lon="6.85291">
        <ele>1197.29</ele>
        <time>2021-10-27T08:52:41Z</time>
      </trkpt>
      <trkpt lat="44.11157" lon="6.85293">
        <ele>1197.74</ele>
        <time>2021-10-27T08:52:46Z</time>
      </trkpt>
      <trkpt lat="44.11159" lon="6.85297">
        <ele>1198.03</ele>
        <time>2021-10-27T08:52:54Z</time>
      </trkpt>
      <trkpt lat="44.11161" lon="6.85301">
        <ele>1198.35</ele>
        <time>2021-10-27T08:52:57Z</time>
      </trkpt>
      <trkpt lat="44.11163" lon="6.85303">
        <ele>1198.89</ele>
        <time>2021-10-27T08:53:01Z</time>
      </trkpt>
      <trkpt lat="44.11166" lon="6.85304">
        <ele>1199.87</ele>
        <time>2021-10-27T08:53:12Z</time>
      </trkpt>
      <trkpt lat="44.11169" lon="6.85304">
        <ele>1201.26</ele>
        <time>2021-10-27T08:53:18Z</time>
      </trkpt>
      <trkpt lat="44.11172" lon="6.85304">
        <ele>1202.72</ele>
        <time>2021-10-27T08:53:25Z</time>
      </trkpt>
      <trkpt lat="44.11174" lon="6.85303">
        <ele>1203.71</ele>
        <time>2021-10-27T08:53:28Z</time>
      </trkpt>
      <trkpt lat="44.11177" lon="6.85301">
        <ele>1205.11</ele>
        <time>2021-10-27T08:53:33Z</time>
      </trkpt>
      <trkpt lat="44.1118" lon="6.85299">
        <ele>1206.4</ele>
        <time>2021-10-27T08:53:39Z</time>
      </trkpt>
      <trkpt lat="44.11182" lon="6.85298">
        <ele>1207.22</ele>
        <time>2021-10-27T08:53:42Z</time>
      </trkpt>
      <trkpt lat="44.11185" lon="6.85296">
        <ele>1208.34</ele>
        <time>2021-10-27T08:53:53Z</time>
      </trkpt>
      <trkpt lat="44.11187" lon="6.85294">
        <ele>1208.95</ele>
        <time>2021-10-27T08:54:04Z</time>
      </trkpt>
      <trkpt lat="44.1119" lon="6.85292">
        <ele>1209.87</ele>
        <time>2021-10-27T08:54:16Z</time>
      </trkpt>
      <trkpt lat="44.11193" lon="6.85293">
        <ele>1211.18</ele>
        <time>2021-10-27T08:54:20Z</time>
      </trkpt>
      <trkpt lat="44.11196" lon="6.85292">
        <ele>1212.09</ele>
        <time>2021-10-27T08:54:26Z</time>
      </trkpt>
      <trkpt lat="44.11199" lon="6.85294">
        <ele>1213.46</ele>
        <time>2021-10-27T08:54:31Z</time>
      </trkpt>
      <trkpt lat="44.11202" lon="6.85295">
        <ele>1214.65</ele>
        <time>2021-10-27T08:54:35Z</time>
      </trkpt>
      <trkpt lat="44.11204" lon="6.85297">
        <ele>1215.66</ele>
        <time>2021-10-27T08:54:38Z</time>
      </trkpt>
      <trkpt lat="44.11208" lon="6.85298">
        <ele>1217.16</ele>
        <time>2021-10-27T08:54:41Z</time>
      </trkpt>
      <trkpt lat="44.1121" lon="6.853">
        <ele>1218.15</ele>
        <time>2021-10-27T08:54:45Z</time>
      </trkpt>
      <trkpt lat="44.11213" lon="6.85302">
        <ele>1219.46</ele>
        <time>2021-10-27T08:54:50Z</time>
      </trkpt>
      <trkpt lat="44.11216" lon="6.85304">
        <ele>1220.75</ele>
        <time>2021-10-27T08:54:54Z</time>
      </trkpt>
      <trkpt lat="44.11218" lon="6.85307">
        <ele>1221.62</ele>
        <time>2021-10-27T08:55:04Z</time>
      </trkpt>
      <trkpt lat="44.11221" lon="6.85309">
        <ele>1222.59</ele>
        <time>2021-10-27T08:55:08Z</time>
      </trkpt>
      <trkpt lat="44.11224" lon="6.85309">
        <ele>1223.56</ele>
        <time>2021-10-27T08:55:15Z</time>
      </trkpt>
      <trkpt lat="44.11227" lon="6.85309">
        <ele>1224.51</ele>
        <time>2021-10-27T08:55:20Z</time>
      </trkpt>
      <trkpt lat="44.11229" lon="6.8531">
        <ele>1225.12</ele>
        <time>2021-10-27T08:55:26Z</time>
      </trkpt>
      <trkpt lat="44.11232" lon="6.85311">
        <ele>1226.03</ele>
        <time>2021-10-27T08:55:31Z</time>
      </trkpt>
      <trkpt lat="44.11235" lon="6.85313">
        <ele>1226.89</ele>
        <time>2021-10-27T08:55:36Z</time>
      </trkpt>
      <trkpt lat="44.11237" lon="6.85316">
        <ele>1227.39</ele>
        <time>2021-10-27T08:55:40Z</time>
      </trkpt>
      <trkpt lat="44.1124" lon="6.85317">
        <ele>1228.23</ele>
        <time>2021-10-27T08:55:43Z</time>
      </trkpt>
      <trkpt lat="44.11242" lon="6.8532">
        <ele>1228.67</ele>
        <time>2021-10-27T08:55:49Z</time>
      </trkpt>
      <trkpt lat="44.11245" lon="6.85321">
        <ele>1229.47</ele>
        <time>2021-10-27T08:55:53Z</time>
      </trkpt>
      <trkpt lat="44.11248" lon="6.85323">
        <ele>1230.19</ele>
        <time>2021-10-27T08:55:56Z</time>
      </trkpt>
      <trkpt lat="44.11251" lon="6.85325">
        <ele>1230.67</ele>
        <time>2021-10-27T08:55:58Z</time>
      </trkpt>
      <trkpt lat="44.11253" lon="6.85327">
        <ele>1230.67</ele>
        <time>2021-10-27T08:56:05Z</time>
      </trkpt>
      <trkpt lat="44.11256" lon="6.85329">
        <ele>1230.74</ele>
        <time>2021-10-27T08:56:12Z</time>
      </trkpt>
      <trkpt lat="44.11259" lon="6.8533">
        <ele>1230.89</ele>
        <time>2021-10-27T08:56:17Z</time>
      </trkpt>
      <trkpt lat="44.11262" lon="6.85331">
        <ele>1231.03</ele>
        <time>2021-10-27T08:56:24Z</time>
      </trkpt>
      <trkpt lat="44.11265" lon="6.8533">
        <ele>1231.32</ele>
        <time>2021-10-27T08:56:28Z</time>
      </trkpt>
      <trkpt lat="44.11268" lon="6.85328">
        <ele>1231.68</ele>
        <time>2021-10-27T08:56:32Z</time>
      </trkpt>
      <trkpt lat="44.11271" lon="6.85325">
        <ele>1232.11</ele>
        <time>2021-10-27T08:56:34Z</time>
      </trkpt>
      <trkpt lat="44.11272" lon="6.85322">
        <ele>1232.4</ele>
        <time>2021-10-27T08:56:37Z</time>
      </trkpt>
      <trkpt lat="44.11274" lon="6.85318">
        <ele>1232.83</ele>
        <time>2021-10-27T08:56:41Z</time>
      </trkpt>
      <trkpt lat="44.11276" lon="6.85314">
        <ele>1233.26</ele>
        <time>2021-10-27T08:56:44Z</time>
      </trkpt>
      <trkpt lat="44.11279" lon="6.85313">
        <ele>1233.71</ele>
        <time>2021-10-27T08:56:52Z</time>
      </trkpt>
      <trkpt lat="44.11282" lon="6.85314">
        <ele>1234.22</ele>
        <time>2021-10-27T08:56:55Z</time>
      </trkpt>
      <trkpt lat="44.11284" lon="6.85316">
        <ele>1234.39</ele>
        <time>2021-10-27T08:56:58Z</time>
      </trkpt>
      <trkpt lat="44.11286" lon="6.85319">
        <ele>1234.39</ele>
        <time>2021-10-27T08:57:06Z</time>
      </trkpt>
      <trkpt lat="44.11288" lon="6.85322">
        <ele>1234.3</ele>
        <time>2021-10-27T08:57:16Z</time>
      </trkpt>
      <trkpt lat="44.11291" lon="6.85323">
        <ele>1234.58</ele>
        <time>2021-10-27T08:57:21Z</time>
      </trkpt>
      <trkpt lat="44.11294" lon="6.85324">
        <ele>1234.82</ele>
        <time>2021-10-27T08:57:25Z</time>
      </trkpt>
      <trkpt lat="44.11297" lon="6.85325">
        <ele>1235.02</ele>
        <time>2021-10-27T08:57:30Z</time>
      </trkpt>
      <trkpt lat="44.113" lon="6.85327">
        <ele>1234.97</ele>
        <time>2021-10-27T08:57:33Z</time>
      </trkpt>
      <trkpt lat="44.11303" lon="6.85329">
        <ele>1234.84</ele>
        <time>2021-10-27T08:57:39Z</time>
      </trkpt>
      <trkpt lat="44.11304" lon="6.85332">
        <ele>1234.21</ele>
        <time>2021-10-27T08:57:50Z</time>
      </trkpt>
      <trkpt lat="44.11304" lon="6.85336">
        <ele>1233.59</ele>
        <time>2021-10-27T08:58:06Z</time>
      </trkpt>
      <trkpt lat="44.11307" lon="6.85337">
        <ele>1234.12</ele>
        <time>2021-10-27T08:58:31Z</time>
      </trkpt>
      <trkpt lat="44.1131" lon="6.85337">
        <ele>1235.18</ele>
        <time>2021-10-27T08:58:58Z</time>
      </trkpt>
      <trkpt lat="44.11313" lon="6.85339">
        <ele>1236.01</ele>
        <time>2021-10-27T08:59:01Z</time>
      </trkpt>
      <trkpt lat="44.11316" lon="6.8534">
        <ele>1236.95</ele>
        <time>2021-10-27T08:59:04Z</time>
      </trkpt>
      <trkpt lat="44.11319" lon="6.8534">
        <ele>1238</ele>
        <time>2021-10-27T08:59:07Z</time>
      </trkpt>
      <trkpt lat="44.11323" lon="6.85342">
        <ele>1239.15</ele>
        <time>2021-10-27T08:59:10Z</time>
      </trkpt>
      <trkpt lat="44.11325" lon="6.85343">
        <ele>1239.71</ele>
        <time>2021-10-27T08:59:14Z</time>
      </trkpt>
      <trkpt lat="44.11328" lon="6.85346">
        <ele>1240.34</ele>
        <time>2021-10-27T08:59:16Z</time>
      </trkpt>
      <trkpt lat="44.11331" lon="6.85349">
        <ele>1240.95</ele>
        <time>2021-10-27T08:59:21Z</time>
      </trkpt>
      <trkpt lat="44.11334" lon="6.85352">
        <ele>1241.45</ele>
        <time>2021-10-27T08:59:24Z</time>
      </trkpt>
      <trkpt lat="44.11336" lon="6.85354">
        <ele>1241.58</ele>
        <time>2021-10-27T08:59:28Z</time>
      </trkpt>
      <trkpt lat="44.11339" lon="6.85356">
        <ele>1241.92</ele>
        <time>2021-10-27T08:59:31Z</time>
      </trkpt>
      <trkpt lat="44.11342" lon="6.85359">
        <ele>1242.15</ele>
        <time>2021-10-27T08:59:33Z</time>
      </trkpt>
      <trkpt lat="44.11345" lon="6.85362">
        <ele>1242.35</ele>
        <time>2021-10-27T08:59:36Z</time>
      </trkpt>
      <trkpt lat="44.11347" lon="6.85365">
        <ele>1242.25</ele>
        <time>2021-10-27T08:59:38Z</time>
      </trkpt>
      <trkpt lat="44.11349" lon="6.85368">
        <ele>1242.21</ele>
        <time>2021-10-27T08:59:42Z</time>
      </trkpt>
      <trkpt lat="44.11354" lon="6.8537">
        <ele>1243.18</ele>
        <time>2021-10-27T08:59:47Z</time>
      </trkpt>
      <trkpt lat="44.11357" lon="6.85368">
        <ele>1244.22</ele>
        <time>2021-10-27T08:59:49Z</time>
      </trkpt>
      <trkpt lat="44.1136" lon="6.85364">
        <ele>1245.43</ele>
        <time>2021-10-27T08:59:54Z</time>
      </trkpt>
      <trkpt lat="44.11363" lon="6.85364">
        <ele>1245.87</ele>
        <time>2021-10-27T08:59:56Z</time>
      </trkpt>
      <trkpt lat="44.11366" lon="6.85366">
        <ele>1245.91</ele>
        <time>2021-10-27T08:59:59Z</time>
      </trkpt>
      <trkpt lat="44.11369" lon="6.85367">
        <ele>1246.04</ele>
        <time>2021-10-27T09:00:03Z</time>
      </trkpt>
      <trkpt lat="44.11372" lon="6.85368">
        <ele>1246.14</ele>
        <time>2021-10-27T09:00:05Z</time>
      </trkpt>
      <trkpt lat="44.11375" lon="6.85369">
        <ele>1246.22</ele>
        <time>2021-10-27T09:00:10Z</time>
      </trkpt>
      <trkpt lat="44.11378" lon="6.85369">
        <ele>1246.45</ele>
        <time>2021-10-27T09:00:13Z</time>
      </trkpt>
      <trkpt lat="44.1138" lon="6.85369">
        <ele>1246.61</ele>
        <time>2021-10-27T09:00:16Z</time>
      </trkpt>
      <trkpt lat="44.11384" lon="6.85369">
        <ele>1246.92</ele>
        <time>2021-10-27T09:00:19Z</time>
      </trkpt>
      <trkpt lat="44.11387" lon="6.85368">
        <ele>1247.36</ele>
        <time>2021-10-27T09:00:23Z</time>
      </trkpt>
      <trkpt lat="44.1139" lon="6.85368">
        <ele>1247.5</ele>
        <time>2021-10-27T09:00:27Z</time>
      </trkpt>
      <trkpt lat="44.11394" lon="6.85368">
        <ele>1247.46</ele>
        <time>2021-10-27T09:00:30Z</time>
      </trkpt>
      <trkpt lat="44.11397" lon="6.85368">
        <ele>1247.44</ele>
        <time>2021-10-27T09:00:36Z</time>
      </trkpt>
      <trkpt lat="44.114" lon="6.85367">
        <ele>1247.58</ele>
        <time>2021-10-27T09:00:40Z</time>
      </trkpt>
      <trkpt lat="44.11403" lon="6.85366">
        <ele>1247.7</ele>
        <time>2021-10-27T09:00:44Z</time>
      </trkpt>
      <trkpt lat="44.11406" lon="6.85369">
        <ele>1247.2</ele>
        <time>2021-10-27T09:00:48Z</time>
      </trkpt>
      <trkpt lat="44.11409" lon="6.85372">
        <ele>1246.78</ele>
        <time>2021-10-27T09:00:52Z</time>
      </trkpt>
      <trkpt lat="44.11412" lon="6.85373">
        <ele>1246.67</ele>
        <time>2021-10-27T09:00:54Z</time>
      </trkpt>
      <trkpt lat="44.11415" lon="6.85374">
        <ele>1246.58</ele>
        <time>2021-10-27T09:00:57Z</time>
      </trkpt>
      <trkpt lat="44.11417" lon="6.85376">
        <ele>1246.51</ele>
        <time>2021-10-27T09:01:03Z</time>
      </trkpt>
      <trkpt lat="44.11421" lon="6.85378">
        <ele>1247.8</ele>
        <time>2021-10-27T09:01:06Z</time>
      </trkpt>
      <trkpt lat="44.11423" lon="6.8538">
        <ele>1248.4</ele>
        <time>2021-10-27T09:01:09Z</time>
      </trkpt>
      <trkpt lat="44.11422" lon="6.85385">
        <ele>1247.62</ele>
        <time>2021-10-27T09:01:12Z</time>
      </trkpt>
      <trkpt lat="44.1142" lon="6.85388">
        <ele>1246.52</ele>
        <time>2021-10-27T09:01:17Z</time>
      </trkpt>
      <trkpt lat="44.11418" lon="6.85391">
        <ele>1245.8</ele>
        <time>2021-10-27T09:01:21Z</time>
      </trkpt>
      <trkpt lat="44.11416" lon="6.85394">
        <ele>1245.48</ele>
        <time>2021-10-27T09:01:25Z</time>
      </trkpt>
      <trkpt lat="44.11416" lon="6.85398">
        <ele>1245.9</ele>
        <time>2021-10-27T09:01:31Z</time>
      </trkpt>
      <trkpt lat="44.11413" lon="6.85399">
        <ele>1245.59</ele>
        <time>2021-10-27T09:01:36Z</time>
      </trkpt>
      <trkpt lat="44.11409" lon="6.854">
        <ele>1245.1</ele>
        <time>2021-10-27T09:01:43Z</time>
      </trkpt>
      <trkpt lat="44.11408" lon="6.85404">
        <ele>1245.16</ele>
        <time>2021-10-27T09:01:57Z</time>
      </trkpt>
      <trkpt lat="44.11407" lon="6.85407">
        <ele>1245.13</ele>
        <time>2021-10-27T09:02:01Z</time>
      </trkpt>
      <trkpt lat="44.11406" lon="6.85411">
        <ele>1245.09</ele>
        <time>2021-10-27T09:02:05Z</time>
      </trkpt>
      <trkpt lat="44.11404" lon="6.85415">
        <ele>1244.76</ele>
        <time>2021-10-27T09:02:09Z</time>
      </trkpt>
      <trkpt lat="44.11404" lon="6.85419">
        <ele>1245.1</ele>
        <time>2021-10-27T09:02:15Z</time>
      </trkpt>
      <trkpt lat="44.11402" lon="6.85422">
        <ele>1244.98</ele>
        <time>2021-10-27T09:02:22Z</time>
      </trkpt>
      <trkpt lat="44.11402" lon="6.85426">
        <ele>1245.49</ele>
        <time>2021-10-27T09:02:24Z</time>
      </trkpt>
      <trkpt lat="44.114" lon="6.8543">
        <ele>1245.53</ele>
        <time>2021-10-27T09:02:28Z</time>
      </trkpt>
      <trkpt lat="44.11397" lon="6.85431">
        <ele>1244.96</ele>
        <time>2021-10-27T09:02:33Z</time>
      </trkpt>
      <trkpt lat="44.11395" lon="6.85434">
        <ele>1244.9</ele>
        <time>2021-10-27T09:02:37Z</time>
      </trkpt>
      <trkpt lat="44.11394" lon="6.85438">
        <ele>1245.22</ele>
        <time>2021-10-27T09:02:42Z</time>
      </trkpt>
      <trkpt lat="44.11392" lon="6.85441">
        <ele>1245.19</ele>
        <time>2021-10-27T09:02:50Z</time>
      </trkpt>
      <trkpt lat="44.11391" lon="6.85445">
        <ele>1245.5</ele>
        <time>2021-10-27T09:02:54Z</time>
      </trkpt>
      <trkpt lat="44.1139" lon="6.85449">
        <ele>1245.59</ele>
        <time>2021-10-27T09:02:59Z</time>
      </trkpt>
      <trkpt lat="44.11389" lon="6.85453">
        <ele>1245.64</ele>
        <time>2021-10-27T09:03:08Z</time>
      </trkpt>
      <trkpt lat="44.11389" lon="6.85457">
        <ele>1245.93</ele>
        <time>2021-10-27T09:03:13Z</time>
      </trkpt>
      <trkpt lat="44.1139" lon="6.85461">
        <ele>1246.5</ele>
        <time>2021-10-27T09:03:17Z</time>
      </trkpt>
      <trkpt lat="44.11391" lon="6.85465">
        <ele>1247.1</ele>
        <time>2021-10-27T09:03:20Z</time>
      </trkpt>
      <trkpt lat="44.11393" lon="6.85468">
        <ele>1247.96</ele>
        <time>2021-10-27T09:03:27Z</time>
      </trkpt>
      <trkpt lat="44.11395" lon="6.85473">
        <ele>1249.08</ele>
        <time>2021-10-27T09:03:32Z</time>
      </trkpt>
      <trkpt lat="44.11396" lon="6.85476">
        <ele>1249.78</ele>
        <time>2021-10-27T09:03:36Z</time>
      </trkpt>
      <trkpt lat="44.11398" lon="6.8548">
        <ele>1250.8</ele>
        <time>2021-10-27T09:03:41Z</time>
      </trkpt>
      <trkpt lat="44.114" lon="6.85483">
        <ele>1251.61</ele>
        <time>2021-10-27T09:03:48Z</time>
      </trkpt>
      <trkpt lat="44.11402" lon="6.85487">
        <ele>1252.4</ele>
        <time>2021-10-27T09:03:51Z</time>
      </trkpt>
      <trkpt lat="44.11404" lon="6.85489">
        <ele>1252.94</ele>
        <time>2021-10-27T09:04:05Z</time>
      </trkpt>
      <trkpt lat="44.11407" lon="6.85491">
        <ele>1253.6</ele>
        <time>2021-10-27T09:04:11Z</time>
      </trkpt>
      <trkpt lat="44.11409" lon="6.85492">
        <ele>1253.98</ele>
        <time>2021-10-27T09:04:15Z</time>
      </trkpt>
      <trkpt lat="44.11412" lon="6.85494">
        <ele>1254.49</ele>
        <time>2021-10-27T09:04:24Z</time>
      </trkpt>
      <trkpt lat="44.11414" lon="6.85497">
        <ele>1254.76</ele>
        <time>2021-10-27T09:04:29Z</time>
      </trkpt>
      <trkpt lat="44.11417" lon="6.85499">
        <ele>1255.07</ele>
        <time>2021-10-27T09:04:38Z</time>
      </trkpt>
      <trkpt lat="44.11419" lon="6.85502">
        <ele>1255.05</ele>
        <time>2021-10-27T09:04:49Z</time>
      </trkpt>
      <trkpt lat="44.11421" lon="6.85505">
        <ele>1254.98</ele>
        <time>2021-10-27T09:04:56Z</time>
      </trkpt>
      <trkpt lat="44.11423" lon="6.85507">
        <ele>1255.04</ele>
        <time>2021-10-27T09:04:59Z</time>
      </trkpt>
      <trkpt lat="44.11427" lon="6.85508">
        <ele>1255.47</ele>
        <time>2021-10-27T09:05:05Z</time>
      </trkpt>
      <trkpt lat="44.1143" lon="6.85508">
        <ele>1255.85</ele>
        <time>2021-10-27T09:05:10Z</time>
      </trkpt>
      <trkpt lat="44.11433" lon="6.85508">
        <ele>1256.24</ele>
        <time>2021-10-27T09:05:17Z</time>
      </trkpt>
      <trkpt lat="44.11436" lon="6.85507">
        <ele>1256.68</ele>
        <time>2021-10-27T09:05:21Z</time>
      </trkpt>
      <trkpt lat="44.11439" lon="6.85508">
        <ele>1257.01</ele>
        <time>2021-10-27T09:05:32Z</time>
      </trkpt>
      <trkpt lat="44.11442" lon="6.85505">
        <ele>1257.52</ele>
        <time>2021-10-27T09:05:50Z</time>
      </trkpt>
      <trkpt lat="44.11443" lon="6.85502">
        <ele>1257.76</ele>
        <time>2021-10-27T09:05:56Z</time>
      </trkpt>
      <trkpt lat="44.11445" lon="6.85498">
        <ele>1258.35</ele>
        <time>2021-10-27T09:06:01Z</time>
      </trkpt>
      <trkpt lat="44.11448" lon="6.85497">
        <ele>1259.21</ele>
        <time>2021-10-27T09:06:08Z</time>
      </trkpt>
      <trkpt lat="44.1145" lon="6.85495">
        <ele>1259.9</ele>
        <time>2021-10-27T09:06:15Z</time>
      </trkpt>
      <trkpt lat="44.11451" lon="6.85491">
        <ele>1260.55</ele>
        <time>2021-10-27T09:06:21Z</time>
      </trkpt>
      <trkpt lat="44.11451" lon="6.85487">
        <ele>1260.95</ele>
        <time>2021-10-27T09:06:27Z</time>
      </trkpt>
      <trkpt lat="44.11454" lon="6.85485">
        <ele>1261.84</ele>
        <time>2021-10-27T09:06:33Z</time>
      </trkpt>
      <trkpt lat="44.11456" lon="6.85483">
        <ele>1262.49</ele>
        <time>2021-10-27T09:06:40Z</time>
      </trkpt>
      <trkpt lat="44.11459" lon="6.85481">
        <ele>1263.36</ele>
        <time>2021-10-27T09:06:47Z</time>
      </trkpt>
      <trkpt lat="44.11462" lon="6.85479">
        <ele>1264.21</ele>
        <time>2021-10-27T09:06:56Z</time>
      </trkpt>
      <trkpt lat="44.11464" lon="6.85477">
        <ele>1264.83</ele>
        <time>2021-10-27T09:07:01Z</time>
      </trkpt>
      <trkpt lat="44.11467" lon="6.85476">
        <ele>1265.57</ele>
        <time>2021-10-27T09:07:06Z</time>
      </trkpt>
      <trkpt lat="44.1147" lon="6.85476">
        <ele>1266.24</ele>
        <time>2021-10-27T09:07:16Z</time>
      </trkpt>
      <trkpt lat="44.11473" lon="6.85475">
        <ele>1266.99</ele>
        <time>2021-10-27T09:07:22Z</time>
      </trkpt>
      <trkpt lat="44.11476" lon="6.85473">
        <ele>1267.88</ele>
        <time>2021-10-27T09:07:26Z</time>
      </trkpt>
      <trkpt lat="44.11479" lon="6.85472">
        <ele>1268.71</ele>
        <time>2021-10-27T09:07:29Z</time>
      </trkpt>
      <trkpt lat="44.11481" lon="6.85471">
        <ele>1269.21</ele>
        <time>2021-10-27T09:07:31Z</time>
      </trkpt>
      <trkpt lat="44.11484" lon="6.85472">
        <ele>1269.97</ele>
        <time>2021-10-27T09:07:42Z</time>
      </trkpt>
      <trkpt lat="44.11487" lon="6.85471">
        <ele>1270.75</ele>
        <time>2021-10-27T09:07:46Z</time>
      </trkpt>
      <trkpt lat="44.1149" lon="6.85471">
        <ele>1271.52</ele>
        <time>2021-10-27T09:07:49Z</time>
      </trkpt>
      <trkpt lat="44.11493" lon="6.85472">
        <ele>1272.25</ele>
        <time>2021-10-27T09:07:56Z</time>
      </trkpt>
      <trkpt lat="44.11496" lon="6.85473">
        <ele>1272.86</ele>
        <time>2021-10-27T09:08:01Z</time>
      </trkpt>
      <trkpt lat="44.11499" lon="6.85473">
        <ele>1273.61</ele>
        <time>2021-10-27T09:08:08Z</time>
      </trkpt>
      <trkpt lat="44.11502" lon="6.85473">
        <ele>1274.22</ele>
        <time>2021-10-27T09:08:17Z</time>
      </trkpt>
      <trkpt lat="44.11504" lon="6.85471">
        <ele>1274.82</ele>
        <time>2021-10-27T09:08:21Z</time>
      </trkpt>
      <trkpt lat="44.11507" lon="6.8547">
        <ele>1275.46</ele>
        <time>2021-10-27T09:08:25Z</time>
      </trkpt>
      <trkpt lat="44.1151" lon="6.8547">
        <ele>1276.02</ele>
        <time>2021-10-27T09:08:28Z</time>
      </trkpt>
      <trkpt lat="44.11513" lon="6.85468">
        <ele>1276.79</ele>
        <time>2021-10-27T09:08:35Z</time>
      </trkpt>
      <trkpt lat="44.11516" lon="6.8547">
        <ele>1277.13</ele>
        <time>2021-10-27T09:08:41Z</time>
      </trkpt>
      <trkpt lat="44.11519" lon="6.85472">
        <ele>1277.45</ele>
        <time>2021-10-27T09:08:45Z</time>
      </trkpt>
      <trkpt lat="44.1152" lon="6.85475">
        <ele>1276.96</ele>
        <time>2021-10-27T09:08:51Z</time>
      </trkpt>
      <trkpt lat="44.11522" lon="6.85478">
        <ele>1276.59</ele>
        <time>2021-10-27T09:09:06Z</time>
      </trkpt>
      <trkpt lat="44.11525" lon="6.85479">
        <ele>1276.84</ele>
        <time>2021-10-27T09:09:15Z</time>
      </trkpt>
      <trkpt lat="44.11528" lon="6.8548">
        <ele>1277.11</ele>
        <time>2021-10-27T09:09:18Z</time>
      </trkpt>
      <trkpt lat="44.11531" lon="6.85479">
        <ele>1278.25</ele>
        <time>2021-10-27T09:09:21Z</time>
      </trkpt>
      <trkpt lat="44.11534" lon="6.85478">
        <ele>1279.38</ele>
        <time>2021-10-27T09:09:25Z</time>
      </trkpt>
      <trkpt lat="44.11536" lon="6.85475">
        <ele>1280.7</ele>
        <time>2021-10-27T09:09:31Z</time>
      </trkpt>
      <trkpt lat="44.11538" lon="6.85472">
        <ele>1281.96</ele>
        <time>2021-10-27T09:09:40Z</time>
      </trkpt>
      <trkpt lat="44.11541" lon="6.85471">
        <ele>1282.84</ele>
        <time>2021-10-27T09:09:51Z</time>
      </trkpt>
      <trkpt lat="44.11543" lon="6.85473">
        <ele>1283.2</ele>
        <time>2021-10-27T09:09:58Z</time>
      </trkpt>
      <trkpt lat="44.11546" lon="6.85473">
        <ele>1284.07</ele>
        <time>2021-10-27T09:10:04Z</time>
      </trkpt>
      <trkpt lat="44.11549" lon="6.85472">
        <ele>1285.1</ele>
        <time>2021-10-27T09:10:09Z</time>
      </trkpt>
      <trkpt lat="44.11552" lon="6.85472">
        <ele>1285.96</ele>
        <time>2021-10-27T09:10:15Z</time>
      </trkpt>
      <trkpt lat="44.11555" lon="6.8547">
        <ele>1286.61</ele>
        <time>2021-10-27T09:10:19Z</time>
      </trkpt>
      <trkpt lat="44.11557" lon="6.85467">
        <ele>1286.5</ele>
        <time>2021-10-27T09:10:24Z</time>
      </trkpt>
      <trkpt lat="44.11559" lon="6.85463">
        <ele>1286.09</ele>
        <time>2021-10-27T09:10:27Z</time>
      </trkpt>
      <trkpt lat="44.11561" lon="6.8546">
        <ele>1285.73</ele>
        <time>2021-10-27T09:10:32Z</time>
      </trkpt>
      <trkpt lat="44.11564" lon="6.85461">
        <ele>1285.9</ele>
        <time>2021-10-27T09:10:47Z</time>
      </trkpt>
      <trkpt lat="44.11566" lon="6.85459">
        <ele>1285.61</ele>
        <time>2021-10-27T09:11:00Z</time>
      </trkpt>
      <trkpt lat="44.11569" lon="6.85457">
        <ele>1285.26</ele>
        <time>2021-10-27T09:11:08Z</time>
      </trkpt>
      <trkpt lat="44.11571" lon="6.85459">
        <ele>1285.63</ele>
        <time>2021-10-27T09:11:16Z</time>
      </trkpt>
      <trkpt lat="44.11572" lon="6.85462">
        <ele>1286.21</ele>
        <time>2021-10-27T09:11:19Z</time>
      </trkpt>
      <trkpt lat="44.11573" lon="6.85467">
        <ele>1287.22</ele>
        <time>2021-10-27T09:11:24Z</time>
      </trkpt>
      <trkpt lat="44.11574" lon="6.8547">
        <ele>1287.88</ele>
        <time>2021-10-27T09:11:31Z</time>
      </trkpt>
      <trkpt lat="44.11576" lon="6.85474">
        <ele>1288.51</ele>
        <time>2021-10-27T09:11:33Z</time>
      </trkpt>
      <trkpt lat="44.11577" lon="6.85478">
        <ele>1288.74</ele>
        <time>2021-10-27T09:11:38Z</time>
      </trkpt>
      <trkpt lat="44.11579" lon="6.85481">
        <ele>1289.19</ele>
        <time>2021-10-27T09:11:49Z</time>
      </trkpt>
      <trkpt lat="44.11582" lon="6.85482">
        <ele>1289.81</ele>
        <time>2021-10-27T09:11:53Z</time>
      </trkpt>
      <trkpt lat="44.11585" lon="6.85484">
        <ele>1291.01</ele>
        <time>2021-10-27T09:12:00Z</time>
      </trkpt>
      <trkpt lat="44.11586" lon="6.85488">
        <ele>1291.92</ele>
        <time>2021-10-27T09:12:05Z</time>
      </trkpt>
      <trkpt lat="44.11588" lon="6.85491">
        <ele>1293.22</ele>
        <time>2021-10-27T09:12:10Z</time>
      </trkpt>
      <trkpt lat="44.1159" lon="6.85495">
        <ele>1294.69</ele>
        <time>2021-10-27T09:12:15Z</time>
      </trkpt>
      <trkpt lat="44.11591" lon="6.85498">
        <ele>1295.59</ele>
        <time>2021-10-27T09:12:19Z</time>
      </trkpt>
      <trkpt lat="44.11593" lon="6.85501">
        <ele>1296.87</ele>
        <time>2021-10-27T09:12:27Z</time>
      </trkpt>
      <trkpt lat="44.11594" lon="6.85504">
        <ele>1297.38</ele>
        <time>2021-10-27T09:12:35Z</time>
      </trkpt>
      <trkpt lat="44.11595" lon="6.85508">
        <ele>1297.88</ele>
        <time>2021-10-27T09:12:44Z</time>
      </trkpt>
      <trkpt lat="44.11597" lon="6.85512">
        <ele>1298.89</ele>
        <time>2021-10-27T09:12:53Z</time>
      </trkpt>
      <trkpt lat="44.11599" lon="6.85515">
        <ele>1299.9</ele>
        <time>2021-10-27T09:12:59Z</time>
      </trkpt>
      <trkpt lat="44.11601" lon="6.85518">
        <ele>1300.9</ele>
        <time>2021-10-27T09:13:05Z</time>
      </trkpt>
      <trkpt lat="44.11603" lon="6.85521">
        <ele>1301.91</ele>
        <time>2021-10-27T09:13:10Z</time>
      </trkpt>
      <trkpt lat="44.11604" lon="6.85525">
        <ele>1302.42</ele>
        <time>2021-10-27T09:13:17Z</time>
      </trkpt>
      <trkpt lat="44.11606" lon="6.85529">
        <ele>1303.58</ele>
        <time>2021-10-27T09:13:26Z</time>
      </trkpt>
      <trkpt lat="44.11606" lon="6.85533">
        <ele>1304.11</ele>
        <time>2021-10-27T09:13:34Z</time>
      </trkpt>
      <trkpt lat="44.11609" lon="6.85536">
        <ele>1306.08</ele>
        <time>2021-10-27T09:13:41Z</time>
      </trkpt>
      <trkpt lat="44.1161" lon="6.85539">
        <ele>1307.02</ele>
        <time>2021-10-27T09:13:48Z</time>
      </trkpt>
      <trkpt lat="44.11613" lon="6.85541">
        <ele>1309</ele>
        <time>2021-10-27T09:13:56Z</time>
      </trkpt>
      <trkpt lat="44.11615" lon="6.85543">
        <ele>1310.42</ele>
        <time>2021-10-27T09:14:02Z</time>
      </trkpt>
      <trkpt lat="44.11618" lon="6.85543">
        <ele>1312.14</ele>
        <time>2021-10-27T09:14:14Z</time>
      </trkpt>
      <trkpt lat="44.1162" lon="6.85546">
        <ele>1313.64</ele>
        <time>2021-10-27T09:14:23Z</time>
      </trkpt>
      <trkpt lat="44.11622" lon="6.85549">
        <ele>1315.12</ele>
        <time>2021-10-27T09:14:27Z</time>
      </trkpt>
      <trkpt lat="44.11624" lon="6.85552">
        <ele>1316.57</ele>
        <time>2021-10-27T09:14:34Z</time>
      </trkpt>
      <trkpt lat="44.11627" lon="6.85554">
        <ele>1318.42</ele>
        <time>2021-10-27T09:14:37Z</time>
      </trkpt>
      <trkpt lat="44.11629" lon="6.85556">
        <ele>1319.64</ele>
        <time>2021-10-27T09:14:41Z</time>
      </trkpt>
      <trkpt lat="44.1163" lon="6.8556">
        <ele>1319.98</ele>
        <time>2021-10-27T09:14:47Z</time>
      </trkpt>
      <trkpt lat="44.11631" lon="6.85564">
        <ele>1320.3</ele>
        <time>2021-10-27T09:14:55Z</time>
      </trkpt>
      <trkpt lat="44.11632" lon="6.85567">
        <ele>1320.66</ele>
        <time>2021-10-27T09:15:02Z</time>
      </trkpt>
      <trkpt lat="44.11634" lon="6.8557">
        <ele>1321.5</ele>
        <time>2021-10-27T09:15:05Z</time>
      </trkpt>
      <trkpt lat="44.11636" lon="6.85573">
        <ele>1322.31</ele>
        <time>2021-10-27T09:15:09Z</time>
      </trkpt>
      <trkpt lat="44.11639" lon="6.85575">
        <ele>1323.62</ele>
        <time>2021-10-27T09:15:13Z</time>
      </trkpt>
      <trkpt lat="44.11641" lon="6.85578">
        <ele>1323.78</ele>
        <time>2021-10-27T09:15:17Z</time>
      </trkpt>
      <trkpt lat="44.11643" lon="6.85582">
        <ele>1323.84</ele>
        <time>2021-10-27T09:15:21Z</time>
      </trkpt>
      <trkpt lat="44.11644" lon="6.85586">
        <ele>1323.54</ele>
        <time>2021-10-27T09:15:25Z</time>
      </trkpt>
      <trkpt lat="44.11646" lon="6.85589">
        <ele>1323.46</ele>
        <time>2021-10-27T09:15:28Z</time>
      </trkpt>
      <trkpt lat="44.11648" lon="6.85592">
        <ele>1323.39</ele>
        <time>2021-10-27T09:15:32Z</time>
      </trkpt>
      <trkpt lat="44.11651" lon="6.85594">
        <ele>1323.64</ele>
        <time>2021-10-27T09:15:35Z</time>
      </trkpt>
      <trkpt lat="44.11654" lon="6.85596">
        <ele>1323.9</ele>
        <time>2021-10-27T09:15:39Z</time>
      </trkpt>
      <trkpt lat="44.11655" lon="6.85599">
        <ele>1323.64</ele>
        <time>2021-10-27T09:15:52Z</time>
      </trkpt>
      <trkpt lat="44.11657" lon="6.85602">
        <ele>1323.57</ele>
        <time>2021-10-27T09:16:04Z</time>
      </trkpt>
      <trkpt lat="44.1166" lon="6.85604">
        <ele>1323.82</ele>
        <time>2021-10-27T09:16:08Z</time>
      </trkpt>
      <trkpt lat="44.11663" lon="6.85604">
        <ele>1324.36</ele>
        <time>2021-10-27T09:16:46Z</time>
      </trkpt>
      <trkpt lat="44.11661" lon="6.85607">
        <ele>1323.57</ele>
        <time>2021-10-27T09:17:01Z</time>
      </trkpt>
      <trkpt lat="44.11663" lon="6.85605">
        <ele>1324.22</ele>
        <time>2021-10-27T09:17:27Z</time>
      </trkpt>
      <trkpt lat="44.11665" lon="6.85607">
        <ele>1324.29</ele>
        <time>2021-10-27T09:17:31Z</time>
      </trkpt>
      <trkpt lat="44.11668" lon="6.8561">
        <ele>1324.49</ele>
        <time>2021-10-27T09:17:35Z</time>
      </trkpt>
      <trkpt lat="44.11671" lon="6.85611">
        <ele>1325.11</ele>
        <time>2021-10-27T09:17:37Z</time>
      </trkpt>
      <trkpt lat="44.11674" lon="6.85611">
        <ele>1325.86</ele>
        <time>2021-10-27T09:17:40Z</time>
      </trkpt>
      <trkpt lat="44.11677" lon="6.85612">
        <ele>1326.43</ele>
        <time>2021-10-27T09:17:44Z</time>
      </trkpt>
      <trkpt lat="44.1168" lon="6.85613">
        <ele>1326.99</ele>
        <time>2021-10-27T09:17:47Z</time>
      </trkpt>
      <trkpt lat="44.11683" lon="6.85613">
        <ele>1327.74</ele>
        <time>2021-10-27T09:17:54Z</time>
      </trkpt>
      <trkpt lat="44.11686" lon="6.85613">
        <ele>1328.48</ele>
        <time>2021-10-27T09:18:02Z</time>
      </trkpt>
      <trkpt lat="44.11689" lon="6.85612">
        <ele>1329.44</ele>
        <time>2021-10-27T09:18:08Z</time>
      </trkpt>
      <trkpt lat="44.11692" lon="6.85614">
        <ele>1329.77</ele>
        <time>2021-10-27T09:18:20Z</time>
      </trkpt>
      <trkpt lat="44.11695" lon="6.85616">
        <ele>1330.08</ele>
        <time>2021-10-27T09:18:24Z</time>
      </trkpt>
      <trkpt lat="44.11697" lon="6.85618">
        <ele>1330.13</ele>
        <time>2021-10-27T09:18:28Z</time>
      </trkpt>
      <trkpt lat="44.11699" lon="6.85621">
        <ele>1329.95</ele>
        <time>2021-10-27T09:18:35Z</time>
      </trkpt>
      <trkpt lat="44.11696" lon="6.85621">
        <ele>1329.24</ele>
        <time>2021-10-27T09:18:49Z</time>
      </trkpt>
      <trkpt lat="44.11698" lon="6.85618">
        <ele>1330.38</ele>
        <time>2021-10-27T09:18:57Z</time>
      </trkpt>
      <trkpt lat="44.11701" lon="6.8562">
        <ele>1330.66</ele>
        <time>2021-10-27T09:18:59Z</time>
      </trkpt>
      <trkpt lat="44.11701" lon="6.85624">
        <ele>1329.76</ele>
        <time>2021-10-27T09:19:09Z</time>
      </trkpt>
      <trkpt lat="44.11704" lon="6.85623">
        <ele>1330.69</ele>
        <time>2021-10-27T09:19:28Z</time>
      </trkpt>
      <trkpt lat="44.11708" lon="6.85622">
        <ele>1331.87</ele>
        <time>2021-10-27T09:19:31Z</time>
      </trkpt>
      <trkpt lat="44.11711" lon="6.85621">
        <ele>1332.82</ele>
        <time>2021-10-27T09:19:33Z</time>
      </trkpt>
      <trkpt lat="44.11714" lon="6.85621">
        <ele>1333.54</ele>
        <time>2021-10-27T09:19:36Z</time>
      </trkpt>
      <trkpt lat="44.11717" lon="6.85621">
        <ele>1334.26</ele>
        <time>2021-10-27T09:19:40Z</time>
      </trkpt>
      <trkpt lat="44.11721" lon="6.85622">
        <ele>1334.97</ele>
        <time>2021-10-27T09:19:43Z</time>
      </trkpt>
      <trkpt lat="44.11724" lon="6.85625">
        <ele>1334.79</ele>
        <time>2021-10-27T09:19:46Z</time>
      </trkpt>
      <trkpt lat="44.11726" lon="6.85629">
        <ele>1334.08</ele>
        <time>2021-10-27T09:19:49Z</time>
      </trkpt>
      <trkpt lat="44.11729" lon="6.85631">
        <ele>1334.03</ele>
        <time>2021-10-27T09:19:51Z</time>
      </trkpt>
      <trkpt lat="44.11732" lon="6.85632">
        <ele>1334.23</ele>
        <time>2021-10-27T09:19:54Z</time>
      </trkpt>
      <trkpt lat="44.11735" lon="6.85633">
        <ele>1334.42</ele>
        <time>2021-10-27T09:19:56Z</time>
      </trkpt>
      <trkpt lat="44.11738" lon="6.85632">
        <ele>1335.15</ele>
        <time>2021-10-27T09:19:59Z</time>
      </trkpt>
      <trkpt lat="44.11741" lon="6.85631">
        <ele>1335.88</ele>
        <time>2021-10-27T09:20:02Z</time>
      </trkpt>
      <trkpt lat="44.11745" lon="6.85633">
        <ele>1335.94</ele>
        <time>2021-10-27T09:20:05Z</time>
      </trkpt>
      <trkpt lat="44.11748" lon="6.85634">
        <ele>1336.11</ele>
        <time>2021-10-27T09:20:08Z</time>
      </trkpt>
      <trkpt lat="44.11751" lon="6.85635">
        <ele>1336.15</ele>
        <time>2021-10-27T09:20:11Z</time>
      </trkpt>
      <trkpt lat="44.11754" lon="6.85636">
        <ele>1335.95</ele>
        <time>2021-10-27T09:20:14Z</time>
      </trkpt>
      <trkpt lat="44.11757" lon="6.85636">
        <ele>1336.03</ele>
        <time>2021-10-27T09:20:19Z</time>
      </trkpt>
      <trkpt lat="44.1176" lon="6.85635">
        <ele>1336.38</ele>
        <time>2021-10-27T09:20:23Z</time>
      </trkpt>
      <trkpt lat="44.11764" lon="6.85636">
        <ele>1336.23</ele>
        <time>2021-10-27T09:20:27Z</time>
      </trkpt>
      <trkpt lat="44.11767" lon="6.85639">
        <ele>1335.58</ele>
        <time>2021-10-27T09:20:29Z</time>
      </trkpt>
      <trkpt lat="44.11769" lon="6.85641">
        <ele>1335.16</ele>
        <time>2021-10-27T09:20:31Z</time>
      </trkpt>
      <trkpt lat="44.11773" lon="6.85642">
        <ele>1335.1</ele>
        <time>2021-10-27T09:20:34Z</time>
      </trkpt>
      <trkpt lat="44.11776" lon="6.85643">
        <ele>1335.02</ele>
        <time>2021-10-27T09:20:37Z</time>
      </trkpt>
      <trkpt lat="44.11779" lon="6.85643">
        <ele>1335.5</ele>
        <time>2021-10-27T09:20:41Z</time>
      </trkpt>
      <trkpt lat="44.11782" lon="6.85642">
        <ele>1336.68</ele>
        <time>2021-10-27T09:20:43Z</time>
      </trkpt>
      <trkpt lat="44.11785" lon="6.85644">
        <ele>1337.19</ele>
        <time>2021-10-27T09:20:46Z</time>
      </trkpt>
      <trkpt lat="44.11788" lon="6.85645">
        <ele>1337.91</ele>
        <time>2021-10-27T09:20:50Z</time>
      </trkpt>
      <trkpt lat="44.11792" lon="6.85645">
        <ele>1339.18</ele>
        <time>2021-10-27T09:20:53Z</time>
      </trkpt>
      <trkpt lat="44.11794" lon="6.85645">
        <ele>1339.81</ele>
        <time>2021-10-27T09:20:56Z</time>
      </trkpt>
      <trkpt lat="44.11797" lon="6.85646">
        <ele>1340.51</ele>
        <time>2021-10-27T09:20:58Z</time>
      </trkpt>
      <trkpt lat="44.118" lon="6.85647">
        <ele>1341.21</ele>
        <time>2021-10-27T09:21:01Z</time>
      </trkpt>
      <trkpt lat="44.11804" lon="6.85646">
        <ele>1342.72</ele>
        <time>2021-10-27T09:21:05Z</time>
      </trkpt>
      <trkpt lat="44.11807" lon="6.85645">
        <ele>1343.68</ele>
        <time>2021-10-27T09:21:09Z</time>
      </trkpt>
      <trkpt lat="44.1181" lon="6.85644">
        <ele>1344.38</ele>
        <time>2021-10-27T09:21:13Z</time>
      </trkpt>
      <trkpt lat="44.11813" lon="6.85643">
        <ele>1345.08</ele>
        <time>2021-10-27T09:21:18Z</time>
      </trkpt>
      <trkpt lat="44.11816" lon="6.85642">
        <ele>1345.76</ele>
        <time>2021-10-27T09:21:21Z</time>
      </trkpt>
      <trkpt lat="44.1182" lon="6.85643">
        <ele>1346.12</ele>
        <time>2021-10-27T09:21:26Z</time>
      </trkpt>
      <trkpt lat="44.11823" lon="6.85644">
        <ele>1346.34</ele>
        <time>2021-10-27T09:21:27Z</time>
      </trkpt>
      <trkpt lat="44.11827" lon="6.85645">
        <ele>1346.72</ele>
        <time>2021-10-27T09:21:31Z</time>
      </trkpt>
      <trkpt lat="44.11829" lon="6.85647">
        <ele>1346.58</ele>
        <time>2021-10-27T09:21:32Z</time>
      </trkpt>
      <trkpt lat="44.11833" lon="6.85649">
        <ele>1346.76</ele>
        <time>2021-10-27T09:21:36Z</time>
      </trkpt>
      <trkpt lat="44.11836" lon="6.8565">
        <ele>1346.79</ele>
        <time>2021-10-27T09:21:39Z</time>
      </trkpt>
      <trkpt lat="44.11839" lon="6.85652">
        <ele>1346.58</ele>
        <time>2021-10-27T09:21:41Z</time>
      </trkpt>
      <trkpt lat="44.11843" lon="6.85653">
        <ele>1346.65</ele>
        <time>2021-10-27T09:21:45Z</time>
      </trkpt>
      <trkpt lat="44.11846" lon="6.85653">
        <ele>1346.86</ele>
        <time>2021-10-27T09:21:48Z</time>
      </trkpt>
      <trkpt lat="44.11849" lon="6.85654">
        <ele>1346.86</ele>
        <time>2021-10-27T09:21:50Z</time>
      </trkpt>
      <trkpt lat="44.11852" lon="6.85654">
        <ele>1347.08</ele>
        <time>2021-10-27T09:21:53Z</time>
      </trkpt>
      <trkpt lat="44.11855" lon="6.85655">
        <ele>1347.08</ele>
        <time>2021-10-27T09:21:57Z</time>
      </trkpt>
      <trkpt lat="44.11858" lon="6.85655">
        <ele>1347.3</ele>
        <time>2021-10-27T09:22:00Z</time>
      </trkpt>
      <trkpt lat="44.11861" lon="6.85655">
        <ele>1347.51</ele>
        <time>2021-10-27T09:22:03Z</time>
      </trkpt>
      <trkpt lat="44.11864" lon="6.85656">
        <ele>1346.72</ele>
        <time>2021-10-27T09:22:06Z</time>
      </trkpt>
      <trkpt lat="44.11867" lon="6.85657">
        <ele>1345.89</ele>
        <time>2021-10-27T09:22:10Z</time>
      </trkpt>
      <trkpt lat="44.11871" lon="6.85657">
        <ele>1345.08</ele>
        <time>2021-10-27T09:22:12Z</time>
      </trkpt>
      <trkpt lat="44.11873" lon="6.85656">
        <ele>1344.9</ele>
        <time>2021-10-27T09:22:15Z</time>
      </trkpt>
      <trkpt lat="44.11876" lon="6.85654">
        <ele>1344.76</ele>
        <time>2021-10-27T09:22:19Z</time>
      </trkpt>
      <trkpt lat="44.11878" lon="6.85652">
        <ele>1344.84</ele>
        <time>2021-10-27T09:22:23Z</time>
      </trkpt>
      <trkpt lat="44.11881" lon="6.85651">
        <ele>1344.49</ele>
        <time>2021-10-27T09:22:26Z</time>
      </trkpt>
      <trkpt lat="44.11884" lon="6.85651">
        <ele>1343.9</ele>
        <time>2021-10-27T09:22:30Z</time>
      </trkpt>
      <trkpt lat="44.11888" lon="6.85651">
        <ele>1343.12</ele>
        <time>2021-10-27T09:22:34Z</time>
      </trkpt>
      <trkpt lat="44.11891" lon="6.85652">
        <ele>1342.7</ele>
        <time>2021-10-27T09:22:39Z</time>
      </trkpt>
      <trkpt lat="44.11894" lon="6.85653">
        <ele>1342.44</ele>
        <time>2021-10-27T09:22:44Z</time>
      </trkpt>
      <trkpt lat="44.11897" lon="6.85653">
        <ele>1342.44</ele>
        <time>2021-10-27T09:22:48Z</time>
      </trkpt>
      <trkpt lat="44.119" lon="6.85653">
        <ele>1342.44</ele>
        <time>2021-10-27T09:22:50Z</time>
      </trkpt>
      <trkpt lat="44.11903" lon="6.85654">
        <ele>1342.19</ele>
        <time>2021-10-27T09:22:52Z</time>
      </trkpt>
      <trkpt lat="44.11905" lon="6.85654">
        <ele>1342.19</ele>
        <time>2021-10-27T09:22:54Z</time>
      </trkpt>
      <trkpt lat="44.11908" lon="6.85655">
        <ele>1341.94</ele>
        <time>2021-10-27T09:22:57Z</time>
      </trkpt>
      <trkpt lat="44.11911" lon="6.85655">
        <ele>1341.94</ele>
        <time>2021-10-27T09:23:00Z</time>
      </trkpt>
      <trkpt lat="44.11915" lon="6.85655">
        <ele>1341.94</ele>
        <time>2021-10-27T09:23:02Z</time>
      </trkpt>
      <trkpt lat="44.11918" lon="6.85657">
        <ele>1341.3</ele>
        <time>2021-10-27T09:23:05Z</time>
      </trkpt>
      <trkpt lat="44.11921" lon="6.85658">
        <ele>1340.7</ele>
        <time>2021-10-27T09:23:08Z</time>
      </trkpt>
      <trkpt lat="44.11925" lon="6.8566">
        <ele>1339.61</ele>
        <time>2021-10-27T09:23:12Z</time>
      </trkpt>
      <trkpt lat="44.11928" lon="6.85661">
        <ele>1338.89</ele>
        <time>2021-10-27T09:23:14Z</time>
      </trkpt>
      <trkpt lat="44.11931" lon="6.85661">
        <ele>1338.48</ele>
        <time>2021-10-27T09:23:18Z</time>
      </trkpt>
      <trkpt lat="44.11934" lon="6.8566">
        <ele>1338.46</ele>
        <time>2021-10-27T09:23:22Z</time>
      </trkpt>
      <trkpt lat="44.11937" lon="6.85659">
        <ele>1338.48</ele>
        <time>2021-10-27T09:23:26Z</time>
      </trkpt>
      <trkpt lat="44.11941" lon="6.85658">
        <ele>1338.44</ele>
        <time>2021-10-27T09:23:30Z</time>
      </trkpt>
      <trkpt lat="44.11943" lon="6.85657">
        <ele>1338.68</ele>
        <time>2021-10-27T09:23:36Z</time>
      </trkpt>
      <trkpt lat="44.11946" lon="6.85657">
        <ele>1338.68</ele>
        <time>2021-10-27T09:23:44Z</time>
      </trkpt>
      <trkpt lat="44.11949" lon="6.85657">
        <ele>1338.97</ele>
        <time>2021-10-27T09:24:01Z</time>
      </trkpt>
      <trkpt lat="44.11952" lon="6.85658">
        <ele>1338.75</ele>
        <time>2021-10-27T09:24:05Z</time>
      </trkpt>
      <trkpt lat="44.11955" lon="6.85657">
        <ele>1339.57</ele>
        <time>2021-10-27T09:24:07Z</time>
      </trkpt>
      <trkpt lat="44.11958" lon="6.85655">
        <ele>1340.97</ele>
        <time>2021-10-27T09:24:09Z</time>
      </trkpt>
      <trkpt lat="44.11961" lon="6.85654">
        <ele>1341.88</ele>
        <time>2021-10-27T09:24:12Z</time>
      </trkpt>
      <trkpt lat="44.11964" lon="6.85653">
        <ele>1342.83</ele>
        <time>2021-10-27T09:24:18Z</time>
      </trkpt>
      <trkpt lat="44.11968" lon="6.85653">
        <ele>1343.33</ele>
        <time>2021-10-27T09:24:20Z</time>
      </trkpt>
      <trkpt lat="44.1197" lon="6.85653">
        <ele>1343.58</ele>
        <time>2021-10-27T09:24:24Z</time>
      </trkpt>
      <trkpt lat="44.11974" lon="6.85653">
        <ele>1343.83</ele>
        <time>2021-10-27T09:24:28Z</time>
      </trkpt>
      <trkpt lat="44.11977" lon="6.85653">
        <ele>1343.78</ele>
        <time>2021-10-27T09:24:31Z</time>
      </trkpt>
      <trkpt lat="44.11981" lon="6.85652">
        <ele>1344.28</ele>
        <time>2021-10-27T09:24:35Z</time>
      </trkpt>
      <trkpt lat="44.11984" lon="6.85651">
        <ele>1344.75</ele>
        <time>2021-10-27T09:24:38Z</time>
      </trkpt>
      <trkpt lat="44.11987" lon="6.85649">
        <ele>1345.68</ele>
        <time>2021-10-27T09:24:42Z</time>
      </trkpt>
      <trkpt lat="44.1199" lon="6.85647">
        <ele>1346.49</ele>
        <time>2021-10-27T09:24:45Z</time>
      </trkpt>
      <trkpt lat="44.11993" lon="6.85646">
        <ele>1346.74</ele>
        <time>2021-10-27T09:24:48Z</time>
      </trkpt>
      <trkpt lat="44.11996" lon="6.85645">
        <ele>1346.93</ele>
        <time>2021-10-27T09:24:49Z</time>
      </trkpt>
      <trkpt lat="44.12" lon="6.85646">
        <ele>1346.18</ele>
        <time>2021-10-27T09:24:51Z</time>
      </trkpt>
      <trkpt lat="44.12004" lon="6.85646">
        <ele>1346.18</ele>
        <time>2021-10-27T09:24:54Z</time>
      </trkpt>
      <trkpt lat="44.12007" lon="6.85647">
        <ele>1345.79</ele>
        <time>2021-10-27T09:24:56Z</time>
      </trkpt>
      <trkpt lat="44.1201" lon="6.85648">
        <ele>1345.39</ele>
        <time>2021-10-27T09:24:58Z</time>
      </trkpt>
      <trkpt lat="44.12013" lon="6.85649">
        <ele>1345</ele>
        <time>2021-10-27T09:25:00Z</time>
      </trkpt>
      <trkpt lat="44.12015" lon="6.8565">
        <ele>1344.6</ele>
        <time>2021-10-27T09:25:04Z</time>
      </trkpt>
      <trkpt lat="44.12018" lon="6.85651">
        <ele>1344.2</ele>
        <time>2021-10-27T09:25:07Z</time>
      </trkpt>
      <trkpt lat="44.12021" lon="6.85653">
        <ele>1343.41</ele>
        <time>2021-10-27T09:25:09Z</time>
      </trkpt>
      <trkpt lat="44.12023" lon="6.85655">
        <ele>1342.62</ele>
        <time>2021-10-27T09:25:12Z</time>
      </trkpt>
      <trkpt lat="44.12026" lon="6.85656">
        <ele>1342.22</ele>
        <time>2021-10-27T09:25:15Z</time>
      </trkpt>
      <trkpt lat="44.12029" lon="6.85658">
        <ele>1341.42</ele>
        <time>2021-10-27T09:25:18Z</time>
      </trkpt>
      <trkpt lat="44.12035" lon="6.8566">
        <ele>1340.65</ele>
        <time>2021-10-27T09:25:22Z</time>
      </trkpt>
      <trkpt lat="44.12039" lon="6.85663">
        <ele>1339.64</ele>
        <time>2021-10-27T09:25:26Z</time>
      </trkpt>
      <trkpt lat="44.12042" lon="6.85664">
        <ele>1339.37</ele>
        <time>2021-10-27T09:25:29Z</time>
      </trkpt>
      <trkpt lat="44.12045" lon="6.85666">
        <ele>1338.82</ele>
        <time>2021-10-27T09:25:32Z</time>
      </trkpt>
      <trkpt lat="44.12048" lon="6.85667">
        <ele>1338.66</ele>
        <time>2021-10-27T09:25:38Z</time>
      </trkpt>
      <trkpt lat="44.1205" lon="6.85666">
        <ele>1338.99</ele>
        <time>2021-10-27T09:25:42Z</time>
      </trkpt>
      <trkpt lat="44.12053" lon="6.85667">
        <ele>1338.85</ele>
        <time>2021-10-27T09:25:50Z</time>
      </trkpt>
      <trkpt lat="44.12056" lon="6.85666">
        <ele>1339.23</ele>
        <time>2021-10-27T09:25:53Z</time>
      </trkpt>
      <trkpt lat="44.12059" lon="6.85666">
        <ele>1339.66</ele>
        <time>2021-10-27T09:25:58Z</time>
      </trkpt>
      <trkpt lat="44.12062" lon="6.85666">
        <ele>1340.09</ele>
        <time>2021-10-27T09:26:01Z</time>
      </trkpt>
      <trkpt lat="44.12064" lon="6.85663">
        <ele>1341.1</ele>
        <time>2021-10-27T09:26:05Z</time>
      </trkpt>
      <trkpt lat="44.12067" lon="6.85662">
        <ele>1341.75</ele>
        <time>2021-10-27T09:26:10Z</time>
      </trkpt>
      <trkpt lat="44.1207" lon="6.85662">
        <ele>1342.17</ele>
        <time>2021-10-27T09:26:18Z</time>
      </trkpt>
      <trkpt lat="44.12072" lon="6.85661">
        <ele>1342.68</ele>
        <time>2021-10-27T09:26:28Z</time>
      </trkpt>
      <trkpt lat="44.12075" lon="6.8566">
        <ele>1343.31</ele>
        <time>2021-10-27T09:26:45Z</time>
      </trkpt>
      <trkpt lat="44.12075" lon="6.85656">
        <ele>1344.22</ele>
        <time>2021-10-27T09:26:58Z</time>
      </trkpt>
      <trkpt lat="44.12075" lon="6.85659">
        <ele>1343.54</ele>
        <time>2021-10-27T09:27:11Z</time>
      </trkpt>
      <trkpt lat="44.12077" lon="6.85662">
        <ele>1343.13</ele>
        <time>2021-10-27T09:27:17Z</time>
      </trkpt>
      <trkpt lat="44.12078" lon="6.85665">
        <ele>1342.6</ele>
        <time>2021-10-27T09:27:23Z</time>
      </trkpt>
      <trkpt lat="44.12081" lon="6.85666">
        <ele>1342.81</ele>
        <time>2021-10-27T09:27:29Z</time>
      </trkpt>
      <trkpt lat="44.12084" lon="6.85666">
        <ele>1343.29</ele>
        <time>2021-10-27T09:27:31Z</time>
      </trkpt>
      <trkpt lat="44.12087" lon="6.85666">
        <ele>1343.93</ele>
        <time>2021-10-27T09:27:34Z</time>
      </trkpt>
      <trkpt lat="44.12091" lon="6.85665">
        <ele>1344.97</ele>
        <time>2021-10-27T09:27:37Z</time>
      </trkpt>
      <trkpt lat="44.12094" lon="6.85665">
        <ele>1345.59</ele>
        <time>2021-10-27T09:27:40Z</time>
      </trkpt>
      <trkpt lat="44.12093" lon="6.8566">
        <ele>1346.28</ele>
        <time>2021-10-27T09:27:46Z</time>
      </trkpt>
      <trkpt lat="44.12096" lon="6.85658">
        <ele>1347.18</ele>
        <time>2021-10-27T09:28:13Z</time>
      </trkpt>
      <trkpt lat="44.12099" lon="6.85659">
        <ele>1347.57</ele>
        <time>2021-10-27T09:28:19Z</time>
      </trkpt>
      <trkpt lat="44.12102" lon="6.85657">
        <ele>1348.42</ele>
        <time>2021-10-27T09:28:24Z</time>
      </trkpt>
      <trkpt lat="44.12104" lon="6.85656">
        <ele>1348.91</ele>
        <time>2021-10-27T09:28:27Z</time>
      </trkpt>
      <trkpt lat="44.12107" lon="6.85654">
        <ele>1349.68</ele>
        <time>2021-10-27T09:28:30Z</time>
      </trkpt>
      <trkpt lat="44.1211" lon="6.85651">
        <ele>1350.52</ele>
        <time>2021-10-27T09:28:36Z</time>
      </trkpt>
      <trkpt lat="44.12112" lon="6.85648">
        <ele>1351.09</ele>
        <time>2021-10-27T09:28:43Z</time>
      </trkpt>
      <trkpt lat="44.12115" lon="6.85647">
        <ele>1351.44</ele>
        <time>2021-10-27T09:28:50Z</time>
      </trkpt>
      <trkpt lat="44.12118" lon="6.85646">
        <ele>1351.79</ele>
        <time>2021-10-27T09:28:54Z</time>
      </trkpt>
      <trkpt lat="44.12121" lon="6.85645">
        <ele>1352.13</ele>
        <time>2021-10-27T09:28:56Z</time>
      </trkpt>
      <trkpt lat="44.12125" lon="6.85645">
        <ele>1352.45</ele>
        <time>2021-10-27T09:28:59Z</time>
      </trkpt>
      <trkpt lat="44.12128" lon="6.85645">
        <ele>1352.69</ele>
        <time>2021-10-27T09:29:01Z</time>
      </trkpt>
      <trkpt lat="44.12131" lon="6.85645">
        <ele>1352.93</ele>
        <time>2021-10-27T09:29:04Z</time>
      </trkpt>
      <trkpt lat="44.12135" lon="6.85643">
        <ele>1353.4</ele>
        <time>2021-10-27T09:29:07Z</time>
      </trkpt>
      <trkpt lat="44.12138" lon="6.85641">
        <ele>1353.78</ele>
        <time>2021-10-27T09:29:10Z</time>
      </trkpt>
      <trkpt lat="44.1214" lon="6.85637">
        <ele>1354.43</ele>
        <time>2021-10-27T09:29:15Z</time>
      </trkpt>
      <trkpt lat="44.12142" lon="6.85633">
        <ele>1355.25</ele>
        <time>2021-10-27T09:29:17Z</time>
      </trkpt>
      <trkpt lat="44.12144" lon="6.85631">
        <ele>1355.77</ele>
        <time>2021-10-27T09:29:20Z</time>
      </trkpt>
      <trkpt lat="44.12148" lon="6.85628">
        <ele>1356.62</ele>
        <time>2021-10-27T09:29:24Z</time>
      </trkpt>
      <trkpt lat="44.12149" lon="6.85632">
        <ele>1356.27</ele>
        <time>2021-10-27T09:29:31Z</time>
      </trkpt>
      <trkpt lat="44.1215" lon="6.85635">
        <ele>1356.05</ele>
        <time>2021-10-27T09:29:37Z</time>
      </trkpt>
      <trkpt lat="44.12153" lon="6.85633">
        <ele>1356.66</ele>
        <time>2021-10-27T09:29:43Z</time>
      </trkpt>
      <trkpt lat="44.12154" lon="6.85629">
        <ele>1357.21</ele>
        <time>2021-10-27T09:29:46Z</time>
      </trkpt>
      <trkpt lat="44.12155" lon="6.85626">
        <ele>1357.64</ele>
        <time>2021-10-27T09:29:49Z</time>
      </trkpt>
      <trkpt lat="44.12155" lon="6.85622">
        <ele>1358.05</ele>
        <time>2021-10-27T09:29:54Z</time>
      </trkpt>
      <trkpt lat="44.12156" lon="6.85618">
        <ele>1358.55</ele>
        <time>2021-10-27T09:29:58Z</time>
      </trkpt>
      <trkpt lat="44.1216" lon="6.85618">
        <ele>1358.9</ele>
        <time>2021-10-27T09:30:05Z</time>
      </trkpt>
      <trkpt lat="44.12163" lon="6.85618">
        <ele>1359.17</ele>
        <time>2021-10-27T09:30:12Z</time>
      </trkpt>
      <trkpt lat="44.12165" lon="6.85617">
        <ele>1359.43</ele>
        <time>2021-10-27T09:30:16Z</time>
      </trkpt>
      <trkpt lat="44.12167" lon="6.85613">
        <ele>1359.82</ele>
        <time>2021-10-27T09:30:20Z</time>
      </trkpt>
      <trkpt lat="44.12169" lon="6.85609">
        <ele>1359.79</ele>
        <time>2021-10-27T09:30:23Z</time>
      </trkpt>
      <trkpt lat="44.12172" lon="6.85609">
        <ele>1359.33</ele>
        <time>2021-10-27T09:30:26Z</time>
      </trkpt>
      <trkpt lat="44.12175" lon="6.85608">
        <ele>1358.89</ele>
        <time>2021-10-27T09:30:34Z</time>
      </trkpt>
      <trkpt lat="44.12178" lon="6.85607">
        <ele>1358.42</ele>
        <time>2021-10-27T09:30:39Z</time>
      </trkpt>
      <trkpt lat="44.12181" lon="6.85605">
        <ele>1357.92</ele>
        <time>2021-10-27T09:30:42Z</time>
      </trkpt>
      <trkpt lat="44.12184" lon="6.85604">
        <ele>1357.38</ele>
        <time>2021-10-27T09:30:47Z</time>
      </trkpt>
      <trkpt lat="44.12187" lon="6.85606">
        <ele>1356.9</ele>
        <time>2021-10-27T09:30:50Z</time>
      </trkpt>
      <trkpt lat="44.12189" lon="6.85609">
        <ele>1356.69</ele>
        <time>2021-10-27T09:30:53Z</time>
      </trkpt>
      <trkpt lat="44.12192" lon="6.85612">
        <ele>1356.35</ele>
        <time>2021-10-27T09:30:58Z</time>
      </trkpt>
      <trkpt lat="44.12194" lon="6.85614">
        <ele>1356.06</ele>
        <time>2021-10-27T09:31:03Z</time>
      </trkpt>
      <trkpt lat="44.12197" lon="6.85616">
        <ele>1356.02</ele>
        <time>2021-10-27T09:31:06Z</time>
      </trkpt>
      <trkpt lat="44.12199" lon="6.85618">
        <ele>1356.04</ele>
        <time>2021-10-27T09:31:09Z</time>
      </trkpt>
      <trkpt lat="44.12201" lon="6.85621">
        <ele>1356.08</ele>
        <time>2021-10-27T09:31:16Z</time>
      </trkpt>
      <trkpt lat="44.12203" lon="6.85624">
        <ele>1356.14</ele>
        <time>2021-10-27T09:31:20Z</time>
      </trkpt>
      <trkpt lat="44.12204" lon="6.85628">
        <ele>1356.21</ele>
        <time>2021-10-27T09:31:24Z</time>
      </trkpt>
      <trkpt lat="44.12207" lon="6.85631">
        <ele>1356.32</ele>
        <time>2021-10-27T09:31:29Z</time>
      </trkpt>
      <trkpt lat="44.1221" lon="6.85633">
        <ele>1356.44</ele>
        <time>2021-10-27T09:31:33Z</time>
      </trkpt>
      <trkpt lat="44.12212" lon="6.85635">
        <ele>1356.54</ele>
        <time>2021-10-27T09:31:39Z</time>
      </trkpt>
      <trkpt lat="44.12209" lon="6.85636">
        <ele>1356.47</ele>
        <time>2021-10-27T09:32:28Z</time>
      </trkpt>
      <trkpt lat="44.12211" lon="6.85634">
        <ele>1356.49</ele>
        <time>2021-10-27T09:33:00Z</time>
      </trkpt>
      <trkpt lat="44.12214" lon="6.85631">
        <ele>1356.5</ele>
        <time>2021-10-27T09:33:05Z</time>
      </trkpt>
      <trkpt lat="44.12217" lon="6.8563">
        <ele>1356.55</ele>
        <time>2021-10-27T09:33:09Z</time>
      </trkpt>
      <trkpt lat="44.12219" lon="6.8563">
        <ele>1356.6</ele>
        <time>2021-10-27T09:33:15Z</time>
      </trkpt>
      <trkpt lat="44.12222" lon="6.8563">
        <ele>1356.67</ele>
        <time>2021-10-27T09:33:20Z</time>
      </trkpt>
      <trkpt lat="44.12224" lon="6.85627">
        <ele>1356.71</ele>
        <time>2021-10-27T09:33:23Z</time>
      </trkpt>
      <trkpt lat="44.12225" lon="6.85624">
        <ele>1356.66</ele>
        <time>2021-10-27T09:33:26Z</time>
      </trkpt>
      <trkpt lat="44.12225" lon="6.85619">
        <ele>1356.44</ele>
        <time>2021-10-27T09:33:33Z</time>
      </trkpt>
      <trkpt lat="44.12224" lon="6.85616">
        <ele>1356.26</ele>
        <time>2021-10-27T09:33:36Z</time>
      </trkpt>
      <trkpt lat="44.12227" lon="6.85615">
        <ele>1356.36</ele>
        <time>2021-10-27T09:34:49Z</time>
      </trkpt>
      <trkpt lat="44.12224" lon="6.85615">
        <ele>1356.22</ele>
        <time>2021-10-27T09:35:28Z</time>
      </trkpt>
      <trkpt lat="44.12226" lon="6.85613">
        <ele>1356.22</ele>
        <time>2021-10-27T09:35:48Z</time>
      </trkpt>
      <trkpt lat="44.12227" lon="6.85609">
        <ele>1355.89</ele>
        <time>2021-10-27T09:36:19Z</time>
      </trkpt>
      <trkpt lat="44.1223" lon="6.85607">
        <ele>1355.77</ele>
        <time>2021-10-27T09:36:25Z</time>
      </trkpt>
      <trkpt lat="44.12229" lon="6.85612">
        <ele>1356.29</ele>
        <time>2021-10-27T09:36:47Z</time>
      </trkpt>
      <trkpt lat="44.12228" lon="6.85608">
        <ele>1355.81</ele>
        <time>2021-10-27T09:37:53Z</time>
      </trkpt>
      <trkpt lat="44.1223" lon="6.85605">
        <ele>1355.52</ele>
        <time>2021-10-27T09:38:23Z</time>
      </trkpt>
      <trkpt lat="44.12227" lon="6.85607">
        <ele>1355.63</ele>
        <time>2021-10-27T09:38:33Z</time>
      </trkpt>
      <trkpt lat="44.12229" lon="6.85609">
        <ele>1355.98</ele>
        <time>2021-10-27T09:38:56Z</time>
      </trkpt>
      <trkpt lat="44.12231" lon="6.85612">
        <ele>1356.37</ele>
        <time>2021-10-27T09:39:42Z</time>
      </trkpt>
      <trkpt lat="44.12227" lon="6.85612">
        <ele>1356.22</ele>
        <time>2021-10-27T09:40:18Z</time>
      </trkpt>
      <trkpt lat="44.12224" lon="6.85612">
        <ele>1356.1</ele>
        <time>2021-10-27T09:40:22Z</time>
      </trkpt>
      <trkpt lat="44.12227" lon="6.8561">
        <ele>1356.03</ele>
        <time>2021-10-27T09:40:26Z</time>
      </trkpt>
      <trkpt lat="44.12224" lon="6.85611">
        <ele>1356.05</ele>
        <time>2021-10-27T09:40:45Z</time>
      </trkpt>
      <trkpt lat="44.12227" lon="6.85611">
        <ele>1356.16</ele>
        <time>2021-10-27T09:41:09Z</time>
      </trkpt>
      <trkpt lat="44.1223" lon="6.85609">
        <ele>1356.02</ele>
        <time>2021-10-27T09:41:55Z</time>
      </trkpt>
      <trkpt lat="44.12227" lon="6.85615">
        <ele>1356.36</ele>
        <time>2021-10-27T09:42:51Z</time>
      </trkpt>
      <trkpt lat="44.12225" lon="6.85617">
        <ele>1356.35</ele>
        <time>2021-10-27T09:43:03Z</time>
      </trkpt>
      <trkpt lat="44.12225" lon="6.85621">
        <ele>1356.53</ele>
        <time>2021-10-27T09:43:09Z</time>
      </trkpt>
      <trkpt lat="44.12225" lon="6.85625">
        <ele>1356.7</ele>
        <time>2021-10-27T09:43:13Z</time>
      </trkpt>
      <trkpt lat="44.12223" lon="6.85627">
        <ele>1356.63</ele>
        <time>2021-10-27T09:43:16Z</time>
      </trkpt>
      <trkpt lat="44.1222" lon="6.85626">
        <ele>1356.49</ele>
        <time>2021-10-27T09:43:20Z</time>
      </trkpt>
      <trkpt lat="44.12217" lon="6.85625">
        <ele>1356.41</ele>
        <time>2021-10-27T09:43:27Z</time>
      </trkpt>
      <trkpt lat="44.12214" lon="6.85627">
        <ele>1356.4</ele>
        <time>2021-10-27T09:43:32Z</time>
      </trkpt>
      <trkpt lat="44.12211" lon="6.85628">
        <ele>1356.36</ele>
        <time>2021-10-27T09:43:35Z</time>
      </trkpt>
      <trkpt lat="44.12209" lon="6.85631">
        <ele>1356.38</ele>
        <time>2021-10-27T09:43:42Z</time>
      </trkpt>
      <trkpt lat="44.1221" lon="6.85635">
        <ele>1356.48</ele>
        <time>2021-10-27T09:43:47Z</time>
      </trkpt>
      <trkpt lat="44.12212" lon="6.85638">
        <ele>1356.61</ele>
        <time>2021-10-27T09:43:50Z</time>
      </trkpt>
      <trkpt lat="44.12213" lon="6.85643">
        <ele>1356.96</ele>
        <time>2021-10-27T09:43:54Z</time>
      </trkpt>
      <trkpt lat="44.12214" lon="6.85647">
        <ele>1357.32</ele>
        <time>2021-10-27T09:43:56Z</time>
      </trkpt>
      <trkpt lat="44.12217" lon="6.85649">
        <ele>1357.7</ele>
        <time>2021-10-27T09:43:59Z</time>
      </trkpt>
      <trkpt lat="44.12219" lon="6.85647">
        <ele>1357.66</ele>
        <time>2021-10-27T09:44:11Z</time>
      </trkpt>
      <trkpt lat="44.12222" lon="6.85649">
        <ele>1358.08</ele>
        <time>2021-10-27T09:44:20Z</time>
      </trkpt>
      <trkpt lat="44.12224" lon="6.85652">
        <ele>1358.67</ele>
        <time>2021-10-27T09:44:21Z</time>
      </trkpt>
      <trkpt lat="44.12225" lon="6.85656">
        <ele>1359.27</ele>
        <time>2021-10-27T09:44:25Z</time>
      </trkpt>
      <trkpt lat="44.12228" lon="6.85658">
        <ele>1359.97</ele>
        <time>2021-10-27T09:44:29Z</time>
      </trkpt>
      <trkpt lat="44.12229" lon="6.85662">
        <ele>1360.63</ele>
        <time>2021-10-27T09:44:35Z</time>
      </trkpt>
      <trkpt lat="44.12228" lon="6.85666">
        <ele>1360.96</ele>
        <time>2021-10-27T09:44:38Z</time>
      </trkpt>
      <trkpt lat="44.12226" lon="6.85669">
        <ele>1361.06</ele>
        <time>2021-10-27T09:44:40Z</time>
      </trkpt>
      <trkpt lat="44.12225" lon="6.85674">
        <ele>1361.66</ele>
        <time>2021-10-27T09:44:45Z</time>
      </trkpt>
      <trkpt lat="44.12225" lon="6.85678">
        <ele>1362.3</ele>
        <time>2021-10-27T09:44:48Z</time>
      </trkpt>
      <trkpt lat="44.12225" lon="6.85682">
        <ele>1362.93</ele>
        <time>2021-10-27T09:44:51Z</time>
      </trkpt>
      <trkpt lat="44.12223" lon="6.85686">
        <ele>1363</ele>
        <time>2021-10-27T09:44:57Z</time>
      </trkpt>
      <trkpt lat="44.1222" lon="6.85685">
        <ele>1362.21</ele>
        <time>2021-10-27T09:45:03Z</time>
      </trkpt>
      <trkpt lat="44.12217" lon="6.85684">
        <ele>1361.51</ele>
        <time>2021-10-27T09:45:05Z</time>
      </trkpt>
      <trkpt lat="44.12214" lon="6.85683">
        <ele>1360.82</ele>
        <time>2021-10-27T09:45:08Z</time>
      </trkpt>
      <trkpt lat="44.12211" lon="6.85684">
        <ele>1360.38</ele>
        <time>2021-10-27T09:45:12Z</time>
      </trkpt>
      <trkpt lat="44.12209" lon="6.85687">
        <ele>1360.33</ele>
        <time>2021-10-27T09:45:16Z</time>
      </trkpt>
      <trkpt lat="44.12209" lon="6.85691">
        <ele>1360.77</ele>
        <time>2021-10-27T09:45:20Z</time>
      </trkpt>
      <trkpt lat="44.12211" lon="6.85695">
        <ele>1361.64</ele>
        <time>2021-10-27T09:45:27Z</time>
      </trkpt>
      <trkpt lat="44.1221" lon="6.85699">
        <ele>1361.87</ele>
        <time>2021-10-27T09:45:30Z</time>
      </trkpt>
      <trkpt lat="44.12208" lon="6.85702">
        <ele>1361.74</ele>
        <time>2021-10-27T09:45:35Z</time>
      </trkpt>
      <trkpt lat="44.12206" lon="6.85706">
        <ele>1361.67</ele>
        <time>2021-10-27T09:45:40Z</time>
      </trkpt>
      <trkpt lat="44.12204" lon="6.8571">
        <ele>1361.57</ele>
        <time>2021-10-27T09:45:43Z</time>
      </trkpt>
      <trkpt lat="44.12202" lon="6.85712">
        <ele>1361.24</ele>
        <time>2021-10-27T09:45:45Z</time>
      </trkpt>
      <trkpt lat="44.122" lon="6.85716">
        <ele>1361.06</ele>
        <time>2021-10-27T09:45:54Z</time>
      </trkpt>
      <trkpt lat="44.12198" lon="6.85719">
        <ele>1360.76</ele>
        <time>2021-10-27T09:46:00Z</time>
      </trkpt>
      <trkpt lat="44.12198" lon="6.85723">
        <ele>1361</ele>
        <time>2021-10-27T09:46:11Z</time>
      </trkpt>
      <trkpt lat="44.12198" lon="6.85728">
        <ele>1360.82</ele>
        <time>2021-10-27T09:46:15Z</time>
      </trkpt>
      <trkpt lat="44.12196" lon="6.85732">
        <ele>1360.1</ele>
        <time>2021-10-27T09:46:18Z</time>
      </trkpt>
      <trkpt lat="44.12194" lon="6.85736">
        <ele>1359.42</ele>
        <time>2021-10-27T09:46:21Z</time>
      </trkpt>
      <trkpt lat="44.12192" lon="6.8574">
        <ele>1358.91</ele>
        <time>2021-10-27T09:46:26Z</time>
      </trkpt>
      <trkpt lat="44.12192" lon="6.85744">
        <ele>1358.81</ele>
        <time>2021-10-27T09:46:31Z</time>
      </trkpt>
      <trkpt lat="44.12193" lon="6.85748">
        <ele>1358.85</ele>
        <time>2021-10-27T09:46:36Z</time>
      </trkpt>
      <trkpt lat="44.12192" lon="6.85751">
        <ele>1358.62</ele>
        <time>2021-10-27T09:46:45Z</time>
      </trkpt>
      <trkpt lat="44.12191" lon="6.85755">
        <ele>1358.39</ele>
        <time>2021-10-27T09:46:53Z</time>
      </trkpt>
      <trkpt lat="44.12191" lon="6.85759">
        <ele>1358.3</ele>
        <time>2021-10-27T09:47:00Z</time>
      </trkpt>
      <trkpt lat="44.12188" lon="6.85762">
        <ele>1357.94</ele>
        <time>2021-10-27T09:47:08Z</time>
      </trkpt>
      <trkpt lat="44.12189" lon="6.85766">
        <ele>1357.98</ele>
        <time>2021-10-27T09:47:25Z</time>
      </trkpt>
      <trkpt lat="44.1219" lon="6.8577">
        <ele>1357.99</ele>
        <time>2021-10-27T09:47:30Z</time>
      </trkpt>
      <trkpt lat="44.12191" lon="6.85773">
        <ele>1357.98</ele>
        <time>2021-10-27T09:47:32Z</time>
      </trkpt>
      <trkpt lat="44.12194" lon="6.85776">
        <ele>1358.04</ele>
        <time>2021-10-27T09:47:36Z</time>
      </trkpt>
      <trkpt lat="44.12197" lon="6.85777">
        <ele>1359.03</ele>
        <time>2021-10-27T09:47:39Z</time>
      </trkpt>
      <trkpt lat="44.12201" lon="6.85776">
        <ele>1360.61</ele>
        <time>2021-10-27T09:47:42Z</time>
      </trkpt>
      <trkpt lat="44.12204" lon="6.85777">
        <ele>1361.78</ele>
        <time>2021-10-27T09:47:47Z</time>
      </trkpt>
      <trkpt lat="44.12206" lon="6.85779">
        <ele>1362.72</ele>
        <time>2021-10-27T09:47:50Z</time>
      </trkpt>
      <trkpt lat="44.12207" lon="6.85783">
        <ele>1363.57</ele>
        <time>2021-10-27T09:47:56Z</time>
      </trkpt>
      <trkpt lat="44.12207" lon="6.85787">
        <ele>1364.03</ele>
        <time>2021-10-27T09:48:06Z</time>
      </trkpt>
      <trkpt lat="44.12209" lon="6.8579">
        <ele>1365.04</ele>
        <time>2021-10-27T09:48:16Z</time>
      </trkpt>
      <trkpt lat="44.12212" lon="6.85792">
        <ele>1366.22</ele>
        <time>2021-10-27T09:48:20Z</time>
      </trkpt>
      <trkpt lat="44.12214" lon="6.85794">
        <ele>1367.02</ele>
        <time>2021-10-27T09:48:29Z</time>
      </trkpt>
      <trkpt lat="44.12217" lon="6.85796">
        <ele>1368.08</ele>
        <time>2021-10-27T09:48:37Z</time>
      </trkpt>
      <trkpt lat="44.1222" lon="6.85799">
        <ele>1369.13</ele>
        <time>2021-10-27T09:48:41Z</time>
      </trkpt>
      <trkpt lat="44.12222" lon="6.85802">
        <ele>1369.81</ele>
        <time>2021-10-27T09:49:05Z</time>
      </trkpt>
      <trkpt lat="44.12224" lon="6.85803">
        <ele>1371.07</ele>
        <time>2021-10-27T09:49:17Z</time>
      </trkpt>
      <trkpt lat="44.12226" lon="6.85806">
        <ele>1372.46</ele>
        <time>2021-10-27T09:49:41Z</time>
      </trkpt>
      <trkpt lat="44.12228" lon="6.8581">
        <ele>1373.87</ele>
        <time>2021-10-27T09:49:53Z</time>
      </trkpt>
      <trkpt lat="44.12227" lon="6.85814">
        <ele>1373.35</ele>
        <time>2021-10-27T09:50:01Z</time>
      </trkpt>
      <trkpt lat="44.12226" lon="6.85821">
        <ele>1372.93</ele>
        <time>2021-10-27T09:50:05Z</time>
      </trkpt>
      <trkpt lat="44.12227" lon="6.85826">
        <ele>1373.71</ele>
        <time>2021-10-27T09:50:07Z</time>
      </trkpt>
      <trkpt lat="44.12225" lon="6.85829">
        <ele>1372.56</ele>
        <time>2021-10-27T09:50:45Z</time>
      </trkpt>
      <trkpt lat="44.12227" lon="6.85833">
        <ele>1373.91</ele>
        <time>2021-10-27T09:50:50Z</time>
      </trkpt>
      <trkpt lat="44.12228" lon="6.85837">
        <ele>1374.83</ele>
        <time>2021-10-27T09:51:00Z</time>
      </trkpt>
      <trkpt lat="44.1223" lon="6.8584">
        <ele>1376.31</ele>
        <time>2021-10-27T09:51:06Z</time>
      </trkpt>
      <trkpt lat="44.12231" lon="6.85845">
        <ele>1377.34</ele>
        <time>2021-10-27T09:51:10Z</time>
      </trkpt>
      <trkpt lat="44.12233" lon="6.85849">
        <ele>1378.94</ele>
        <time>2021-10-27T09:51:12Z</time>
      </trkpt>
      <trkpt lat="44.12235" lon="6.85852">
        <ele>1380.47</ele>
        <time>2021-10-27T09:51:16Z</time>
      </trkpt>
      <trkpt lat="44.12238" lon="6.85855">
        <ele>1382.66</ele>
        <time>2021-10-27T09:51:25Z</time>
      </trkpt>
      <trkpt lat="44.12238" lon="6.85859">
        <ele>1383.03</ele>
        <time>2021-10-27T09:51:31Z</time>
      </trkpt>
      <trkpt lat="44.12237" lon="6.85863">
        <ele>1382.57</ele>
        <time>2021-10-27T09:51:36Z</time>
      </trkpt>
      <trkpt lat="44.12238" lon="6.85867">
        <ele>1383.17</ele>
        <time>2021-10-27T09:51:39Z</time>
      </trkpt>
      <trkpt lat="44.1224" lon="6.8587">
        <ele>1384.34</ele>
        <time>2021-10-27T09:51:46Z</time>
      </trkpt>
      <trkpt lat="44.12241" lon="6.85874">
        <ele>1384.84</ele>
        <time>2021-10-27T09:51:49Z</time>
      </trkpt>
      <trkpt lat="44.1224" lon="6.85878">
        <ele>1384.18</ele>
        <time>2021-10-27T09:52:22Z</time>
      </trkpt>
      <trkpt lat="44.1224" lon="6.85882">
        <ele>1384.1</ele>
        <time>2021-10-27T09:52:28Z</time>
      </trkpt>
      <trkpt lat="44.12239" lon="6.85886">
        <ele>1383.5</ele>
        <time>2021-10-27T09:52:31Z</time>
      </trkpt>
      <trkpt lat="44.12238" lon="6.8589">
        <ele>1383.07</ele>
        <time>2021-10-27T09:52:34Z</time>
      </trkpt>
      <trkpt lat="44.12238" lon="6.85894">
        <ele>1383.48</ele>
        <time>2021-10-27T09:52:43Z</time>
      </trkpt>
      <trkpt lat="44.12237" lon="6.85899">
        <ele>1383.52</ele>
        <time>2021-10-27T09:52:46Z</time>
      </trkpt>
      <trkpt lat="44.12236" lon="6.85902">
        <ele>1383.36</ele>
        <time>2021-10-27T09:52:49Z</time>
      </trkpt>
      <trkpt lat="44.12235" lon="6.85907">
        <ele>1383.45</ele>
        <time>2021-10-27T09:52:52Z</time>
      </trkpt>
      <trkpt lat="44.12236" lon="6.85911">
        <ele>1384.34</ele>
        <time>2021-10-27T09:52:56Z</time>
      </trkpt>
      <trkpt lat="44.12235" lon="6.85915">
        <ele>1384.34</ele>
        <time>2021-10-27T09:52:59Z</time>
      </trkpt>
      <trkpt lat="44.12232" lon="6.85916">
        <ele>1383.14</ele>
        <time>2021-10-27T09:53:04Z</time>
      </trkpt>
      <trkpt lat="44.12229" lon="6.85917">
        <ele>1382.01</ele>
        <time>2021-10-27T09:53:08Z</time>
      </trkpt>
      <trkpt lat="44.12225" lon="6.85918">
        <ele>1380.54</ele>
        <time>2021-10-27T09:53:11Z</time>
      </trkpt>
      <trkpt lat="44.12222" lon="6.85918">
        <ele>1379.32</ele>
        <time>2021-10-27T09:53:14Z</time>
      </trkpt>
      <trkpt lat="44.12219" lon="6.85918">
        <ele>1379.1</ele>
        <time>2021-10-27T09:53:17Z</time>
      </trkpt>
      <trkpt lat="44.12217" lon="6.85915">
        <ele>1378.4</ele>
        <time>2021-10-27T09:53:21Z</time>
      </trkpt>
      <trkpt lat="44.12214" lon="6.85914">
        <ele>1378.05</ele>
        <time>2021-10-27T09:53:27Z</time>
      </trkpt>
      <trkpt lat="44.12211" lon="6.85912">
        <ele>1377.59</ele>
        <time>2021-10-27T09:53:30Z</time>
      </trkpt>
      <trkpt lat="44.12208" lon="6.85911">
        <ele>1377.26</ele>
        <time>2021-10-27T09:53:33Z</time>
      </trkpt>
      <trkpt lat="44.12206" lon="6.85907">
        <ele>1376.64</ele>
        <time>2021-10-27T09:53:50Z</time>
      </trkpt>
      <trkpt lat="44.12209" lon="6.85907">
        <ele>1376.82</ele>
        <time>2021-10-27T09:53:58Z</time>
      </trkpt>
      <trkpt lat="44.12207" lon="6.85905">
        <ele>1376.45</ele>
        <time>2021-10-27T09:54:26Z</time>
      </trkpt>
      <trkpt lat="44.12204" lon="6.85907">
        <ele>1376.52</ele>
        <time>2021-10-27T09:54:29Z</time>
      </trkpt>
      <trkpt lat="44.12204" lon="6.85911">
        <ele>1377.01</ele>
        <time>2021-10-27T09:54:35Z</time>
      </trkpt>
      <trkpt lat="44.12207" lon="6.85914">
        <ele>1377.57</ele>
        <time>2021-10-27T09:54:39Z</time>
      </trkpt>
      <trkpt lat="44.1221" lon="6.85916">
        <ele>1378.03</ele>
        <time>2021-10-27T09:54:42Z</time>
      </trkpt>
      <trkpt lat="44.12212" lon="6.85919">
        <ele>1378.82</ele>
        <time>2021-10-27T09:54:47Z</time>
      </trkpt>
      <trkpt lat="44.12214" lon="6.85921">
        <ele>1379.45</ele>
        <time>2021-10-27T09:54:50Z</time>
      </trkpt>
      <trkpt lat="44.12217" lon="6.85922">
        <ele>1379.93</ele>
        <time>2021-10-27T09:54:52Z</time>
      </trkpt>
      <trkpt lat="44.12219" lon="6.85924">
        <ele>1380.59</ele>
        <time>2021-10-27T09:54:55Z</time>
      </trkpt>
      <trkpt lat="44.12219" lon="6.85928">
        <ele>1381.58</ele>
        <time>2021-10-27T09:54:59Z</time>
      </trkpt>
      <trkpt lat="44.12216" lon="6.8593">
        <ele>1381.8</ele>
        <time>2021-10-27T09:55:03Z</time>
      </trkpt>
      <trkpt lat="44.12213" lon="6.8593">
        <ele>1381.54</ele>
        <time>2021-10-27T09:55:05Z</time>
      </trkpt>
      <trkpt lat="44.1221" lon="6.85932">
        <ele>1381.74</ele>
        <time>2021-10-27T09:55:09Z</time>
      </trkpt>
      <trkpt lat="44.12208" lon="6.85933">
        <ele>1381.79</ele>
        <time>2021-10-27T09:55:13Z</time>
      </trkpt>
      <trkpt lat="44.12205" lon="6.85934">
        <ele>1381.74</ele>
        <time>2021-10-27T09:55:16Z</time>
      </trkpt>
      <trkpt lat="44.12202" lon="6.85933">
        <ele>1381.23</ele>
        <time>2021-10-27T09:55:22Z</time>
      </trkpt>
      <trkpt lat="44.12199" lon="6.85935">
        <ele>1381.4</ele>
        <time>2021-10-27T09:55:32Z</time>
      </trkpt>
      <trkpt lat="44.12198" lon="6.85931">
        <ele>1380.42</ele>
        <time>2021-10-27T09:55:50Z</time>
      </trkpt>
      <trkpt lat="44.12195" lon="6.85933">
        <ele>1380.58</ele>
        <time>2021-10-27T09:55:56Z</time>
      </trkpt>
      <trkpt lat="44.12193" lon="6.85936">
        <ele>1380.97</ele>
        <time>2021-10-27T09:56:01Z</time>
      </trkpt>
      <trkpt lat="44.1219" lon="6.85938">
        <ele>1380.97</ele>
        <time>2021-10-27T09:56:07Z</time>
      </trkpt>
      <trkpt lat="44.12187" lon="6.85939">
        <ele>1380.75</ele>
        <time>2021-10-27T09:56:10Z</time>
      </trkpt>
      <trkpt lat="44.12185" lon="6.85942">
        <ele>1381.11</ele>
        <time>2021-10-27T09:56:16Z</time>
      </trkpt>
      <trkpt lat="44.12182" lon="6.85945">
        <ele>1381.41</ele>
        <time>2021-10-27T09:56:24Z</time>
      </trkpt>
      <trkpt lat="44.12179" lon="6.85946">
        <ele>1381.34</ele>
        <time>2021-10-27T09:56:28Z</time>
      </trkpt>
      <trkpt lat="44.12176" lon="6.85946">
        <ele>1380.9</ele>
        <time>2021-10-27T09:56:34Z</time>
      </trkpt>
      <trkpt lat="44.12175" lon="6.8595">
        <ele>1382.2</ele>
        <time>2021-10-27T09:56:41Z</time>
      </trkpt>
      <trkpt lat="44.12174" lon="6.85954">
        <ele>1383.5</ele>
        <time>2021-10-27T09:56:48Z</time>
      </trkpt>
      <trkpt lat="44.12174" lon="6.85957">
        <ele>1384.58</ele>
        <time>2021-10-27T09:56:54Z</time>
      </trkpt>
      <trkpt lat="44.12174" lon="6.85962">
        <ele>1386.38</ele>
        <time>2021-10-27T09:57:00Z</time>
      </trkpt>
      <trkpt lat="44.12171" lon="6.85963">
        <ele>1386.3</ele>
        <time>2021-10-27T09:57:07Z</time>
      </trkpt>
      <trkpt lat="44.12169" lon="6.85966">
        <ele>1387.1</ele>
        <time>2021-10-27T09:57:18Z</time>
      </trkpt>
      <trkpt lat="44.12167" lon="6.85968">
        <ele>1387.53</ele>
        <time>2021-10-27T09:57:24Z</time>
      </trkpt>
      <trkpt lat="44.12164" lon="6.8597">
        <ele>1387.72</ele>
        <time>2021-10-27T09:57:28Z</time>
      </trkpt>
      <trkpt lat="44.12161" lon="6.85971">
        <ele>1387.54</ele>
        <time>2021-10-27T09:57:36Z</time>
      </trkpt>
      <trkpt lat="44.12159" lon="6.85973">
        <ele>1387.9</ele>
        <time>2021-10-27T09:57:49Z</time>
      </trkpt>
      <trkpt lat="44.12156" lon="6.85975">
        <ele>1388.08</ele>
        <time>2021-10-27T09:57:53Z</time>
      </trkpt>
      <trkpt lat="44.12153" lon="6.85975">
        <ele>1387.54</ele>
        <time>2021-10-27T09:57:59Z</time>
      </trkpt>
      <trkpt lat="44.12151" lon="6.85977">
        <ele>1387.9</ele>
        <time>2021-10-27T09:58:13Z</time>
      </trkpt>
      <trkpt lat="44.12149" lon="6.8598">
        <ele>1388.62</ele>
        <time>2021-10-27T09:58:17Z</time>
      </trkpt>
      <trkpt lat="44.12146" lon="6.85983">
        <ele>1389.16</ele>
        <time>2021-10-27T09:58:22Z</time>
      </trkpt>
      <trkpt lat="44.12146" lon="6.85986">
        <ele>1390.24</ele>
        <time>2021-10-27T09:58:38Z</time>
      </trkpt>
      <trkpt lat="44.12143" lon="6.85988">
        <ele>1390.42</ele>
        <time>2021-10-27T09:58:42Z</time>
      </trkpt>
      <trkpt lat="44.1214" lon="6.85991">
        <ele>1390.96</ele>
        <time>2021-10-27T09:58:46Z</time>
      </trkpt>
      <trkpt lat="44.12137" lon="6.85993">
        <ele>1391.07</ele>
        <time>2021-10-27T09:58:48Z</time>
      </trkpt>
      <trkpt lat="44.12135" lon="6.85996">
        <ele>1391.66</ele>
        <time>2021-10-27T09:58:53Z</time>
      </trkpt>
      <trkpt lat="44.12133" lon="6.85999">
        <ele>1392.19</ele>
        <time>2021-10-27T09:59:00Z</time>
      </trkpt>
      <trkpt lat="44.1213" lon="6.86001">
        <ele>1392.05</ele>
        <time>2021-10-27T09:59:09Z</time>
      </trkpt>
      <trkpt lat="44.12127" lon="6.86">
        <ele>1391</ele>
        <time>2021-10-27T09:59:20Z</time>
      </trkpt>
      <trkpt lat="44.12126" lon="6.86004">
        <ele>1391.85</ele>
        <time>2021-10-27T09:59:47Z</time>
      </trkpt>
      <trkpt lat="44.12123" lon="6.86005">
        <ele>1391.31</ele>
        <time>2021-10-27T09:59:52Z</time>
      </trkpt>
      <trkpt lat="44.12121" lon="6.86009">
        <ele>1391.78</ele>
        <time>2021-10-27T09:59:58Z</time>
      </trkpt>
      <trkpt lat="44.12122" lon="6.86013">
        <ele>1393.1</ele>
        <time>2021-10-27T10:00:05Z</time>
      </trkpt>
      <trkpt lat="44.12121" lon="6.86017">
        <ele>1393.82</ele>
        <time>2021-10-27T10:00:15Z</time>
      </trkpt>
      <trkpt lat="44.1212" lon="6.86021">
        <ele>1394.5</ele>
        <time>2021-10-27T10:00:20Z</time>
      </trkpt>
      <trkpt lat="44.12119" lon="6.86025">
        <ele>1395.15</ele>
        <time>2021-10-27T10:00:23Z</time>
      </trkpt>
      <trkpt lat="44.12118" lon="6.86029">
        <ele>1395.78</ele>
        <time>2021-10-27T10:00:29Z</time>
      </trkpt>
      <trkpt lat="44.12116" lon="6.86032">
        <ele>1395.8</ele>
        <time>2021-10-27T10:00:31Z</time>
      </trkpt>
      <trkpt lat="44.12115" lon="6.86036">
        <ele>1396.43</ele>
        <time>2021-10-27T10:00:34Z</time>
      </trkpt>
      <trkpt lat="44.12114" lon="6.8604">
        <ele>1397.07</ele>
        <time>2021-10-27T10:00:37Z</time>
      </trkpt>
      <trkpt lat="44.12112" lon="6.86044">
        <ele>1397.39</ele>
        <time>2021-10-27T10:00:41Z</time>
      </trkpt>
      <trkpt lat="44.12111" lon="6.86047">
        <ele>1397.8</ele>
        <time>2021-10-27T10:00:44Z</time>
      </trkpt>
      <trkpt lat="44.12109" lon="6.86051">
        <ele>1398.09</ele>
        <time>2021-10-27T10:00:48Z</time>
      </trkpt>
      <trkpt lat="44.12108" lon="6.86055">
        <ele>1398.74</ele>
        <time>2021-10-27T10:00:52Z</time>
      </trkpt>
      <trkpt lat="44.12108" lon="6.8606">
        <ele>1399.57</ele>
        <time>2021-10-27T10:00:56Z</time>
      </trkpt>
      <trkpt lat="44.12107" lon="6.86064">
        <ele>1399.87</ele>
        <time>2021-10-27T10:01:00Z</time>
      </trkpt>
      <trkpt lat="44.12106" lon="6.86068">
        <ele>1400.2</ele>
        <time>2021-10-27T10:01:04Z</time>
      </trkpt>
      <trkpt lat="44.12105" lon="6.86072">
        <ele>1400.56</ele>
        <time>2021-10-27T10:01:11Z</time>
      </trkpt>
      <trkpt lat="44.12103" lon="6.86076">
        <ele>1400.67</ele>
        <time>2021-10-27T10:01:15Z</time>
      </trkpt>
      <trkpt lat="44.12101" lon="6.86079">
        <ele>1400.66</ele>
        <time>2021-10-27T10:01:19Z</time>
      </trkpt>
      <trkpt lat="44.12099" lon="6.86082">
        <ele>1400.69</ele>
        <time>2021-10-27T10:01:23Z</time>
      </trkpt>
      <trkpt lat="44.121" lon="6.86085">
        <ele>1401.4</ele>
        <time>2021-10-27T10:01:37Z</time>
      </trkpt>
      <trkpt lat="44.12102" lon="6.86088">
        <ele>1402.26</ele>
        <time>2021-10-27T10:01:43Z</time>
      </trkpt>
      <trkpt lat="44.12105" lon="6.86089">
        <ele>1403.12</ele>
        <time>2021-10-27T10:02:01Z</time>
      </trkpt>
      <trkpt lat="44.12108" lon="6.86089">
        <ele>1403.85</ele>
        <time>2021-10-27T10:02:16Z</time>
      </trkpt>
      <trkpt lat="44.12111" lon="6.8609">
        <ele>1404.69</ele>
        <time>2021-10-27T10:02:35Z</time>
      </trkpt>
      <trkpt lat="44.12113" lon="6.86093">
        <ele>1405.61</ele>
        <time>2021-10-27T10:02:47Z</time>
      </trkpt>
      <trkpt lat="44.12113" lon="6.86097">
        <ele>1406.02</ele>
        <time>2021-10-27T10:02:54Z</time>
      </trkpt>
      <trkpt lat="44.12115" lon="6.861">
        <ele>1406.89</ele>
        <time>2021-10-27T10:03:05Z</time>
      </trkpt>
      <trkpt lat="44.12113" lon="6.86103">
        <ele>1406.64</ele>
        <time>2021-10-27T10:03:18Z</time>
      </trkpt>
      <trkpt lat="44.12112" lon="6.86107">
        <ele>1406.79</ele>
        <time>2021-10-27T10:03:27Z</time>
      </trkpt>
      <trkpt lat="44.12112" lon="6.86111">
        <ele>1407.21</ele>
        <time>2021-10-27T10:03:36Z</time>
      </trkpt>
      <trkpt lat="44.12111" lon="6.86115">
        <ele>1407.12</ele>
        <time>2021-10-27T10:03:45Z</time>
      </trkpt>
      <trkpt lat="44.1211" lon="6.86119">
        <ele>1407.08</ele>
        <time>2021-10-27T10:03:53Z</time>
      </trkpt>
      <trkpt lat="44.12108" lon="6.86121">
        <ele>1406.8</ele>
        <time>2021-10-27T10:03:59Z</time>
      </trkpt>
      <trkpt lat="44.12106" lon="6.86124">
        <ele>1406.62</ele>
        <time>2021-10-27T10:04:02Z</time>
      </trkpt>
      <trkpt lat="44.12105" lon="6.86129">
        <ele>1406.75</ele>
        <time>2021-10-27T10:04:07Z</time>
      </trkpt>
      <trkpt lat="44.12104" lon="6.86134">
        <ele>1406.92</ele>
        <time>2021-10-27T10:04:10Z</time>
      </trkpt>
      <trkpt lat="44.12095" lon="6.86135">
        <ele>1405.88</ele>
        <time>2021-10-27T10:04:15Z</time>
      </trkpt>
      <trkpt lat="44.12091" lon="6.86136">
        <ele>1405.5</ele>
        <time>2021-10-27T10:04:18Z</time>
      </trkpt>
      <trkpt lat="44.1209" lon="6.8614">
        <ele>1405.78</ele>
        <time>2021-10-27T10:04:24Z</time>
      </trkpt>
      <trkpt lat="44.12092" lon="6.86143">
        <ele>1406.18</ele>
        <time>2021-10-27T10:04:29Z</time>
      </trkpt>
      <trkpt lat="44.12092" lon="6.86147">
        <ele>1406.41</ele>
        <time>2021-10-27T10:04:34Z</time>
      </trkpt>
      <trkpt lat="44.12091" lon="6.86152">
        <ele>1406.56</ele>
        <time>2021-10-27T10:04:39Z</time>
      </trkpt>
      <trkpt lat="44.1209" lon="6.86155">
        <ele>1406.58</ele>
        <time>2021-10-27T10:04:41Z</time>
      </trkpt>
      <trkpt lat="44.12089" lon="6.86159">
        <ele>1406.63</ele>
        <time>2021-10-27T10:04:43Z</time>
      </trkpt>
      <trkpt lat="44.12088" lon="6.86163">
        <ele>1406.66</ele>
        <time>2021-10-27T10:04:50Z</time>
      </trkpt>
      <trkpt lat="44.12087" lon="6.86167">
        <ele>1406.72</ele>
        <time>2021-10-27T10:04:55Z</time>
      </trkpt>
      <trkpt lat="44.12086" lon="6.86171">
        <ele>1407.25</ele>
        <time>2021-10-27T10:04:58Z</time>
      </trkpt>
      <trkpt lat="44.12083" lon="6.86173">
        <ele>1407.12</ele>
        <time>2021-10-27T10:05:01Z</time>
      </trkpt>
      <trkpt lat="44.12081" lon="6.86174">
        <ele>1407.17</ele>
        <time>2021-10-27T10:05:12Z</time>
      </trkpt>
      <trkpt lat="44.12078" lon="6.86178">
        <ele>1407.73</ele>
        <time>2021-10-27T10:05:22Z</time>
      </trkpt>
      <trkpt lat="44.12075" lon="6.86179">
        <ele>1407.75</ele>
        <time>2021-10-27T10:05:30Z</time>
      </trkpt>
      <trkpt lat="44.12073" lon="6.86182">
        <ele>1408.22</ele>
        <time>2021-10-27T10:05:33Z</time>
      </trkpt>
      <trkpt lat="44.1207" lon="6.86182">
        <ele>1408.06</ele>
        <time>2021-10-27T10:05:38Z</time>
      </trkpt>
      <trkpt lat="44.12067" lon="6.86185">
        <ele>1408.51</ele>
        <time>2021-10-27T10:05:42Z</time>
      </trkpt>
      <trkpt lat="44.12066" lon="6.86188">
        <ele>1409.07</ele>
        <time>2021-10-27T10:05:47Z</time>
      </trkpt>
      <trkpt lat="44.12064" lon="6.86192">
        <ele>1409.8</ele>
        <time>2021-10-27T10:05:52Z</time>
      </trkpt>
      <trkpt lat="44.12061" lon="6.86193">
        <ele>1409.89</ele>
        <time>2021-10-27T10:05:56Z</time>
      </trkpt>
      <trkpt lat="44.12058" lon="6.86195">
        <ele>1410.23</ele>
        <time>2021-10-27T10:06:00Z</time>
      </trkpt>
      <trkpt lat="44.12055" lon="6.86196">
        <ele>1410.29</ele>
        <time>2021-10-27T10:06:03Z</time>
      </trkpt>
      <trkpt lat="44.12052" lon="6.86198">
        <ele>1410.22</ele>
        <time>2021-10-27T10:06:06Z</time>
      </trkpt>
      <trkpt lat="44.12049" lon="6.86199">
        <ele>1409.89</ele>
        <time>2021-10-27T10:06:11Z</time>
      </trkpt>
      <trkpt lat="44.12046" lon="6.86199">
        <ele>1409.32</ele>
        <time>2021-10-27T10:06:16Z</time>
      </trkpt>
      <trkpt lat="44.12043" lon="6.86198">
        <ele>1408.52</ele>
        <time>2021-10-27T10:06:18Z</time>
      </trkpt>
      <trkpt lat="44.12041" lon="6.86199">
        <ele>1408.36</ele>
        <time>2021-10-27T10:06:22Z</time>
      </trkpt>
      <trkpt lat="44.12038" lon="6.862">
        <ele>1407.99</ele>
        <time>2021-10-27T10:06:24Z</time>
      </trkpt>
      <trkpt lat="44.12035" lon="6.86201">
        <ele>1407.6</ele>
        <time>2021-10-27T10:06:28Z</time>
      </trkpt>
      <trkpt lat="44.12032" lon="6.862">
        <ele>1406.82</ele>
        <time>2021-10-27T10:06:32Z</time>
      </trkpt>
      <trkpt lat="44.12029" lon="6.86198">
        <ele>1405.87</ele>
        <time>2021-10-27T10:06:37Z</time>
      </trkpt>
      <trkpt lat="44.12026" lon="6.86197">
        <ele>1404.45</ele>
        <time>2021-10-27T10:06:41Z</time>
      </trkpt>
      <trkpt lat="44.12023" lon="6.86198">
        <ele>1402.95</ele>
        <time>2021-10-27T10:06:48Z</time>
      </trkpt>
      <trkpt lat="44.12022" lon="6.86201">
        <ele>1403</ele>
        <time>2021-10-27T10:06:53Z</time>
      </trkpt>
      <trkpt lat="44.1202" lon="6.86205">
        <ele>1402.74</ele>
        <time>2021-10-27T10:06:57Z</time>
      </trkpt>
      <trkpt lat="44.12021" lon="6.86209">
        <ele>1404.1</ele>
        <time>2021-10-27T10:07:04Z</time>
      </trkpt>
      <trkpt lat="44.12022" lon="6.86212">
        <ele>1405.23</ele>
        <time>2021-10-27T10:07:14Z</time>
      </trkpt>
      <trkpt lat="44.12021" lon="6.86216">
        <ele>1405.54</ele>
        <time>2021-10-27T10:07:17Z</time>
      </trkpt>
      <trkpt lat="44.12019" lon="6.86219">
        <ele>1405.2</ele>
        <time>2021-10-27T10:07:26Z</time>
      </trkpt>
      <trkpt lat="44.1202" lon="6.86223">
        <ele>1406.54</ele>
        <time>2021-10-27T10:07:32Z</time>
      </trkpt>
      <trkpt lat="44.12022" lon="6.86228">
        <ele>1408.59</ele>
        <time>2021-10-27T10:07:38Z</time>
      </trkpt>
      <trkpt lat="44.12023" lon="6.86231">
        <ele>1409.71</ele>
        <time>2021-10-27T10:07:47Z</time>
      </trkpt>
      <trkpt lat="44.12023" lon="6.86234">
        <ele>1410.38</ele>
        <time>2021-10-27T10:07:54Z</time>
      </trkpt>
      <trkpt lat="44.12022" lon="6.86239">
        <ele>1411.05</ele>
        <time>2021-10-27T10:07:58Z</time>
      </trkpt>
      <trkpt lat="44.12022" lon="6.86243">
        <ele>1411.94</ele>
        <time>2021-10-27T10:08:01Z</time>
      </trkpt>
      <trkpt lat="44.12023" lon="6.86246">
        <ele>1413.05</ele>
        <time>2021-10-27T10:08:07Z</time>
      </trkpt>
      <trkpt lat="44.12022" lon="6.8625">
        <ele>1413.5</ele>
        <time>2021-10-27T10:08:10Z</time>
      </trkpt>
      <trkpt lat="44.1202" lon="6.86253">
        <ele>1413.07</ele>
        <time>2021-10-27T10:08:14Z</time>
      </trkpt>
      <trkpt lat="44.12019" lon="6.86257">
        <ele>1413.22</ele>
        <time>2021-10-27T10:08:16Z</time>
      </trkpt>
      <trkpt lat="44.12017" lon="6.86261">
        <ele>1412.93</ele>
        <time>2021-10-27T10:08:20Z</time>
      </trkpt>
      <trkpt lat="44.12016" lon="6.86265">
        <ele>1413.07</ele>
        <time>2021-10-27T10:08:24Z</time>
      </trkpt>
      <trkpt lat="44.12015" lon="6.86269">
        <ele>1413.22</ele>
        <time>2021-10-27T10:08:27Z</time>
      </trkpt>
      <trkpt lat="44.12014" lon="6.86273">
        <ele>1413.36</ele>
        <time>2021-10-27T10:08:31Z</time>
      </trkpt>
      <trkpt lat="44.12013" lon="6.86276">
        <ele>1413.36</ele>
        <time>2021-10-27T10:08:35Z</time>
      </trkpt>
      <trkpt lat="44.12011" lon="6.8628">
        <ele>1412.94</ele>
        <time>2021-10-27T10:08:38Z</time>
      </trkpt>
      <trkpt lat="44.12008" lon="6.86283">
        <ele>1411.89</ele>
        <time>2021-10-27T10:08:47Z</time>
      </trkpt>
      <trkpt lat="44.12006" lon="6.86286">
        <ele>1411.25</ele>
        <time>2021-10-27T10:08:49Z</time>
      </trkpt>
      <trkpt lat="44.12004" lon="6.8629">
        <ele>1410.67</ele>
        <time>2021-10-27T10:08:52Z</time>
      </trkpt>
      <trkpt lat="44.12002" lon="6.86293">
        <ele>1410</ele>
        <time>2021-10-27T10:08:54Z</time>
      </trkpt>
      <trkpt lat="44.12" lon="6.86297">
        <ele>1409.38</ele>
        <time>2021-10-27T10:08:58Z</time>
      </trkpt>
      <trkpt lat="44.11999" lon="6.86302">
        <ele>1409.26</ele>
        <time>2021-10-27T10:09:02Z</time>
      </trkpt>
      <trkpt lat="44.11998" lon="6.86306">
        <ele>1409.08</ele>
        <time>2021-10-27T10:09:10Z</time>
      </trkpt>
      <trkpt lat="44.11997" lon="6.8631">
        <ele>1408.81</ele>
        <time>2021-10-27T10:09:13Z</time>
      </trkpt>
      <trkpt lat="44.11996" lon="6.86314">
        <ele>1408.56</ele>
        <time>2021-10-27T10:09:16Z</time>
      </trkpt>
      <trkpt lat="44.11995" lon="6.86318">
        <ele>1408.35</ele>
        <time>2021-10-27T10:09:20Z</time>
      </trkpt>
      <trkpt lat="44.11994" lon="6.86322">
        <ele>1408.17</ele>
        <time>2021-10-27T10:09:23Z</time>
      </trkpt>
      <trkpt lat="44.11992" lon="6.86325">
        <ele>1407.56</ele>
        <time>2021-10-27T10:09:26Z</time>
      </trkpt>
      <trkpt lat="44.11991" lon="6.86329">
        <ele>1407.45</ele>
        <time>2021-10-27T10:09:28Z</time>
      </trkpt>
      <trkpt lat="44.11988" lon="6.86333">
        <ele>1406.65</ele>
        <time>2021-10-27T10:09:33Z</time>
      </trkpt>
      <trkpt lat="44.11987" lon="6.86338">
        <ele>1406.82</ele>
        <time>2021-10-27T10:09:38Z</time>
      </trkpt>
      <trkpt lat="44.11988" lon="6.86342">
        <ele>1407.62</ele>
        <time>2021-10-27T10:09:41Z</time>
      </trkpt>
      <trkpt lat="44.11989" lon="6.86346">
        <ele>1408.41</ele>
        <time>2021-10-27T10:09:45Z</time>
      </trkpt>
      <trkpt lat="44.1199" lon="6.8635">
        <ele>1409.2</ele>
        <time>2021-10-27T10:09:51Z</time>
      </trkpt>
      <trkpt lat="44.1199" lon="6.86354">
        <ele>1409.63</ele>
        <time>2021-10-27T10:09:55Z</time>
      </trkpt>
      <trkpt lat="44.11989" lon="6.86359">
        <ele>1409.81</ele>
        <time>2021-10-27T10:09:59Z</time>
      </trkpt>
      <trkpt lat="44.11988" lon="6.86363">
        <ele>1409.85</ele>
        <time>2021-10-27T10:10:02Z</time>
      </trkpt>
      <trkpt lat="44.11986" lon="6.86366">
        <ele>1409.4</ele>
        <time>2021-10-27T10:10:08Z</time>
      </trkpt>
      <trkpt lat="44.11984" lon="6.8637">
        <ele>1409.02</ele>
        <time>2021-10-27T10:10:12Z</time>
      </trkpt>
      <trkpt lat="44.11983" lon="6.86373">
        <ele>1408.9</ele>
        <time>2021-10-27T10:10:16Z</time>
      </trkpt>
      <trkpt lat="44.11983" lon="6.86377">
        <ele>1409.25</ele>
        <time>2021-10-27T10:10:23Z</time>
      </trkpt>
      <trkpt lat="44.11982" lon="6.86381">
        <ele>1409.2</ele>
        <time>2021-10-27T10:10:28Z</time>
      </trkpt>
      <trkpt lat="44.11982" lon="6.86385">
        <ele>1409.54</ele>
        <time>2021-10-27T10:10:30Z</time>
      </trkpt>
      <trkpt lat="44.11982" lon="6.8639">
        <ele>1409.94</ele>
        <time>2021-10-27T10:10:35Z</time>
      </trkpt>
      <trkpt lat="44.11981" lon="6.86394">
        <ele>1409.79</ele>
        <time>2021-10-27T10:10:38Z</time>
      </trkpt>
      <trkpt lat="44.1198" lon="6.86398">
        <ele>1409.64</ele>
        <time>2021-10-27T10:10:40Z</time>
      </trkpt>
      <trkpt lat="44.1198" lon="6.86402">
        <ele>1409.89</ele>
        <time>2021-10-27T10:10:43Z</time>
      </trkpt>
      <trkpt lat="44.11979" lon="6.86406">
        <ele>1409.77</ele>
        <time>2021-10-27T10:10:47Z</time>
      </trkpt>
      <trkpt lat="44.11978" lon="6.86409">
        <ele>1409.59</ele>
        <time>2021-10-27T10:10:51Z</time>
      </trkpt>
      <trkpt lat="44.11977" lon="6.86413">
        <ele>1409.48</ele>
        <time>2021-10-27T10:10:55Z</time>
      </trkpt>
      <trkpt lat="44.11978" lon="6.86417">
        <ele>1410.13</ele>
        <time>2021-10-27T10:11:02Z</time>
      </trkpt>
      <trkpt lat="44.11978" lon="6.86421">
        <ele>1410.76</ele>
        <time>2021-10-27T10:11:05Z</time>
      </trkpt>
      <trkpt lat="44.11979" lon="6.86427">
        <ele>1412.03</ele>
        <time>2021-10-27T10:11:09Z</time>
      </trkpt>
      <trkpt lat="44.1198" lon="6.8643">
        <ele>1412.8</ele>
        <time>2021-10-27T10:11:11Z</time>
      </trkpt>
      <trkpt lat="44.11979" lon="6.86434">
        <ele>1413.1</ele>
        <time>2021-10-27T10:11:15Z</time>
      </trkpt>
      <trkpt lat="44.11978" lon="6.86439">
        <ele>1413.6</ele>
        <time>2021-10-27T10:11:18Z</time>
      </trkpt>
      <trkpt lat="44.1198" lon="6.86443">
        <ele>1414.74</ele>
        <time>2021-10-27T10:11:25Z</time>
      </trkpt>
      <trkpt lat="44.11981" lon="6.86446">
        <ele>1415.29</ele>
        <time>2021-10-27T10:11:32Z</time>
      </trkpt>
      <trkpt lat="44.11982" lon="6.86451">
        <ele>1415.78</ele>
        <time>2021-10-27T10:11:36Z</time>
      </trkpt>
      <trkpt lat="44.11982" lon="6.86455">
        <ele>1415.98</ele>
        <time>2021-10-27T10:11:41Z</time>
      </trkpt>
      <trkpt lat="44.11981" lon="6.86459">
        <ele>1415.9</ele>
        <time>2021-10-27T10:11:46Z</time>
      </trkpt>
      <trkpt lat="44.1198" lon="6.86463">
        <ele>1415.82</ele>
        <time>2021-10-27T10:11:50Z</time>
      </trkpt>
      <trkpt lat="44.11978" lon="6.86466">
        <ele>1415.39</ele>
        <time>2021-10-27T10:11:54Z</time>
      </trkpt>
      <trkpt lat="44.11977" lon="6.8647">
        <ele>1415.28</ele>
        <time>2021-10-27T10:11:57Z</time>
      </trkpt>
      <trkpt lat="44.11976" lon="6.86474">
        <ele>1415.22</ele>
        <time>2021-10-27T10:12:00Z</time>
      </trkpt>
      <trkpt lat="44.11975" lon="6.86479">
        <ele>1415.31</ele>
        <time>2021-10-27T10:12:04Z</time>
      </trkpt>
      <trkpt lat="44.11976" lon="6.86482">
        <ele>1415.84</ele>
        <time>2021-10-27T10:12:07Z</time>
      </trkpt>
      <trkpt lat="44.11975" lon="6.86486">
        <ele>1415.84</ele>
        <time>2021-10-27T10:12:31Z</time>
      </trkpt>
      <trkpt lat="44.11975" lon="6.8649">
        <ele>1416.14</ele>
        <time>2021-10-27T10:12:34Z</time>
      </trkpt>
      <trkpt lat="44.11975" lon="6.86494">
        <ele>1416.45</ele>
        <time>2021-10-27T10:12:38Z</time>
      </trkpt>
      <trkpt lat="44.11975" lon="6.86497">
        <ele>1416.67</ele>
        <time>2021-10-27T10:12:43Z</time>
      </trkpt>
      <trkpt lat="44.11972" lon="6.86501">
        <ele>1415.85</ele>
        <time>2021-10-27T10:12:48Z</time>
      </trkpt>
      <trkpt lat="44.11974" lon="6.86504">
        <ele>1416.29</ele>
        <time>2021-10-27T10:13:08Z</time>
      </trkpt>
      <trkpt lat="44.11975" lon="6.86507">
        <ele>1416.4</ele>
        <time>2021-10-27T10:13:20Z</time>
      </trkpt>
      <trkpt lat="44.11978" lon="6.8651">
        <ele>1417.15</ele>
        <time>2021-10-27T10:13:26Z</time>
      </trkpt>
      <trkpt lat="44.11981" lon="6.8651">
        <ele>1418.12</ele>
        <time>2021-10-27T10:14:04Z</time>
      </trkpt>
      <trkpt lat="44.11983" lon="6.86508">
        <ele>1418.92</ele>
        <time>2021-10-27T10:14:14Z</time>
      </trkpt>
      <trkpt lat="44.11986" lon="6.86509">
        <ele>1419.82</ele>
        <time>2021-10-27T10:14:21Z</time>
      </trkpt>
      <trkpt lat="44.11989" lon="6.86511">
        <ele>1420.64</ele>
        <time>2021-10-27T10:14:23Z</time>
      </trkpt>
      <trkpt lat="44.11992" lon="6.86513">
        <ele>1421.47</ele>
        <time>2021-10-27T10:14:26Z</time>
      </trkpt>
      <trkpt lat="44.11995" lon="6.86516">
        <ele>1422.23</ele>
        <time>2021-10-27T10:14:29Z</time>
      </trkpt>
      <trkpt lat="44.11997" lon="6.86519">
        <ele>1422.66</ele>
        <time>2021-10-27T10:14:34Z</time>
      </trkpt>
      <trkpt lat="44.12" lon="6.86521">
        <ele>1423.49</ele>
        <time>2021-10-27T10:14:39Z</time>
      </trkpt>
      <trkpt lat="44.12003" lon="6.86519">
        <ele>1424.03</ele>
        <time>2021-10-27T10:14:42Z</time>
      </trkpt>
      <trkpt lat="44.12006" lon="6.86517">
        <ele>1424.56</ele>
        <time>2021-10-27T10:14:44Z</time>
      </trkpt>
      <trkpt lat="44.12009" lon="6.86518">
        <ele>1424.89</ele>
        <time>2021-10-27T10:14:50Z</time>
      </trkpt>
      <trkpt lat="44.12012" lon="6.86519">
        <ele>1425.22</ele>
        <time>2021-10-27T10:14:52Z</time>
      </trkpt>
      <trkpt lat="44.12014" lon="6.86522">
        <ele>1425.33</ele>
        <time>2021-10-27T10:14:56Z</time>
      </trkpt>
      <trkpt lat="44.12015" lon="6.86526">
        <ele>1425.25</ele>
        <time>2021-10-27T10:15:04Z</time>
      </trkpt>
      <trkpt lat="44.12017" lon="6.8653">
        <ele>1425</ele>
        <time>2021-10-27T10:15:12Z</time>
      </trkpt>
      <trkpt lat="44.1202" lon="6.86532">
        <ele>1425.01</ele>
        <time>2021-10-27T10:15:15Z</time>
      </trkpt>
      <trkpt lat="44.12022" lon="6.86533">
        <ele>1425.08</ele>
        <time>2021-10-27T10:15:24Z</time>
      </trkpt>
      <trkpt lat="44.12025" lon="6.86533">
        <ele>1425.49</ele>
        <time>2021-10-27T10:15:39Z</time>
      </trkpt>
      <trkpt lat="44.12028" lon="6.86532">
        <ele>1426.12</ele>
        <time>2021-10-27T10:15:46Z</time>
      </trkpt>
      <trkpt lat="44.12031" lon="6.86535">
        <ele>1425.99</ele>
        <time>2021-10-27T10:15:48Z</time>
      </trkpt>
      <trkpt lat="44.12034" lon="6.86535">
        <ele>1426.51</ele>
        <time>2021-10-27T10:15:51Z</time>
      </trkpt>
      <trkpt lat="44.12038" lon="6.86536">
        <ele>1427.02</ele>
        <time>2021-10-27T10:15:54Z</time>
      </trkpt>
      <trkpt lat="44.1204" lon="6.86539">
        <ele>1426.87</ele>
        <time>2021-10-27T10:15:57Z</time>
      </trkpt>
      <trkpt lat="44.12042" lon="6.86543">
        <ele>1426.6</ele>
        <time>2021-10-27T10:15:59Z</time>
      </trkpt>
      <trkpt lat="44.12045" lon="6.86545">
        <ele>1426.91</ele>
        <time>2021-10-27T10:16:04Z</time>
      </trkpt>
      <trkpt lat="44.12048" lon="6.86545">
        <ele>1427.55</ele>
        <time>2021-10-27T10:16:08Z</time>
      </trkpt>
      <trkpt lat="44.12051" lon="6.86547">
        <ele>1427.93</ele>
        <time>2021-10-27T10:16:12Z</time>
      </trkpt>
      <trkpt lat="44.12054" lon="6.86549">
        <ele>1428.36</ele>
        <time>2021-10-27T10:16:15Z</time>
      </trkpt>
      <trkpt lat="44.12056" lon="6.86552">
        <ele>1428.54</ele>
        <time>2021-10-27T10:16:18Z</time>
      </trkpt>
      <trkpt lat="44.12059" lon="6.86555">
        <ele>1429.3</ele>
        <time>2021-10-27T10:16:22Z</time>
      </trkpt>
      <trkpt lat="44.12062" lon="6.86558">
        <ele>1429.9</ele>
        <time>2021-10-27T10:16:25Z</time>
      </trkpt>
      <trkpt lat="44.12064" lon="6.86561">
        <ele>1430.12</ele>
        <time>2021-10-27T10:16:28Z</time>
      </trkpt>
      <trkpt lat="44.12065" lon="6.86565">
        <ele>1429.82</ele>
        <time>2021-10-27T10:16:32Z</time>
      </trkpt>
      <trkpt lat="44.12067" lon="6.86569">
        <ele>1429.9</ele>
        <time>2021-10-27T10:16:39Z</time>
      </trkpt>
      <trkpt lat="44.12068" lon="6.86573">
        <ele>1429.62</ele>
        <time>2021-10-27T10:16:41Z</time>
      </trkpt>
      <trkpt lat="44.1207" lon="6.86576">
        <ele>1429.9</ele>
        <time>2021-10-27T10:16:44Z</time>
      </trkpt>
      <trkpt lat="44.12072" lon="6.86579">
        <ele>1430.2</ele>
        <time>2021-10-27T10:16:46Z</time>
      </trkpt>
      <trkpt lat="44.12075" lon="6.86582">
        <ele>1430.91</ele>
        <time>2021-10-27T10:16:49Z</time>
      </trkpt>
      <trkpt lat="44.12077" lon="6.86585">
        <ele>1431.21</ele>
        <time>2021-10-27T10:16:52Z</time>
      </trkpt>
      <trkpt lat="44.12079" lon="6.86588">
        <ele>1431.47</ele>
        <time>2021-10-27T10:16:57Z</time>
      </trkpt>
      <trkpt lat="44.12078" lon="6.86591">
        <ele>1430.56</ele>
        <time>2021-10-27T10:17:07Z</time>
      </trkpt>
      <trkpt lat="44.12077" lon="6.86596">
        <ele>1429.32</ele>
        <time>2021-10-27T10:17:09Z</time>
      </trkpt>
      <trkpt lat="44.12078" lon="6.86599">
        <ele>1429.18</ele>
        <time>2021-10-27T10:17:13Z</time>
      </trkpt>
      <trkpt lat="44.12079" lon="6.86603">
        <ele>1428.85</ele>
        <time>2021-10-27T10:17:15Z</time>
      </trkpt>
      <trkpt lat="44.12081" lon="6.86606">
        <ele>1429.06</ele>
        <time>2021-10-27T10:17:17Z</time>
      </trkpt>
      <trkpt lat="44.12082" lon="6.86611">
        <ele>1428.54</ele>
        <time>2021-10-27T10:17:20Z</time>
      </trkpt>
      <trkpt lat="44.12083" lon="6.86615">
        <ele>1427.9</ele>
        <time>2021-10-27T10:17:23Z</time>
      </trkpt>
      <trkpt lat="44.12083" lon="6.86619">
        <ele>1426.89</ele>
        <time>2021-10-27T10:17:25Z</time>
      </trkpt>
      <trkpt lat="44.12084" lon="6.86623">
        <ele>1426.17</ele>
        <time>2021-10-27T10:17:30Z</time>
      </trkpt>
      <trkpt lat="44.12084" lon="6.86628">
        <ele>1424.89</ele>
        <time>2021-10-27T10:17:34Z</time>
      </trkpt>
      <trkpt lat="44.12086" lon="6.86632">
        <ele>1424.29</ele>
        <time>2021-10-27T10:17:37Z</time>
      </trkpt>
      <trkpt lat="44.12088" lon="6.86635">
        <ele>1423.89</ele>
        <time>2021-10-27T10:17:41Z</time>
      </trkpt>
      <trkpt lat="44.1209" lon="6.86639">
        <ele>1423.16</ele>
        <time>2021-10-27T10:17:45Z</time>
      </trkpt>
      <trkpt lat="44.12091" lon="6.86643">
        <ele>1421.97</ele>
        <time>2021-10-27T10:17:49Z</time>
      </trkpt>
      <trkpt lat="44.12091" lon="6.86647">
        <ele>1420.59</ele>
        <time>2021-10-27T10:17:52Z</time>
      </trkpt>
      <trkpt lat="44.12091" lon="6.86651">
        <ele>1419.22</ele>
        <time>2021-10-27T10:17:55Z</time>
      </trkpt>
      <trkpt lat="44.12091" lon="6.86656">
        <ele>1417.5</ele>
        <time>2021-10-27T10:17:59Z</time>
      </trkpt>
      <trkpt lat="44.12092" lon="6.8666">
        <ele>1416.25</ele>
        <time>2021-10-27T10:18:03Z</time>
      </trkpt>
      <trkpt lat="44.12094" lon="6.86663">
        <ele>1415.44</ele>
        <time>2021-10-27T10:18:07Z</time>
      </trkpt>
      <trkpt lat="44.12097" lon="6.86662">
        <ele>1416.15</ele>
        <time>2021-10-27T10:18:24Z</time>
      </trkpt>
      <trkpt lat="44.12096" lon="6.86659">
        <ele>1417.1</ele>
        <time>2021-10-27T10:18:40Z</time>
      </trkpt>
      <trkpt lat="44.12094" lon="6.86655">
        <ele>1418.25</ele>
        <time>2021-10-27T10:18:45Z</time>
      </trkpt>
      <trkpt lat="44.12091" lon="6.86652">
        <ele>1418.87</ele>
        <time>2021-10-27T10:18:48Z</time>
      </trkpt>
      <trkpt lat="44.1209" lon="6.86649">
        <ele>1419.75</ele>
        <time>2021-10-27T10:18:52Z</time>
      </trkpt>
      <trkpt lat="44.12088" lon="6.86644">
        <ele>1421.12</ele>
        <time>2021-10-27T10:18:57Z</time>
      </trkpt>
      <trkpt lat="44.12087" lon="6.86639">
        <ele>1422.62</ele>
        <time>2021-10-27T10:19:00Z</time>
      </trkpt>
      <trkpt lat="44.12088" lon="6.86635">
        <ele>1423.89</ele>
        <time>2021-10-27T10:19:10Z</time>
      </trkpt>
      <trkpt lat="44.12086" lon="6.86631">
        <ele>1424.55</ele>
        <time>2021-10-27T10:19:16Z</time>
      </trkpt>
      <trkpt lat="44.12085" lon="6.86627">
        <ele>1425.37</ele>
        <time>2021-10-27T10:19:20Z</time>
      </trkpt>
      <trkpt lat="44.12084" lon="6.86623">
        <ele>1426.17</ele>
        <time>2021-10-27T10:19:24Z</time>
      </trkpt>
      <trkpt lat="44.12083" lon="6.86619">
        <ele>1426.89</ele>
        <time>2021-10-27T10:19:29Z</time>
      </trkpt>
      <trkpt lat="44.12081" lon="6.86617">
        <ele>1426.64</ele>
        <time>2021-10-27T10:19:40Z</time>
      </trkpt>
      <trkpt lat="44.12079" lon="6.86614">
        <ele>1426.68</ele>
        <time>2021-10-27T10:19:44Z</time>
      </trkpt>
      <trkpt lat="44.12078" lon="6.8661">
        <ele>1427.27</ele>
        <time>2021-10-27T10:19:48Z</time>
      </trkpt>
      <trkpt lat="44.12076" lon="6.86606">
        <ele>1427.23</ele>
        <time>2021-10-27T10:19:51Z</time>
      </trkpt>
      <trkpt lat="44.12075" lon="6.86602">
        <ele>1427.54</ele>
        <time>2021-10-27T10:19:55Z</time>
      </trkpt>
      <trkpt lat="44.12075" lon="6.86598">
        <ele>1428.22</ele>
        <time>2021-10-27T10:19:59Z</time>
      </trkpt>
      <trkpt lat="44.12076" lon="6.86595">
        <ele>1429.11</ele>
        <time>2021-10-27T10:20:04Z</time>
      </trkpt>
      <trkpt lat="44.12077" lon="6.86592">
        <ele>1430</ele>
        <time>2021-10-27T10:20:18Z</time>
      </trkpt>
      <trkpt lat="44.1208" lon="6.86592">
        <ele>1431.16</ele>
        <time>2021-10-27T10:20:32Z</time>
      </trkpt>
      <trkpt lat="44.12083" lon="6.86595">
        <ele>1431.77</ele>
        <time>2021-10-27T10:20:37Z</time>
      </trkpt>
      <trkpt lat="44.12084" lon="6.86598">
        <ele>1431.59</ele>
        <time>2021-10-27T10:20:44Z</time>
      </trkpt>
      <trkpt lat="44.12086" lon="6.86601">
        <ele>1431.69</ele>
        <time>2021-10-27T10:20:51Z</time>
      </trkpt>
      <trkpt lat="44.12088" lon="6.86604">
        <ele>1431.75</ele>
        <time>2021-10-27T10:20:57Z</time>
      </trkpt>
      <trkpt lat="44.1209" lon="6.86607">
        <ele>1431.77</ele>
        <time>2021-10-27T10:21:02Z</time>
      </trkpt>
      <trkpt lat="44.12091" lon="6.8661">
        <ele>1431.44</ele>
        <time>2021-10-27T10:21:10Z</time>
      </trkpt>
      <trkpt lat="44.12092" lon="6.86614">
        <ele>1430.67</ele>
        <time>2021-10-27T10:21:21Z</time>
      </trkpt>
      <trkpt lat="44.12095" lon="6.86614">
        <ele>1431.5</ele>
        <time>2021-10-27T10:21:28Z</time>
      </trkpt>
      <trkpt lat="44.12098" lon="6.86615">
        <ele>1432.02</ele>
        <time>2021-10-27T10:21:31Z</time>
      </trkpt>
      <trkpt lat="44.12101" lon="6.86615">
        <ele>1432.84</ele>
        <time>2021-10-27T10:21:41Z</time>
      </trkpt>
      <trkpt lat="44.121" lon="6.86611">
        <ele>1433.83</ele>
        <time>2021-10-27T10:21:50Z</time>
      </trkpt>
      <trkpt lat="44.12099" lon="6.86607">
        <ele>1434.5</ele>
        <time>2021-10-27T10:21:56Z</time>
      </trkpt>
      <trkpt lat="44.121" lon="6.86603">
        <ele>1435.79</ele>
        <time>2021-10-27T10:22:06Z</time>
      </trkpt>
      <trkpt lat="44.121" lon="6.866">
        <ele>1436.52</ele>
        <time>2021-10-27T10:22:16Z</time>
      </trkpt>
      <trkpt lat="44.12101" lon="6.86596">
        <ele>1437.85</ele>
        <time>2021-10-27T10:22:22Z</time>
      </trkpt>
      <trkpt lat="44.12102" lon="6.86592">
        <ele>1439.2</ele>
        <time>2021-10-27T10:22:32Z</time>
      </trkpt>
      <trkpt lat="44.12103" lon="6.86589">
        <ele>1440.33</ele>
        <time>2021-10-27T10:22:40Z</time>
      </trkpt>
      <trkpt lat="44.12105" lon="6.86585">
        <ele>1442.14</ele>
        <time>2021-10-27T10:22:49Z</time>
      </trkpt>
      <trkpt lat="44.12106" lon="6.86582">
        <ele>1443.25</ele>
        <time>2021-10-27T10:23:06Z</time>
      </trkpt>
      <trkpt lat="44.12108" lon="6.86579">
        <ele>1444.67</ele>
        <time>2021-10-27T10:23:16Z</time>
      </trkpt>
      <trkpt lat="44.12109" lon="6.86575">
        <ele>1445.92</ele>
        <time>2021-10-27T10:23:21Z</time>
      </trkpt>
      <trkpt lat="44.12109" lon="6.86571">
        <ele>1446.76</ele>
        <time>2021-10-27T10:23:30Z</time>
      </trkpt>
      <trkpt lat="44.12111" lon="6.86568">
        <ele>1448.26</ele>
        <time>2021-10-27T10:23:39Z</time>
      </trkpt>
      <trkpt lat="44.1211" lon="6.86563">
        <ele>1448.89</ele>
        <time>2021-10-27T10:23:49Z</time>
      </trkpt>
      <trkpt lat="44.1211" lon="6.86559">
        <ele>1449.75</ele>
        <time>2021-10-27T10:23:57Z</time>
      </trkpt>
      <trkpt lat="44.12111" lon="6.86554">
        <ele>1450.95</ele>
        <time>2021-10-27T10:24:06Z</time>
      </trkpt>
      <trkpt lat="44.12113" lon="6.86551">
        <ele>1451.54</ele>
        <time>2021-10-27T10:24:19Z</time>
      </trkpt>
      <trkpt lat="44.12111" lon="6.86547">
        <ele>1450.95</ele>
        <time>2021-10-27T10:24:23Z</time>
      </trkpt>
      <trkpt lat="44.1211" lon="6.86543">
        <ele>1450.52</ele>
        <time>2021-10-27T10:24:29Z</time>
      </trkpt>
      <trkpt lat="44.1211" lon="6.86539">
        <ele>1450.53</ele>
        <time>2021-10-27T10:24:34Z</time>
      </trkpt>
      <trkpt lat="44.12109" lon="6.86535">
        <ele>1450.12</ele>
        <time>2021-10-27T10:24:41Z</time>
      </trkpt>
      <trkpt lat="44.12108" lon="6.86531">
        <ele>1449.74</ele>
        <time>2021-10-27T10:24:45Z</time>
      </trkpt>
      <trkpt lat="44.12107" lon="6.86526">
        <ele>1449.55</ele>
        <time>2021-10-27T10:24:50Z</time>
      </trkpt>
      <trkpt lat="44.12105" lon="6.86522">
        <ele>1449.11</ele>
        <time>2021-10-27T10:24:53Z</time>
      </trkpt>
      <trkpt lat="44.12103" lon="6.86519">
        <ele>1448.55</ele>
        <time>2021-10-27T10:24:57Z</time>
      </trkpt>
      <trkpt lat="44.12101" lon="6.86517">
        <ele>1447.88</ele>
        <time>2021-10-27T10:25:08Z</time>
      </trkpt>
      <trkpt lat="44.12099" lon="6.86514">
        <ele>1447.26</ele>
        <time>2021-10-27T10:25:13Z</time>
      </trkpt>
      <trkpt lat="44.12096" lon="6.86512">
        <ele>1446.1</ele>
        <time>2021-10-27T10:25:17Z</time>
      </trkpt>
      <trkpt lat="44.12094" lon="6.8651">
        <ele>1445.36</ele>
        <time>2021-10-27T10:25:23Z</time>
      </trkpt>
      <trkpt lat="44.12092" lon="6.86507">
        <ele>1444.65</ele>
        <time>2021-10-27T10:25:30Z</time>
      </trkpt>
      <trkpt lat="44.1209" lon="6.86505">
        <ele>1443.85</ele>
        <time>2021-10-27T10:25:51Z</time>
      </trkpt>
      <trkpt lat="44.12087" lon="6.86503">
        <ele>1442.58</ele>
        <time>2021-10-27T10:25:57Z</time>
      </trkpt>
      <trkpt lat="44.12085" lon="6.86501">
        <ele>1441.74</ele>
        <time>2021-10-27T10:26:04Z</time>
      </trkpt>
      <trkpt lat="44.12083" lon="6.86504">
        <ele>1440.76</ele>
        <time>2021-10-27T10:26:09Z</time>
      </trkpt>
      <trkpt lat="44.1208" lon="6.86505">
        <ele>1439.84</ele>
        <time>2021-10-27T10:26:15Z</time>
      </trkpt>
      <trkpt lat="44.12081" lon="6.8651">
        <ele>1439.94</ele>
        <time>2021-10-27T10:26:32Z</time>
      </trkpt>
      <trkpt lat="44.12084" lon="6.86512">
        <ele>1440.86</ele>
        <time>2021-10-27T10:26:37Z</time>
      </trkpt>
      <trkpt lat="44.12087" lon="6.86512">
        <ele>1442.17</ele>
        <time>2021-10-27T10:26:41Z</time>
      </trkpt>
      <trkpt lat="44.12089" lon="6.86514">
        <ele>1442.94</ele>
        <time>2021-10-27T10:26:58Z</time>
      </trkpt>
      <trkpt lat="44.12091" lon="6.86517">
        <ele>1443.64</ele>
        <time>2021-10-27T10:27:05Z</time>
      </trkpt>
      <trkpt lat="44.12093" lon="6.86519">
        <ele>1444.36</ele>
        <time>2021-10-27T10:27:14Z</time>
      </trkpt>
      <trkpt lat="44.12092" lon="6.86522">
        <ele>1443.77</ele>
        <time>2021-10-27T10:27:22Z</time>
      </trkpt>
      <trkpt lat="44.12089" lon="6.86525">
        <ele>1442.38</ele>
        <time>2021-10-27T10:27:29Z</time>
      </trkpt>
      <trkpt lat="44.12088" lon="6.86529">
        <ele>1441.77</ele>
        <time>2021-10-27T10:27:33Z</time>
      </trkpt>
      <trkpt lat="44.12086" lon="6.86531">
        <ele>1440.85</ele>
        <time>2021-10-27T10:27:36Z</time>
      </trkpt>
      <trkpt lat="44.12083" lon="6.86532">
        <ele>1439.59</ele>
        <time>2021-10-27T10:27:41Z</time>
      </trkpt>
      <trkpt lat="44.12082" lon="6.86528">
        <ele>1439.55</ele>
        <time>2021-10-27T10:28:14Z</time>
      </trkpt>
      <trkpt lat="44.1208" lon="6.86531">
        <ele>1438.67</ele>
        <time>2021-10-27T10:29:29Z</time>
      </trkpt>
      <trkpt lat="44.12081" lon="6.86525">
        <ele>1439.35</ele>
        <time>2021-10-27T10:29:52Z</time>
      </trkpt>
      <trkpt lat="44.12078" lon="6.8653">
        <ele>1438.1</ele>
        <time>2021-10-27T10:30:09Z</time>
      </trkpt>
      <trkpt lat="44.1208" lon="6.86527">
        <ele>1438.95</ele>
        <time>2021-10-27T10:30:38Z</time>
      </trkpt>
      <trkpt lat="44.12082" lon="6.86526">
        <ele>1439.64</ele>
        <time>2021-10-27T10:31:19Z</time>
      </trkpt>
      <trkpt lat="44.12082" lon="6.86523">
        <ele>1439.75</ele>
        <time>2021-10-27T10:31:34Z</time>
      </trkpt>
      <trkpt lat="44.12079" lon="6.86526">
        <ele>1438.67</ele>
        <time>2021-10-27T10:33:48Z</time>
      </trkpt>
      <trkpt lat="44.12076" lon="6.86525">
        <ele>1437.75</ele>
        <time>2021-10-27T10:44:32Z</time>
      </trkpt>
      <trkpt lat="44.12073" lon="6.86523">
        <ele>1436.89</ele>
        <time>2021-10-27T10:53:18Z</time>
      </trkpt>
      <trkpt lat="44.12076" lon="6.86525">
        <ele>1437.75</ele>
        <time>2021-10-27T10:53:40Z</time>
      </trkpt>
      <trkpt lat="44.12079" lon="6.86523">
        <ele>1438.79</ele>
        <time>2021-10-27T10:54:07Z</time>
      </trkpt>
      <trkpt lat="44.12082" lon="6.86523">
        <ele>1439.75</ele>
        <time>2021-10-27T10:54:12Z</time>
      </trkpt>
      <trkpt lat="44.12084" lon="6.86525">
        <ele>1440.37</ele>
        <time>2021-10-27T10:54:30Z</time>
      </trkpt>
      <trkpt lat="44.12082" lon="6.86523">
        <ele>1439.75</ele>
        <time>2021-10-27T10:55:03Z</time>
      </trkpt>
      <trkpt lat="44.12079" lon="6.86522">
        <ele>1438.84</ele>
        <time>2021-10-27T10:55:42Z</time>
      </trkpt>
      <trkpt lat="44.12081" lon="6.86518">
        <ele>1439.63</ele>
        <time>2021-10-27T10:56:06Z</time>
      </trkpt>
      <trkpt lat="44.12084" lon="6.86521">
        <ele>1440.52</ele>
        <time>2021-10-27T10:56:12Z</time>
      </trkpt>
      <trkpt lat="44.12085" lon="6.86524">
        <ele>1440.81</ele>
        <time>2021-10-27T10:56:16Z</time>
      </trkpt>
      <trkpt lat="44.12087" lon="6.86528">
        <ele>1441.44</ele>
        <time>2021-10-27T10:56:23Z</time>
      </trkpt>
      <trkpt lat="44.12085" lon="6.86532">
        <ele>1440.37</ele>
        <time>2021-10-27T10:56:27Z</time>
      </trkpt>
      <trkpt lat="44.12082" lon="6.86533">
        <ele>1439.18</ele>
        <time>2021-10-27T10:56:30Z</time>
      </trkpt>
      <trkpt lat="44.1208" lon="6.86531">
        <ele>1438.67</ele>
        <time>2021-10-27T10:57:05Z</time>
      </trkpt>
      <trkpt lat="44.12081" lon="6.86527">
        <ele>1439.27</ele>
        <time>2021-10-27T10:57:20Z</time>
      </trkpt>
      <trkpt lat="44.12079" lon="6.86525">
        <ele>1438.71</ele>
        <time>2021-10-27T10:57:48Z</time>
      </trkpt>
      <trkpt lat="44.12082" lon="6.86524">
        <ele>1439.71</ele>
        <time>2021-10-27T10:58:10Z</time>
      </trkpt>
      <trkpt lat="44.12084" lon="6.86526">
        <ele>1440.33</ele>
        <time>2021-10-27T10:58:23Z</time>
      </trkpt>
      <trkpt lat="44.12082" lon="6.86528">
        <ele>1439.55</ele>
        <time>2021-10-27T10:59:07Z</time>
      </trkpt>
      <trkpt lat="44.12079" lon="6.8653">
        <ele>1438.42</ele>
        <time>2021-10-27T11:00:10Z</time>
      </trkpt>
      <trkpt lat="44.12076" lon="6.86528">
        <ele>1437.61</ele>
        <time>2021-10-27T11:03:50Z</time>
      </trkpt>
      <trkpt lat="44.12074" lon="6.86526">
        <ele>1437.06</ele>
        <time>2021-10-27T11:04:00Z</time>
      </trkpt>
      <trkpt lat="44.12074" lon="6.86522">
        <ele>1437.25</ele>
        <time>2021-10-27T11:04:08Z</time>
      </trkpt>
      <trkpt lat="44.12071" lon="6.86524">
        <ele>1436.2</ele>
        <time>2021-10-27T11:04:34Z</time>
      </trkpt>
      <trkpt lat="44.12069" lon="6.86527">
        <ele>1435.4</ele>
        <time>2021-10-27T11:06:20Z</time>
      </trkpt>
      <trkpt lat="44.12072" lon="6.86527">
        <ele>1436.37</ele>
        <time>2021-10-27T11:07:09Z</time>
      </trkpt>
      <trkpt lat="44.12069" lon="6.86527">
        <ele>1435.4</ele>
        <time>2021-10-27T11:09:10Z</time>
      </trkpt>
      <trkpt lat="44.12066" lon="6.86528">
        <ele>1434.36</ele>
        <time>2021-10-27T11:09:36Z</time>
      </trkpt>
      <trkpt lat="44.12064" lon="6.86529">
        <ele>1433.62</ele>
        <time>2021-10-27T11:09:42Z</time>
      </trkpt>
      <trkpt lat="44.12067" lon="6.86528">
        <ele>1434.69</ele>
        <time>2021-10-27T11:10:09Z</time>
      </trkpt>
      <trkpt lat="44.1207" lon="6.86527">
        <ele>1435.72</ele>
        <time>2021-10-27T11:10:12Z</time>
      </trkpt>
      <trkpt lat="44.12072" lon="6.86527">
        <ele>1436.37</ele>
        <time>2021-10-27T11:10:16Z</time>
      </trkpt>
      <trkpt lat="44.12075" lon="6.86525">
        <ele>1437.43</ele>
        <time>2021-10-27T11:11:39Z</time>
      </trkpt>
      <trkpt lat="44.12078" lon="6.86526">
        <ele>1438.35</ele>
        <time>2021-10-27T11:14:56Z</time>
      </trkpt>
      <trkpt lat="44.1208" lon="6.86523">
        <ele>1439.11</ele>
        <time>2021-10-27T11:15:49Z</time>
      </trkpt>
      <trkpt lat="44.12077" lon="6.86523">
        <ele>1438.16</ele>
        <time>2021-10-27T11:15:55Z</time>
      </trkpt>
      <trkpt lat="44.12079" lon="6.86521">
        <ele>1438.88</ele>
        <time>2021-10-27T11:16:32Z</time>
      </trkpt>
      <trkpt lat="44.12075" lon="6.86513">
        <ele>1437.99</ele>
        <time>2021-10-27T11:22:48Z</time>
      </trkpt>
      <trkpt lat="44.12078" lon="6.86514">
        <ele>1438.86</ele>
        <time>2021-10-27T11:23:53Z</time>
      </trkpt>
      <trkpt lat="44.12081" lon="6.86518">
        <ele>1439.63</ele>
        <time>2021-10-27T11:23:56Z</time>
      </trkpt>
      <trkpt lat="44.12083" lon="6.8652">
        <ele>1440.18</ele>
        <time>2021-10-27T11:24:29Z</time>
      </trkpt>
      <trkpt lat="44.12087" lon="6.86521">
        <ele>1441.76</ele>
        <time>2021-10-27T11:28:38Z</time>
      </trkpt>
      <trkpt lat="44.12085" lon="6.86524">
        <ele>1440.81</ele>
        <time>2021-10-27T11:30:47Z</time>
      </trkpt>
      <trkpt lat="44.12082" lon="6.86524">
        <ele>1439.71</ele>
        <time>2021-10-27T11:30:59Z</time>
      </trkpt>
      <trkpt lat="44.12079" lon="6.86524">
        <ele>1438.75</ele>
        <time>2021-10-27T11:31:28Z</time>
      </trkpt>
      <trkpt lat="44.12082" lon="6.86526">
        <ele>1439.64</ele>
        <time>2021-10-27T11:31:54Z</time>
      </trkpt>
      <trkpt lat="44.12082" lon="6.8653">
        <ele>1439.4</ele>
        <time>2021-10-27T11:32:03Z</time>
      </trkpt>
      <trkpt lat="44.12079" lon="6.86529">
        <ele>1438.5</ele>
        <time>2021-10-27T11:32:22Z</time>
      </trkpt>
      <trkpt lat="44.12077" lon="6.86528">
        <ele>1437.93</ele>
        <time>2021-10-27T11:32:25Z</time>
      </trkpt>
      <trkpt lat="44.12074" lon="6.86527">
        <ele>1437.01</ele>
        <time>2021-10-27T11:32:29Z</time>
      </trkpt>
      <trkpt lat="44.12071" lon="6.86526">
        <ele>1436.1</ele>
        <time>2021-10-27T11:32:32Z</time>
      </trkpt>
      <trkpt lat="44.12068" lon="6.86525">
        <ele>1435.19</ele>
        <time>2021-10-27T11:32:37Z</time>
      </trkpt>
      <trkpt lat="44.12065" lon="6.86524">
        <ele>1434.29</ele>
        <time>2021-10-27T11:32:41Z</time>
      </trkpt>
      <trkpt lat="44.12063" lon="6.86521">
        <ele>1433.83</ele>
        <time>2021-10-27T11:32:46Z</time>
      </trkpt>
      <trkpt lat="44.12059" lon="6.86522">
        <ele>1432.51</ele>
        <time>2021-10-27T11:32:51Z</time>
      </trkpt>
      <trkpt lat="44.12057" lon="6.8652">
        <ele>1432.01</ele>
        <time>2021-10-27T11:32:55Z</time>
      </trkpt>
      <trkpt lat="44.12053" lon="6.86519">
        <ele>1431.23</ele>
        <time>2021-10-27T11:32:58Z</time>
      </trkpt>
      <trkpt lat="44.1205" lon="6.8652">
        <ele>1430.7</ele>
        <time>2021-10-27T11:33:01Z</time>
      </trkpt>
      <trkpt lat="44.12047" lon="6.86519">
        <ele>1430.3</ele>
        <time>2021-10-27T11:33:06Z</time>
      </trkpt>
      <trkpt lat="44.12045" lon="6.86517">
        <ele>1430.11</ele>
        <time>2021-10-27T11:33:13Z</time>
      </trkpt>
      <trkpt lat="44.12043" lon="6.86515">
        <ele>1429.9</ele>
        <time>2021-10-27T11:33:18Z</time>
      </trkpt>
      <trkpt lat="44.1204" lon="6.86513">
        <ele>1429.53</ele>
        <time>2021-10-27T11:33:34Z</time>
      </trkpt>
      <trkpt lat="44.12038" lon="6.86509">
        <ele>1429.4</ele>
        <time>2021-10-27T11:34:00Z</time>
      </trkpt>
      <trkpt lat="44.12037" lon="6.86505">
        <ele>1429.42</ele>
        <time>2021-10-27T11:34:04Z</time>
      </trkpt>
      <trkpt lat="44.12034" lon="6.86505">
        <ele>1428.9</ele>
        <time>2021-10-27T11:34:14Z</time>
      </trkpt>
      <trkpt lat="44.12032" lon="6.86504">
        <ele>1428.59</ele>
        <time>2021-10-27T11:34:17Z</time>
      </trkpt>
      <trkpt lat="44.12028" lon="6.86505">
        <ele>1427.86</ele>
        <time>2021-10-27T11:34:20Z</time>
      </trkpt>
      <trkpt lat="44.12025" lon="6.86506">
        <ele>1427.46</ele>
        <time>2021-10-27T11:34:25Z</time>
      </trkpt>
      <trkpt lat="44.12022" lon="6.86506">
        <ele>1427.12</ele>
        <time>2021-10-27T11:34:31Z</time>
      </trkpt>
      <trkpt lat="44.12019" lon="6.86507">
        <ele>1426.72</ele>
        <time>2021-10-27T11:34:38Z</time>
      </trkpt>
      <trkpt lat="44.12017" lon="6.8651">
        <ele>1426.34</ele>
        <time>2021-10-27T11:34:41Z</time>
      </trkpt>
      <trkpt lat="44.12016" lon="6.86514">
        <ele>1426.01</ele>
        <time>2021-10-27T11:34:46Z</time>
      </trkpt>
      <trkpt lat="44.12018" lon="6.86517">
        <ele>1426.12</ele>
        <time>2021-10-27T11:34:49Z</time>
      </trkpt>
      <trkpt lat="44.12021" lon="6.86519">
        <ele>1426.42</ele>
        <time>2021-10-27T11:34:53Z</time>
      </trkpt>
      <trkpt lat="44.12023" lon="6.86522">
        <ele>1426.56</ele>
        <time>2021-10-27T11:34:56Z</time>
      </trkpt>
      <trkpt lat="44.12026" lon="6.86523">
        <ele>1426.93</ele>
        <time>2021-10-27T11:34:59Z</time>
      </trkpt>
      <trkpt lat="44.12028" lon="6.86526">
        <ele>1427.1</ele>
        <time>2021-10-27T11:35:02Z</time>
      </trkpt>
      <trkpt lat="44.1203" lon="6.8653">
        <ele>1426.86</ele>
        <time>2021-10-27T11:35:05Z</time>
      </trkpt>
      <trkpt lat="44.12032" lon="6.86532">
        <ele>1426.77</ele>
        <time>2021-10-27T11:35:08Z</time>
      </trkpt>
      <trkpt lat="44.12035" lon="6.86534">
        <ele>1426.87</ele>
        <time>2021-10-27T11:35:12Z</time>
      </trkpt>
      <trkpt lat="44.12038" lon="6.86537">
        <ele>1426.85</ele>
        <time>2021-10-27T11:35:14Z</time>
      </trkpt>
      <trkpt lat="44.12041" lon="6.86538">
        <ele>1427.22</ele>
        <time>2021-10-27T11:35:17Z</time>
      </trkpt>
      <trkpt lat="44.12044" lon="6.86539">
        <ele>1427.62</ele>
        <time>2021-10-27T11:35:22Z</time>
      </trkpt>
      <trkpt lat="44.12048" lon="6.86541">
        <ele>1428.1</ele>
        <time>2021-10-27T11:35:26Z</time>
      </trkpt>
      <trkpt lat="44.12051" lon="6.86544">
        <ele>1428.3</ele>
        <time>2021-10-27T11:35:29Z</time>
      </trkpt>
      <trkpt lat="44.12053" lon="6.86546">
        <ele>1428.48</ele>
        <time>2021-10-27T11:35:33Z</time>
      </trkpt>
      <trkpt lat="44.12055" lon="6.86549">
        <ele>1428.58</ele>
        <time>2021-10-27T11:35:37Z</time>
      </trkpt>
      <trkpt lat="44.12058" lon="6.86552">
        <ele>1429.25</ele>
        <time>2021-10-27T11:35:40Z</time>
      </trkpt>
      <trkpt lat="44.1206" lon="6.86556">
        <ele>1429.52</ele>
        <time>2021-10-27T11:35:44Z</time>
      </trkpt>
      <trkpt lat="44.12063" lon="6.8656">
        <ele>1429.92</ele>
        <time>2021-10-27T11:35:48Z</time>
      </trkpt>
      <trkpt lat="44.12065" lon="6.86562">
        <ele>1430.32</ele>
        <time>2021-10-27T11:35:51Z</time>
      </trkpt>
      <trkpt lat="44.12068" lon="6.86565">
        <ele>1430.93</ele>
        <time>2021-10-27T11:35:54Z</time>
      </trkpt>
      <trkpt lat="44.1207" lon="6.86568">
        <ele>1431.19</ele>
        <time>2021-10-27T11:35:58Z</time>
      </trkpt>
      <trkpt lat="44.12073" lon="6.86571">
        <ele>1431.85</ele>
        <time>2021-10-27T11:36:02Z</time>
      </trkpt>
      <trkpt lat="44.12074" lon="6.86574">
        <ele>1431.76</ele>
        <time>2021-10-27T11:36:05Z</time>
      </trkpt>
      <trkpt lat="44.12076" lon="6.86578">
        <ele>1431.91</ele>
        <time>2021-10-27T11:36:10Z</time>
      </trkpt>
      <trkpt lat="44.12078" lon="6.86581">
        <ele>1432.24</ele>
        <time>2021-10-27T11:36:13Z</time>
      </trkpt>
      <trkpt lat="44.12078" lon="6.86585">
        <ele>1431.6</ele>
        <time>2021-10-27T11:36:16Z</time>
      </trkpt>
      <trkpt lat="44.12079" lon="6.86589">
        <ele>1431.3</ele>
        <time>2021-10-27T11:36:20Z</time>
      </trkpt>
      <trkpt lat="44.12079" lon="6.86594">
        <ele>1430.42</ele>
        <time>2021-10-27T11:36:23Z</time>
      </trkpt>
      <trkpt lat="44.12081" lon="6.86597">
        <ele>1430.66</ele>
        <time>2021-10-27T11:36:26Z</time>
      </trkpt>
      <trkpt lat="44.12082" lon="6.86601">
        <ele>1430.32</ele>
        <time>2021-10-27T11:36:29Z</time>
      </trkpt>
      <trkpt lat="44.12084" lon="6.86604">
        <ele>1430.49</ele>
        <time>2021-10-27T11:36:32Z</time>
      </trkpt>
      <trkpt lat="44.12085" lon="6.86607">
        <ele>1430.25</ele>
        <time>2021-10-27T11:36:36Z</time>
      </trkpt>
      <trkpt lat="44.12087" lon="6.86612">
        <ele>1429.82</ele>
        <time>2021-10-27T11:36:39Z</time>
      </trkpt>
      <trkpt lat="44.12087" lon="6.86616">
        <ele>1428.75</ele>
        <time>2021-10-27T11:36:42Z</time>
      </trkpt>
      <trkpt lat="44.12087" lon="6.8662">
        <ele>1427.69</ele>
        <time>2021-10-27T11:36:45Z</time>
      </trkpt>
      <trkpt lat="44.12087" lon="6.86624">
        <ele>1426.62</ele>
        <time>2021-10-27T11:36:49Z</time>
      </trkpt>
      <trkpt lat="44.12088" lon="6.86629">
        <ele>1425.51</ele>
        <time>2021-10-27T11:36:53Z</time>
      </trkpt>
      <trkpt lat="44.1209" lon="6.86633">
        <ele>1424.84</ele>
        <time>2021-10-27T11:36:56Z</time>
      </trkpt>
      <trkpt lat="44.12091" lon="6.86637">
        <ele>1423.91</ele>
        <time>2021-10-27T11:36:59Z</time>
      </trkpt>
      <trkpt lat="44.12092" lon="6.86641">
        <ele>1422.83</ele>
        <time>2021-10-27T11:37:03Z</time>
      </trkpt>
      <trkpt lat="44.12094" lon="6.86644">
        <ele>1422.12</ele>
        <time>2021-10-27T11:37:07Z</time>
      </trkpt>
      <trkpt lat="44.12096" lon="6.86649">
        <ele>1420.67</ele>
        <time>2021-10-27T11:37:11Z</time>
      </trkpt>
      <trkpt lat="44.12098" lon="6.86651">
        <ele>1420.26</ele>
        <time>2021-10-27T11:37:13Z</time>
      </trkpt>
      <trkpt lat="44.12099" lon="6.86654">
        <ele>1419.31</ele>
        <time>2021-10-27T11:37:16Z</time>
      </trkpt>
      <trkpt lat="44.12101" lon="6.86658">
        <ele>1418.11</ele>
        <time>2021-10-27T11:37:19Z</time>
      </trkpt>
      <trkpt lat="44.12103" lon="6.86662">
        <ele>1416.87</ele>
        <time>2021-10-27T11:37:23Z</time>
      </trkpt>
      <trkpt lat="44.12104" lon="6.86666">
        <ele>1415.48</ele>
        <time>2021-10-27T11:37:27Z</time>
      </trkpt>
      <trkpt lat="44.12107" lon="6.86669">
        <ele>1415.25</ele>
        <time>2021-10-27T11:37:31Z</time>
      </trkpt>
      <trkpt lat="44.12108" lon="6.86674">
        <ele>1414.75</ele>
        <time>2021-10-27T11:37:36Z</time>
      </trkpt>
      <trkpt lat="44.12106" lon="6.86678">
        <ele>1413.92</ele>
        <time>2021-10-27T11:37:40Z</time>
      </trkpt>
      <trkpt lat="44.12104" lon="6.86681">
        <ele>1413.16</ele>
        <time>2021-10-27T11:37:44Z</time>
      </trkpt>
      <trkpt lat="44.12102" lon="6.86684">
        <ele>1412.33</ele>
        <time>2021-10-27T11:37:47Z</time>
      </trkpt>
      <trkpt lat="44.12101" lon="6.8669">
        <ele>1411.16</ele>
        <time>2021-10-27T11:37:50Z</time>
      </trkpt>
      <trkpt lat="44.12099" lon="6.86694">
        <ele>1410.02</ele>
        <time>2021-10-27T11:37:53Z</time>
      </trkpt>
      <trkpt lat="44.12098" lon="6.86698">
        <ele>1409.88</ele>
        <time>2021-10-27T11:37:57Z</time>
      </trkpt>
      <trkpt lat="44.12095" lon="6.86695">
        <ele>1408.97</ele>
        <time>2021-10-27T11:38:01Z</time>
      </trkpt>
      <trkpt lat="44.12094" lon="6.8669">
        <ele>1409.56</ele>
        <time>2021-10-27T11:38:04Z</time>
      </trkpt>
      <trkpt lat="44.12093" lon="6.86686">
        <ele>1410.14</ele>
        <time>2021-10-27T11:38:08Z</time>
      </trkpt>
      <trkpt lat="44.12092" lon="6.86682">
        <ele>1410.76</ele>
        <time>2021-10-27T11:38:22Z</time>
      </trkpt>
      <trkpt lat="44.12091" lon="6.86677">
        <ele>1411.63</ele>
        <time>2021-10-27T11:38:26Z</time>
      </trkpt>
      <trkpt lat="44.1209" lon="6.86674">
        <ele>1412.13</ele>
        <time>2021-10-27T11:38:29Z</time>
      </trkpt>
      <trkpt lat="44.12088" lon="6.86671">
        <ele>1412.52</ele>
        <time>2021-10-27T11:38:34Z</time>
      </trkpt>
      <trkpt lat="44.12086" lon="6.86668">
        <ele>1412.97</ele>
        <time>2021-10-27T11:38:39Z</time>
      </trkpt>
      <trkpt lat="44.12083" lon="6.86665">
        <ele>1413.38</ele>
        <time>2021-10-27T11:38:43Z</time>
      </trkpt>
      <trkpt lat="44.12082" lon="6.86661">
        <ele>1414.22</ele>
        <time>2021-10-27T11:38:47Z</time>
      </trkpt>
      <trkpt lat="44.12079" lon="6.86657">
        <ele>1414.16</ele>
        <time>2021-10-27T11:38:51Z</time>
      </trkpt>
      <trkpt lat="44.12076" lon="6.86654">
        <ele>1413.79</ele>
        <time>2021-10-27T11:38:55Z</time>
      </trkpt>
      <trkpt lat="44.12073" lon="6.86651">
        <ele>1413.45</ele>
        <time>2021-10-27T11:38:59Z</time>
      </trkpt>
      <trkpt lat="44.12071" lon="6.86649">
        <ele>1413.23</ele>
        <time>2021-10-27T11:39:03Z</time>
      </trkpt>
      <trkpt lat="44.12068" lon="6.86647">
        <ele>1412.59</ele>
        <time>2021-10-27T11:39:08Z</time>
      </trkpt>
      <trkpt lat="44.12071" lon="6.86645">
        <ele>1414.59</ele>
        <time>2021-10-27T11:39:16Z</time>
      </trkpt>
      <trkpt lat="44.12069" lon="6.86643">
        <ele>1414.4</ele>
        <time>2021-10-27T11:39:23Z</time>
      </trkpt>
      <trkpt lat="44.12067" lon="6.86646">
        <ele>1412.49</ele>
        <time>2021-10-27T11:39:48Z</time>
      </trkpt>
      <trkpt lat="44.12064" lon="6.86645">
        <ele>1411.51</ele>
        <time>2021-10-27T11:40:13Z</time>
      </trkpt>
      <trkpt lat="44.12062" lon="6.86648">
        <ele>1409.58</ele>
        <time>2021-10-27T11:40:17Z</time>
      </trkpt>
      <trkpt lat="44.12059" lon="6.86647">
        <ele>1408.6</ele>
        <time>2021-10-27T11:40:24Z</time>
      </trkpt>
      <trkpt lat="44.12056" lon="6.86648">
        <ele>1406.92</ele>
        <time>2021-10-27T11:40:36Z</time>
      </trkpt>
      <trkpt lat="44.12053" lon="6.8665">
        <ele>1404.79</ele>
        <time>2021-10-27T11:40:40Z</time>
      </trkpt>
      <trkpt lat="44.1205" lon="6.8665">
        <ele>1403.36</ele>
        <time>2021-10-27T11:40:45Z</time>
      </trkpt>
      <trkpt lat="44.12047" lon="6.8665">
        <ele>1401.93</ele>
        <time>2021-10-27T11:40:49Z</time>
      </trkpt>
      <trkpt lat="44.12044" lon="6.8665">
        <ele>1400.51</ele>
        <time>2021-10-27T11:40:52Z</time>
      </trkpt>
      <trkpt lat="44.12041" lon="6.86649">
        <ele>1399.5</ele>
        <time>2021-10-27T11:40:59Z</time>
      </trkpt>
      <trkpt lat="44.12038" lon="6.86649">
        <ele>1398.09</ele>
        <time>2021-10-27T11:41:03Z</time>
      </trkpt>
      <trkpt lat="44.12035" lon="6.86648">
        <ele>1397.11</ele>
        <time>2021-10-27T11:41:08Z</time>
      </trkpt>
      <trkpt lat="44.12032" lon="6.86648">
        <ele>1395.71</ele>
        <time>2021-10-27T11:41:12Z</time>
      </trkpt>
      <trkpt lat="44.1203" lon="6.8665">
        <ele>1393.86</ele>
        <time>2021-10-27T11:41:16Z</time>
      </trkpt>
      <trkpt lat="44.12027" lon="6.86651">
        <ele>1391.97</ele>
        <time>2021-10-27T11:41:22Z</time>
      </trkpt>
      <trkpt lat="44.12025" lon="6.86655">
        <ele>1389.16</ele>
        <time>2021-10-27T11:41:28Z</time>
      </trkpt>
      <trkpt lat="44.12022" lon="6.86658">
        <ele>1386.35</ele>
        <time>2021-10-27T11:41:32Z</time>
      </trkpt>
      <trkpt lat="44.12019" lon="6.8666">
        <ele>1384.01</ele>
        <time>2021-10-27T11:41:35Z</time>
      </trkpt>
      <trkpt lat="44.12016" lon="6.86662">
        <ele>1381.67</ele>
        <time>2021-10-27T11:41:39Z</time>
      </trkpt>
      <trkpt lat="44.12013" lon="6.86664">
        <ele>1379.33</ele>
        <time>2021-10-27T11:41:43Z</time>
      </trkpt>
      <trkpt lat="44.12014" lon="6.86668">
        <ele>1378.31</ele>
        <time>2021-10-27T11:41:49Z</time>
      </trkpt>
      <trkpt lat="44.12017" lon="6.8667">
        <ele>1379.28</ele>
        <time>2021-10-27T11:41:55Z</time>
      </trkpt>
      <trkpt lat="44.12019" lon="6.86672">
        <ele>1379.72</ele>
        <time>2021-10-27T11:42:00Z</time>
      </trkpt>
      <trkpt lat="44.12021" lon="6.86675">
        <ele>1379.87</ele>
        <time>2021-10-27T11:42:04Z</time>
      </trkpt>
      <trkpt lat="44.12019" lon="6.86678">
        <ele>1378.4</ele>
        <time>2021-10-27T11:42:09Z</time>
      </trkpt>
      <trkpt lat="44.12017" lon="6.86681">
        <ele>1377.03</ele>
        <time>2021-10-27T11:42:13Z</time>
      </trkpt>
      <trkpt lat="44.12016" lon="6.86685">
        <ele>1375.89</ele>
        <time>2021-10-27T11:42:17Z</time>
      </trkpt>
      <trkpt lat="44.12013" lon="6.86687">
        <ele>1374.56</ele>
        <time>2021-10-27T11:42:23Z</time>
      </trkpt>
      <trkpt lat="44.1201" lon="6.86688">
        <ele>1373.49</ele>
        <time>2021-10-27T11:42:25Z</time>
      </trkpt>
      <trkpt lat="44.12007" lon="6.86688">
        <ele>1372.58</ele>
        <time>2021-10-27T11:42:28Z</time>
      </trkpt>
      <trkpt lat="44.12003" lon="6.86687">
        <ele>1371.47</ele>
        <time>2021-10-27T11:42:31Z</time>
      </trkpt>
      <trkpt lat="44.12" lon="6.86686">
        <ele>1370.61</ele>
        <time>2021-10-27T11:42:35Z</time>
      </trkpt>
      <trkpt lat="44.11996" lon="6.86686">
        <ele>1369.82</ele>
        <time>2021-10-27T11:42:40Z</time>
      </trkpt>
      <trkpt lat="44.11994" lon="6.86686">
        <ele>1369.42</ele>
        <time>2021-10-27T11:42:43Z</time>
      </trkpt>
      <trkpt lat="44.11991" lon="6.86688">
        <ele>1368.57</ele>
        <time>2021-10-27T11:42:46Z</time>
      </trkpt>
      <trkpt lat="44.11987" lon="6.86689">
        <ele>1367.57</ele>
        <time>2021-10-27T11:42:50Z</time>
      </trkpt>
      <trkpt lat="44.11984" lon="6.86689">
        <ele>1366.92</ele>
        <time>2021-10-27T11:42:56Z</time>
      </trkpt>
      <trkpt lat="44.11982" lon="6.86685">
        <ele>1367.25</ele>
        <time>2021-10-27T11:43:01Z</time>
      </trkpt>
      <trkpt lat="44.1198" lon="6.86682">
        <ele>1367.47</ele>
        <time>2021-10-27T11:43:05Z</time>
      </trkpt>
      <trkpt lat="44.11978" lon="6.8668">
        <ele>1367.56</ele>
        <time>2021-10-27T11:43:10Z</time>
      </trkpt>
      <trkpt lat="44.11974" lon="6.86681">
        <ele>1366.68</ele>
        <time>2021-10-27T11:43:14Z</time>
      </trkpt>
      <trkpt lat="44.11971" lon="6.8668">
        <ele>1366.49</ele>
        <time>2021-10-27T11:43:18Z</time>
      </trkpt>
      <trkpt lat="44.11968" lon="6.86682">
        <ele>1365.61</ele>
        <time>2021-10-27T11:43:22Z</time>
      </trkpt>
      <trkpt lat="44.11965" lon="6.86683">
        <ele>1365</ele>
        <time>2021-10-27T11:43:27Z</time>
      </trkpt>
      <trkpt lat="44.11962" lon="6.86684">
        <ele>1364.39</ele>
        <time>2021-10-27T11:43:31Z</time>
      </trkpt>
      <trkpt lat="44.11958" lon="6.86685">
        <ele>1363.67</ele>
        <time>2021-10-27T11:43:37Z</time>
      </trkpt>
      <trkpt lat="44.11955" lon="6.86684">
        <ele>1363.54</ele>
        <time>2021-10-27T11:43:41Z</time>
      </trkpt>
      <trkpt lat="44.11952" lon="6.86683">
        <ele>1363.4</ele>
        <time>2021-10-27T11:43:44Z</time>
      </trkpt>
      <trkpt lat="44.11948" lon="6.86683">
        <ele>1362.91</ele>
        <time>2021-10-27T11:43:47Z</time>
      </trkpt>
      <trkpt lat="44.11945" lon="6.86682">
        <ele>1362.76</ele>
        <time>2021-10-27T11:43:50Z</time>
      </trkpt>
      <trkpt lat="44.11942" lon="6.86682">
        <ele>1362.55</ele>
        <time>2021-10-27T11:43:52Z</time>
      </trkpt>
      <trkpt lat="44.11939" lon="6.86682">
        <ele>1362.38</ele>
        <time>2021-10-27T11:43:55Z</time>
      </trkpt>
      <trkpt lat="44.11936" lon="6.86681">
        <ele>1362.44</ele>
        <time>2021-10-27T11:43:59Z</time>
      </trkpt>
      <trkpt lat="44.11933" lon="6.8668">
        <ele>1362.51</ele>
        <time>2021-10-27T11:44:02Z</time>
      </trkpt>
      <trkpt lat="44.11929" lon="6.86679">
        <ele>1362.53</ele>
        <time>2021-10-27T11:44:06Z</time>
      </trkpt>
      <trkpt lat="44.11927" lon="6.86679">
        <ele>1362.43</ele>
        <time>2021-10-27T11:44:10Z</time>
      </trkpt>
      <trkpt lat="44.11923" lon="6.86679">
        <ele>1362.22</ele>
        <time>2021-10-27T11:44:15Z</time>
      </trkpt>
      <trkpt lat="44.1192" lon="6.86679">
        <ele>1362.07</ele>
        <time>2021-10-27T11:44:18Z</time>
      </trkpt>
      <trkpt lat="44.11917" lon="6.86679">
        <ele>1361.91</ele>
        <time>2021-10-27T11:44:23Z</time>
      </trkpt>
      <trkpt lat="44.11913" lon="6.86679">
        <ele>1361.63</ele>
        <time>2021-10-27T11:44:27Z</time>
      </trkpt>
      <trkpt lat="44.1191" lon="6.86681">
        <ele>1360.91</ele>
        <time>2021-10-27T11:44:30Z</time>
      </trkpt>
      <trkpt lat="44.11907" lon="6.86681">
        <ele>1360.69</ele>
        <time>2021-10-27T11:44:37Z</time>
      </trkpt>
      <trkpt lat="44.11904" lon="6.86683">
        <ele>1359.97</ele>
        <time>2021-10-27T11:44:41Z</time>
      </trkpt>
      <trkpt lat="44.119" lon="6.86682">
        <ele>1359.94</ele>
        <time>2021-10-27T11:44:47Z</time>
      </trkpt>
      <trkpt lat="44.11897" lon="6.86683">
        <ele>1359.47</ele>
        <time>2021-10-27T11:44:50Z</time>
      </trkpt>
      <trkpt lat="44.11894" lon="6.86683">
        <ele>1359.25</ele>
        <time>2021-10-27T11:44:54Z</time>
      </trkpt>
      <trkpt lat="44.11891" lon="6.86684">
        <ele>1358.78</ele>
        <time>2021-10-27T11:44:57Z</time>
      </trkpt>
      <trkpt lat="44.11889" lon="6.86684">
        <ele>1358.64</ele>
        <time>2021-10-27T11:45:01Z</time>
      </trkpt>
      <trkpt lat="44.11886" lon="6.86684">
        <ele>1357.98</ele>
        <time>2021-10-27T11:45:04Z</time>
      </trkpt>
      <trkpt lat="44.11883" lon="6.86684">
        <ele>1357.31</ele>
        <time>2021-10-27T11:45:08Z</time>
      </trkpt>
      <trkpt lat="44.1188" lon="6.86684">
        <ele>1356.63</ele>
        <time>2021-10-27T11:45:11Z</time>
      </trkpt>
      <trkpt lat="44.11877" lon="6.86683">
        <ele>1356.24</ele>
        <time>2021-10-27T11:45:14Z</time>
      </trkpt>
      <trkpt lat="44.11874" lon="6.86681">
        <ele>1356.15</ele>
        <time>2021-10-27T11:45:18Z</time>
      </trkpt>
      <trkpt lat="44.11871" lon="6.8668">
        <ele>1355.8</ele>
        <time>2021-10-27T11:45:21Z</time>
      </trkpt>
      <trkpt lat="44.11868" lon="6.86678">
        <ele>1355.77</ele>
        <time>2021-10-27T11:45:26Z</time>
      </trkpt>
      <trkpt lat="44.11865" lon="6.86676">
        <ele>1355.77</ele>
        <time>2021-10-27T11:45:30Z</time>
      </trkpt>
      <trkpt lat="44.11863" lon="6.86674">
        <ele>1356</ele>
        <time>2021-10-27T11:45:34Z</time>
      </trkpt>
      <trkpt lat="44.11859" lon="6.86673">
        <ele>1355.81</ele>
        <time>2021-10-27T11:45:37Z</time>
      </trkpt>
      <trkpt lat="44.11856" lon="6.86673">
        <ele>1355.62</ele>
        <time>2021-10-27T11:45:40Z</time>
      </trkpt>
      <trkpt lat="44.11853" lon="6.86672">
        <ele>1355.74</ele>
        <time>2021-10-27T11:45:44Z</time>
      </trkpt>
      <trkpt lat="44.11849" lon="6.86672">
        <ele>1355.48</ele>
        <time>2021-10-27T11:45:47Z</time>
      </trkpt>
      <trkpt lat="44.11846" lon="6.86671">
        <ele>1355.59</ele>
        <time>2021-10-27T11:45:52Z</time>
      </trkpt>
      <trkpt lat="44.11843" lon="6.8667">
        <ele>1355.69</ele>
        <time>2021-10-27T11:45:56Z</time>
      </trkpt>
      <trkpt lat="44.1184" lon="6.86671">
        <ele>1355.19</ele>
        <time>2021-10-27T11:45:59Z</time>
      </trkpt>
      <trkpt lat="44.11837" lon="6.8667">
        <ele>1355.29</ele>
        <time>2021-10-27T11:46:04Z</time>
      </trkpt>
      <trkpt lat="44.11833" lon="6.86669">
        <ele>1355.26</ele>
        <time>2021-10-27T11:46:07Z</time>
      </trkpt>
      <trkpt lat="44.1183" lon="6.86668">
        <ele>1354.9</ele>
        <time>2021-10-27T11:46:10Z</time>
      </trkpt>
      <trkpt lat="44.11827" lon="6.86667">
        <ele>1354.54</ele>
        <time>2021-10-27T11:46:14Z</time>
      </trkpt>
      <trkpt lat="44.11823" lon="6.86665">
        <ele>1354.19</ele>
        <time>2021-10-27T11:46:17Z</time>
      </trkpt>
      <trkpt lat="44.1182" lon="6.86663">
        <ele>1354.04</ele>
        <time>2021-10-27T11:46:21Z</time>
      </trkpt>
      <trkpt lat="44.11817" lon="6.86662">
        <ele>1353.65</ele>
        <time>2021-10-27T11:46:24Z</time>
      </trkpt>
      <trkpt lat="44.11814" lon="6.8666">
        <ele>1353.5</ele>
        <time>2021-10-27T11:46:28Z</time>
      </trkpt>
      <trkpt lat="44.11811" lon="6.86659">
        <ele>1353.11</ele>
        <time>2021-10-27T11:46:31Z</time>
      </trkpt>
      <trkpt lat="44.11807" lon="6.86658">
        <ele>1352.5</ele>
        <time>2021-10-27T11:46:35Z</time>
      </trkpt>
      <trkpt lat="44.11804" lon="6.86657">
        <ele>1352.02</ele>
        <time>2021-10-27T11:46:39Z</time>
      </trkpt>
      <trkpt lat="44.11801" lon="6.86656">
        <ele>1351.48</ele>
        <time>2021-10-27T11:46:42Z</time>
      </trkpt>
      <trkpt lat="44.11798" lon="6.86655">
        <ele>1350.92</ele>
        <time>2021-10-27T11:46:45Z</time>
      </trkpt>
      <trkpt lat="44.11796" lon="6.86654">
        <ele>1350.63</ele>
        <time>2021-10-27T11:46:47Z</time>
      </trkpt>
      <trkpt lat="44.11792" lon="6.86654">
        <ele>1349.55</ele>
        <time>2021-10-27T11:46:51Z</time>
      </trkpt>
      <trkpt lat="44.11789" lon="6.86654">
        <ele>1348.75</ele>
        <time>2021-10-27T11:46:53Z</time>
      </trkpt>
      <trkpt lat="44.11786" lon="6.86654">
        <ele>1347.94</ele>
        <time>2021-10-27T11:46:56Z</time>
      </trkpt>
      <trkpt lat="44.11783" lon="6.86654">
        <ele>1347.14</ele>
        <time>2021-10-27T11:46:59Z</time>
      </trkpt>
      <trkpt lat="44.11779" lon="6.86653">
        <ele>1346.28</ele>
        <time>2021-10-27T11:47:02Z</time>
      </trkpt>
      <trkpt lat="44.11776" lon="6.86653">
        <ele>1345.41</ele>
        <time>2021-10-27T11:47:05Z</time>
      </trkpt>
      <trkpt lat="44.11772" lon="6.86653">
        <ele>1344.19</ele>
        <time>2021-10-27T11:47:08Z</time>
      </trkpt>
      <trkpt lat="44.1177" lon="6.86653">
        <ele>1343.57</ele>
        <time>2021-10-27T11:47:11Z</time>
      </trkpt>
      <trkpt lat="44.11767" lon="6.86653">
        <ele>1342.66</ele>
        <time>2021-10-27T11:47:14Z</time>
      </trkpt>
      <trkpt lat="44.11763" lon="6.86652">
        <ele>1341.63</ele>
        <time>2021-10-27T11:47:17Z</time>
      </trkpt>
      <trkpt lat="44.1176" lon="6.8665">
        <ele>1341.1</ele>
        <time>2021-10-27T11:47:21Z</time>
      </trkpt>
      <trkpt lat="44.11757" lon="6.8665">
        <ele>1340.17</ele>
        <time>2021-10-27T11:47:24Z</time>
      </trkpt>
      <trkpt lat="44.11754" lon="6.86648">
        <ele>1339.61</ele>
        <time>2021-10-27T11:47:27Z</time>
      </trkpt>
      <trkpt lat="44.11753" lon="6.86643">
        <ele>1340.22</ele>
        <time>2021-10-27T11:47:31Z</time>
      </trkpt>
      <trkpt lat="44.11752" lon="6.86638">
        <ele>1340.8</ele>
        <time>2021-10-27T11:47:35Z</time>
      </trkpt>
      <trkpt lat="44.1175" lon="6.86635">
        <ele>1340.7</ele>
        <time>2021-10-27T11:47:39Z</time>
      </trkpt>
      <trkpt lat="44.11747" lon="6.86632">
        <ele>1340.81</ele>
        <time>2021-10-27T11:47:42Z</time>
      </trkpt>
      <trkpt lat="44.11744" lon="6.86629">
        <ele>1340.92</ele>
        <time>2021-10-27T11:47:46Z</time>
      </trkpt>
      <trkpt lat="44.11741" lon="6.86628">
        <ele>1340.66</ele>
        <time>2021-10-27T11:47:51Z</time>
      </trkpt>
      <trkpt lat="44.11739" lon="6.86624">
        <ele>1341.1</ele>
        <time>2021-10-27T11:47:56Z</time>
      </trkpt>
      <trkpt lat="44.11737" lon="6.86621">
        <ele>1341.35</ele>
        <time>2021-10-27T11:48:00Z</time>
      </trkpt>
      <trkpt lat="44.11734" lon="6.86618">
        <ele>1341.46</ele>
        <time>2021-10-27T11:48:04Z</time>
      </trkpt>
      <trkpt lat="44.11732" lon="6.86616">
        <ele>1341.53</ele>
        <time>2021-10-27T11:48:10Z</time>
      </trkpt>
      <trkpt lat="44.11728" lon="6.86615">
        <ele>1341.13</ele>
        <time>2021-10-27T11:48:14Z</time>
      </trkpt>
      <trkpt lat="44.11725" lon="6.86615">
        <ele>1340.7</ele>
        <time>2021-10-27T11:48:19Z</time>
      </trkpt>
      <trkpt lat="44.11722" lon="6.86615">
        <ele>1340.28</ele>
        <time>2021-10-27T11:48:22Z</time>
      </trkpt>
      <trkpt lat="44.11719" lon="6.86614">
        <ele>1340.19</ele>
        <time>2021-10-27T11:48:25Z</time>
      </trkpt>
      <trkpt lat="44.11718" lon="6.8661">
        <ele>1340.75</ele>
        <time>2021-10-27T11:48:28Z</time>
      </trkpt>
      <trkpt lat="44.11716" lon="6.86607">
        <ele>1340.77</ele>
        <time>2021-10-27T11:48:32Z</time>
      </trkpt>
      <trkpt lat="44.11713" lon="6.86605">
        <ele>1340.7</ele>
        <time>2021-10-27T11:48:35Z</time>
      </trkpt>
      <trkpt lat="44.11711" lon="6.86604">
        <ele>1340.65</ele>
        <time>2021-10-27T11:48:39Z</time>
      </trkpt>
      <trkpt lat="44.11708" lon="6.86602">
        <ele>1340.64</ele>
        <time>2021-10-27T11:48:44Z</time>
      </trkpt>
      <trkpt lat="44.11705" lon="6.866">
        <ele>1340.66</ele>
        <time>2021-10-27T11:48:49Z</time>
      </trkpt>
      <trkpt lat="44.11702" lon="6.86599">
        <ele>1340.61</ele>
        <time>2021-10-27T11:48:53Z</time>
      </trkpt>
      <trkpt lat="44.11699" lon="6.86596">
        <ele>1340.78</ele>
        <time>2021-10-27T11:48:59Z</time>
      </trkpt>
      <trkpt lat="44.11696" lon="6.86595">
        <ele>1340.79</ele>
        <time>2021-10-27T11:49:03Z</time>
      </trkpt>
      <trkpt lat="44.11693" lon="6.86594">
        <ele>1340.53</ele>
        <time>2021-10-27T11:49:06Z</time>
      </trkpt>
      <trkpt lat="44.1169" lon="6.86591">
        <ele>1340.24</ele>
        <time>2021-10-27T11:49:12Z</time>
      </trkpt>
      <trkpt lat="44.11688" lon="6.86588">
        <ele>1340.22</ele>
        <time>2021-10-27T11:49:21Z</time>
      </trkpt>
      <trkpt lat="44.11686" lon="6.86586">
        <ele>1340.1</ele>
        <time>2021-10-27T11:49:28Z</time>
      </trkpt>
      <trkpt lat="44.11683" lon="6.86582">
        <ele>1339.93</ele>
        <time>2021-10-27T11:49:37Z</time>
      </trkpt>
      <trkpt lat="44.11682" lon="6.86579">
        <ele>1339.74</ele>
        <time>2021-10-27T11:49:41Z</time>
      </trkpt>
      <trkpt lat="44.11682" lon="6.86575">
        <ele>1339.73</ele>
        <time>2021-10-27T11:49:47Z</time>
      </trkpt>
      <trkpt lat="44.1168" lon="6.86572">
        <ele>1339.42</ele>
        <time>2021-10-27T11:49:51Z</time>
      </trkpt>
      <trkpt lat="44.11677" lon="6.8657">
        <ele>1338.98</ele>
        <time>2021-10-27T11:49:59Z</time>
      </trkpt>
      <trkpt lat="44.11675" lon="6.86568">
        <ele>1338.72</ele>
        <time>2021-10-27T11:50:04Z</time>
      </trkpt>
      <trkpt lat="44.11673" lon="6.86565">
        <ele>1338.5</ele>
        <time>2021-10-27T11:50:29Z</time>
      </trkpt>
      <trkpt lat="44.1167" lon="6.86564">
        <ele>1338.13</ele>
        <time>2021-10-27T11:50:33Z</time>
      </trkpt>
      <trkpt lat="44.11667" lon="6.86562">
        <ele>1337.81</ele>
        <time>2021-10-27T11:50:47Z</time>
      </trkpt>
      <trkpt lat="44.11664" lon="6.86561">
        <ele>1337.31</ele>
        <time>2021-10-27T11:50:50Z</time>
      </trkpt>
      <trkpt lat="44.11661" lon="6.8656">
        <ele>1336.83</ele>
        <time>2021-10-27T11:50:55Z</time>
      </trkpt>
      <trkpt lat="44.11658" lon="6.86558">
        <ele>1336.5</ele>
        <time>2021-10-27T11:50:59Z</time>
      </trkpt>
      <trkpt lat="44.11655" lon="6.86557">
        <ele>1336.14</ele>
        <time>2021-10-27T11:51:03Z</time>
      </trkpt>
      <trkpt lat="44.11653" lon="6.86555">
        <ele>1335.99</ele>
        <time>2021-10-27T11:51:06Z</time>
      </trkpt>
      <trkpt lat="44.1165" lon="6.86551">
        <ele>1335.27</ele>
        <time>2021-10-27T11:51:10Z</time>
      </trkpt>
      <trkpt lat="44.11648" lon="6.86549">
        <ele>1334.84</ele>
        <time>2021-10-27T11:51:14Z</time>
      </trkpt>
      <trkpt lat="44.11644" lon="6.86548">
        <ele>1334.19</ele>
        <time>2021-10-27T11:51:18Z</time>
      </trkpt>
      <trkpt lat="44.11641" lon="6.86547">
        <ele>1333.69</ele>
        <time>2021-10-27T11:51:22Z</time>
      </trkpt>
      <trkpt lat="44.11637" lon="6.86545">
        <ele>1332.77</ele>
        <time>2021-10-27T11:51:26Z</time>
      </trkpt>
      <trkpt lat="44.11635" lon="6.86544">
        <ele>1332.22</ele>
        <time>2021-10-27T11:51:29Z</time>
      </trkpt>
      <trkpt lat="44.11633" lon="6.86541">
        <ele>1331.59</ele>
        <time>2021-10-27T11:51:34Z</time>
      </trkpt>
      <trkpt lat="44.1163" lon="6.8654">
        <ele>1330.86</ele>
        <time>2021-10-27T11:51:39Z</time>
      </trkpt>
      <trkpt lat="44.11628" lon="6.86536">
        <ele>1330.28</ele>
        <time>2021-10-27T11:51:44Z</time>
      </trkpt>
      <trkpt lat="44.11625" lon="6.86536">
        <ele>1329.65</ele>
        <time>2021-10-27T11:51:47Z</time>
      </trkpt>
      <trkpt lat="44.11622" lon="6.86535">
        <ele>1329.01</ele>
        <time>2021-10-27T11:51:56Z</time>
      </trkpt>
      <trkpt lat="44.11619" lon="6.86533">
        <ele>1328.39</ele>
        <time>2021-10-27T11:52:00Z</time>
      </trkpt>
      <trkpt lat="44.11615" lon="6.86531">
        <ele>1327.63</ele>
        <time>2021-10-27T11:52:03Z</time>
      </trkpt>
      <trkpt lat="44.11613" lon="6.86528">
        <ele>1327.33</ele>
        <time>2021-10-27T11:52:06Z</time>
      </trkpt>
      <trkpt lat="44.1161" lon="6.86527">
        <ele>1326.52</ele>
        <time>2021-10-27T11:52:08Z</time>
      </trkpt>
      <trkpt lat="44.11607" lon="6.86524">
        <ele>1325.17</ele>
        <time>2021-10-27T11:52:11Z</time>
      </trkpt>
      <trkpt lat="44.11605" lon="6.86522">
        <ele>1324.31</ele>
        <time>2021-10-27T11:52:14Z</time>
      </trkpt>
      <trkpt lat="44.11602" lon="6.8652">
        <ele>1323.16</ele>
        <time>2021-10-27T11:52:18Z</time>
      </trkpt>
      <trkpt lat="44.11599" lon="6.86517">
        <ele>1321.98</ele>
        <time>2021-10-27T11:52:22Z</time>
      </trkpt>
      <trkpt lat="44.11596" lon="6.86515">
        <ele>1320.93</ele>
        <time>2021-10-27T11:52:26Z</time>
      </trkpt>
      <trkpt lat="44.11593" lon="6.86514">
        <ele>1319.96</ele>
        <time>2021-10-27T11:52:31Z</time>
      </trkpt>
      <trkpt lat="44.1159" lon="6.86512">
        <ele>1318.99</ele>
        <time>2021-10-27T11:52:34Z</time>
      </trkpt>
      <trkpt lat="44.11588" lon="6.8651">
        <ele>1318.36</ele>
        <time>2021-10-27T11:52:38Z</time>
      </trkpt>
      <trkpt lat="44.11586" lon="6.86507">
        <ele>1317.74</ele>
        <time>2021-10-27T11:52:41Z</time>
      </trkpt>
      <trkpt lat="44.11584" lon="6.86504">
        <ele>1317.18</ele>
        <time>2021-10-27T11:52:43Z</time>
      </trkpt>
      <trkpt lat="44.11581" lon="6.86501">
        <ele>1316.48</ele>
        <time>2021-10-27T11:52:48Z</time>
      </trkpt>
      <trkpt lat="44.11579" lon="6.86499">
        <ele>1316.03</ele>
        <time>2021-10-27T11:52:51Z</time>
      </trkpt>
      <trkpt lat="44.11576" lon="6.86497">
        <ele>1315.31</ele>
        <time>2021-10-27T11:52:54Z</time>
      </trkpt>
      <trkpt lat="44.11574" lon="6.86494">
        <ele>1314.77</ele>
        <time>2021-10-27T11:52:57Z</time>
      </trkpt>
      <trkpt lat="44.11572" lon="6.86491">
        <ele>1314.23</ele>
        <time>2021-10-27T11:53:01Z</time>
      </trkpt>
      <trkpt lat="44.11569" lon="6.86489">
        <ele>1313.51</ele>
        <time>2021-10-27T11:53:06Z</time>
      </trkpt>
      <trkpt lat="44.11568" lon="6.86484">
        <ele>1313.11</ele>
        <time>2021-10-27T11:53:10Z</time>
      </trkpt>
      <trkpt lat="44.11567" lon="6.86481">
        <ele>1312.79</ele>
        <time>2021-10-27T11:53:21Z</time>
      </trkpt>
      <trkpt lat="44.11566" lon="6.86477">
        <ele>1312.43</ele>
        <time>2021-10-27T11:53:41Z</time>
      </trkpt>
      <trkpt lat="44.11565" lon="6.86473">
        <ele>1312.07</ele>
        <time>2021-10-27T11:53:45Z</time>
      </trkpt>
      <trkpt lat="44.11566" lon="6.86469">
        <ele>1311.68</ele>
        <time>2021-10-27T11:54:04Z</time>
      </trkpt>
      <trkpt lat="44.11565" lon="6.86465">
        <ele>1310.74</ele>
        <time>2021-10-27T11:54:09Z</time>
      </trkpt>
      <trkpt lat="44.11565" lon="6.86461">
        <ele>1310.02</ele>
        <time>2021-10-27T11:54:29Z</time>
      </trkpt>
      <trkpt lat="44.11567" lon="6.86462">
        <ele>1310.63</ele>
        <time>2021-10-27T11:54:53Z</time>
      </trkpt>
      <trkpt lat="44.1157" lon="6.86461">
        <ele>1311.1</ele>
        <time>2021-10-27T11:56:29Z</time>
      </trkpt>
      <trkpt lat="44.11568" lon="6.86463">
        <ele>1311.03</ele>
        <time>2021-10-27T11:56:47Z</time>
      </trkpt>
      <trkpt lat="44.11567" lon="6.86459">
        <ele>1310.09</ele>
        <time>2021-10-27T11:56:52Z</time>
      </trkpt>
      <trkpt lat="44.11564" lon="6.86459">
        <ele>1309.44</ele>
        <time>2021-10-27T11:57:18Z</time>
      </trkpt>
      <trkpt lat="44.11567" lon="6.86462">
        <ele>1310.63</ele>
        <time>2021-10-27T11:57:34Z</time>
      </trkpt>
      <trkpt lat="44.11569" lon="6.86463">
        <ele>1311.24</ele>
        <time>2021-10-27T11:57:58Z</time>
      </trkpt>
      <trkpt lat="44.11569" lon="6.86459">
        <ele>1310.52</ele>
        <time>2021-10-27T11:58:24Z</time>
      </trkpt>
      <trkpt lat="44.11566" lon="6.86459">
        <ele>1309.88</ele>
        <time>2021-10-27T11:59:12Z</time>
      </trkpt>
      <trkpt lat="44.11567" lon="6.86462">
        <ele>1310.63</ele>
        <time>2021-10-27T11:59:36Z</time>
      </trkpt>
      <trkpt lat="44.11565" lon="6.86459">
        <ele>1309.66</ele>
        <time>2021-10-27T11:59:49Z</time>
      </trkpt>
      <trkpt lat="44.11565" lon="6.86455">
        <ele>1308.94</ele>
        <time>2021-10-27T12:00:06Z</time>
      </trkpt>
      <trkpt lat="44.11564" lon="6.86452">
        <ele>1308.18</ele>
        <time>2021-10-27T12:00:14Z</time>
      </trkpt>
      <trkpt lat="44.11565" lon="6.86448">
        <ele>1307.68</ele>
        <time>2021-10-27T12:00:19Z</time>
      </trkpt>
      <trkpt lat="44.11567" lon="6.86446">
        <ele>1307.75</ele>
        <time>2021-10-27T12:00:25Z</time>
      </trkpt>
      <trkpt lat="44.11565" lon="6.86444">
        <ele>1306.93</ele>
        <time>2021-10-27T12:00:30Z</time>
      </trkpt>
      <trkpt lat="44.11561" lon="6.86444">
        <ele>1306.08</ele>
        <time>2021-10-27T12:00:34Z</time>
      </trkpt>
      <trkpt lat="44.11559" lon="6.86446">
        <ele>1306.02</ele>
        <time>2021-10-27T12:00:38Z</time>
      </trkpt>
      <trkpt lat="44.11556" lon="6.86447">
        <ele>1305.56</ele>
        <time>2021-10-27T12:00:44Z</time>
      </trkpt>
      <trkpt lat="44.11553" lon="6.86447">
        <ele>1304.71</ele>
        <time>2021-10-27T12:00:52Z</time>
      </trkpt>
      <trkpt lat="44.1155" lon="6.8645">
        <ele>1304.32</ele>
        <time>2021-10-27T12:00:55Z</time>
      </trkpt>
      <trkpt lat="44.11547" lon="6.86449">
        <ele>1303.25</ele>
        <time>2021-10-27T12:01:00Z</time>
      </trkpt>
      <trkpt lat="44.11545" lon="6.86447">
        <ele>1302.35</ele>
        <time>2021-10-27T12:01:06Z</time>
      </trkpt>
      <trkpt lat="44.11546" lon="6.86443">
        <ele>1302.04</ele>
        <time>2021-10-27T12:01:11Z</time>
      </trkpt>
      <trkpt lat="44.11545" lon="6.86437">
        <ele>1300.93</ele>
        <time>2021-10-27T12:01:15Z</time>
      </trkpt>
      <trkpt lat="44.11545" lon="6.86433">
        <ele>1300.37</ele>
        <time>2021-10-27T12:01:20Z</time>
      </trkpt>
      <trkpt lat="44.11545" lon="6.86429">
        <ele>1299.81</ele>
        <time>2021-10-27T12:01:26Z</time>
      </trkpt>
      <trkpt lat="44.11546" lon="6.86425">
        <ele>1299.47</ele>
        <time>2021-10-27T12:01:34Z</time>
      </trkpt>
      <trkpt lat="44.11547" lon="6.86421">
        <ele>1299.1</ele>
        <time>2021-10-27T12:01:38Z</time>
      </trkpt>
      <trkpt lat="44.11549" lon="6.86417">
        <ele>1298.87</ele>
        <time>2021-10-27T12:01:42Z</time>
      </trkpt>
      <trkpt lat="44.11549" lon="6.86413">
        <ele>1298.42</ele>
        <time>2021-10-27T12:01:47Z</time>
      </trkpt>
      <trkpt lat="44.1155" lon="6.86409">
        <ele>1298.17</ele>
        <time>2021-10-27T12:01:51Z</time>
      </trkpt>
      <trkpt lat="44.11551" lon="6.86405">
        <ele>1297.92</ele>
        <time>2021-10-27T12:01:55Z</time>
      </trkpt>
      <trkpt lat="44.1155" lon="6.86402">
        <ele>1297.42</ele>
        <time>2021-10-27T12:02:02Z</time>
      </trkpt>
      <trkpt lat="44.11546" lon="6.86402">
        <ele>1296.7</ele>
        <time>2021-10-27T12:02:07Z</time>
      </trkpt>
      <trkpt lat="44.11543" lon="6.86402">
        <ele>1296.16</ele>
        <time>2021-10-27T12:02:11Z</time>
      </trkpt>
      <trkpt lat="44.1154" lon="6.86402">
        <ele>1295.62</ele>
        <time>2021-10-27T12:02:15Z</time>
      </trkpt>
      <trkpt lat="44.11536" lon="6.86402">
        <ele>1294.9</ele>
        <time>2021-10-27T12:02:19Z</time>
      </trkpt>
      <trkpt lat="44.11533" lon="6.86402">
        <ele>1294.36</ele>
        <time>2021-10-27T12:02:24Z</time>
      </trkpt>
      <trkpt lat="44.1153" lon="6.86403">
        <ele>1293.92</ele>
        <time>2021-10-27T12:02:28Z</time>
      </trkpt>
      <trkpt lat="44.11527" lon="6.86403">
        <ele>1293.31</ele>
        <time>2021-10-27T12:02:32Z</time>
      </trkpt>
      <trkpt lat="44.11525" lon="6.864">
        <ele>1292.48</ele>
        <time>2021-10-27T12:02:39Z</time>
      </trkpt>
      <trkpt lat="44.11524" lon="6.86397">
        <ele>1291.94</ele>
        <time>2021-10-27T12:02:43Z</time>
      </trkpt>
      <trkpt lat="44.11521" lon="6.86396">
        <ele>1291.12</ele>
        <time>2021-10-27T12:02:48Z</time>
      </trkpt>
      <trkpt lat="44.11518" lon="6.86395">
        <ele>1290.32</ele>
        <time>2021-10-27T12:02:54Z</time>
      </trkpt>
      <trkpt lat="44.11515" lon="6.86393">
        <ele>1289.48</ele>
        <time>2021-10-27T12:02:58Z</time>
      </trkpt>
      <trkpt lat="44.11513" lon="6.86391">
        <ele>1288.91</ele>
        <time>2021-10-27T12:03:02Z</time>
      </trkpt>
      <trkpt lat="44.1151" lon="6.86389">
        <ele>1288.16</ele>
        <time>2021-10-27T12:03:06Z</time>
      </trkpt>
      <trkpt lat="44.11508" lon="6.86386">
        <ele>1287.59</ele>
        <time>2021-10-27T12:03:12Z</time>
      </trkpt>
      <trkpt lat="44.11505" lon="6.86384">
        <ele>1286.87</ele>
        <time>2021-10-27T12:03:21Z</time>
      </trkpt>
      <trkpt lat="44.11502" lon="6.86383">
        <ele>1286.2</ele>
        <time>2021-10-27T12:03:27Z</time>
      </trkpt>
      <trkpt lat="44.115" lon="6.86381">
        <ele>1285.72</ele>
        <time>2021-10-27T12:03:35Z</time>
      </trkpt>
      <trkpt lat="44.11498" lon="6.86378">
        <ele>1285.18</ele>
        <time>2021-10-27T12:03:39Z</time>
      </trkpt>
      <trkpt lat="44.11498" lon="6.86374">
        <ele>1285.03</ele>
        <time>2021-10-27T12:03:48Z</time>
      </trkpt>
      <trkpt lat="44.11498" lon="6.8637">
        <ele>1284.89</ele>
        <time>2021-10-27T12:03:54Z</time>
      </trkpt>
      <trkpt lat="44.11496" lon="6.86366">
        <ele>1284.31</ele>
        <time>2021-10-27T12:04:00Z</time>
      </trkpt>
      <trkpt lat="44.11493" lon="6.86365">
        <ele>1283.63</ele>
        <time>2021-10-27T12:04:03Z</time>
      </trkpt>
      <trkpt lat="44.1149" lon="6.86363">
        <ele>1282.91</ele>
        <time>2021-10-27T12:04:07Z</time>
      </trkpt>
      <trkpt lat="44.11487" lon="6.86361">
        <ele>1282.18</ele>
        <time>2021-10-27T12:04:11Z</time>
      </trkpt>
      <trkpt lat="44.11483" lon="6.8636">
        <ele>1281.24</ele>
        <time>2021-10-27T12:04:15Z</time>
      </trkpt>
      <trkpt lat="44.11481" lon="6.86356">
        <ele>1280.54</ele>
        <time>2021-10-27T12:04:20Z</time>
      </trkpt>
      <trkpt lat="44.11478" lon="6.86354">
        <ele>1279.83</ele>
        <time>2021-10-27T12:04:24Z</time>
      </trkpt>
      <trkpt lat="44.11475" lon="6.86354">
        <ele>1279.27</ele>
        <time>2021-10-27T12:04:29Z</time>
      </trkpt>
      <trkpt lat="44.11473" lon="6.8635">
        <ele>1278.73</ele>
        <time>2021-10-27T12:04:45Z</time>
      </trkpt>
      <trkpt lat="44.1147" lon="6.86349">
        <ele>1278.68</ele>
        <time>2021-10-27T12:04:54Z</time>
      </trkpt>
      <trkpt lat="44.11467" lon="6.86348">
        <ele>1278.8</ele>
        <time>2021-10-27T12:04:58Z</time>
      </trkpt>
      <trkpt lat="44.11465" lon="6.86346">
        <ele>1278.86</ele>
        <time>2021-10-27T12:05:02Z</time>
      </trkpt>
      <trkpt lat="44.11462" lon="6.86344">
        <ele>1278.98</ele>
        <time>2021-10-27T12:05:06Z</time>
      </trkpt>
      <trkpt lat="44.11459" lon="6.86342">
        <ele>1279.12</ele>
        <time>2021-10-27T12:05:10Z</time>
      </trkpt>
      <trkpt lat="44.11457" lon="6.86339">
        <ele>1279.19</ele>
        <time>2021-10-27T12:05:16Z</time>
      </trkpt>
      <trkpt lat="44.11454" lon="6.86336">
        <ele>1279.35</ele>
        <time>2021-10-27T12:05:20Z</time>
      </trkpt>
      <trkpt lat="44.11451" lon="6.86336">
        <ele>1279.55</ele>
        <time>2021-10-27T12:05:30Z</time>
      </trkpt>
      <trkpt lat="44.11448" lon="6.86335">
        <ele>1279.75</ele>
        <time>2021-10-27T12:05:36Z</time>
      </trkpt>
      <trkpt lat="44.11446" lon="6.86332">
        <ele>1279.65</ele>
        <time>2021-10-27T12:05:39Z</time>
      </trkpt>
      <trkpt lat="44.11444" lon="6.86329">
        <ele>1279.2</ele>
        <time>2021-10-27T12:05:45Z</time>
      </trkpt>
      <trkpt lat="44.11441" lon="6.86327">
        <ele>1278.68</ele>
        <time>2021-10-27T12:05:49Z</time>
      </trkpt>
      <trkpt lat="44.11439" lon="6.86324">
        <ele>1277.99</ele>
        <time>2021-10-27T12:05:52Z</time>
      </trkpt>
      <trkpt lat="44.11436" lon="6.86323">
        <ele>1277.61</ele>
        <time>2021-10-27T12:05:56Z</time>
      </trkpt>
      <trkpt lat="44.11434" lon="6.86321">
        <ele>1277.07</ele>
        <time>2021-10-27T12:06:01Z</time>
      </trkpt>
      <trkpt lat="44.11431" lon="6.86318">
        <ele>1276.22</ele>
        <time>2021-10-27T12:06:07Z</time>
      </trkpt>
      <trkpt lat="44.11427" lon="6.86317">
        <ele>1275.69</ele>
        <time>2021-10-27T12:06:10Z</time>
      </trkpt>
      <trkpt lat="44.11424" lon="6.86315">
        <ele>1274.99</ele>
        <time>2021-10-27T12:06:14Z</time>
      </trkpt>
      <trkpt lat="44.11421" lon="6.86314">
        <ele>1274.5</ele>
        <time>2021-10-27T12:06:18Z</time>
      </trkpt>
      <trkpt lat="44.11418" lon="6.86313">
        <ele>1273.99</ele>
        <time>2021-10-27T12:06:24Z</time>
      </trkpt>
      <trkpt lat="44.11415" lon="6.86313">
        <ele>1273.65</ele>
        <time>2021-10-27T12:06:27Z</time>
      </trkpt>
      <trkpt lat="44.11412" lon="6.86313">
        <ele>1273.25</ele>
        <time>2021-10-27T12:06:32Z</time>
      </trkpt>
      <trkpt lat="44.11409" lon="6.86313">
        <ele>1272.85</ele>
        <time>2021-10-27T12:06:36Z</time>
      </trkpt>
      <trkpt lat="44.11405" lon="6.86313">
        <ele>1272.31</ele>
        <time>2021-10-27T12:06:40Z</time>
      </trkpt>
      <trkpt lat="44.11403" lon="6.86315">
        <ele>1272.58</ele>
        <time>2021-10-27T12:06:44Z</time>
      </trkpt>
      <trkpt lat="44.114" lon="6.86318">
        <ele>1273</ele>
        <time>2021-10-27T12:06:49Z</time>
      </trkpt>
      <trkpt lat="44.11396" lon="6.8632">
        <ele>1273.05</ele>
        <time>2021-10-27T12:06:53Z</time>
      </trkpt>
      <trkpt lat="44.11393" lon="6.8632">
        <ele>1272.68</ele>
        <time>2021-10-27T12:06:56Z</time>
      </trkpt>
      <trkpt lat="44.1139" lon="6.8632">
        <ele>1272.3</ele>
        <time>2021-10-27T12:06:59Z</time>
      </trkpt>
      <trkpt lat="44.11388" lon="6.8632">
        <ele>1272.06</ele>
        <time>2021-10-27T12:07:01Z</time>
      </trkpt>
      <trkpt lat="44.11384" lon="6.86322">
        <ele>1272.21</ele>
        <time>2021-10-27T12:07:05Z</time>
      </trkpt>
      <trkpt lat="44.11381" lon="6.86322">
        <ele>1271.88</ele>
        <time>2021-10-27T12:07:08Z</time>
      </trkpt>
      <trkpt lat="44.11379" lon="6.86324">
        <ele>1272.24</ele>
        <time>2021-10-27T12:07:12Z</time>
      </trkpt>
      <trkpt lat="44.11376" lon="6.86325">
        <ele>1272.21</ele>
        <time>2021-10-27T12:07:15Z</time>
      </trkpt>
      <trkpt lat="44.11373" lon="6.86325">
        <ele>1271.88</ele>
        <time>2021-10-27T12:07:18Z</time>
      </trkpt>
      <trkpt lat="44.1137" lon="6.86324">
        <ele>1271.27</ele>
        <time>2021-10-27T12:07:21Z</time>
      </trkpt>
      <trkpt lat="44.11366" lon="6.86324">
        <ele>1270.84</ele>
        <time>2021-10-27T12:07:25Z</time>
      </trkpt>
      <trkpt lat="44.11363" lon="6.86324">
        <ele>1270.52</ele>
        <time>2021-10-27T12:07:28Z</time>
      </trkpt>
      <trkpt lat="44.11361" lon="6.86325">
        <ele>1270.59</ele>
        <time>2021-10-27T12:07:32Z</time>
      </trkpt>
      <trkpt lat="44.11357" lon="6.86325">
        <ele>1270.08</ele>
        <time>2021-10-27T12:07:34Z</time>
      </trkpt>
      <trkpt lat="44.11354" lon="6.86323">
        <ele>1269.04</ele>
        <time>2021-10-27T12:07:36Z</time>
      </trkpt>
      <trkpt lat="44.11351" lon="6.86321">
        <ele>1267.91</ele>
        <time>2021-10-27T12:07:40Z</time>
      </trkpt>
      <trkpt lat="44.11348" lon="6.86322">
        <ele>1267.83</ele>
        <time>2021-10-27T12:07:46Z</time>
      </trkpt>
      <trkpt lat="44.11345" lon="6.8632">
        <ele>1266.61</ele>
        <time>2021-10-27T12:07:50Z</time>
      </trkpt>
      <trkpt lat="44.11342" lon="6.86318">
        <ele>1265.31</ele>
        <time>2021-10-27T12:07:53Z</time>
      </trkpt>
      <trkpt lat="44.1134" lon="6.86317">
        <ele>1264.54</ele>
        <time>2021-10-27T12:07:56Z</time>
      </trkpt>
      <trkpt lat="44.11337" lon="6.86321">
        <ele>1265.79</ele>
        <time>2021-10-27T12:08:00Z</time>
      </trkpt>
      <trkpt lat="44.11334" lon="6.86321">
        <ele>1265.33</ele>
        <time>2021-10-27T12:08:03Z</time>
      </trkpt>
      <trkpt lat="44.1133" lon="6.86321">
        <ele>1265.43</ele>
        <time>2021-10-27T12:08:09Z</time>
      </trkpt>
      <trkpt lat="44.11327" lon="6.86321">
        <ele>1265.61</ele>
        <time>2021-10-27T12:08:11Z</time>
      </trkpt>
      <trkpt lat="44.11324" lon="6.86321">
        <ele>1265.79</ele>
        <time>2021-10-27T12:08:14Z</time>
      </trkpt>
      <trkpt lat="44.11321" lon="6.86321">
        <ele>1265.97</ele>
        <time>2021-10-27T12:08:16Z</time>
      </trkpt>
      <trkpt lat="44.11318" lon="6.86322">
        <ele>1266.68</ele>
        <time>2021-10-27T12:08:20Z</time>
      </trkpt>
      <trkpt lat="44.11315" lon="6.86322">
        <ele>1266.87</ele>
        <time>2021-10-27T12:08:23Z</time>
      </trkpt>
      <trkpt lat="44.11312" lon="6.86323">
        <ele>1267.61</ele>
        <time>2021-10-27T12:08:26Z</time>
      </trkpt>
      <trkpt lat="44.11309" lon="6.86323">
        <ele>1267.81</ele>
        <time>2021-10-27T12:08:30Z</time>
      </trkpt>
      <trkpt lat="44.11306" lon="6.86326">
        <ele>1269.74</ele>
        <time>2021-10-27T12:08:34Z</time>
      </trkpt>
      <trkpt lat="44.11302" lon="6.86327">
        <ele>1270.41</ele>
        <time>2021-10-27T12:08:37Z</time>
      </trkpt>
      <trkpt lat="44.113" lon="6.86329">
        <ele>1271.57</ele>
        <time>2021-10-27T12:08:40Z</time>
      </trkpt>
      <trkpt lat="44.11296" lon="6.8633">
        <ele>1272.16</ele>
        <time>2021-10-27T12:08:43Z</time>
      </trkpt>
      <trkpt lat="44.11293" lon="6.86331">
        <ele>1272.73</ele>
        <time>2021-10-27T12:08:46Z</time>
      </trkpt>
      <trkpt lat="44.1129" lon="6.86333">
        <ele>1273.82</ele>
        <time>2021-10-27T12:08:49Z</time>
      </trkpt>
      <trkpt lat="44.11287" lon="6.86334">
        <ele>1274.27</ele>
        <time>2021-10-27T12:08:53Z</time>
      </trkpt>
      <trkpt lat="44.11284" lon="6.86335">
        <ele>1274.67</ele>
        <time>2021-10-27T12:08:57Z</time>
      </trkpt>
      <trkpt lat="44.11281" lon="6.86337">
        <ele>1275.47</ele>
        <time>2021-10-27T12:09:00Z</time>
      </trkpt>
      <trkpt lat="44.11278" lon="6.86338">
        <ele>1275.85</ele>
        <time>2021-10-27T12:09:04Z</time>
      </trkpt>
      <trkpt lat="44.11275" lon="6.86337">
        <ele>1275.48</ele>
        <time>2021-10-27T12:09:08Z</time>
      </trkpt>
      <trkpt lat="44.11272" lon="6.86337">
        <ele>1275.51</ele>
        <time>2021-10-27T12:09:12Z</time>
      </trkpt>
      <trkpt lat="44.11268" lon="6.86338">
        <ele>1275.97</ele>
        <time>2021-10-27T12:09:18Z</time>
      </trkpt>
      <trkpt lat="44.11266" lon="6.86337">
        <ele>1275.56</ele>
        <time>2021-10-27T12:09:22Z</time>
      </trkpt>
      <trkpt lat="44.11263" lon="6.86338">
        <ele>1276.03</ele>
        <time>2021-10-27T12:09:26Z</time>
      </trkpt>
      <trkpt lat="44.11259" lon="6.86338">
        <ele>1276.08</ele>
        <time>2021-10-27T12:09:29Z</time>
      </trkpt>
      <trkpt lat="44.11257" lon="6.8634">
        <ele>1277</ele>
        <time>2021-10-27T12:09:34Z</time>
      </trkpt>
      <trkpt lat="44.11254" lon="6.86339">
        <ele>1276.59</ele>
        <time>2021-10-27T12:09:41Z</time>
      </trkpt>
      <trkpt lat="44.1125" lon="6.86339">
        <ele>1276.65</ele>
        <time>2021-10-27T12:09:46Z</time>
      </trkpt>
      <trkpt lat="44.11248" lon="6.86338">
        <ele>1276.33</ele>
        <time>2021-10-27T12:09:49Z</time>
      </trkpt>
      <trkpt lat="44.11245" lon="6.86337">
        <ele>1276.08</ele>
        <time>2021-10-27T12:09:52Z</time>
      </trkpt>
      <trkpt lat="44.11242" lon="6.86337">
        <ele>1276.29</ele>
        <time>2021-10-27T12:09:55Z</time>
      </trkpt>
      <trkpt lat="44.11239" lon="6.86336">
        <ele>1276.04</ele>
        <time>2021-10-27T12:09:59Z</time>
      </trkpt>
      <trkpt lat="44.11236" lon="6.86335">
        <ele>1275.79</ele>
        <time>2021-10-27T12:10:02Z</time>
      </trkpt>
      <trkpt lat="44.11233" lon="6.86335">
        <ele>1276</ele>
        <time>2021-10-27T12:10:05Z</time>
      </trkpt>
      <trkpt lat="44.1123" lon="6.86333">
        <ele>1275.3</ele>
        <time>2021-10-27T12:10:09Z</time>
      </trkpt>
      <trkpt lat="44.11227" lon="6.86331">
        <ele>1274.65</ele>
        <time>2021-10-27T12:10:13Z</time>
      </trkpt>
      <trkpt lat="44.11224" lon="6.86329">
        <ele>1274</ele>
        <time>2021-10-27T12:10:16Z</time>
      </trkpt>
      <trkpt lat="44.11221" lon="6.86328">
        <ele>1273.39</ele>
        <time>2021-10-27T12:10:21Z</time>
      </trkpt>
      <trkpt lat="44.11218" lon="6.86327">
        <ele>1272.2</ele>
        <time>2021-10-27T12:10:25Z</time>
      </trkpt>
      <trkpt lat="44.11214" lon="6.86326">
        <ele>1270.76</ele>
        <time>2021-10-27T12:10:29Z</time>
      </trkpt>
      <trkpt lat="44.11211" lon="6.86325">
        <ele>1269.57</ele>
        <time>2021-10-27T12:10:31Z</time>
      </trkpt>
      <trkpt lat="44.11208" lon="6.86323">
        <ele>1267.95</ele>
        <time>2021-10-27T12:10:35Z</time>
      </trkpt>
      <trkpt lat="44.11204" lon="6.86322">
        <ele>1266.51</ele>
        <time>2021-10-27T12:10:38Z</time>
      </trkpt>
      <trkpt lat="44.11202" lon="6.86322">
        <ele>1266.01</ele>
        <time>2021-10-27T12:10:42Z</time>
      </trkpt>
      <trkpt lat="44.11199" lon="6.86322">
        <ele>1265.25</ele>
        <time>2021-10-27T12:10:47Z</time>
      </trkpt>
      <trkpt lat="44.11196" lon="6.86321">
        <ele>1264.06</ele>
        <time>2021-10-27T12:10:50Z</time>
      </trkpt>
      <trkpt lat="44.11193" lon="6.86319">
        <ele>1262.44</ele>
        <time>2021-10-27T12:10:54Z</time>
      </trkpt>
      <trkpt lat="44.1119" lon="6.86319">
        <ele>1261.67</ele>
        <time>2021-10-27T12:10:59Z</time>
      </trkpt>
      <trkpt lat="44.11187" lon="6.86321">
        <ele>1261.89</ele>
        <time>2021-10-27T12:11:03Z</time>
      </trkpt>
      <trkpt lat="44.11185" lon="6.86324">
        <ele>1262.92</ele>
        <time>2021-10-27T12:11:07Z</time>
      </trkpt>
      <trkpt lat="44.11182" lon="6.86325">
        <ele>1262.8</ele>
        <time>2021-10-27T12:11:14Z</time>
      </trkpt>
      <trkpt lat="44.11179" lon="6.86324">
        <ele>1261.62</ele>
        <time>2021-10-27T12:11:18Z</time>
      </trkpt>
      <trkpt lat="44.11176" lon="6.86323">
        <ele>1260.4</ele>
        <time>2021-10-27T12:11:24Z</time>
      </trkpt>
      <trkpt lat="44.11172" lon="6.86322">
        <ele>1258.89</ele>
        <time>2021-10-27T12:11:30Z</time>
      </trkpt>
      <trkpt lat="44.11169" lon="6.86322">
        <ele>1258.2</ele>
        <time>2021-10-27T12:11:33Z</time>
      </trkpt>
      <trkpt lat="44.11166" lon="6.86321">
        <ele>1257.03</ele>
        <time>2021-10-27T12:11:36Z</time>
      </trkpt>
      <trkpt lat="44.11163" lon="6.86319">
        <ele>1255.85</ele>
        <time>2021-10-27T12:11:39Z</time>
      </trkpt>
      <trkpt lat="44.11159" lon="6.8632">
        <ele>1256.62</ele>
        <time>2021-10-27T12:11:42Z</time>
      </trkpt>
      <trkpt lat="44.11157" lon="6.86322">
        <ele>1257.94</ele>
        <time>2021-10-27T12:11:46Z</time>
      </trkpt>
      <trkpt lat="44.11154" lon="6.86324">
        <ele>1259.26</ele>
        <time>2021-10-27T12:11:49Z</time>
      </trkpt>
      <trkpt lat="44.1115" lon="6.86325">
        <ele>1259.96</ele>
        <time>2021-10-27T12:11:51Z</time>
      </trkpt>
      <trkpt lat="44.11148" lon="6.86326">
        <ele>1260.6</ele>
        <time>2021-10-27T12:11:56Z</time>
      </trkpt>
      <trkpt lat="44.11144" lon="6.86326">
        <ele>1260.68</ele>
        <time>2021-10-27T12:12:00Z</time>
      </trkpt>
      <trkpt lat="44.11141" lon="6.86327">
        <ele>1261.32</ele>
        <time>2021-10-27T12:12:04Z</time>
      </trkpt>
      <trkpt lat="44.11138" lon="6.86327">
        <ele>1261.62</ele>
        <time>2021-10-27T12:12:07Z</time>
      </trkpt>
      <trkpt lat="44.11135" lon="6.86327">
        <ele>1262.52</ele>
        <time>2021-10-27T12:12:12Z</time>
      </trkpt>
      <trkpt lat="44.11131" lon="6.86327">
        <ele>1263.71</ele>
        <time>2021-10-27T12:12:18Z</time>
      </trkpt>
      <trkpt lat="44.11128" lon="6.86328">
        <ele>1265.23</ele>
        <time>2021-10-27T12:12:22Z</time>
      </trkpt>
      <trkpt lat="44.11126" lon="6.86325">
        <ele>1263.96</ele>
        <time>2021-10-27T12:12:43Z</time>
      </trkpt>
      <trkpt lat="44.11123" lon="6.86326">
        <ele>1265.47</ele>
        <time>2021-10-27T12:12:47Z</time>
      </trkpt>
      <trkpt lat="44.1112" lon="6.86324">
        <ele>1265.06</ele>
        <time>2021-10-27T12:12:50Z</time>
      </trkpt>
      <trkpt lat="44.11118" lon="6.86322">
        <ele>1264.32</ele>
        <time>2021-10-27T12:12:52Z</time>
      </trkpt>
      <trkpt lat="44.11114" lon="6.86321">
        <ele>1264.77</ele>
        <time>2021-10-27T12:12:55Z</time>
      </trkpt>
      <trkpt lat="44.1111" lon="6.86321">
        <ele>1265.84</ele>
        <time>2021-10-27T12:12:58Z</time>
      </trkpt>
      <trkpt lat="44.11107" lon="6.8632">
        <ele>1265.9</ele>
        <time>2021-10-27T12:13:01Z</time>
      </trkpt>
      <trkpt lat="44.11104" lon="6.86319">
        <ele>1266</ele>
        <time>2021-10-27T12:13:04Z</time>
      </trkpt>
      <trkpt lat="44.11101" lon="6.86319">
        <ele>1266.77</ele>
        <time>2021-10-27T12:13:07Z</time>
      </trkpt>
      <trkpt lat="44.11098" lon="6.86318">
        <ele>1266.91</ele>
        <time>2021-10-27T12:13:11Z</time>
      </trkpt>
      <trkpt lat="44.11096" lon="6.86317">
        <ele>1266.83</ele>
        <time>2021-10-27T12:13:15Z</time>
      </trkpt>
      <trkpt lat="44.11093" lon="6.86316">
        <ele>1267.03</ele>
        <time>2021-10-27T12:13:17Z</time>
      </trkpt>
      <trkpt lat="44.11089" lon="6.86315">
        <ele>1267.54</ele>
        <time>2021-10-27T12:13:20Z</time>
      </trkpt>
      <trkpt lat="44.11087" lon="6.86314">
        <ele>1267.53</ele>
        <time>2021-10-27T12:13:24Z</time>
      </trkpt>
      <trkpt lat="44.11084" lon="6.86312">
        <ele>1267.29</ele>
        <time>2021-10-27T12:13:28Z</time>
      </trkpt>
      <trkpt lat="44.11081" lon="6.86311">
        <ele>1267.41</ele>
        <time>2021-10-27T12:13:32Z</time>
      </trkpt>
      <trkpt lat="44.11078" lon="6.86312">
        <ele>1268.54</ele>
        <time>2021-10-27T12:13:36Z</time>
      </trkpt>
      <trkpt lat="44.11075" lon="6.86312">
        <ele>1269.14</ele>
        <time>2021-10-27T12:13:41Z</time>
      </trkpt>
      <trkpt lat="44.11071" lon="6.86312">
        <ele>1269.94</ele>
        <time>2021-10-27T12:13:45Z</time>
      </trkpt>
      <trkpt lat="44.11068" lon="6.86312">
        <ele>1270.54</ele>
        <time>2021-10-27T12:13:49Z</time>
      </trkpt>
      <trkpt lat="44.11065" lon="6.86311">
        <ele>1270.64</ele>
        <time>2021-10-27T12:13:52Z</time>
      </trkpt>
      <trkpt lat="44.11062" lon="6.86309">
        <ele>1270.28</ele>
        <time>2021-10-27T12:13:57Z</time>
      </trkpt>
      <trkpt lat="44.1106" lon="6.86309">
        <ele>1270.69</ele>
        <time>2021-10-27T12:14:00Z</time>
      </trkpt>
      <trkpt lat="44.11057" lon="6.8631">
        <ele>1271.78</ele>
        <time>2021-10-27T12:14:04Z</time>
      </trkpt>
      <trkpt lat="44.11055" lon="6.86307">
        <ele>1270.81</ele>
        <time>2021-10-27T12:14:09Z</time>
      </trkpt>
      <trkpt lat="44.11052" lon="6.86308">
        <ele>1271.98</ele>
        <time>2021-10-27T12:14:16Z</time>
      </trkpt>
      <trkpt lat="44.1105" lon="6.86306">
        <ele>1271.59</ele>
        <time>2021-10-27T12:14:21Z</time>
      </trkpt>
      <trkpt lat="44.11047" lon="6.86302">
        <ele>1270.61</ele>
        <time>2021-10-27T12:14:27Z</time>
      </trkpt>
      <trkpt lat="44.11045" lon="6.863">
        <ele>1270.29</ele>
        <time>2021-10-27T12:14:33Z</time>
      </trkpt>
      <trkpt lat="44.11043" lon="6.86297">
        <ele>1269.58</ele>
        <time>2021-10-27T12:14:38Z</time>
      </trkpt>
      <trkpt lat="44.1104" lon="6.86293">
        <ele>1268.8</ele>
        <time>2021-10-27T12:14:41Z</time>
      </trkpt>
      <trkpt lat="44.11038" lon="6.8629">
        <ele>1268.21</ele>
        <time>2021-10-27T12:14:45Z</time>
      </trkpt>
      <trkpt lat="44.11035" lon="6.86289">
        <ele>1268.76</ele>
        <time>2021-10-27T12:14:53Z</time>
      </trkpt>
      <trkpt lat="44.11032" lon="6.86287">
        <ele>1268.95</ele>
        <time>2021-10-27T12:14:57Z</time>
      </trkpt>
      <trkpt lat="44.11029" lon="6.86284">
        <ele>1268.83</ele>
        <time>2021-10-27T12:15:00Z</time>
      </trkpt>
      <trkpt lat="44.11025" lon="6.86283">
        <ele>1269.34</ele>
        <time>2021-10-27T12:15:03Z</time>
      </trkpt>
      <trkpt lat="44.11022" lon="6.86282">
        <ele>1269.5</ele>
        <time>2021-10-27T12:15:07Z</time>
      </trkpt>
      <trkpt lat="44.1102" lon="6.86281">
        <ele>1269.5</ele>
        <time>2021-10-27T12:15:12Z</time>
      </trkpt>
      <trkpt lat="44.11017" lon="6.86279">
        <ele>1269.35</ele>
        <time>2021-10-27T12:15:15Z</time>
      </trkpt>
      <trkpt lat="44.11014" lon="6.86277">
        <ele>1269.03</ele>
        <time>2021-10-27T12:15:18Z</time>
      </trkpt>
      <trkpt lat="44.11011" lon="6.86277">
        <ele>1269.56</ele>
        <time>2021-10-27T12:15:20Z</time>
      </trkpt>
      <trkpt lat="44.11008" lon="6.86275">
        <ele>1268.88</ele>
        <time>2021-10-27T12:15:23Z</time>
      </trkpt>
      <trkpt lat="44.11005" lon="6.86274">
        <ele>1268.75</ele>
        <time>2021-10-27T12:15:26Z</time>
      </trkpt>
      <trkpt lat="44.11002" lon="6.86273">
        <ele>1268.59</ele>
        <time>2021-10-27T12:15:30Z</time>
      </trkpt>
      <trkpt lat="44.10998" lon="6.86274">
        <ele>1269.07</ele>
        <time>2021-10-27T12:15:33Z</time>
      </trkpt>
      <trkpt lat="44.10995" lon="6.86273">
        <ele>1267.67</ele>
        <time>2021-10-27T12:15:36Z</time>
      </trkpt>
      <trkpt lat="44.10992" lon="6.86274">
        <ele>1267.63</ele>
        <time>2021-10-27T12:15:40Z</time>
      </trkpt>
      <trkpt lat="44.10989" lon="6.86274">
        <ele>1266.91</ele>
        <time>2021-10-27T12:15:43Z</time>
      </trkpt>
      <trkpt lat="44.10986" lon="6.86273">
        <ele>1265.45</ele>
        <time>2021-10-27T12:15:46Z</time>
      </trkpt>
      <trkpt lat="44.10983" lon="6.86273">
        <ele>1264.71</ele>
        <time>2021-10-27T12:15:49Z</time>
      </trkpt>
      <trkpt lat="44.1098" lon="6.86272">
        <ele>1263.19</ele>
        <time>2021-10-27T12:15:52Z</time>
      </trkpt>
      <trkpt lat="44.10976" lon="6.86272">
        <ele>1262.17</ele>
        <time>2021-10-27T12:15:56Z</time>
      </trkpt>
      <trkpt lat="44.10973" lon="6.86272">
        <ele>1261.41</ele>
        <time>2021-10-27T12:16:00Z</time>
      </trkpt>
      <trkpt lat="44.10969" lon="6.86271">
        <ele>1259.28</ele>
        <time>2021-10-27T12:16:03Z</time>
      </trkpt>
      <trkpt lat="44.10966" lon="6.86271">
        <ele>1258.26</ele>
        <time>2021-10-27T12:16:06Z</time>
      </trkpt>
      <trkpt lat="44.10964" lon="6.8627">
        <ele>1256.77</ele>
        <time>2021-10-27T12:16:09Z</time>
      </trkpt>
      <trkpt lat="44.1096" lon="6.86268">
        <ele>1253.81</ele>
        <time>2021-10-27T12:16:12Z</time>
      </trkpt>
      <trkpt lat="44.10957" lon="6.86267">
        <ele>1252.02</ele>
        <time>2021-10-27T12:16:15Z</time>
      </trkpt>
      <trkpt lat="44.10954" lon="6.86266">
        <ele>1250.24</ele>
        <time>2021-10-27T12:16:18Z</time>
      </trkpt>
      <trkpt lat="44.10951" lon="6.86264">
        <ele>1247.71</ele>
        <time>2021-10-27T12:16:21Z</time>
      </trkpt>
      <trkpt lat="44.10948" lon="6.86264">
        <ele>1246.74</ele>
        <time>2021-10-27T12:16:24Z</time>
      </trkpt>
      <trkpt lat="44.10944" lon="6.86264">
        <ele>1245.54</ele>
        <time>2021-10-27T12:16:27Z</time>
      </trkpt>
      <trkpt lat="44.10941" lon="6.86263">
        <ele>1244.46</ele>
        <time>2021-10-27T12:16:31Z</time>
      </trkpt>
      <trkpt lat="44.10938" lon="6.86262">
        <ele>1243.41</ele>
        <time>2021-10-27T12:16:35Z</time>
      </trkpt>
      <trkpt lat="44.10935" lon="6.86262">
        <ele>1243.1</ele>
        <time>2021-10-27T12:16:42Z</time>
      </trkpt>
      <trkpt lat="44.10933" lon="6.8626">
        <ele>1241.44</ele>
        <time>2021-10-27T12:16:48Z</time>
      </trkpt>
      <trkpt lat="44.1093" lon="6.8626">
        <ele>1241.15</ele>
        <time>2021-10-27T12:16:53Z</time>
      </trkpt>
      <trkpt lat="44.10927" lon="6.8626">
        <ele>1240.85</ele>
        <time>2021-10-27T12:16:57Z</time>
      </trkpt>
      <trkpt lat="44.10924" lon="6.86261">
        <ele>1241.26</ele>
        <time>2021-10-27T12:17:03Z</time>
      </trkpt>
      <trkpt lat="44.1092" lon="6.86262">
        <ele>1241.55</ele>
        <time>2021-10-27T12:17:08Z</time>
      </trkpt>
      <trkpt lat="44.10917" lon="6.86262">
        <ele>1241.24</ele>
        <time>2021-10-27T12:17:11Z</time>
      </trkpt>
      <trkpt lat="44.10914" lon="6.86259">
        <ele>1239.45</ele>
        <time>2021-10-27T12:17:14Z</time>
      </trkpt>
      <trkpt lat="44.10911" lon="6.86257">
        <ele>1238.5</ele>
        <time>2021-10-27T12:17:17Z</time>
      </trkpt>
      <trkpt lat="44.10909" lon="6.86256">
        <ele>1238.13</ele>
        <time>2021-10-27T12:17:20Z</time>
      </trkpt>
      <trkpt lat="44.10905" lon="6.86256">
        <ele>1238.66</ele>
        <time>2021-10-27T12:17:23Z</time>
      </trkpt>
      <trkpt lat="44.10901" lon="6.86255">
        <ele>1238.63</ele>
        <time>2021-10-27T12:17:26Z</time>
      </trkpt>
      <trkpt lat="44.10899" lon="6.86254">
        <ele>1238.37</ele>
        <time>2021-10-27T12:17:29Z</time>
      </trkpt>
      <trkpt lat="44.10896" lon="6.86251">
        <ele>1237.24</ele>
        <time>2021-10-27T12:17:40Z</time>
      </trkpt>
      <trkpt lat="44.10892" lon="6.86251">
        <ele>1237.93</ele>
        <time>2021-10-27T12:17:58Z</time>
      </trkpt>
      <trkpt lat="44.10889" lon="6.86251">
        <ele>1238.45</ele>
        <time>2021-10-27T12:18:14Z</time>
      </trkpt>
      <trkpt lat="44.10886" lon="6.86251">
        <ele>1238.06</ele>
        <time>2021-10-27T12:18:19Z</time>
      </trkpt>
      <trkpt lat="44.10884" lon="6.86248">
        <ele>1236.31</ele>
        <time>2021-10-27T12:18:34Z</time>
      </trkpt>
      <trkpt lat="44.10881" lon="6.86248">
        <ele>1235.9</ele>
        <time>2021-10-27T12:19:05Z</time>
      </trkpt>
      <trkpt lat="44.10879" lon="6.86245">
        <ele>1234.18</ele>
        <time>2021-10-27T12:19:09Z</time>
      </trkpt>
      <trkpt lat="44.10876" lon="6.86243">
        <ele>1232.85</ele>
        <time>2021-10-27T12:19:12Z</time>
      </trkpt>
      <trkpt lat="44.10874" lon="6.86243">
        <ele>1232.6</ele>
        <time>2021-10-27T12:19:14Z</time>
      </trkpt>
      <trkpt lat="44.10871" lon="6.86242">
        <ele>1231.76</ele>
        <time>2021-10-27T12:19:17Z</time>
      </trkpt>
      <trkpt lat="44.10867" lon="6.86241">
        <ele>1230.82</ele>
        <time>2021-10-27T12:19:22Z</time>
      </trkpt>
      <trkpt lat="44.10864" lon="6.86241">
        <ele>1230.46</ele>
        <time>2021-10-27T12:19:25Z</time>
      </trkpt>
      <trkpt lat="44.10862" lon="6.86241">
        <ele>1230.22</ele>
        <time>2021-10-27T12:19:28Z</time>
      </trkpt>
      <trkpt lat="44.10859" lon="6.8624">
        <ele>1229.6</ele>
        <time>2021-10-27T12:19:31Z</time>
      </trkpt>
      <trkpt lat="44.10856" lon="6.86239">
        <ele>1229.03</ele>
        <time>2021-10-27T12:19:34Z</time>
      </trkpt>
      <trkpt lat="44.10853" lon="6.86239">
        <ele>1228.9</ele>
        <time>2021-10-27T12:19:37Z</time>
      </trkpt>
      <trkpt lat="44.1085" lon="6.8624">
        <ele>1229.25</ele>
        <time>2021-10-27T12:19:40Z</time>
      </trkpt>
      <trkpt lat="44.10847" lon="6.86241">
        <ele>1229.62</ele>
        <time>2021-10-27T12:19:43Z</time>
      </trkpt>
      <trkpt lat="44.10844" lon="6.86242">
        <ele>1230.01</ele>
        <time>2021-10-27T12:19:47Z</time>
      </trkpt>
      <trkpt lat="44.10841" lon="6.86243">
        <ele>1230.43</ele>
        <time>2021-10-27T12:19:49Z</time>
      </trkpt>
      <trkpt lat="44.10838" lon="6.86244">
        <ele>1230.87</ele>
        <time>2021-10-27T12:19:52Z</time>
      </trkpt>
      <trkpt lat="44.10835" lon="6.86244">
        <ele>1230.8</ele>
        <time>2021-10-27T12:19:58Z</time>
      </trkpt>
      <trkpt lat="44.10832" lon="6.86244">
        <ele>1230.58</ele>
        <time>2021-10-27T12:20:01Z</time>
      </trkpt>
      <trkpt lat="44.10829" lon="6.86245">
        <ele>1230.69</ele>
        <time>2021-10-27T12:20:06Z</time>
      </trkpt>
      <trkpt lat="44.10827" lon="6.86248">
        <ele>1231.88</ele>
        <time>2021-10-27T12:20:12Z</time>
      </trkpt>
      <trkpt lat="44.10824" lon="6.86248">
        <ele>1231.39</ele>
        <time>2021-10-27T12:20:15Z</time>
      </trkpt>
      <trkpt lat="44.10821" lon="6.86248">
        <ele>1230.89</ele>
        <time>2021-10-27T12:20:19Z</time>
      </trkpt>
      <trkpt lat="44.10818" lon="6.86247">
        <ele>1229.98</ele>
        <time>2021-10-27T12:20:22Z</time>
      </trkpt>
      <trkpt lat="44.10816" lon="6.86247">
        <ele>1229.66</ele>
        <time>2021-10-27T12:20:26Z</time>
      </trkpt>
      <trkpt lat="44.10812" lon="6.86247">
        <ele>1229.04</ele>
        <time>2021-10-27T12:20:29Z</time>
      </trkpt>
      <trkpt lat="44.10809" lon="6.86246">
        <ele>1228.22</ele>
        <time>2021-10-27T12:20:32Z</time>
      </trkpt>
      <trkpt lat="44.10805" lon="6.86246">
        <ele>1227.79</ele>
        <time>2021-10-27T12:20:35Z</time>
      </trkpt>
      <trkpt lat="44.10802" lon="6.86246">
        <ele>1228.23</ele>
        <time>2021-10-27T12:20:38Z</time>
      </trkpt>
      <trkpt lat="44.10798" lon="6.86247">
        <ele>1229.15</ele>
        <time>2021-10-27T12:20:42Z</time>
      </trkpt>
      <trkpt lat="44.10795" lon="6.86247">
        <ele>1229.59</ele>
        <time>2021-10-27T12:20:47Z</time>
      </trkpt>
      <trkpt lat="44.10792" lon="6.86246">
        <ele>1229.73</ele>
        <time>2021-10-27T12:20:50Z</time>
      </trkpt>
      <trkpt lat="44.10788" lon="6.86245">
        <ele>1230.02</ele>
        <time>2021-10-27T12:20:53Z</time>
      </trkpt>
      <trkpt lat="44.10785" lon="6.86246">
        <ele>1230.77</ele>
        <time>2021-10-27T12:20:56Z</time>
      </trkpt>
      <trkpt lat="44.10781" lon="6.86246">
        <ele>1231.37</ele>
        <time>2021-10-27T12:21:01Z</time>
      </trkpt>
      <trkpt lat="44.10778" lon="6.86246">
        <ele>1231.81</ele>
        <time>2021-10-27T12:21:05Z</time>
      </trkpt>
      <trkpt lat="44.10775" lon="6.86245">
        <ele>1231.63</ele>
        <time>2021-10-27T12:21:08Z</time>
      </trkpt>
      <trkpt lat="44.10772" lon="6.86245">
        <ele>1231.71</ele>
        <time>2021-10-27T12:21:13Z</time>
      </trkpt>
      <trkpt lat="44.10769" lon="6.86243">
        <ele>1231.3</ele>
        <time>2021-10-27T12:21:18Z</time>
      </trkpt>
      <trkpt lat="44.10766" lon="6.86242">
        <ele>1231.18</ele>
        <time>2021-10-27T12:21:22Z</time>
      </trkpt>
      <trkpt lat="44.10763" lon="6.86241">
        <ele>1231.1</ele>
        <time>2021-10-27T12:21:25Z</time>
      </trkpt>
      <trkpt lat="44.1076" lon="6.86239">
        <ele>1230.85</ele>
        <time>2021-10-27T12:21:28Z</time>
      </trkpt>
      <trkpt lat="44.10758" lon="6.86237">
        <ele>1230.59</ele>
        <time>2021-10-27T12:21:30Z</time>
      </trkpt>
      <trkpt lat="44.10755" lon="6.86236">
        <ele>1230.62</ele>
        <time>2021-10-27T12:21:35Z</time>
      </trkpt>
      <trkpt lat="44.10752" lon="6.86233">
        <ele>1230.38</ele>
        <time>2021-10-27T12:21:39Z</time>
      </trkpt>
      <trkpt lat="44.10749" lon="6.86231">
        <ele>1230.34</ele>
        <time>2021-10-27T12:21:41Z</time>
      </trkpt>
      <trkpt lat="44.10747" lon="6.86227">
        <ele>1229.9</ele>
        <time>2021-10-27T12:21:47Z</time>
      </trkpt>
      <trkpt lat="44.10746" lon="6.86224">
        <ele>1229.54</ele>
        <time>2021-10-27T12:21:50Z</time>
      </trkpt>
      <trkpt lat="44.10744" lon="6.8622">
        <ele>1229.13</ele>
        <time>2021-10-27T12:21:53Z</time>
      </trkpt>
      <trkpt lat="44.10742" lon="6.86217">
        <ele>1228.88</ele>
        <time>2021-10-27T12:21:56Z</time>
      </trkpt>
      <trkpt lat="44.10741" lon="6.86212">
        <ele>1228.3</ele>
        <time>2021-10-27T12:21:59Z</time>
      </trkpt>
      <trkpt lat="44.10739" lon="6.86208">
        <ele>1227.95</ele>
        <time>2021-10-27T12:22:02Z</time>
      </trkpt>
      <trkpt lat="44.10737" lon="6.86206">
        <ele>1227.87</ele>
        <time>2021-10-27T12:22:05Z</time>
      </trkpt>
      <trkpt lat="44.10734" lon="6.86203">
        <ele>1227.78</ele>
        <time>2021-10-27T12:22:09Z</time>
      </trkpt>
      <trkpt lat="44.10732" lon="6.862">
        <ele>1227.61</ele>
        <time>2021-10-27T12:22:14Z</time>
      </trkpt>
      <trkpt lat="44.1073" lon="6.86196">
        <ele>1227.34</ele>
        <time>2021-10-27T12:22:18Z</time>
      </trkpt>
      <trkpt lat="44.10728" lon="6.86193">
        <ele>1227.11</ele>
        <time>2021-10-27T12:22:20Z</time>
      </trkpt>
      <trkpt lat="44.10725" lon="6.86192">
        <ele>1227.25</ele>
        <time>2021-10-27T12:22:22Z</time>
      </trkpt>
      <trkpt lat="44.10722" lon="6.8619">
        <ele>1227.16</ele>
        <time>2021-10-27T12:22:25Z</time>
      </trkpt>
      <trkpt lat="44.10719" lon="6.86187">
        <ele>1226.14</ele>
        <time>2021-10-27T12:22:28Z</time>
      </trkpt>
      <trkpt lat="44.10716" lon="6.86184">
        <ele>1225.17</ele>
        <time>2021-10-27T12:22:32Z</time>
      </trkpt>
      <trkpt lat="44.10714" lon="6.86182">
        <ele>1224.55</ele>
        <time>2021-10-27T12:22:36Z</time>
      </trkpt>
      <trkpt lat="44.10711" lon="6.8618">
        <ele>1223.8</ele>
        <time>2021-10-27T12:22:39Z</time>
      </trkpt>
      <trkpt lat="44.10708" lon="6.86178">
        <ele>1223.09</ele>
        <time>2021-10-27T12:22:44Z</time>
      </trkpt>
      <trkpt lat="44.10706" lon="6.86175">
        <ele>1222.4</ele>
        <time>2021-10-27T12:22:48Z</time>
      </trkpt>
      <trkpt lat="44.10703" lon="6.86172">
        <ele>1221.62</ele>
        <time>2021-10-27T12:22:52Z</time>
      </trkpt>
      <trkpt lat="44.10701" lon="6.86168">
        <ele>1220.87</ele>
        <time>2021-10-27T12:22:56Z</time>
      </trkpt>
      <trkpt lat="44.10699" lon="6.86166">
        <ele>1220.37</ele>
        <time>2021-10-27T12:22:59Z</time>
      </trkpt>
      <trkpt lat="44.10696" lon="6.86163">
        <ele>1219.5</ele>
        <time>2021-10-27T12:23:02Z</time>
      </trkpt>
      <trkpt lat="44.10693" lon="6.8616">
        <ele>1218.51</ele>
        <time>2021-10-27T12:23:05Z</time>
      </trkpt>
      <trkpt lat="44.1069" lon="6.86158">
        <ele>1217.58</ele>
        <time>2021-10-27T12:23:08Z</time>
      </trkpt>
      <trkpt lat="44.10687" lon="6.86156">
        <ele>1216.68</ele>
        <time>2021-10-27T12:23:12Z</time>
      </trkpt>
      <trkpt lat="44.10685" lon="6.86153">
        <ele>1215.83</ele>
        <time>2021-10-27T12:23:15Z</time>
      </trkpt>
      <trkpt lat="44.10682" lon="6.86151">
        <ele>1215</ele>
        <time>2021-10-27T12:23:18Z</time>
      </trkpt>
      <trkpt lat="44.10679" lon="6.86149">
        <ele>1214.19</ele>
        <time>2021-10-27T12:23:21Z</time>
      </trkpt>
      <trkpt lat="44.10676" lon="6.86148">
        <ele>1213.55</ele>
        <time>2021-10-27T12:23:24Z</time>
      </trkpt>
      <trkpt lat="44.10673" lon="6.86147">
        <ele>1212.92</ele>
        <time>2021-10-27T12:23:28Z</time>
      </trkpt>
      <trkpt lat="44.1067" lon="6.86148">
        <ele>1212.54</ele>
        <time>2021-10-27T12:23:31Z</time>
      </trkpt>
      <trkpt lat="44.10667" lon="6.86147">
        <ele>1211.93</ele>
        <time>2021-10-27T12:23:34Z</time>
      </trkpt>
      <trkpt lat="44.10664" lon="6.86146">
        <ele>1211.29</ele>
        <time>2021-10-27T12:23:36Z</time>
      </trkpt>
      <trkpt lat="44.10661" lon="6.86144">
        <ele>1210.53</ele>
        <time>2021-10-27T12:23:39Z</time>
      </trkpt>
      <trkpt lat="44.10658" lon="6.86144">
        <ele>1209.99</ele>
        <time>2021-10-27T12:23:43Z</time>
      </trkpt>
      <trkpt lat="44.10655" lon="6.86143">
        <ele>1209.34</ele>
        <time>2021-10-27T12:23:47Z</time>
      </trkpt>
      <trkpt lat="44.10652" lon="6.86143">
        <ele>1208.8</ele>
        <time>2021-10-27T12:23:51Z</time>
      </trkpt>
      <trkpt lat="44.10649" lon="6.86144">
        <ele>1208.37</ele>
        <time>2021-10-27T12:23:58Z</time>
      </trkpt>
      <trkpt lat="44.10646" lon="6.86145">
        <ele>1207.94</ele>
        <time>2021-10-27T12:24:02Z</time>
      </trkpt>
      <trkpt lat="44.10643" lon="6.86146">
        <ele>1207.51</ele>
        <time>2021-10-27T12:24:07Z</time>
      </trkpt>
      <trkpt lat="44.1064" lon="6.86148">
        <ele>1207.18</ele>
        <time>2021-10-27T12:24:11Z</time>
      </trkpt>
      <trkpt lat="44.10638" lon="6.86149">
        <ele>1206.93</ele>
        <time>2021-10-27T12:24:17Z</time>
      </trkpt>
      <trkpt lat="44.10634" lon="6.8615">
        <ele>1206.32</ele>
        <time>2021-10-27T12:24:24Z</time>
      </trkpt>
      <trkpt lat="44.10631" lon="6.86152">
        <ele>1206</ele>
        <time>2021-10-27T12:24:28Z</time>
      </trkpt>
      <trkpt lat="44.10628" lon="6.86152">
        <ele>1205.46</ele>
        <time>2021-10-27T12:24:34Z</time>
      </trkpt>
      <trkpt lat="44.10626" lon="6.86154">
        <ele>1205.31</ele>
        <time>2021-10-27T12:24:40Z</time>
      </trkpt>
      <trkpt lat="44.10622" lon="6.86155">
        <ele>1204.7</ele>
        <time>2021-10-27T12:24:46Z</time>
      </trkpt>
      <trkpt lat="44.1062" lon="6.86155">
        <ele>1204.34</ele>
        <time>2021-10-27T12:24:49Z</time>
      </trkpt>
      <trkpt lat="44.10616" lon="6.86155">
        <ele>1203.62</ele>
        <time>2021-10-27T12:24:53Z</time>
      </trkpt>
      <trkpt lat="44.10613" lon="6.86154">
        <ele>1202.97</ele>
        <time>2021-10-27T12:24:59Z</time>
      </trkpt>
      <trkpt lat="44.1061" lon="6.86154">
        <ele>1202.51</ele>
        <time>2021-10-27T12:25:04Z</time>
      </trkpt>
      <trkpt lat="44.10606" lon="6.86153">
        <ele>1201.97</ele>
        <time>2021-10-27T12:25:08Z</time>
      </trkpt>
      <trkpt lat="44.10603" lon="6.86153">
        <ele>1201.65</ele>
        <time>2021-10-27T12:25:13Z</time>
      </trkpt>
      <trkpt lat="44.10601" lon="6.86152">
        <ele>1201.32</ele>
        <time>2021-10-27T12:25:19Z</time>
      </trkpt>
      <trkpt lat="44.10597" lon="6.86152">
        <ele>1200.89</ele>
        <time>2021-10-27T12:25:25Z</time>
      </trkpt>
      <trkpt lat="44.10596" lon="6.86149">
        <ele>1200.46</ele>
        <time>2021-10-27T12:25:29Z</time>
      </trkpt>
      <trkpt lat="44.10596" lon="6.86145">
        <ele>1200.03</ele>
        <time>2021-10-27T12:25:34Z</time>
      </trkpt>
      <trkpt lat="44.10593" lon="6.86143">
        <ele>1199.49</ele>
        <time>2021-10-27T12:25:37Z</time>
      </trkpt>
      <trkpt lat="44.10591" lon="6.86146">
        <ele>1199.6</ele>
        <time>2021-10-27T12:25:42Z</time>
      </trkpt>
      <trkpt lat="44.10589" lon="6.8615">
        <ele>1199.81</ele>
        <time>2021-10-27T12:25:46Z</time>
      </trkpt>
      <trkpt lat="44.10587" lon="6.86152">
        <ele>1199.81</ele>
        <time>2021-10-27T12:25:49Z</time>
      </trkpt>
      <trkpt lat="44.10584" lon="6.86153">
        <ele>1199.6</ele>
        <time>2021-10-27T12:25:53Z</time>
      </trkpt>
      <trkpt lat="44.10581" lon="6.86154">
        <ele>1199.13</ele>
        <time>2021-10-27T12:25:59Z</time>
      </trkpt>
      <trkpt lat="44.10578" lon="6.86156">
        <ele>1198.7</ele>
        <time>2021-10-27T12:26:04Z</time>
      </trkpt>
      <trkpt lat="44.10576" lon="6.86157">
        <ele>1198.37</ele>
        <time>2021-10-27T12:26:09Z</time>
      </trkpt>
      <trkpt lat="44.10572" lon="6.86159">
        <ele>1197.72</ele>
        <time>2021-10-27T12:26:13Z</time>
      </trkpt>
      <trkpt lat="44.10568" lon="6.86159">
        <ele>1196.86</ele>
        <time>2021-10-27T12:26:16Z</time>
      </trkpt>
      <trkpt lat="44.10565" lon="6.8616">
        <ele>1196.32</ele>
        <time>2021-10-27T12:26:19Z</time>
      </trkpt>
      <trkpt lat="44.10563" lon="6.8616">
        <ele>1195.89</ele>
        <time>2021-10-27T12:26:22Z</time>
      </trkpt>
      <trkpt lat="44.1056" lon="6.86161">
        <ele>1195.35</ele>
        <time>2021-10-27T12:26:25Z</time>
      </trkpt>
      <trkpt lat="44.10557" lon="6.86162">
        <ele>1194.81</ele>
        <time>2021-10-27T12:26:28Z</time>
      </trkpt>
      <trkpt lat="44.10554" lon="6.86163">
        <ele>1194.31</ele>
        <time>2021-10-27T12:26:31Z</time>
      </trkpt>
      <trkpt lat="44.10551" lon="6.86164">
        <ele>1193.86</ele>
        <time>2021-10-27T12:26:35Z</time>
      </trkpt>
      <trkpt lat="44.10548" lon="6.86165">
        <ele>1193.43</ele>
        <time>2021-10-27T12:26:39Z</time>
      </trkpt>
      <trkpt lat="44.10546" lon="6.86165">
        <ele>1193.06</ele>
        <time>2021-10-27T12:26:44Z</time>
      </trkpt>
      <trkpt lat="44.10543" lon="6.86165">
        <ele>1192.51</ele>
        <time>2021-10-27T12:26:49Z</time>
      </trkpt>
      <trkpt lat="44.1054" lon="6.86166">
        <ele>1192.1</ele>
        <time>2021-10-27T12:26:53Z</time>
      </trkpt>
      <trkpt lat="44.10537" lon="6.86166">
        <ele>1191.56</ele>
        <time>2021-10-27T12:26:56Z</time>
      </trkpt>
      <trkpt lat="44.10534" lon="6.86166">
        <ele>1191.01</ele>
        <time>2021-10-27T12:27:04Z</time>
      </trkpt>
      <trkpt lat="44.10531" lon="6.86167">
        <ele>1190.63</ele>
        <time>2021-10-27T12:27:08Z</time>
      </trkpt>
      <trkpt lat="44.10529" lon="6.86168">
        <ele>1190.41</ele>
        <time>2021-10-27T12:27:12Z</time>
      </trkpt>
      <trkpt lat="44.10525" lon="6.86168">
        <ele>1190.08</ele>
        <time>2021-10-27T12:27:17Z</time>
      </trkpt>
      <trkpt lat="44.10522" lon="6.86168">
        <ele>1189.96</ele>
        <time>2021-10-27T12:27:21Z</time>
      </trkpt>
      <trkpt lat="44.10519" lon="6.86167">
        <ele>1189.72</ele>
        <time>2021-10-27T12:27:24Z</time>
      </trkpt>
      <trkpt lat="44.10516" lon="6.86166">
        <ele>1189.45</ele>
        <time>2021-10-27T12:27:29Z</time>
      </trkpt>
      <trkpt lat="44.10513" lon="6.86167">
        <ele>1189.5</ele>
        <time>2021-10-27T12:27:32Z</time>
      </trkpt>
      <trkpt lat="44.10511" lon="6.86168">
        <ele>1189.53</ele>
        <time>2021-10-27T12:27:36Z</time>
      </trkpt>
      <trkpt lat="44.10507" lon="6.86171">
        <ele>1189.64</ele>
        <time>2021-10-27T12:27:40Z</time>
      </trkpt>
      <trkpt lat="44.10505" lon="6.86171">
        <ele>1189.55</ele>
        <time>2021-10-27T12:27:42Z</time>
      </trkpt>
      <trkpt lat="44.10501" lon="6.86172">
        <ele>1189.43</ele>
        <time>2021-10-27T12:27:45Z</time>
      </trkpt>
      <trkpt lat="44.10499" lon="6.86174">
        <ele>1189.35</ele>
        <time>2021-10-27T12:27:48Z</time>
      </trkpt>
      <trkpt lat="44.10497" lon="6.86177">
        <ele>1189.2</ele>
        <time>2021-10-27T12:27:54Z</time>
      </trkpt>
      <trkpt lat="44.10496" lon="6.86182">
        <ele>1189.38</ele>
        <time>2021-10-27T12:28:00Z</time>
      </trkpt>
      <trkpt lat="44.10494" lon="6.86185">
        <ele>1189.24</ele>
        <time>2021-10-27T12:28:04Z</time>
      </trkpt>
      <trkpt lat="44.10493" lon="6.86189">
        <ele>1189.35</ele>
        <time>2021-10-27T12:28:08Z</time>
      </trkpt>
      <trkpt lat="44.10493" lon="6.86194">
        <ele>1189.71</ele>
        <time>2021-10-27T12:28:12Z</time>
      </trkpt>
      <trkpt lat="44.10491" lon="6.86197">
        <ele>1189.47</ele>
        <time>2021-10-27T12:28:15Z</time>
      </trkpt>
      <trkpt lat="44.10491" lon="6.86201">
        <ele>1189.62</ele>
        <time>2021-10-27T12:28:18Z</time>
      </trkpt>
      <trkpt lat="44.10491" lon="6.86206">
        <ele>1189.8</ele>
        <time>2021-10-27T12:28:22Z</time>
      </trkpt>
      <trkpt lat="44.10491" lon="6.86211">
        <ele>1189.98</ele>
        <time>2021-10-27T12:28:25Z</time>
      </trkpt>
      <trkpt lat="44.10488" lon="6.86214">
        <ele>1189.54</ele>
        <time>2021-10-27T12:28:28Z</time>
      </trkpt>
      <trkpt lat="44.10485" lon="6.86215">
        <ele>1189.04</ele>
        <time>2021-10-27T12:28:31Z</time>
      </trkpt>
      <trkpt lat="44.10483" lon="6.86218">
        <ele>1188.79</ele>
        <time>2021-10-27T12:28:36Z</time>
      </trkpt>
      <trkpt lat="44.10481" lon="6.86222">
        <ele>1188.57</ele>
        <time>2021-10-27T12:28:40Z</time>
      </trkpt>
      <trkpt lat="44.10479" lon="6.86225">
        <ele>1188.2</ele>
        <time>2021-10-27T12:28:43Z</time>
      </trkpt>
      <trkpt lat="44.10476" lon="6.86228">
        <ele>1187.65</ele>
        <time>2021-10-27T12:28:46Z</time>
      </trkpt>
      <trkpt lat="44.10474" lon="6.8623">
        <ele>1187.3</ele>
        <time>2021-10-27T12:28:48Z</time>
      </trkpt>
      <trkpt lat="44.10471" lon="6.86233">
        <ele>1187.04</ele>
        <time>2021-10-27T12:28:52Z</time>
      </trkpt>
      <trkpt lat="44.10468" lon="6.86234">
        <ele>1187.15</ele>
        <time>2021-10-27T12:28:54Z</time>
      </trkpt>
      <trkpt lat="44.10465" lon="6.86235">
        <ele>1187.26</ele>
        <time>2021-10-27T12:28:56Z</time>
      </trkpt>
      <trkpt lat="44.10462" lon="6.86238">
        <ele>1187.37</ele>
        <time>2021-10-27T12:29:00Z</time>
      </trkpt>
      <trkpt lat="44.10459" lon="6.86241">
        <ele>1187.48</ele>
        <time>2021-10-27T12:29:03Z</time>
      </trkpt>
      <trkpt lat="44.10457" lon="6.86242">
        <ele>1187.55</ele>
        <time>2021-10-27T12:29:06Z</time>
      </trkpt>
      <trkpt lat="44.10454" lon="6.86244">
        <ele>1187.66</ele>
        <time>2021-10-27T12:29:09Z</time>
      </trkpt>
      <trkpt lat="44.10451" lon="6.86246">
        <ele>1187.76</ele>
        <time>2021-10-27T12:29:12Z</time>
      </trkpt>
      <trkpt lat="44.10449" lon="6.86249">
        <ele>1187.84</ele>
        <time>2021-10-27T12:29:16Z</time>
      </trkpt>
      <trkpt lat="44.10446" lon="6.8625">
        <ele>1187.94</ele>
        <time>2021-10-27T12:29:19Z</time>
      </trkpt>
      <trkpt lat="44.10443" lon="6.86251">
        <ele>1188.31</ele>
        <time>2021-10-27T12:29:23Z</time>
      </trkpt>
      <trkpt lat="44.1044" lon="6.86252">
        <ele>1188.83</ele>
        <time>2021-10-27T12:29:26Z</time>
      </trkpt>
      <trkpt lat="44.10437" lon="6.86254">
        <ele>1189.43</ele>
        <time>2021-10-27T12:29:29Z</time>
      </trkpt>
      <trkpt lat="44.10434" lon="6.86255">
        <ele>1189.91</ele>
        <time>2021-10-27T12:29:32Z</time>
      </trkpt>
      <trkpt lat="44.10431" lon="6.86256">
        <ele>1190.37</ele>
        <time>2021-10-27T12:29:34Z</time>
      </trkpt>
      <trkpt lat="44.10428" lon="6.86256">
        <ele>1190.76</ele>
        <time>2021-10-27T12:29:36Z</time>
      </trkpt>
      <trkpt lat="44.10425" lon="6.86256">
        <ele>1191.15</ele>
        <time>2021-10-27T12:29:40Z</time>
      </trkpt>
      <trkpt lat="44.10422" lon="6.86258">
        <ele>1191.63</ele>
        <time>2021-10-27T12:29:43Z</time>
      </trkpt>
      <trkpt lat="44.10418" lon="6.86258">
        <ele>1192.12</ele>
        <time>2021-10-27T12:29:47Z</time>
      </trkpt>
      <trkpt lat="44.10415" lon="6.86258">
        <ele>1192.48</ele>
        <time>2021-10-27T12:29:50Z</time>
      </trkpt>
      <trkpt lat="44.10411" lon="6.86259">
        <ele>1192.94</ele>
        <time>2021-10-27T12:29:53Z</time>
      </trkpt>
      <trkpt lat="44.10408" lon="6.86262">
        <ele>1193.28</ele>
        <time>2021-10-27T12:29:57Z</time>
      </trkpt>
      <trkpt lat="44.10404" lon="6.86262">
        <ele>1193.67</ele>
        <time>2021-10-27T12:30:01Z</time>
      </trkpt>
      <trkpt lat="44.10402" lon="6.86261">
        <ele>1193.88</ele>
        <time>2021-10-27T12:30:04Z</time>
      </trkpt>
      <trkpt lat="44.10399" lon="6.86261">
        <ele>1194.18</ele>
        <time>2021-10-27T12:30:07Z</time>
      </trkpt>
      <trkpt lat="44.10396" lon="6.86262">
        <ele>1194.44</ele>
        <time>2021-10-27T12:30:11Z</time>
      </trkpt>
      <trkpt lat="44.10393" lon="6.86261">
        <ele>1194.79</ele>
        <time>2021-10-27T12:30:16Z</time>
      </trkpt>
      <trkpt lat="44.1039" lon="6.8626">
        <ele>1195.16</ele>
        <time>2021-10-27T12:30:19Z</time>
      </trkpt>
      <trkpt lat="44.10387" lon="6.86261">
        <ele>1194.99</ele>
        <time>2021-10-27T12:30:22Z</time>
      </trkpt>
      <trkpt lat="44.10384" lon="6.86262">
        <ele>1194.56</ele>
        <time>2021-10-27T12:30:25Z</time>
      </trkpt>
      <trkpt lat="44.10381" lon="6.86263">
        <ele>1194.1</ele>
        <time>2021-10-27T12:30:28Z</time>
      </trkpt>
      <trkpt lat="44.10379" lon="6.86265">
        <ele>1193.63</ele>
        <time>2021-10-27T12:30:31Z</time>
      </trkpt>
      <trkpt lat="44.10377" lon="6.86267">
        <ele>1193.13</ele>
        <time>2021-10-27T12:30:34Z</time>
      </trkpt>
      <trkpt lat="44.10373" lon="6.86266">
        <ele>1192.72</ele>
        <time>2021-10-27T12:30:38Z</time>
      </trkpt>
      <trkpt lat="44.10369" lon="6.86267">
        <ele>1192.03</ele>
        <time>2021-10-27T12:30:42Z</time>
      </trkpt>
      <trkpt lat="44.10366" lon="6.86269">
        <ele>1191.29</ele>
        <time>2021-10-27T12:30:45Z</time>
      </trkpt>
      <trkpt lat="44.10363" lon="6.8627">
        <ele>1190.68</ele>
        <time>2021-10-27T12:30:48Z</time>
      </trkpt>
      <trkpt lat="44.1036" lon="6.8627">
        <ele>1190.21</ele>
        <time>2021-10-27T12:30:53Z</time>
      </trkpt>
      <trkpt lat="44.10357" lon="6.86271">
        <ele>1189.52</ele>
        <time>2021-10-27T12:30:58Z</time>
      </trkpt>
      <trkpt lat="44.10354" lon="6.86271">
        <ele>1189</ele>
        <time>2021-10-27T12:31:03Z</time>
      </trkpt>
      <trkpt lat="44.10351" lon="6.86273">
        <ele>1188.1</ele>
        <time>2021-10-27T12:31:09Z</time>
      </trkpt>
      <trkpt lat="44.10348" lon="6.86274">
        <ele>1187.38</ele>
        <time>2021-10-27T12:31:12Z</time>
      </trkpt>
      <trkpt lat="44.10345" lon="6.86274">
        <ele>1186.86</ele>
        <time>2021-10-27T12:31:16Z</time>
      </trkpt>
      <trkpt lat="44.10342" lon="6.86274">
        <ele>1186.33</ele>
        <time>2021-10-27T12:31:20Z</time>
      </trkpt>
      <trkpt lat="44.10339" lon="6.86274">
        <ele>1185.81</ele>
        <time>2021-10-27T12:31:25Z</time>
      </trkpt>
      <trkpt lat="44.10336" lon="6.86275">
        <ele>1185.07</ele>
        <time>2021-10-27T12:31:29Z</time>
      </trkpt>
      <trkpt lat="44.10333" lon="6.86276">
        <ele>1184.38</ele>
        <time>2021-10-27T12:31:32Z</time>
      </trkpt>
      <trkpt lat="44.1033" lon="6.86275">
        <ele>1184.59</ele>
        <time>2021-10-27T12:31:37Z</time>
      </trkpt>
      <trkpt lat="44.10326" lon="6.86275">
        <ele>1184.57</ele>
        <time>2021-10-27T12:31:40Z</time>
      </trkpt>
      <trkpt lat="44.10323" lon="6.86275">
        <ele>1184.56</ele>
        <time>2021-10-27T12:31:43Z</time>
      </trkpt>
      <trkpt lat="44.1032" lon="6.86273">
        <ele>1184.95</ele>
        <time>2021-10-27T12:31:54Z</time>
      </trkpt>
      <trkpt lat="44.10317" lon="6.86273">
        <ele>1184.93</ele>
        <time>2021-10-27T12:32:00Z</time>
      </trkpt>
      <trkpt lat="44.10314" lon="6.86275">
        <ele>1184.53</ele>
        <time>2021-10-27T12:32:03Z</time>
      </trkpt>
      <trkpt lat="44.10312" lon="6.86278">
        <ele>1183.94</ele>
        <time>2021-10-27T12:32:07Z</time>
      </trkpt>
      <trkpt lat="44.10309" lon="6.86279">
        <ele>1183.67</ele>
        <time>2021-10-27T12:32:10Z</time>
      </trkpt>
      <trkpt lat="44.10306" lon="6.86279">
        <ele>1183.65</ele>
        <time>2021-10-27T12:32:13Z</time>
      </trkpt>
      <trkpt lat="44.10303" lon="6.86279">
        <ele>1183.93</ele>
        <time>2021-10-27T12:32:17Z</time>
      </trkpt>
      <trkpt lat="44.103" lon="6.86279">
        <ele>1184.26</ele>
        <time>2021-10-27T12:32:22Z</time>
      </trkpt>
      <trkpt lat="44.10297" lon="6.86278">
        <ele>1184.86</ele>
        <time>2021-10-27T12:32:28Z</time>
      </trkpt>
      <trkpt lat="44.10294" lon="6.8628">
        <ele>1184.64</ele>
        <time>2021-10-27T12:32:33Z</time>
      </trkpt>
      <trkpt lat="44.10291" lon="6.8628">
        <ele>1184.97</ele>
        <time>2021-10-27T12:32:37Z</time>
      </trkpt>
      <trkpt lat="44.10288" lon="6.8628">
        <ele>1185.31</ele>
        <time>2021-10-27T12:32:42Z</time>
      </trkpt>
      <trkpt lat="44.10285" lon="6.86281">
        <ele>1185.38</ele>
        <time>2021-10-27T12:32:48Z</time>
      </trkpt>
      <trkpt lat="44.10282" lon="6.86279">
        <ele>1186.23</ele>
        <time>2021-10-27T12:32:52Z</time>
      </trkpt>
      <trkpt lat="44.1028" lon="6.86279">
        <ele>1186.45</ele>
        <time>2021-10-27T12:32:55Z</time>
      </trkpt>
      <trkpt lat="44.10277" lon="6.86279">
        <ele>1186.64</ele>
        <time>2021-10-27T12:33:00Z</time>
      </trkpt>
      <trkpt lat="44.10274" lon="6.8628">
        <ele>1186.2</ele>
        <time>2021-10-27T12:33:03Z</time>
      </trkpt>
      <trkpt lat="44.10271" lon="6.86283">
        <ele>1185.33</ele>
        <time>2021-10-27T12:33:08Z</time>
      </trkpt>
      <trkpt lat="44.10268" lon="6.86284">
        <ele>1184.96</ele>
        <time>2021-10-27T12:33:12Z</time>
      </trkpt>
      <trkpt lat="44.10266" lon="6.86288">
        <ele>1184.04</ele>
        <time>2021-10-27T12:33:19Z</time>
      </trkpt>
      <trkpt lat="44.10263" lon="6.86288">
        <ele>1183.95</ele>
        <time>2021-10-27T12:33:22Z</time>
      </trkpt>
      <trkpt lat="44.1026" lon="6.86288">
        <ele>1183.85</ele>
        <time>2021-10-27T12:33:27Z</time>
      </trkpt>
      <trkpt lat="44.10258" lon="6.86291">
        <ele>1183.26</ele>
        <time>2021-10-27T12:33:35Z</time>
      </trkpt>
      <trkpt lat="44.10259" lon="6.86287">
        <ele>1184</ele>
        <time>2021-10-27T12:33:51Z</time>
      </trkpt>
      <trkpt lat="44.10261" lon="6.86285">
        <ele>1184.44</ele>
        <time>2021-10-27T12:33:56Z</time>
      </trkpt>
      <trkpt lat="44.10258" lon="6.86284">
        <ele>1184.49</ele>
        <time>2021-10-27T12:34:07Z</time>
      </trkpt>
      <trkpt lat="44.10255" lon="6.86286">
        <ele>1184.02</ele>
        <time>2021-10-27T12:34:12Z</time>
      </trkpt>
      <trkpt lat="44.10254" lon="6.8629">
        <ele>1183.34</ele>
        <time>2021-10-27T12:34:17Z</time>
      </trkpt>
      <trkpt lat="44.10251" lon="6.86292">
        <ele>1182.97</ele>
        <time>2021-10-27T12:34:22Z</time>
      </trkpt>
      <trkpt lat="44.10251" lon="6.86296">
        <ele>1182.38</ele>
        <time>2021-10-27T12:34:25Z</time>
      </trkpt>
      <trkpt lat="44.10249" lon="6.86299">
        <ele>1181.88</ele>
        <time>2021-10-27T12:34:31Z</time>
      </trkpt>
      <trkpt lat="44.10247" lon="6.86302">
        <ele>1181.31</ele>
        <time>2021-10-27T12:34:36Z</time>
      </trkpt>
      <trkpt lat="44.10244" lon="6.86304">
        <ele>1180.8</ele>
        <time>2021-10-27T12:34:40Z</time>
      </trkpt>
      <trkpt lat="44.10245" lon="6.86307">
        <ele>1180.42</ele>
        <time>2021-10-27T12:34:45Z</time>
      </trkpt>
      <trkpt lat="44.10245" lon="6.86312">
        <ele>1179.67</ele>
        <time>2021-10-27T12:34:51Z</time>
      </trkpt>
      <trkpt lat="44.10244" lon="6.86316">
        <ele>1178.98</ele>
        <time>2021-10-27T12:34:56Z</time>
      </trkpt>
      <trkpt lat="44.10243" lon="6.86319">
        <ele>1178.44</ele>
        <time>2021-10-27T12:35:00Z</time>
      </trkpt>
      <trkpt lat="44.10242" lon="6.86322">
        <ele>1177.89</ele>
        <time>2021-10-27T12:35:05Z</time>
      </trkpt>
      <trkpt lat="44.1024" lon="6.86326">
        <ele>1177.07</ele>
        <time>2021-10-27T12:35:08Z</time>
      </trkpt>
      <trkpt lat="44.10237" lon="6.86325">
        <ele>1176.94</ele>
        <time>2021-10-27T12:35:11Z</time>
      </trkpt>
      <trkpt lat="44.10234" lon="6.86326">
        <ele>1176.48</ele>
        <time>2021-10-27T12:35:15Z</time>
      </trkpt>
      <trkpt lat="44.10231" lon="6.86327">
        <ele>1176.02</ele>
        <time>2021-10-27T12:35:17Z</time>
      </trkpt>
      <trkpt lat="44.10227" lon="6.86328">
        <ele>1175.44</ele>
        <time>2021-10-27T12:35:20Z</time>
      </trkpt>
      <trkpt lat="44.10225" lon="6.86329">
        <ele>1175.06</ele>
        <time>2021-10-27T12:35:23Z</time>
      </trkpt>
      <trkpt lat="44.10221" lon="6.8633">
        <ele>1174.31</ele>
        <time>2021-10-27T12:35:28Z</time>
      </trkpt>
      <trkpt lat="44.10218" lon="6.86329">
        <ele>1173.79</ele>
        <time>2021-10-27T12:35:31Z</time>
      </trkpt>
      <trkpt lat="44.10214" lon="6.86332">
        <ele>1172.21</ele>
        <time>2021-10-27T12:35:34Z</time>
      </trkpt>
      <trkpt lat="44.10211" lon="6.86332">
        <ele>1171.47</ele>
        <time>2021-10-27T12:35:37Z</time>
      </trkpt>
      <trkpt lat="44.10208" lon="6.86332">
        <ele>1170.73</ele>
        <time>2021-10-27T12:35:41Z</time>
      </trkpt>
      <trkpt lat="44.10205" lon="6.86331">
        <ele>1170.24</ele>
        <time>2021-10-27T12:35:44Z</time>
      </trkpt>
      <trkpt lat="44.10202" lon="6.8633">
        <ele>1169.77</ele>
        <time>2021-10-27T12:35:47Z</time>
      </trkpt>
      <trkpt lat="44.102" lon="6.86331">
        <ele>1169.02</ele>
        <time>2021-10-27T12:35:51Z</time>
      </trkpt>
      <trkpt lat="44.10197" lon="6.86331">
        <ele>1168.29</ele>
        <time>2021-10-27T12:35:55Z</time>
      </trkpt>
      <trkpt lat="44.10194" lon="6.86332">
        <ele>1167.27</ele>
        <time>2021-10-27T12:35:58Z</time>
      </trkpt>
      <trkpt lat="44.10191" lon="6.8633">
        <ele>1167.14</ele>
        <time>2021-10-27T12:36:06Z</time>
      </trkpt>
      <trkpt lat="44.10188" lon="6.86328">
        <ele>1167.05</ele>
        <time>2021-10-27T12:36:12Z</time>
      </trkpt>
      <trkpt lat="44.10185" lon="6.86327">
        <ele>1166.68</ele>
        <time>2021-10-27T12:36:17Z</time>
      </trkpt>
      <trkpt lat="44.10181" lon="6.86327">
        <ele>1165.77</ele>
        <time>2021-10-27T12:36:21Z</time>
      </trkpt>
      <trkpt lat="44.10178" lon="6.86327">
        <ele>1165.08</ele>
        <time>2021-10-27T12:36:24Z</time>
      </trkpt>
      <trkpt lat="44.10175" lon="6.86328">
        <ele>1164.04</ele>
        <time>2021-10-27T12:36:26Z</time>
      </trkpt>
      <trkpt lat="44.10172" lon="6.8633">
        <ele>1162.59</ele>
        <time>2021-10-27T12:36:30Z</time>
      </trkpt>
      <trkpt lat="44.10168" lon="6.8633">
        <ele>1161.64</ele>
        <time>2021-10-27T12:36:33Z</time>
      </trkpt>
      <trkpt lat="44.10166" lon="6.86327">
        <ele>1162.33</ele>
        <time>2021-10-27T12:36:36Z</time>
      </trkpt>
      <trkpt lat="44.10165" lon="6.86323">
        <ele>1163.68</ele>
        <time>2021-10-27T12:36:39Z</time>
      </trkpt>
      <trkpt lat="44.10162" lon="6.86321">
        <ele>1163.76</ele>
        <time>2021-10-27T12:36:42Z</time>
      </trkpt>
      <trkpt lat="44.10159" lon="6.8632">
        <ele>1163.47</ele>
        <time>2021-10-27T12:36:44Z</time>
      </trkpt>
      <trkpt lat="44.10157" lon="6.86317">
        <ele>1164.3</ele>
        <time>2021-10-27T12:36:47Z</time>
      </trkpt>
      <trkpt lat="44.10156" lon="6.86313">
        <ele>1165.82</ele>
        <time>2021-10-27T12:36:52Z</time>
      </trkpt>
      <trkpt lat="44.10154" lon="6.86311">
        <ele>1166.3</ele>
        <time>2021-10-27T12:36:56Z</time>
      </trkpt>
      <trkpt lat="44.10151" lon="6.86308">
        <ele>1167.06</ele>
        <time>2021-10-27T12:37:01Z</time>
      </trkpt>
      <trkpt lat="44.10148" lon="6.86307">
        <ele>1166.96</ele>
        <time>2021-10-27T12:37:04Z</time>
      </trkpt>
      <trkpt lat="44.10146" lon="6.86304">
        <ele>1167.83</ele>
        <time>2021-10-27T12:37:07Z</time>
      </trkpt>
      <trkpt lat="44.10143" lon="6.86301">
        <ele>1168.36</ele>
        <time>2021-10-27T12:37:10Z</time>
      </trkpt>
      <trkpt lat="44.10141" lon="6.86298">
        <ele>1169.08</ele>
        <time>2021-10-27T12:37:13Z</time>
      </trkpt>
      <trkpt lat="44.10138" lon="6.86296">
        <ele>1169.01</ele>
        <time>2021-10-27T12:37:17Z</time>
      </trkpt>
      <trkpt lat="44.10136" lon="6.86292">
        <ele>1169.53</ele>
        <time>2021-10-27T12:37:28Z</time>
      </trkpt>
      <trkpt lat="44.10133" lon="6.86291">
        <ele>1168.49</ele>
        <time>2021-10-27T12:37:32Z</time>
      </trkpt>
      <trkpt lat="44.10132" lon="6.86288">
        <ele>1169.16</ele>
        <time>2021-10-27T12:37:37Z</time>
      </trkpt>
      <trkpt lat="44.10129" lon="6.86286">
        <ele>1168.56</ele>
        <time>2021-10-27T12:37:43Z</time>
      </trkpt>
      <trkpt lat="44.10127" lon="6.86283">
        <ele>1168.82</ele>
        <time>2021-10-27T12:37:49Z</time>
      </trkpt>
      <trkpt lat="44.10124" lon="6.86282">
        <ele>1167.89</ele>
        <time>2021-10-27T12:37:52Z</time>
      </trkpt>
      <trkpt lat="44.10121" lon="6.86282">
        <ele>1166.56</ele>
        <time>2021-10-27T12:37:55Z</time>
      </trkpt>
      <trkpt lat="44.10118" lon="6.86281">
        <ele>1165.64</ele>
        <time>2021-10-27T12:38:01Z</time>
      </trkpt>
      <trkpt lat="44.10115" lon="6.8628">
        <ele>1164.74</ele>
        <time>2021-10-27T12:38:08Z</time>
      </trkpt>
      <trkpt lat="44.10112" lon="6.86279">
        <ele>1163.86</ele>
        <time>2021-10-27T12:38:14Z</time>
      </trkpt>
      <trkpt lat="44.1011" lon="6.86276">
        <ele>1163.89</ele>
        <time>2021-10-27T12:38:18Z</time>
      </trkpt>
      <trkpt lat="44.10107" lon="6.86275">
        <ele>1161.97</ele>
        <time>2021-10-27T12:38:21Z</time>
      </trkpt>
      <trkpt lat="44.10104" lon="6.86274">
        <ele>1160.07</ele>
        <time>2021-10-27T12:38:24Z</time>
      </trkpt>
      <trkpt lat="44.10102" lon="6.8627">
        <ele>1160.33</ele>
        <time>2021-10-27T12:38:29Z</time>
      </trkpt>
      <trkpt lat="44.101" lon="6.86267">
        <ele>1160.17</ele>
        <time>2021-10-27T12:38:34Z</time>
      </trkpt>
      <trkpt lat="44.10098" lon="6.86264">
        <ele>1160.04</ele>
        <time>2021-10-27T12:38:41Z</time>
      </trkpt>
      <trkpt lat="44.10096" lon="6.86261">
        <ele>1159.94</ele>
        <time>2021-10-27T12:38:47Z</time>
      </trkpt>
      <trkpt lat="44.10095" lon="6.86257">
        <ele>1161.08</ele>
        <time>2021-10-27T12:38:52Z</time>
      </trkpt>
      <trkpt lat="44.10093" lon="6.86253">
        <ele>1161.52</ele>
        <time>2021-10-27T12:38:56Z</time>
      </trkpt>
      <trkpt lat="44.10091" lon="6.8625">
        <ele>1161.52</ele>
        <time>2021-10-27T12:39:03Z</time>
      </trkpt>
      <trkpt lat="44.10089" lon="6.86247">
        <ele>1161.55</ele>
        <time>2021-10-27T12:39:10Z</time>
      </trkpt>
      <trkpt lat="44.10088" lon="6.86243">
        <ele>1162.8</ele>
        <time>2021-10-27T12:39:14Z</time>
      </trkpt>
      <trkpt lat="44.10087" lon="6.86238">
        <ele>1164.57</ele>
        <time>2021-10-27T12:39:20Z</time>
      </trkpt>
      <trkpt lat="44.10085" lon="6.86235">
        <ele>1164.7</ele>
        <time>2021-10-27T12:39:25Z</time>
      </trkpt>
      <trkpt lat="44.10084" lon="6.86231">
        <ele>1166.02</ele>
        <time>2021-10-27T12:39:38Z</time>
      </trkpt>
      <trkpt lat="44.10082" lon="6.86232">
        <ele>1164.12</ele>
        <time>2021-10-27T12:39:58Z</time>
      </trkpt>
      <trkpt lat="44.10079" lon="6.86229">
        <ele>1163.63</ele>
        <time>2021-10-27T12:40:09Z</time>
      </trkpt>
      <trkpt lat="44.10082" lon="6.86227">
        <ele>1166.71</ele>
        <time>2021-10-27T12:40:21Z</time>
      </trkpt>
      <trkpt lat="44.10079" lon="6.86225">
        <ele>1165.82</ele>
        <time>2021-10-27T12:40:38Z</time>
      </trkpt>
      <trkpt lat="44.10078" lon="6.86222">
        <ele>1166.83</ele>
        <time>2021-10-27T12:40:54Z</time>
      </trkpt>
      <trkpt lat="44.10079" lon="6.86225">
        <ele>1165.82</ele>
        <time>2021-10-27T12:41:04Z</time>
      </trkpt>
      <trkpt lat="44.10077" lon="6.86227">
        <ele>1163.4</ele>
        <time>2021-10-27T12:41:14Z</time>
      </trkpt>
      <trkpt lat="44.10078" lon="6.86223">
        <ele>1166.3</ele>
        <time>2021-10-27T12:41:31Z</time>
      </trkpt>
      <trkpt lat="44.10075" lon="6.86221">
        <ele>1165.41</ele>
        <time>2021-10-27T12:41:37Z</time>
      </trkpt>
      <trkpt lat="44.10078" lon="6.8622">
        <ele>1167.68</ele>
        <time>2021-10-27T12:41:46Z</time>
      </trkpt>
      <trkpt lat="44.10077" lon="6.86216">
        <ele>1168.76</ele>
        <time>2021-10-27T12:41:57Z</time>
      </trkpt>
      <trkpt lat="44.10077" lon="6.86212">
        <ele>1170.46</ele>
        <time>2021-10-27T12:42:09Z</time>
      </trkpt>
      <trkpt lat="44.10078" lon="6.86209">
        <ele>1172.36</ele>
        <time>2021-10-27T12:42:16Z</time>
      </trkpt>
      <trkpt lat="44.10079" lon="6.86213">
        <ele>1171.28</ele>
        <time>2021-10-27T12:42:42Z</time>
      </trkpt>
      <trkpt lat="44.10076" lon="6.86214">
        <ele>1168.99</ele>
        <time>2021-10-27T12:43:06Z</time>
      </trkpt>
      <trkpt lat="44.10077" lon="6.86217">
        <ele>1168.34</ele>
        <time>2021-10-27T12:43:31Z</time>
      </trkpt>
      <trkpt lat="44.10079" lon="6.86221">
        <ele>1167.87</ele>
        <time>2021-10-27T12:43:54Z</time>
      </trkpt>
      <trkpt lat="44.1008" lon="6.86224">
        <ele>1167</ele>
        <time>2021-10-27T12:44:14Z</time>
      </trkpt>
      <trkpt lat="44.10082" lon="6.86228">
        <ele>1166.19</ele>
        <time>2021-10-27T12:44:26Z</time>
      </trkpt>
      <trkpt lat="44.10079" lon="6.86225">
        <ele>1165.82</ele>
        <time>2021-10-27T12:52:33Z</time>
      </trkpt>
      <trkpt lat="44.10077" lon="6.86223">
        <ele>1165.68</ele>
        <time>2021-10-27T12:52:38Z</time>
      </trkpt>
      <trkpt lat="44.10076" lon="6.86217">
        <ele>1167.72</ele>
        <time>2021-10-27T12:52:43Z</time>
      </trkpt>
      <trkpt lat="44.10075" lon="6.86213">
        <ele>1168.78</ele>
        <time>2021-10-27T12:52:49Z</time>
      </trkpt>
      <trkpt lat="44.10073" lon="6.86209">
        <ele>1169.21</ele>
        <time>2021-10-27T12:52:53Z</time>
      </trkpt>
      <trkpt lat="44.10071" lon="6.86207">
        <ele>1168.78</ele>
        <time>2021-10-27T12:52:56Z</time>
      </trkpt>
      <trkpt lat="44.10069" lon="6.86204">
        <ele>1168.76</ele>
        <time>2021-10-27T12:52:59Z</time>
      </trkpt>
      <trkpt lat="44.10066" lon="6.86202">
        <ele>1167.67</ele>
        <time>2021-10-27T12:53:03Z</time>
      </trkpt>
      <trkpt lat="44.10063" lon="6.86199">
        <ele>1166.98</ele>
        <time>2021-10-27T12:53:07Z</time>
      </trkpt>
      <trkpt lat="44.10061" lon="6.86196">
        <ele>1166.9</ele>
        <time>2021-10-27T12:53:11Z</time>
      </trkpt>
      <trkpt lat="44.10059" lon="6.86194">
        <ele>1166.38</ele>
        <time>2021-10-27T12:53:14Z</time>
      </trkpt>
      <trkpt lat="44.10056" lon="6.86193">
        <ele>1164.76</ele>
        <time>2021-10-27T12:53:17Z</time>
      </trkpt>
      <trkpt lat="44.10053" lon="6.86191">
        <ele>1163.51</ele>
        <time>2021-10-27T12:53:19Z</time>
      </trkpt>
      <trkpt lat="44.1005" lon="6.8619">
        <ele>1161.97</ele>
        <time>2021-10-27T12:53:22Z</time>
      </trkpt>
      <trkpt lat="44.10047" lon="6.86188">
        <ele>1160.83</ele>
        <time>2021-10-27T12:53:25Z</time>
      </trkpt>
      <trkpt lat="44.10044" lon="6.86186">
        <ele>1159.75</ele>
        <time>2021-10-27T12:53:28Z</time>
      </trkpt>
      <trkpt lat="44.10041" lon="6.86183">
        <ele>1159.14</ele>
        <time>2021-10-27T12:53:31Z</time>
      </trkpt>
      <trkpt lat="44.10039" lon="6.8618">
        <ele>1159.19</ele>
        <time>2021-10-27T12:53:34Z</time>
      </trkpt>
      <trkpt lat="44.10036" lon="6.86177">
        <ele>1158.75</ele>
        <time>2021-10-27T12:53:37Z</time>
      </trkpt>
      <trkpt lat="44.10034" lon="6.86174">
        <ele>1158.94</ele>
        <time>2021-10-27T12:53:40Z</time>
      </trkpt>
      <trkpt lat="44.10033" lon="6.8617">
        <ele>1160.16</ele>
        <time>2021-10-27T12:53:43Z</time>
      </trkpt>
      <trkpt lat="44.10032" lon="6.86166">
        <ele>1161.32</ele>
        <time>2021-10-27T12:53:47Z</time>
      </trkpt>
      <trkpt lat="44.10031" lon="6.86162">
        <ele>1161.95</ele>
        <time>2021-10-27T12:53:50Z</time>
      </trkpt>
      <trkpt lat="44.10029" lon="6.86158">
        <ele>1162.1</ele>
        <time>2021-10-27T12:53:53Z</time>
      </trkpt>
      <trkpt lat="44.10026" lon="6.86154">
        <ele>1161.59</ele>
        <time>2021-10-27T12:53:57Z</time>
      </trkpt>
      <trkpt lat="44.10024" lon="6.86151">
        <ele>1161.28</ele>
        <time>2021-10-27T12:54:00Z</time>
      </trkpt>
      <trkpt lat="44.10021" lon="6.86148">
        <ele>1160.39</ele>
        <time>2021-10-27T12:54:03Z</time>
      </trkpt>
      <trkpt lat="44.10019" lon="6.86145">
        <ele>1160.11</ele>
        <time>2021-10-27T12:54:07Z</time>
      </trkpt>
      <trkpt lat="44.10017" lon="6.86142">
        <ele>1159.85</ele>
        <time>2021-10-27T12:54:10Z</time>
      </trkpt>
      <trkpt lat="44.10014" lon="6.86139">
        <ele>1159.03</ele>
        <time>2021-10-27T12:54:13Z</time>
      </trkpt>
      <trkpt lat="44.10012" lon="6.86137">
        <ele>1158.57</ele>
        <time>2021-10-27T12:54:17Z</time>
      </trkpt>
      <trkpt lat="44.10009" lon="6.86135">
        <ele>1157.59</ele>
        <time>2021-10-27T12:54:21Z</time>
      </trkpt>
      <trkpt lat="44.10007" lon="6.86132">
        <ele>1157.57</ele>
        <time>2021-10-27T12:54:24Z</time>
      </trkpt>
      <trkpt lat="44.10004" lon="6.86129">
        <ele>1157.07</ele>
        <time>2021-10-27T12:54:28Z</time>
      </trkpt>
      <trkpt lat="44.10002" lon="6.86127">
        <ele>1156.77</ele>
        <time>2021-10-27T12:54:32Z</time>
      </trkpt>
      <trkpt lat="44.09999" lon="6.86124">
        <ele>1156.34</ele>
        <time>2021-10-27T12:54:35Z</time>
      </trkpt>
      <trkpt lat="44.09996" lon="6.8612">
        <ele>1156.22</ele>
        <time>2021-10-27T12:54:38Z</time>
      </trkpt>
      <trkpt lat="44.09995" lon="6.86117">
        <ele>1156.83</ele>
        <time>2021-10-27T12:54:41Z</time>
      </trkpt>
      <trkpt lat="44.09992" lon="6.86114">
        <ele>1156.28</ele>
        <time>2021-10-27T12:54:45Z</time>
      </trkpt>
      <trkpt lat="44.0999" lon="6.86112">
        <ele>1155.9</ele>
        <time>2021-10-27T12:54:48Z</time>
      </trkpt>
      <trkpt lat="44.09987" lon="6.86109">
        <ele>1155.12</ele>
        <time>2021-10-27T12:54:52Z</time>
      </trkpt>
      <trkpt lat="44.09985" lon="6.86106">
        <ele>1154.85</ele>
        <time>2021-10-27T12:54:55Z</time>
      </trkpt>
      <trkpt lat="44.09983" lon="6.86103">
        <ele>1154.61</ele>
        <time>2021-10-27T12:54:59Z</time>
      </trkpt>
      <trkpt lat="44.09981" lon="6.86099">
        <ele>1154.7</ele>
        <time>2021-10-27T12:55:03Z</time>
      </trkpt>
      <trkpt lat="44.09979" lon="6.86095">
        <ele>1154.84</ele>
        <time>2021-10-27T12:55:07Z</time>
      </trkpt>
      <trkpt lat="44.09978" lon="6.8609">
        <ele>1155.85</ele>
        <time>2021-10-27T12:55:11Z</time>
      </trkpt>
      <trkpt lat="44.09976" lon="6.86086">
        <ele>1156.07</ele>
        <time>2021-10-27T12:55:14Z</time>
      </trkpt>
      <trkpt lat="44.09974" lon="6.86083">
        <ele>1155.98</ele>
        <time>2021-10-27T12:55:17Z</time>
      </trkpt>
      <trkpt lat="44.09972" lon="6.8608">
        <ele>1155.69</ele>
        <time>2021-10-27T12:55:20Z</time>
      </trkpt>
      <trkpt lat="44.0997" lon="6.86076">
        <ele>1155.35</ele>
        <time>2021-10-27T12:55:23Z</time>
      </trkpt>
      <trkpt lat="44.09968" lon="6.86072">
        <ele>1155.03</ele>
        <time>2021-10-27T12:55:27Z</time>
      </trkpt>
      <trkpt lat="44.09966" lon="6.86068">
        <ele>1154.73</ele>
        <time>2021-10-27T12:55:31Z</time>
      </trkpt>
      <trkpt lat="44.09963" lon="6.86067">
        <ele>1153</ele>
        <time>2021-10-27T12:55:34Z</time>
      </trkpt>
      <trkpt lat="44.0996" lon="6.86064">
        <ele>1151.82</ele>
        <time>2021-10-27T12:55:38Z</time>
      </trkpt>
      <trkpt lat="44.09958" lon="6.86061">
        <ele>1151.31</ele>
        <time>2021-10-27T12:55:42Z</time>
      </trkpt>
      <trkpt lat="44.09955" lon="6.86059">
        <ele>1149.9</ele>
        <time>2021-10-27T12:55:46Z</time>
      </trkpt>
      <trkpt lat="44.09952" lon="6.86057">
        <ele>1148.49</ele>
        <time>2021-10-27T12:55:50Z</time>
      </trkpt>
      <trkpt lat="44.09948" lon="6.86054">
        <ele>1146.93</ele>
        <time>2021-10-27T12:55:53Z</time>
      </trkpt>
      <trkpt lat="44.09945" lon="6.86051">
        <ele>1146.31</ele>
        <time>2021-10-27T12:55:56Z</time>
      </trkpt>
      <trkpt lat="44.09943" lon="6.86048">
        <ele>1146.67</ele>
        <time>2021-10-27T12:55:59Z</time>
      </trkpt>
      <trkpt lat="44.0994" lon="6.86044">
        <ele>1147.21</ele>
        <time>2021-10-27T12:56:03Z</time>
      </trkpt>
      <trkpt lat="44.09938" lon="6.86042">
        <ele>1147.3</ele>
        <time>2021-10-27T12:56:06Z</time>
      </trkpt>
      <trkpt lat="44.09935" lon="6.86039">
        <ele>1147.48</ele>
        <time>2021-10-27T12:56:10Z</time>
      </trkpt>
      <trkpt lat="44.09933" lon="6.86036">
        <ele>1148.08</ele>
        <time>2021-10-27T12:56:13Z</time>
      </trkpt>
      <trkpt lat="44.0993" lon="6.86035">
        <ele>1147.41</ele>
        <time>2021-10-27T12:56:16Z</time>
      </trkpt>
      <trkpt lat="44.09927" lon="6.86033">
        <ele>1147.23</ele>
        <time>2021-10-27T12:56:20Z</time>
      </trkpt>
      <trkpt lat="44.09923" lon="6.86032">
        <ele>1146.22</ele>
        <time>2021-10-27T12:56:24Z</time>
      </trkpt>
      <trkpt lat="44.0992" lon="6.86031">
        <ele>1145.6</ele>
        <time>2021-10-27T12:56:27Z</time>
      </trkpt>
      <trkpt lat="44.09917" lon="6.86032">
        <ele>1144</ele>
        <time>2021-10-27T12:56:29Z</time>
      </trkpt>
      <trkpt lat="44.09915" lon="6.8603">
        <ele>1144.91</ele>
        <time>2021-10-27T12:56:33Z</time>
      </trkpt>
      <trkpt lat="44.09911" lon="6.86029">
        <ele>1145.53</ele>
        <time>2021-10-27T12:56:38Z</time>
      </trkpt>
      <trkpt lat="44.09909" lon="6.86026">
        <ele>1147.07</ele>
        <time>2021-10-27T12:56:42Z</time>
      </trkpt>
      <trkpt lat="44.09907" lon="6.86022">
        <ele>1148.91</ele>
        <time>2021-10-27T12:56:48Z</time>
      </trkpt>
      <trkpt lat="44.09903" lon="6.86021">
        <ele>1149.42</ele>
        <time>2021-10-27T12:56:51Z</time>
      </trkpt>
      <trkpt lat="44.099" lon="6.86021">
        <ele>1149.48</ele>
        <time>2021-10-27T12:56:54Z</time>
      </trkpt>
      <trkpt lat="44.09897" lon="6.86022">
        <ele>1149.12</ele>
        <time>2021-10-27T12:56:57Z</time>
      </trkpt>
      <trkpt lat="44.09894" lon="6.86023">
        <ele>1148.77</ele>
        <time>2021-10-27T12:56:59Z</time>
      </trkpt>
      <trkpt lat="44.09891" lon="6.86024">
        <ele>1148.44</ele>
        <time>2021-10-27T12:57:02Z</time>
      </trkpt>
      <trkpt lat="44.09887" lon="6.86025">
        <ele>1147.56</ele>
        <time>2021-10-27T12:57:05Z</time>
      </trkpt>
      <trkpt lat="44.09884" lon="6.86025">
        <ele>1146.71</ele>
        <time>2021-10-27T12:57:08Z</time>
      </trkpt>
      <trkpt lat="44.09881" lon="6.86025">
        <ele>1145.86</ele>
        <time>2021-10-27T12:57:12Z</time>
      </trkpt>
      <trkpt lat="44.09878" lon="6.86024">
        <ele>1145.55</ele>
        <time>2021-10-27T12:57:15Z</time>
      </trkpt>
      <trkpt lat="44.09875" lon="6.86024">
        <ele>1144.74</ele>
        <time>2021-10-27T12:57:18Z</time>
      </trkpt>
      <trkpt lat="44.09872" lon="6.86023">
        <ele>1144.57</ele>
        <time>2021-10-27T12:57:22Z</time>
      </trkpt>
      <trkpt lat="44.09869" lon="6.86022">
        <ele>1144.48</ele>
        <time>2021-10-27T12:57:24Z</time>
      </trkpt>
      <trkpt lat="44.09866" lon="6.86024">
        <ele>1142.31</ele>
        <time>2021-10-27T12:57:27Z</time>
      </trkpt>
      <trkpt lat="44.09864" lon="6.86026">
        <ele>1140.27</ele>
        <time>2021-10-27T12:57:30Z</time>
      </trkpt>
      <trkpt lat="44.0986" lon="6.86025">
        <ele>1140.42</ele>
        <time>2021-10-27T12:57:34Z</time>
      </trkpt>
      <trkpt lat="44.09858" lon="6.86028">
        <ele>1138.48</ele>
        <time>2021-10-27T12:57:38Z</time>
      </trkpt>
      <trkpt lat="44.09855" lon="6.86029">
        <ele>1138.25</ele>
        <time>2021-10-27T12:57:42Z</time>
      </trkpt>
      <trkpt lat="44.09853" lon="6.8603">
        <ele>1137.77</ele>
        <time>2021-10-27T12:57:45Z</time>
      </trkpt>
      <trkpt lat="44.0985" lon="6.86031">
        <ele>1137.45</ele>
        <time>2021-10-27T12:57:48Z</time>
      </trkpt>
      <trkpt lat="44.09847" lon="6.86032">
        <ele>1137.09</ele>
        <time>2021-10-27T12:57:51Z</time>
      </trkpt>
      <trkpt lat="44.09845" lon="6.86035">
        <ele>1134.6</ele>
        <time>2021-10-27T12:57:54Z</time>
      </trkpt>
      <trkpt lat="44.09842" lon="6.86037">
        <ele>1133.12</ele>
        <time>2021-10-27T12:57:57Z</time>
      </trkpt>
      <trkpt lat="44.09839" lon="6.86038">
        <ele>1132.55</ele>
        <time>2021-10-27T12:57:59Z</time>
      </trkpt>
      <trkpt lat="44.09836" lon="6.86038">
        <ele>1132.96</ele>
        <time>2021-10-27T12:58:03Z</time>
      </trkpt>
      <trkpt lat="44.09833" lon="6.86037">
        <ele>1134.3</ele>
        <time>2021-10-27T12:58:07Z</time>
      </trkpt>
      <trkpt lat="44.09829" lon="6.86037">
        <ele>1133.43</ele>
        <time>2021-10-27T12:58:10Z</time>
      </trkpt>
      <trkpt lat="44.09826" lon="6.86038">
        <ele>1131.85</ele>
        <time>2021-10-27T12:58:13Z</time>
      </trkpt>
      <trkpt lat="44.09823" lon="6.86038">
        <ele>1131.25</ele>
        <time>2021-10-27T12:58:16Z</time>
      </trkpt>
      <trkpt lat="44.0982" lon="6.86037">
        <ele>1131.48</ele>
        <time>2021-10-27T12:58:19Z</time>
      </trkpt>
      <trkpt lat="44.09817" lon="6.86037">
        <ele>1130.83</ele>
        <time>2021-10-27T12:58:22Z</time>
      </trkpt>
      <trkpt lat="44.09814" lon="6.86037">
        <ele>1130.18</ele>
        <time>2021-10-27T12:58:25Z</time>
      </trkpt>
      <trkpt lat="44.0981" lon="6.86037">
        <ele>1129.32</ele>
        <time>2021-10-27T12:58:28Z</time>
      </trkpt>
      <trkpt lat="44.09807" lon="6.86038">
        <ele>1128.03</ele>
        <time>2021-10-27T12:58:31Z</time>
      </trkpt>
      <trkpt lat="44.09804" lon="6.86038">
        <ele>1127.93</ele>
        <time>2021-10-27T12:58:34Z</time>
      </trkpt>
      <trkpt lat="44.09801" lon="6.86039">
        <ele>1127.66</ele>
        <time>2021-10-27T12:58:37Z</time>
      </trkpt>
      <trkpt lat="44.09798" lon="6.86038">
        <ele>1128.63</ele>
        <time>2021-10-27T12:58:40Z</time>
      </trkpt>
      <trkpt lat="44.09796" lon="6.8604">
        <ele>1127.59</ele>
        <time>2021-10-27T12:58:43Z</time>
      </trkpt>
      <trkpt lat="44.09793" lon="6.86041">
        <ele>1127.29</ele>
        <time>2021-10-27T12:58:45Z</time>
      </trkpt>
      <trkpt lat="44.0979" lon="6.86043">
        <ele>1126.31</ele>
        <time>2021-10-27T12:58:48Z</time>
      </trkpt>
      <trkpt lat="44.09787" lon="6.86043">
        <ele>1126.62</ele>
        <time>2021-10-27T12:58:51Z</time>
      </trkpt>
      <trkpt lat="44.09783" lon="6.86041">
        <ele>1128.38</ele>
        <time>2021-10-27T12:58:54Z</time>
      </trkpt>
      <trkpt lat="44.09781" lon="6.86039">
        <ele>1129.95</ele>
        <time>2021-10-27T12:58:57Z</time>
      </trkpt>
      <trkpt lat="44.09778" lon="6.8604">
        <ele>1129.62</ele>
        <time>2021-10-27T12:59:00Z</time>
      </trkpt>
      <trkpt lat="44.09775" lon="6.86042">
        <ele>1128.58</ele>
        <time>2021-10-27T12:59:03Z</time>
      </trkpt>
      <trkpt lat="44.09772" lon="6.86043">
        <ele>1128.25</ele>
        <time>2021-10-27T12:59:06Z</time>
      </trkpt>
      <trkpt lat="44.09768" lon="6.86043">
        <ele>1128.71</ele>
        <time>2021-10-27T12:59:09Z</time>
      </trkpt>
      <trkpt lat="44.09765" lon="6.86045">
        <ele>1127.82</ele>
        <time>2021-10-27T12:59:12Z</time>
      </trkpt>
      <trkpt lat="44.09762" lon="6.86047">
        <ele>1126.99</ele>
        <time>2021-10-27T12:59:16Z</time>
      </trkpt>
      <trkpt lat="44.09759" lon="6.86049">
        <ele>1126.23</ele>
        <time>2021-10-27T12:59:22Z</time>
      </trkpt>
      <trkpt lat="44.09757" lon="6.86053">
        <ele>1124.21</ele>
        <time>2021-10-27T12:59:25Z</time>
      </trkpt>
      <trkpt lat="44.09756" lon="6.86056">
        <ele>1122.77</ele>
        <time>2021-10-27T12:59:28Z</time>
      </trkpt>
      <trkpt lat="44.09753" lon="6.86059">
        <ele>1122.33</ele>
        <time>2021-10-27T12:59:30Z</time>
      </trkpt>
      <trkpt lat="44.09751" lon="6.86062">
        <ele>1121.72</ele>
        <time>2021-10-27T12:59:33Z</time>
      </trkpt>
      <trkpt lat="44.09747" lon="6.86064">
        <ele>1122.14</ele>
        <time>2021-10-27T12:59:36Z</time>
      </trkpt>
      <trkpt lat="44.09744" lon="6.86067">
        <ele>1121.97</ele>
        <time>2021-10-27T12:59:39Z</time>
      </trkpt>
      <trkpt lat="44.09742" lon="6.8607">
        <ele>1121.46</ele>
        <time>2021-10-27T12:59:42Z</time>
      </trkpt>
      <trkpt lat="44.0974" lon="6.86072">
        <ele>1121.27</ele>
        <time>2021-10-27T12:59:45Z</time>
      </trkpt>
      <trkpt lat="44.09737" lon="6.86073">
        <ele>1121.68</ele>
        <time>2021-10-27T12:59:48Z</time>
      </trkpt>
      <trkpt lat="44.09734" lon="6.86075">
        <ele>1121.67</ele>
        <time>2021-10-27T12:59:51Z</time>
      </trkpt>
      <trkpt lat="44.09731" lon="6.86077">
        <ele>1121.62</ele>
        <time>2021-10-27T12:59:55Z</time>
      </trkpt>
      <trkpt lat="44.09729" lon="6.86079">
        <ele>1121.29</ele>
        <time>2021-10-27T12:59:59Z</time>
      </trkpt>
      <trkpt lat="44.09727" lon="6.86082">
        <ele>1120.52</ele>
        <time>2021-10-27T13:00:02Z</time>
      </trkpt>
      <trkpt lat="44.09724" lon="6.86085">
        <ele>1119.79</ele>
        <time>2021-10-27T13:00:05Z</time>
      </trkpt>
      <trkpt lat="44.09721" lon="6.86086">
        <ele>1120.24</ele>
        <time>2021-10-27T13:00:08Z</time>
      </trkpt>
      <trkpt lat="44.09718" lon="6.86087">
        <ele>1121.17</ele>
        <time>2021-10-27T13:00:12Z</time>
      </trkpt>
      <trkpt lat="44.09716" lon="6.8609">
        <ele>1120.66</ele>
        <time>2021-10-27T13:00:16Z</time>
      </trkpt>
      <trkpt lat="44.09714" lon="6.86093">
        <ele>1120.18</ele>
        <time>2021-10-27T13:00:18Z</time>
      </trkpt>
      <trkpt lat="44.09711" lon="6.86095">
        <ele>1120.71</ele>
        <time>2021-10-27T13:00:20Z</time>
      </trkpt>
      <trkpt lat="44.09709" lon="6.86098">
        <ele>1120.3</ele>
        <time>2021-10-27T13:00:23Z</time>
      </trkpt>
      <trkpt lat="44.09708" lon="6.86102">
        <ele>1118.94</ele>
        <time>2021-10-27T13:00:28Z</time>
      </trkpt>
      <trkpt lat="44.09706" lon="6.86106">
        <ele>1118.12</ele>
        <time>2021-10-27T13:00:30Z</time>
      </trkpt>
      <trkpt lat="44.09704" lon="6.86109">
        <ele>1117.8</ele>
        <time>2021-10-27T13:00:33Z</time>
      </trkpt>
      <trkpt lat="44.09701" lon="6.86111">
        <ele>1118.51</ele>
        <time>2021-10-27T13:00:36Z</time>
      </trkpt>
      <trkpt lat="44.09699" lon="6.86114">
        <ele>1116.89</ele>
        <time>2021-10-27T13:00:39Z</time>
      </trkpt>
      <trkpt lat="44.09696" lon="6.86115">
        <ele>1117.54</ele>
        <time>2021-10-27T13:00:42Z</time>
      </trkpt>
      <trkpt lat="44.09693" lon="6.86115">
        <ele>1119.29</ele>
        <time>2021-10-27T13:00:45Z</time>
      </trkpt>
      <trkpt lat="44.09689" lon="6.86116">
        <ele>1121.01</ele>
        <time>2021-10-27T13:00:48Z</time>
      </trkpt>
      <trkpt lat="44.09686" lon="6.86117">
        <ele>1122.19</ele>
        <time>2021-10-27T13:00:50Z</time>
      </trkpt>
      <trkpt lat="44.09683" lon="6.86118">
        <ele>1123.47</ele>
        <time>2021-10-27T13:00:54Z</time>
      </trkpt>
      <trkpt lat="44.0968" lon="6.86118">
        <ele>1125.55</ele>
        <time>2021-10-27T13:00:58Z</time>
      </trkpt>
      <trkpt lat="44.09677" lon="6.8612">
        <ele>1126.34</ele>
        <time>2021-10-27T13:01:01Z</time>
      </trkpt>
      <trkpt lat="44.09674" lon="6.86121">
        <ele>1127.93</ele>
        <time>2021-10-27T13:01:04Z</time>
      </trkpt>
      <trkpt lat="44.09671" lon="6.86122">
        <ele>1129.61</ele>
        <time>2021-10-27T13:01:07Z</time>
      </trkpt>
      <trkpt lat="44.09668" lon="6.86126">
        <ele>1129.93</ele>
        <time>2021-10-27T13:01:10Z</time>
      </trkpt>
      <trkpt lat="44.09666" lon="6.8613">
        <ele>1129.39</ele>
        <time>2021-10-27T13:01:13Z</time>
      </trkpt>
      <trkpt lat="44.09663" lon="6.86133">
        <ele>1129.05</ele>
        <time>2021-10-27T13:01:16Z</time>
      </trkpt>
      <trkpt lat="44.09662" lon="6.86136">
        <ele>1128.01</ele>
        <time>2021-10-27T13:01:19Z</time>
      </trkpt>
      <trkpt lat="44.09661" lon="6.8614">
        <ele>1126.19</ele>
        <time>2021-10-27T13:01:23Z</time>
      </trkpt>
      <trkpt lat="44.09658" lon="6.86142">
        <ele>1125.82</ele>
        <time>2021-10-27T13:01:26Z</time>
      </trkpt>
      <trkpt lat="44.09657" lon="6.86146">
        <ele>1123.3</ele>
        <time>2021-10-27T13:01:29Z</time>
      </trkpt>
      <trkpt lat="44.09655" lon="6.8615">
        <ele>1121.34</ele>
        <time>2021-10-27T13:01:33Z</time>
      </trkpt>
      <trkpt lat="44.09654" lon="6.86154">
        <ele>1119.03</ele>
        <time>2021-10-27T13:01:36Z</time>
      </trkpt>
      <trkpt lat="44.09651" lon="6.86157">
        <ele>1118.59</ele>
        <time>2021-10-27T13:01:39Z</time>
      </trkpt>
      <trkpt lat="44.09648" lon="6.86158">
        <ele>1119.59</ele>
        <time>2021-10-27T13:01:41Z</time>
      </trkpt>
      <trkpt lat="44.09645" lon="6.8616">
        <ele>1120.06</ele>
        <time>2021-10-27T13:01:44Z</time>
      </trkpt>
      <trkpt lat="44.09643" lon="6.86163">
        <ele>1119.47</ele>
        <time>2021-10-27T13:01:46Z</time>
      </trkpt>
      <trkpt lat="44.0964" lon="6.86166">
        <ele>1119.65</ele>
        <time>2021-10-27T13:01:49Z</time>
      </trkpt>
      <trkpt lat="44.09638" lon="6.86169">
        <ele>1117.18</ele>
        <time>2021-10-27T13:01:53Z</time>
      </trkpt>
      <trkpt lat="44.09636" lon="6.86172">
        <ele>1113.58</ele>
        <time>2021-10-27T13:01:55Z</time>
      </trkpt>
      <trkpt lat="44.09634" lon="6.86175">
        <ele>1110.15</ele>
        <time>2021-10-27T13:01:58Z</time>
      </trkpt>
      <trkpt lat="44.09632" lon="6.86178">
        <ele>1106.92</ele>
        <time>2021-10-27T13:02:01Z</time>
      </trkpt>
      <trkpt lat="44.09629" lon="6.86179">
        <ele>1105.91</ele>
        <time>2021-10-27T13:02:04Z</time>
      </trkpt>
      <trkpt lat="44.09626" lon="6.86182">
        <ele>1103.09</ele>
        <time>2021-10-27T13:02:07Z</time>
      </trkpt>
      <trkpt lat="44.09624" lon="6.86184">
        <ele>1101.37</ele>
        <time>2021-10-27T13:02:11Z</time>
      </trkpt>
      <trkpt lat="44.09621" lon="6.86186">
        <ele>1099.89</ele>
        <time>2021-10-27T13:02:14Z</time>
      </trkpt>
      <trkpt lat="44.09618" lon="6.86188">
        <ele>1098.59</ele>
        <time>2021-10-27T13:02:17Z</time>
      </trkpt>
      <trkpt lat="44.09614" lon="6.86188">
        <ele>1099.2</ele>
        <time>2021-10-27T13:02:20Z</time>
      </trkpt>
      <trkpt lat="44.09611" lon="6.86187">
        <ele>1100.33</ele>
        <time>2021-10-27T13:02:23Z</time>
      </trkpt>
      <trkpt lat="44.09608" lon="6.86185">
        <ele>1101.09</ele>
        <time>2021-10-27T13:02:26Z</time>
      </trkpt>
      <trkpt lat="44.09605" lon="6.86185">
        <ele>1100.41</ele>
        <time>2021-10-27T13:02:29Z</time>
      </trkpt>
      <trkpt lat="44.09602" lon="6.86184">
        <ele>1100.43</ele>
        <time>2021-10-27T13:02:32Z</time>
      </trkpt>
      <trkpt lat="44.09599" lon="6.86181">
        <ele>1101.85</ele>
        <time>2021-10-27T13:02:35Z</time>
      </trkpt>
      <trkpt lat="44.09596" lon="6.86178">
        <ele>1103.25</ele>
        <time>2021-10-27T13:02:38Z</time>
      </trkpt>
      <trkpt lat="44.09593" lon="6.86178">
        <ele>1102.54</ele>
        <time>2021-10-27T13:02:42Z</time>
      </trkpt>
      <trkpt lat="44.0959" lon="6.86179">
        <ele>1101.14</ele>
        <time>2021-10-27T13:02:46Z</time>
      </trkpt>
      <trkpt lat="44.09588" lon="6.86182">
        <ele>1098.6</ele>
        <time>2021-10-27T13:02:50Z</time>
      </trkpt>
      <trkpt lat="44.09585" lon="6.86186">
        <ele>1095.15</ele>
        <time>2021-10-27T13:02:54Z</time>
      </trkpt>
      <trkpt lat="44.09582" lon="6.86189">
        <ele>1092.57</ele>
        <time>2021-10-27T13:02:57Z</time>
      </trkpt>
      <trkpt lat="44.0958" lon="6.86192">
        <ele>1090.37</ele>
        <time>2021-10-27T13:02:59Z</time>
      </trkpt>
      <trkpt lat="44.09577" lon="6.86195">
        <ele>1088.27</ele>
        <time>2021-10-27T13:03:01Z</time>
      </trkpt>
      <trkpt lat="44.09575" lon="6.86199">
        <ele>1086.24</ele>
        <time>2021-10-27T13:03:04Z</time>
      </trkpt>
      <trkpt lat="44.09573" lon="6.86202">
        <ele>1084.78</ele>
        <time>2021-10-27T13:03:07Z</time>
      </trkpt>
      <trkpt lat="44.09571" lon="6.86205">
        <ele>1083.42</ele>
        <time>2021-10-27T13:03:10Z</time>
      </trkpt>
      <trkpt lat="44.09568" lon="6.86207">
        <ele>1082.61</ele>
        <time>2021-10-27T13:03:13Z</time>
      </trkpt>
      <trkpt lat="44.09565" lon="6.86209">
        <ele>1081.9</ele>
        <time>2021-10-27T13:03:19Z</time>
      </trkpt>
      <trkpt lat="44.09562" lon="6.8621">
        <ele>1081.64</ele>
        <time>2021-10-27T13:03:21Z</time>
      </trkpt>
      <trkpt lat="44.09559" lon="6.86211">
        <ele>1081.44</ele>
        <time>2021-10-27T13:03:24Z</time>
      </trkpt>
      <trkpt lat="44.09556" lon="6.86211">
        <ele>1081.61</ele>
        <time>2021-10-27T13:03:26Z</time>
      </trkpt>
      <trkpt lat="44.09553" lon="6.86211">
        <ele>1082.24</ele>
        <time>2021-10-27T13:03:29Z</time>
      </trkpt>
      <trkpt lat="44.09549" lon="6.86209">
        <ele>1083.82</ele>
        <time>2021-10-27T13:03:33Z</time>
      </trkpt>
      <trkpt lat="44.09546" lon="6.86206">
        <ele>1085.46</ele>
        <time>2021-10-27T13:03:36Z</time>
      </trkpt>
      <trkpt lat="44.09544" lon="6.86202">
        <ele>1087.16</ele>
        <time>2021-10-27T13:03:39Z</time>
      </trkpt>
      <trkpt lat="44.09542" lon="6.86199">
        <ele>1088.53</ele>
        <time>2021-10-27T13:03:43Z</time>
      </trkpt>
      <trkpt lat="44.09539" lon="6.86196">
        <ele>1090.11</ele>
        <time>2021-10-27T13:03:46Z</time>
      </trkpt>
      <trkpt lat="44.09537" lon="6.86193">
        <ele>1091.58</ele>
        <time>2021-10-27T13:03:49Z</time>
      </trkpt>
      <trkpt lat="44.09535" lon="6.8619">
        <ele>1093.16</ele>
        <time>2021-10-27T13:03:52Z</time>
      </trkpt>
      <trkpt lat="44.09532" lon="6.86188">
        <ele>1094.51</ele>
        <time>2021-10-27T13:03:55Z</time>
      </trkpt>
      <trkpt lat="44.0953" lon="6.86186">
        <ele>1095.63</ele>
        <time>2021-10-27T13:03:59Z</time>
      </trkpt>
      <trkpt lat="44.09527" lon="6.86184">
        <ele>1096.47</ele>
        <time>2021-10-27T13:04:03Z</time>
      </trkpt>
      <trkpt lat="44.09525" lon="6.86182">
        <ele>1096.44</ele>
        <time>2021-10-27T13:04:07Z</time>
      </trkpt>
      <trkpt lat="44.09522" lon="6.8618">
        <ele>1096.01</ele>
        <time>2021-10-27T13:04:24Z</time>
      </trkpt>
      <trkpt lat="44.09519" lon="6.8618">
        <ele>1094.88</ele>
        <time>2021-10-27T13:04:31Z</time>
      </trkpt>
      <trkpt lat="44.09516" lon="6.86178">
        <ele>1094.43</ele>
        <time>2021-10-27T13:04:35Z</time>
      </trkpt>
      <trkpt lat="44.09513" lon="6.86178">
        <ele>1093.29</ele>
        <time>2021-10-27T13:04:45Z</time>
      </trkpt>
      <trkpt lat="44.0951" lon="6.86178">
        <ele>1092.14</ele>
        <time>2021-10-27T13:04:52Z</time>
      </trkpt>
      <trkpt lat="44.09507" lon="6.86176">
        <ele>1091.66</ele>
        <time>2021-10-27T13:04:55Z</time>
      </trkpt>
      <trkpt lat="44.09504" lon="6.86175">
        <ele>1090.84</ele>
        <time>2021-10-27T13:05:00Z</time>
      </trkpt>
      <trkpt lat="44.09502" lon="6.86172">
        <ele>1091.05</ele>
        <time>2021-10-27T13:05:06Z</time>
      </trkpt>
      <trkpt lat="44.09499" lon="6.8617">
        <ele>1090.21</ele>
        <time>2021-10-27T13:05:09Z</time>
      </trkpt>
      <trkpt lat="44.09496" lon="6.86168">
        <ele>1088.71</ele>
        <time>2021-10-27T13:05:13Z</time>
      </trkpt>
      <trkpt lat="44.09493" lon="6.86166">
        <ele>1087.15</ele>
        <time>2021-10-27T13:05:17Z</time>
      </trkpt>
      <trkpt lat="44.0949" lon="6.86165">
        <ele>1085.26</ele>
        <time>2021-10-27T13:05:20Z</time>
      </trkpt>
      <trkpt lat="44.09486" lon="6.86163">
        <ele>1082.91</ele>
        <time>2021-10-27T13:05:23Z</time>
      </trkpt>
      <trkpt lat="44.09483" lon="6.86162">
        <ele>1081</ele>
        <time>2021-10-27T13:05:27Z</time>
      </trkpt>
      <trkpt lat="44.0948" lon="6.86162">
        <ele>1078.82</ele>
        <time>2021-10-27T13:05:32Z</time>
      </trkpt>
      <trkpt lat="44.09477" lon="6.86161">
        <ele>1076.9</ele>
        <time>2021-10-27T13:05:36Z</time>
      </trkpt>
      <trkpt lat="44.09474" lon="6.86161">
        <ele>1074.72</ele>
        <time>2021-10-27T13:05:39Z</time>
      </trkpt>
      <trkpt lat="44.09471" lon="6.86159">
        <ele>1073.28</ele>
        <time>2021-10-27T13:05:50Z</time>
      </trkpt>
      <trkpt lat="44.09468" lon="6.86158">
        <ele>1071.91</ele>
        <time>2021-10-27T13:05:54Z</time>
      </trkpt>
      <trkpt lat="44.09465" lon="6.86157">
        <ele>1070.52</ele>
        <time>2021-10-27T13:05:58Z</time>
      </trkpt>
      <trkpt lat="44.09462" lon="6.86156">
        <ele>1069.11</ele>
        <time>2021-10-27T13:06:08Z</time>
      </trkpt>
      <trkpt lat="44.09459" lon="6.86156">
        <ele>1067.48</ele>
        <time>2021-10-27T13:06:11Z</time>
      </trkpt>
      <trkpt lat="44.09456" lon="6.86155">
        <ele>1066.03</ele>
        <time>2021-10-27T13:06:16Z</time>
      </trkpt>
      <trkpt lat="44.09453" lon="6.86153">
        <ele>1064.73</ele>
        <time>2021-10-27T13:06:20Z</time>
      </trkpt>
      <trkpt lat="44.09451" lon="6.86148">
        <ele>1064.47</ele>
        <time>2021-10-27T13:06:26Z</time>
      </trkpt>
      <trkpt lat="44.09451" lon="6.86144">
        <ele>1065.15</ele>
        <time>2021-10-27T13:06:30Z</time>
      </trkpt>
      <trkpt lat="44.09453" lon="6.86139">
        <ele>1067.22</ele>
        <time>2021-10-27T13:06:35Z</time>
      </trkpt>
      <trkpt lat="44.09453" lon="6.86134">
        <ele>1067.86</ele>
        <time>2021-10-27T13:06:39Z</time>
      </trkpt>
      <trkpt lat="44.09453" lon="6.8613">
        <ele>1068.37</ele>
        <time>2021-10-27T13:06:44Z</time>
      </trkpt>
      <trkpt lat="44.09453" lon="6.86126">
        <ele>1068.88</ele>
        <time>2021-10-27T13:06:48Z</time>
      </trkpt>
      <trkpt lat="44.09452" lon="6.86122">
        <ele>1068.67</ele>
        <time>2021-10-27T13:06:54Z</time>
      </trkpt>
      <trkpt lat="44.09453" lon="6.86117">
        <ele>1070.03</ele>
        <time>2021-10-27T13:06:57Z</time>
      </trkpt>
      <trkpt lat="44.09452" lon="6.86113">
        <ele>1069.76</ele>
        <time>2021-10-27T13:07:02Z</time>
      </trkpt>
      <trkpt lat="44.09452" lon="6.86109">
        <ele>1070.23</ele>
        <time>2021-10-27T13:07:07Z</time>
      </trkpt>
      <trkpt lat="44.09452" lon="6.86105">
        <ele>1070.7</ele>
        <time>2021-10-27T13:07:10Z</time>
      </trkpt>
      <trkpt lat="44.09453" lon="6.86101">
        <ele>1071.98</ele>
        <time>2021-10-27T13:07:13Z</time>
      </trkpt>
      <trkpt lat="44.09454" lon="6.86097">
        <ele>1073.27</ele>
        <time>2021-10-27T13:07:17Z</time>
      </trkpt>
      <trkpt lat="44.09453" lon="6.86093">
        <ele>1072.93</ele>
        <time>2021-10-27T13:07:21Z</time>
      </trkpt>
      <trkpt lat="44.09453" lon="6.86089">
        <ele>1073.41</ele>
        <time>2021-10-27T13:07:27Z</time>
      </trkpt>
      <trkpt lat="44.09453" lon="6.86085">
        <ele>1073.89</ele>
        <time>2021-10-27T13:07:30Z</time>
      </trkpt>
      <trkpt lat="44.09451" lon="6.86081">
        <ele>1072.45</ele>
        <time>2021-10-27T13:07:33Z</time>
      </trkpt>
      <trkpt lat="44.09452" lon="6.86076">
        <ele>1073.33</ele>
        <time>2021-10-27T13:07:38Z</time>
      </trkpt>
      <trkpt lat="44.09452" lon="6.86072">
        <ele>1073.37</ele>
        <time>2021-10-27T13:07:44Z</time>
      </trkpt>
      <trkpt lat="44.09451" lon="6.86067">
        <ele>1072.57</ele>
        <time>2021-10-27T13:07:48Z</time>
      </trkpt>
      <trkpt lat="44.09451" lon="6.86063">
        <ele>1072.6</ele>
        <time>2021-10-27T13:07:53Z</time>
      </trkpt>
      <trkpt lat="44.0945" lon="6.86059">
        <ele>1071.78</ele>
        <time>2021-10-27T13:07:57Z</time>
      </trkpt>
      <trkpt lat="44.0945" lon="6.86055">
        <ele>1071.74</ele>
        <time>2021-10-27T13:08:01Z</time>
      </trkpt>
      <trkpt lat="44.09452" lon="6.86051">
        <ele>1072.99</ele>
        <time>2021-10-27T13:08:05Z</time>
      </trkpt>
      <trkpt lat="44.09454" lon="6.86048">
        <ele>1074.35</ele>
        <time>2021-10-27T13:08:09Z</time>
      </trkpt>
      <trkpt lat="44.09455" lon="6.86045">
        <ele>1074.84</ele>
        <time>2021-10-27T13:08:12Z</time>
      </trkpt>
      <trkpt lat="44.09452" lon="6.86045">
        <ele>1072.28</ele>
        <time>2021-10-27T13:08:35Z</time>
      </trkpt>
      <trkpt lat="44.0945" lon="6.86048">
        <ele>1070.93</ele>
        <time>2021-10-27T13:08:43Z</time>
      </trkpt>
      <trkpt lat="44.09448" lon="6.86051">
        <ele>1069.56</ele>
        <time>2021-10-27T13:08:47Z</time>
      </trkpt>
      <trkpt lat="44.09447" lon="6.86055">
        <ele>1069.15</ele>
        <time>2021-10-27T13:08:51Z</time>
      </trkpt>
      <trkpt lat="44.09446" lon="6.8606">
        <ele>1068.34</ele>
        <time>2021-10-27T13:08:55Z</time>
      </trkpt>
      <trkpt lat="44.09447" lon="6.86064">
        <ele>1069.18</ele>
        <time>2021-10-27T13:08:59Z</time>
      </trkpt>
      <trkpt lat="44.09445" lon="6.86068">
        <ele>1067.47</ele>
        <time>2021-10-27T13:09:05Z</time>
      </trkpt>
      <trkpt lat="44.09443" lon="6.86072">
        <ele>1066.54</ele>
        <time>2021-10-27T13:09:08Z</time>
      </trkpt>
      <trkpt lat="44.09443" lon="6.86076">
        <ele>1066.56</ele>
        <time>2021-10-27T13:09:11Z</time>
      </trkpt>
      <trkpt lat="44.09443" lon="6.86081">
        <ele>1066.58</ele>
        <time>2021-10-27T13:09:15Z</time>
      </trkpt>
      <trkpt lat="44.09443" lon="6.86085">
        <ele>1066.41</ele>
        <time>2021-10-27T13:09:20Z</time>
      </trkpt>
      <trkpt lat="44.09441" lon="6.86089">
        <ele>1065.47</ele>
        <time>2021-10-27T13:09:24Z</time>
      </trkpt>
      <trkpt lat="44.09439" lon="6.86091">
        <ele>1064.77</ele>
        <time>2021-10-27T13:09:27Z</time>
      </trkpt>
      <trkpt lat="44.09437" lon="6.86095">
        <ele>1063.93</ele>
        <time>2021-10-27T13:09:30Z</time>
      </trkpt>
      <trkpt lat="44.09438" lon="6.86099">
        <ele>1063.84</ele>
        <time>2021-10-27T13:09:34Z</time>
      </trkpt>
      <trkpt lat="44.09439" lon="6.86103">
        <ele>1063.72</ele>
        <time>2021-10-27T13:09:37Z</time>
      </trkpt>
      <trkpt lat="44.0944" lon="6.86107">
        <ele>1063.57</ele>
        <time>2021-10-27T13:09:41Z</time>
      </trkpt>
      <trkpt lat="44.09439" lon="6.8611">
        <ele>1063.12</ele>
        <time>2021-10-27T13:09:48Z</time>
      </trkpt>
      <trkpt lat="44.09436" lon="6.86112">
        <ele>1062.44</ele>
        <time>2021-10-27T13:09:52Z</time>
      </trkpt>
      <trkpt lat="44.09434" lon="6.86115">
        <ele>1061.95</ele>
        <time>2021-10-27T13:09:55Z</time>
      </trkpt>
      <trkpt lat="44.09432" lon="6.86118">
        <ele>1061.49</ele>
        <time>2021-10-27T13:10:00Z</time>
      </trkpt>
      <trkpt lat="44.09431" lon="6.86122">
        <ele>1061.18</ele>
        <time>2021-10-27T13:10:03Z</time>
      </trkpt>
      <trkpt lat="44.0943" lon="6.86125">
        <ele>1060.92</ele>
        <time>2021-10-27T13:10:06Z</time>
      </trkpt>
      <trkpt lat="44.09428" lon="6.86129">
        <ele>1060.51</ele>
        <time>2021-10-27T13:10:09Z</time>
      </trkpt>
      <trkpt lat="44.09426" lon="6.86132">
        <ele>1060.17</ele>
        <time>2021-10-27T13:10:13Z</time>
      </trkpt>
      <trkpt lat="44.09423" lon="6.86136">
        <ele>1059.73</ele>
        <time>2021-10-27T13:10:18Z</time>
      </trkpt>
      <trkpt lat="44.09421" lon="6.86138">
        <ele>1059.48</ele>
        <time>2021-10-27T13:10:22Z</time>
      </trkpt>
      <trkpt lat="44.0942" lon="6.86141">
        <ele>1059.26</ele>
        <time>2021-10-27T13:10:26Z</time>
      </trkpt>
      <trkpt lat="44.09418" lon="6.86144">
        <ele>1058.93</ele>
        <time>2021-10-27T13:10:29Z</time>
      </trkpt>
      <trkpt lat="44.09417" lon="6.86148">
        <ele>1058.7</ele>
        <time>2021-10-27T13:10:33Z</time>
      </trkpt>
      <trkpt lat="44.09417" lon="6.86152">
        <ele>1058.55</ele>
        <time>2021-10-27T13:10:38Z</time>
      </trkpt>
      <trkpt lat="44.09414" lon="6.86154">
        <ele>1057.56</ele>
        <time>2021-10-27T13:10:45Z</time>
      </trkpt>
      <trkpt lat="44.09412" lon="6.86157">
        <ele>1056.83</ele>
        <time>2021-10-27T13:10:50Z</time>
      </trkpt>
      <trkpt lat="44.09409" lon="6.86158">
        <ele>1055.85</ele>
        <time>2021-10-27T13:11:01Z</time>
      </trkpt>
      <trkpt lat="44.09407" lon="6.86161">
        <ele>1055.21</ele>
        <time>2021-10-27T13:11:08Z</time>
      </trkpt>
      <trkpt lat="44.09404" lon="6.86159">
        <ele>1054.25</ele>
        <time>2021-10-27T13:11:42Z</time>
      </trkpt>
      <trkpt lat="44.09401" lon="6.86161">
        <ele>1053.35</ele>
        <time>2021-10-27T13:12:07Z</time>
      </trkpt>
      <trkpt lat="44.09398" lon="6.86162">
        <ele>1052.45</ele>
        <time>2021-10-27T13:12:20Z</time>
      </trkpt>
      <trkpt lat="44.09394" lon="6.86161">
        <ele>1051.18</ele>
        <time>2021-10-27T13:12:29Z</time>
      </trkpt>
      <trkpt lat="44.09391" lon="6.86162">
        <ele>1050.31</ele>
        <time>2021-10-27T13:12:39Z</time>
      </trkpt>
      <trkpt lat="44.09391" lon="6.86166">
        <ele>1050.57</ele>
        <time>2021-10-27T13:13:06Z</time>
      </trkpt>
      <trkpt lat="44.09389" lon="6.86171">
        <ele>1049.72</ele>
        <time>2021-10-27T13:13:12Z</time>
      </trkpt>
      <trkpt lat="44.09386" lon="6.8617">
        <ele>1047.6</ele>
        <time>2021-10-27T13:13:20Z</time>
      </trkpt>
      <trkpt lat="44.09384" lon="6.86173">
        <ele>1045.93</ele>
        <time>2021-10-27T13:13:23Z</time>
      </trkpt>
      <trkpt lat="44.09384" lon="6.86178">
        <ele>1045.63</ele>
        <time>2021-10-27T13:13:26Z</time>
      </trkpt>
      <trkpt lat="44.09384" lon="6.86182">
        <ele>1045.39</ele>
        <time>2021-10-27T13:13:32Z</time>
      </trkpt>
      <trkpt lat="44.09384" lon="6.86186">
        <ele>1045.16</ele>
        <time>2021-10-27T13:13:50Z</time>
      </trkpt>
      <trkpt lat="44.09384" lon="6.86191">
        <ele>1044.86</ele>
        <time>2021-10-27T13:13:55Z</time>
      </trkpt>
      <trkpt lat="44.09385" lon="6.86195">
        <ele>1045.23</ele>
        <time>2021-10-27T13:14:02Z</time>
      </trkpt>
      <trkpt lat="44.09385" lon="6.86198">
        <ele>1044.63</ele>
        <time>2021-10-27T13:14:06Z</time>
      </trkpt>
      <trkpt lat="44.09386" lon="6.86203">
        <ele>1044.27</ele>
        <time>2021-10-27T13:14:15Z</time>
      </trkpt>
      <trkpt lat="44.09388" lon="6.86206">
        <ele>1044.94</ele>
        <time>2021-10-27T13:14:18Z</time>
      </trkpt>
      <trkpt lat="44.0939" lon="6.86209">
        <ele>1045.06</ele>
        <time>2021-10-27T13:14:21Z</time>
      </trkpt>
      <trkpt lat="44.0939" lon="6.86213">
        <ele>1044.19</ele>
        <time>2021-10-27T13:14:24Z</time>
      </trkpt>
      <trkpt lat="44.09392" lon="6.86217">
        <ele>1043.69</ele>
        <time>2021-10-27T13:14:28Z</time>
      </trkpt>
      <trkpt lat="44.09393" lon="6.8622">
        <ele>1043.22</ele>
        <time>2021-10-27T13:14:33Z</time>
      </trkpt>
      <trkpt lat="44.09394" lon="6.86225">
        <ele>1042.22</ele>
        <time>2021-10-27T13:14:37Z</time>
      </trkpt>
      <trkpt lat="44.09395" lon="6.86229">
        <ele>1041.39</ele>
        <time>2021-10-27T13:14:40Z</time>
      </trkpt>
      <trkpt lat="44.09395" lon="6.86233">
        <ele>1040.38</ele>
        <time>2021-10-27T13:14:44Z</time>
      </trkpt>
      <trkpt lat="44.09397" lon="6.86237">
        <ele>1039.74</ele>
        <time>2021-10-27T13:14:48Z</time>
      </trkpt>
      <trkpt lat="44.09396" lon="6.86241">
        <ele>1038.55</ele>
        <time>2021-10-27T13:14:53Z</time>
      </trkpt>
      <trkpt lat="44.09396" lon="6.86245">
        <ele>1037.54</ele>
        <time>2021-10-27T13:14:59Z</time>
      </trkpt>
      <trkpt lat="44.09397" lon="6.8625">
        <ele>1036.46</ele>
        <time>2021-10-27T13:15:03Z</time>
      </trkpt>
      <trkpt lat="44.09398" lon="6.86254">
        <ele>1035.39</ele>
        <time>2021-10-27T13:15:06Z</time>
      </trkpt>
      <trkpt lat="44.09399" lon="6.86259">
        <ele>1034.02</ele>
        <time>2021-10-27T13:15:10Z</time>
      </trkpt>
      <trkpt lat="44.094" lon="6.86263">
        <ele>1032.98</ele>
        <time>2021-10-27T13:15:14Z</time>
      </trkpt>
      <trkpt lat="44.09403" lon="6.86264">
        <ele>1033.26</ele>
        <time>2021-10-27T13:15:21Z</time>
      </trkpt>
      <trkpt lat="44.09406" lon="6.86264">
        <ele>1033.85</ele>
        <time>2021-10-27T13:15:24Z</time>
      </trkpt>
      <trkpt lat="44.09409" lon="6.86265">
        <ele>1034.15</ele>
        <time>2021-10-27T13:15:30Z</time>
      </trkpt>
      <trkpt lat="44.09412" lon="6.86263">
        <ele>1035.34</ele>
        <time>2021-10-27T13:15:35Z</time>
      </trkpt>
      <trkpt lat="44.09415" lon="6.86262">
        <ele>1036.22</ele>
        <time>2021-10-27T13:15:39Z</time>
      </trkpt>
      <trkpt lat="44.09418" lon="6.86259">
        <ele>1037.78</ele>
        <time>2021-10-27T13:15:42Z</time>
      </trkpt>
      <trkpt lat="44.09421" lon="6.86258">
        <ele>1038.9</ele>
        <time>2021-10-27T13:15:53Z</time>
      </trkpt>
      <trkpt lat="44.09423" lon="6.86258">
        <ele>1039.45</ele>
        <time>2021-10-27T13:15:57Z</time>
      </trkpt>
      <trkpt lat="44.09426" lon="6.86256">
        <ele>1040.89</ele>
        <time>2021-10-27T13:16:01Z</time>
      </trkpt>
      <trkpt lat="44.0943" lon="6.86257">
        <ele>1041.7</ele>
        <time>2021-10-27T13:16:09Z</time>
      </trkpt>
      <trkpt lat="44.09433" lon="6.86258">
        <ele>1042.23</ele>
        <time>2021-10-27T13:16:12Z</time>
      </trkpt>
      <trkpt lat="44.09436" lon="6.8626">
        <ele>1042.44</ele>
        <time>2021-10-27T13:16:15Z</time>
      </trkpt>
      <trkpt lat="44.09434" lon="6.86264">
        <ele>1040.65</ele>
        <time>2021-10-27T13:16:22Z</time>
      </trkpt>
      <trkpt lat="44.09431" lon="6.86266">
        <ele>1039.22</ele>
        <time>2021-10-27T13:16:25Z</time>
      </trkpt>
      <trkpt lat="44.09428" lon="6.86268">
        <ele>1037.82</ele>
        <time>2021-10-27T13:16:28Z</time>
      </trkpt>
      <trkpt lat="44.09426" lon="6.86272">
        <ele>1036.09</ele>
        <time>2021-10-27T13:16:30Z</time>
      </trkpt>
      <trkpt lat="44.09424" lon="6.86275">
        <ele>1034.67</ele>
        <time>2021-10-27T13:16:33Z</time>
      </trkpt>
      <trkpt lat="44.09421" lon="6.86277">
        <ele>1033.32</ele>
        <time>2021-10-27T13:16:37Z</time>
      </trkpt>
      <trkpt lat="44.09418" lon="6.86277">
        <ele>1032.56</ele>
        <time>2021-10-27T13:16:40Z</time>
      </trkpt>
      <trkpt lat="44.09415" lon="6.86278">
        <ele>1031.57</ele>
        <time>2021-10-27T13:16:43Z</time>
      </trkpt>
      <trkpt lat="44.09412" lon="6.8628">
        <ele>1030.26</ele>
        <time>2021-10-27T13:16:46Z</time>
      </trkpt>
      <trkpt lat="44.09409" lon="6.86282">
        <ele>1028.93</ele>
        <time>2021-10-27T13:16:49Z</time>
      </trkpt>
      <trkpt lat="44.09406" lon="6.86285">
        <ele>1027.26</ele>
        <time>2021-10-27T13:16:53Z</time>
      </trkpt>
      <trkpt lat="44.09403" lon="6.86287">
        <ele>1025.9</ele>
        <time>2021-10-27T13:16:56Z</time>
      </trkpt>
      <trkpt lat="44.094" lon="6.86288">
        <ele>1024.87</ele>
        <time>2021-10-27T13:16:59Z</time>
      </trkpt>
      <trkpt lat="44.09397" lon="6.86288">
        <ele>1024.18</ele>
        <time>2021-10-27T13:17:03Z</time>
      </trkpt>
      <trkpt lat="44.09394" lon="6.86288">
        <ele>1023.49</ele>
        <time>2021-10-27T13:17:08Z</time>
      </trkpt>
      <trkpt lat="44.0939" lon="6.86288">
        <ele>1022.57</ele>
        <time>2021-10-27T13:17:11Z</time>
      </trkpt>
      <trkpt lat="44.09387" lon="6.86287">
        <ele>1022.05</ele>
        <time>2021-10-27T13:17:16Z</time>
      </trkpt>
      <trkpt lat="44.09384" lon="6.86287">
        <ele>1021.04</ele>
        <time>2021-10-27T13:17:19Z</time>
      </trkpt>
      <trkpt lat="44.09381" lon="6.86286">
        <ele>1020.37</ele>
        <time>2021-10-27T13:17:22Z</time>
      </trkpt>
      <trkpt lat="44.09378" lon="6.86284">
        <ele>1020.02</ele>
        <time>2021-10-27T13:17:26Z</time>
      </trkpt>
      <trkpt lat="44.09377" lon="6.8628">
        <ele>1020.99</ele>
        <time>2021-10-27T13:17:46Z</time>
      </trkpt>
      <trkpt lat="44.09378" lon="6.86277">
        <ele>1022.3</ele>
        <time>2021-10-27T13:17:56Z</time>
      </trkpt>
      <trkpt lat="44.09376" lon="6.8628">
        <ele>1020.63</ele>
        <time>2021-10-27T13:18:23Z</time>
      </trkpt>
      <trkpt lat="44.09377" lon="6.86284">
        <ele>1019.67</ele>
        <time>2021-10-27T13:18:34Z</time>
      </trkpt>
      <trkpt lat="44.09379" lon="6.86287">
        <ele>1019.36</ele>
        <time>2021-10-27T13:18:48Z</time>
      </trkpt>
      <trkpt lat="44.09381" lon="6.86291">
        <ele>1018.67</ele>
        <time>2021-10-27T13:18:52Z</time>
      </trkpt>
      <trkpt lat="44.09384" lon="6.86291">
        <ele>1019.65</ele>
        <time>2021-10-27T13:18:58Z</time>
      </trkpt>
      <trkpt lat="44.09381" lon="6.86291">
        <ele>1018.67</ele>
        <time>2021-10-27T13:19:10Z</time>
      </trkpt>
      <trkpt lat="44.09378" lon="6.86292">
        <ele>1017.36</ele>
        <time>2021-10-27T13:19:14Z</time>
      </trkpt>
      <trkpt lat="44.09375" lon="6.86292">
        <ele>1016.39</ele>
        <time>2021-10-27T13:19:18Z</time>
      </trkpt>
      <trkpt lat="44.09371" lon="6.86293">
        <ele>1014.79</ele>
        <time>2021-10-27T13:19:21Z</time>
      </trkpt>
      <trkpt lat="44.09368" lon="6.86293">
        <ele>1013.82</ele>
        <time>2021-10-27T13:19:24Z</time>
      </trkpt>
      <trkpt lat="44.09366" lon="6.86291">
        <ele>1013.78</ele>
        <time>2021-10-27T13:19:28Z</time>
      </trkpt>
      <trkpt lat="44.09362" lon="6.86289">
        <ele>1013.06</ele>
        <time>2021-10-27T13:19:31Z</time>
      </trkpt>
      <trkpt lat="44.0936" lon="6.86286">
        <ele>1013.02</ele>
        <time>2021-10-27T13:19:35Z</time>
      </trkpt>
      <trkpt lat="44.09358" lon="6.86282">
        <ele>1012.98</ele>
        <time>2021-10-27T13:19:38Z</time>
      </trkpt>
      <trkpt lat="44.09357" lon="6.86278">
        <ele>1013.43</ele>
        <time>2021-10-27T13:19:41Z</time>
      </trkpt>
      <trkpt lat="44.09357" lon="6.86274">
        <ele>1014.22</ele>
        <time>2021-10-27T13:19:46Z</time>
      </trkpt>
      <trkpt lat="44.09359" lon="6.8627">
        <ele>1016.3</ele>
        <time>2021-10-27T13:19:51Z</time>
      </trkpt>
      <trkpt lat="44.0936" lon="6.86267">
        <ele>1017.59</ele>
        <time>2021-10-27T13:19:54Z</time>
      </trkpt>
      <trkpt lat="44.0936" lon="6.86263">
        <ele>1018.43</ele>
        <time>2021-10-27T13:19:59Z</time>
      </trkpt>
      <trkpt lat="44.0936" lon="6.86259">
        <ele>1019.27</ele>
        <time>2021-10-27T13:20:03Z</time>
      </trkpt>
      <trkpt lat="44.09362" lon="6.86255">
        <ele>1021.32</ele>
        <time>2021-10-27T13:20:08Z</time>
      </trkpt>
      <trkpt lat="44.09363" lon="6.86251">
        <ele>1022.66</ele>
        <time>2021-10-27T13:20:11Z</time>
      </trkpt>
      <trkpt lat="44.09363" lon="6.86247">
        <ele>1023.34</ele>
        <time>2021-10-27T13:20:15Z</time>
      </trkpt>
      <trkpt lat="44.09361" lon="6.86243">
        <ele>1022.93</ele>
        <time>2021-10-27T13:20:19Z</time>
      </trkpt>
      <trkpt lat="44.09359" lon="6.8624">
        <ele>1021.87</ele>
        <time>2021-10-27T13:20:26Z</time>
      </trkpt>
      <trkpt lat="44.09357" lon="6.86237">
        <ele>1020.83</ele>
        <time>2021-10-27T13:20:31Z</time>
      </trkpt>
      <trkpt lat="44.09354" lon="6.86235">
        <ele>1018.92</ele>
        <time>2021-10-27T13:20:36Z</time>
      </trkpt>
      <trkpt lat="44.09353" lon="6.86232">
        <ele>1018.65</ele>
        <time>2021-10-27T13:20:59Z</time>
      </trkpt>
      <trkpt lat="44.0935" lon="6.86229">
        <ele>1016.93</ele>
        <time>2021-10-27T13:21:04Z</time>
      </trkpt>
      <trkpt lat="44.09348" lon="6.86226">
        <ele>1015.95</ele>
        <time>2021-10-27T13:21:08Z</time>
      </trkpt>
      <trkpt lat="44.09346" lon="6.86222">
        <ele>1015.15</ele>
        <time>2021-10-27T13:21:13Z</time>
      </trkpt>
      <trkpt lat="44.09344" lon="6.86219">
        <ele>1014.1</ele>
        <time>2021-10-27T13:21:16Z</time>
      </trkpt>
      <trkpt lat="44.09344" lon="6.86214">
        <ele>1014.75</ele>
        <time>2021-10-27T13:21:23Z</time>
      </trkpt>
      <trkpt lat="44.09344" lon="6.8621">
        <ele>1015.27</ele>
        <time>2021-10-27T13:21:27Z</time>
      </trkpt>
      <trkpt lat="44.09343" lon="6.86207">
        <ele>1014.96</ele>
        <time>2021-10-27T13:21:33Z</time>
      </trkpt>
      <trkpt lat="44.09343" lon="6.86202">
        <ele>1015.62</ele>
        <time>2021-10-27T13:21:36Z</time>
      </trkpt>
      <trkpt lat="44.09342" lon="6.86198">
        <ele>1015.46</ele>
        <time>2021-10-27T13:21:43Z</time>
      </trkpt>
      <trkpt lat="44.09343" lon="6.86194">
        <ele>1016.64</ele>
        <time>2021-10-27T13:21:49Z</time>
      </trkpt>
      <trkpt lat="44.09343" lon="6.8619">
        <ele>1016.92</ele>
        <time>2021-10-27T13:21:53Z</time>
      </trkpt>
      <trkpt lat="44.09344" lon="6.86186">
        <ele>1017.86</ele>
        <time>2021-10-27T13:21:57Z</time>
      </trkpt>
      <trkpt lat="44.09342" lon="6.86182">
        <ele>1016.85</ele>
        <time>2021-10-27T13:22:02Z</time>
      </trkpt>
      <trkpt lat="44.09342" lon="6.86178">
        <ele>1017.15</ele>
        <time>2021-10-27T13:22:08Z</time>
      </trkpt>
      <trkpt lat="44.09341" lon="6.86174">
        <ele>1016.84</ele>
        <time>2021-10-27T13:22:13Z</time>
      </trkpt>
      <trkpt lat="44.0934" lon="6.86169">
        <ele>1016.65</ele>
        <time>2021-10-27T13:22:17Z</time>
      </trkpt>
      <trkpt lat="44.09339" lon="6.86165">
        <ele>1016.1</ele>
        <time>2021-10-27T13:22:21Z</time>
      </trkpt>
      <trkpt lat="44.09337" lon="6.86162">
        <ele>1014.63</ele>
        <time>2021-10-27T13:22:30Z</time>
      </trkpt>
      <trkpt lat="44.09334" lon="6.86162">
        <ele>1012.88</ele>
        <time>2021-10-27T13:22:34Z</time>
      </trkpt>
      <trkpt lat="44.09332" lon="6.86159">
        <ele>1010.79</ele>
        <time>2021-10-27T13:22:39Z</time>
      </trkpt>
      <trkpt lat="44.09332" lon="6.86154">
        <ele>1010.26</ele>
        <time>2021-10-27T13:22:42Z</time>
      </trkpt>
      <trkpt lat="44.0933" lon="6.8615">
        <ele>1007.79</ele>
        <time>2021-10-27T13:22:46Z</time>
      </trkpt>
      <trkpt lat="44.09328" lon="6.86148">
        <ele>1005.55</ele>
        <time>2021-10-27T13:22:49Z</time>
      </trkpt>
      <trkpt lat="44.09327" lon="6.86144">
        <ele>1004.13</ele>
        <time>2021-10-27T13:22:53Z</time>
      </trkpt>
      <trkpt lat="44.09326" lon="6.8614">
        <ele>1002.72</ele>
        <time>2021-10-27T13:23:00Z</time>
      </trkpt>
      <trkpt lat="44.09324" lon="6.86137">
        <ele>1000.09</ele>
        <time>2021-10-27T13:23:06Z</time>
      </trkpt>
      <trkpt lat="44.09321" lon="6.86136">
        <ele>996.83</ele>
        <time>2021-10-27T13:23:11Z</time>
      </trkpt>
      <trkpt lat="44.09319" lon="6.86133">
        <ele>994.07</ele>
        <time>2021-10-27T13:23:16Z</time>
      </trkpt>
      <trkpt lat="44.09317" lon="6.86128">
        <ele>990.86</ele>
        <time>2021-10-27T13:23:21Z</time>
      </trkpt>
      <trkpt lat="44.09318" lon="6.86124">
        <ele>990.85</ele>
        <time>2021-10-27T13:23:24Z</time>
      </trkpt>
      <trkpt lat="44.0932" lon="6.86122">
        <ele>992.28</ele>
        <time>2021-10-27T13:23:30Z</time>
      </trkpt>
      <trkpt lat="44.09322" lon="6.86118">
        <ele>993.17</ele>
        <time>2021-10-27T13:23:34Z</time>
      </trkpt>
      <trkpt lat="44.09323" lon="6.86115">
        <ele>993.34</ele>
        <time>2021-10-27T13:23:39Z</time>
      </trkpt>
      <trkpt lat="44.09325" lon="6.86112">
        <ele>994.44</ele>
        <time>2021-10-27T13:23:43Z</time>
      </trkpt>
      <trkpt lat="44.09327" lon="6.86109">
        <ele>995.54</ele>
        <time>2021-10-27T13:23:48Z</time>
      </trkpt>
      <trkpt lat="44.09329" lon="6.86106">
        <ele>996.66</ele>
        <time>2021-10-27T13:23:54Z</time>
      </trkpt>
      <trkpt lat="44.09331" lon="6.86102">
        <ele>997.52</ele>
        <time>2021-10-27T13:23:58Z</time>
      </trkpt>
      <trkpt lat="44.09332" lon="6.86098">
        <ele>997.45</ele>
        <time>2021-10-27T13:24:02Z</time>
      </trkpt>
      <trkpt lat="44.09333" lon="6.86095">
        <ele>997.63</ele>
        <time>2021-10-27T13:24:09Z</time>
      </trkpt>
      <trkpt lat="44.09335" lon="6.86091">
        <ele>997.99</ele>
        <time>2021-10-27T13:24:14Z</time>
      </trkpt>
      <trkpt lat="44.09335" lon="6.86087">
        <ele>996.96</ele>
        <time>2021-10-27T13:24:19Z</time>
      </trkpt>
      <trkpt lat="44.09338" lon="6.86087">
        <ele>998.82</ele>
        <time>2021-10-27T13:24:24Z</time>
      </trkpt>
      <trkpt lat="44.09339" lon="6.86082">
        <ele>998.06</ele>
        <time>2021-10-27T13:24:30Z</time>
      </trkpt>
      <trkpt lat="44.0934" lon="6.86079">
        <ele>997.75</ele>
        <time>2021-10-27T13:24:35Z</time>
      </trkpt>
      <trkpt lat="44.09343" lon="6.86078">
        <ele>999.32</ele>
        <time>2021-10-27T13:24:39Z</time>
      </trkpt>
      <trkpt lat="44.09344" lon="6.86074">
        <ele>998.76</ele>
        <time>2021-10-27T13:24:46Z</time>
      </trkpt>
      <trkpt lat="44.09343" lon="6.86069">
        <ele>996.63</ele>
        <time>2021-10-27T13:24:51Z</time>
      </trkpt>
      <trkpt lat="44.09341" lon="6.86066">
        <ele>994.42</ele>
        <time>2021-10-27T13:24:55Z</time>
      </trkpt>
      <trkpt lat="44.09341" lon="6.86061">
        <ele>992.9</ele>
        <time>2021-10-27T13:25:01Z</time>
      </trkpt>
      <trkpt lat="44.09342" lon="6.86057">
        <ele>992.36</ele>
        <time>2021-10-27T13:25:05Z</time>
      </trkpt>
      <trkpt lat="44.09343" lon="6.86053">
        <ele>991.88</ele>
        <time>2021-10-27T13:25:11Z</time>
      </trkpt>
      <trkpt lat="44.09343" lon="6.86048">
        <ele>990.44</ele>
        <time>2021-10-27T13:25:16Z</time>
      </trkpt>
      <trkpt lat="44.09344" lon="6.86044">
        <ele>989.97</ele>
        <time>2021-10-27T13:25:20Z</time>
      </trkpt>
      <trkpt lat="44.09343" lon="6.8604">
        <ele>988.13</ele>
        <time>2021-10-27T13:25:26Z</time>
      </trkpt>
      <trkpt lat="44.09344" lon="6.86036">
        <ele>987.66</ele>
        <time>2021-10-27T13:25:34Z</time>
      </trkpt>
      <trkpt lat="44.09346" lon="6.86032">
        <ele>987.88</ele>
        <time>2021-10-27T13:25:38Z</time>
      </trkpt>
      <trkpt lat="44.09346" lon="6.86028">
        <ele>986.73</ele>
        <time>2021-10-27T13:25:44Z</time>
      </trkpt>
      <trkpt lat="44.09347" lon="6.86024">
        <ele>986.67</ele>
        <time>2021-10-27T13:25:51Z</time>
      </trkpt>
      <trkpt lat="44.09348" lon="6.8602">
        <ele>986.63</ele>
        <time>2021-10-27T13:25:56Z</time>
      </trkpt>
      <trkpt lat="44.09348" lon="6.86017">
        <ele>986.09</ele>
        <time>2021-10-27T13:26:03Z</time>
      </trkpt>
      <trkpt lat="44.09349" lon="6.86012">
        <ele>985.88</ele>
        <time>2021-10-27T13:26:07Z</time>
      </trkpt>
      <trkpt lat="44.09349" lon="6.86008">
        <ele>985.16</ele>
        <time>2021-10-27T13:26:11Z</time>
      </trkpt>
      <trkpt lat="44.0935" lon="6.86004">
        <ele>985.12</ele>
        <time>2021-10-27T13:26:18Z</time>
      </trkpt>
      <trkpt lat="44.09351" lon="6.86">
        <ele>985.08</ele>
        <time>2021-10-27T13:26:24Z</time>
      </trkpt>
      <trkpt lat="44.09351" lon="6.85996">
        <ele>984.94</ele>
        <time>2021-10-27T13:26:29Z</time>
      </trkpt>
      <trkpt lat="44.09352" lon="6.85991">
        <ele>985.44</ele>
        <time>2021-10-27T13:26:35Z</time>
      </trkpt>
      <trkpt lat="44.09352" lon="6.85987">
        <ele>985.3</ele>
        <time>2021-10-27T13:26:41Z</time>
      </trkpt>
      <trkpt lat="44.09352" lon="6.85983">
        <ele>985.16</ele>
        <time>2021-10-27T13:26:45Z</time>
      </trkpt>
      <trkpt lat="44.09355" lon="6.8598">
        <ele>987.1</ele>
        <time>2021-10-27T13:26:49Z</time>
      </trkpt>
      <trkpt lat="44.09356" lon="6.85975">
        <ele>987.6</ele>
        <time>2021-10-27T13:26:58Z</time>
      </trkpt>
      <trkpt lat="44.09357" lon="6.85972">
        <ele>988.18</ele>
        <time>2021-10-27T13:27:10Z</time>
      </trkpt>
      <trkpt lat="44.09356" lon="6.85968">
        <ele>987.42</ele>
        <time>2021-10-27T13:27:18Z</time>
      </trkpt>
      <trkpt lat="44.09355" lon="6.85964">
        <ele>986.62</ele>
        <time>2021-10-27T13:27:25Z</time>
      </trkpt>
      <trkpt lat="44.09354" lon="6.8596">
        <ele>985.8</ele>
        <time>2021-10-27T13:27:30Z</time>
      </trkpt>
      <trkpt lat="44.09355" lon="6.85956">
        <ele>986.43</ele>
        <time>2021-10-27T13:27:34Z</time>
      </trkpt>
      <trkpt lat="44.09354" lon="6.85953">
        <ele>985.6</ele>
        <time>2021-10-27T13:27:42Z</time>
      </trkpt>
      <trkpt lat="44.09355" lon="6.85949">
        <ele>986.27</ele>
        <time>2021-10-27T13:27:46Z</time>
      </trkpt>
      <trkpt lat="44.09354" lon="6.85945">
        <ele>985.38</ele>
        <time>2021-10-27T13:27:51Z</time>
      </trkpt>
      <trkpt lat="44.09353" lon="6.85942">
        <ele>984.52</ele>
        <time>2021-10-27T13:27:55Z</time>
      </trkpt>
      <trkpt lat="44.09351" lon="6.85938">
        <ele>982.82</ele>
        <time>2021-10-27T13:28:00Z</time>
      </trkpt>
      <trkpt lat="44.09349" lon="6.85935">
        <ele>981.11</ele>
        <time>2021-10-27T13:28:06Z</time>
      </trkpt>
      <trkpt lat="44.09348" lon="6.85931">
        <ele>980.16</ele>
        <time>2021-10-27T13:28:10Z</time>
      </trkpt>
      <trkpt lat="44.09347" lon="6.85927">
        <ele>979.19</ele>
        <time>2021-10-27T13:28:14Z</time>
      </trkpt>
      <trkpt lat="44.09346" lon="6.85923">
        <ele>978.19</ele>
        <time>2021-10-27T13:28:18Z</time>
      </trkpt>
      <trkpt lat="44.09346" lon="6.85918">
        <ele>978</ele>
        <time>2021-10-27T13:28:25Z</time>
      </trkpt>
      <trkpt lat="44.09345" lon="6.85914">
        <ele>977.02</ele>
        <time>2021-10-27T13:28:29Z</time>
      </trkpt>
      <trkpt lat="44.09345" lon="6.85911">
        <ele>976.96</ele>
        <time>2021-10-27T13:28:36Z</time>
      </trkpt>
      <trkpt lat="44.09346" lon="6.85907">
        <ele>977.75</ele>
        <time>2021-10-27T13:28:41Z</time>
      </trkpt>
      <trkpt lat="44.09346" lon="6.85902">
        <ele>977.66</ele>
        <time>2021-10-27T13:28:45Z</time>
      </trkpt>
      <trkpt lat="44.09345" lon="6.85898">
        <ele>976.69</ele>
        <time>2021-10-27T13:28:49Z</time>
      </trkpt>
      <trkpt lat="44.09344" lon="6.85894">
        <ele>975.71</ele>
        <time>2021-10-27T13:28:55Z</time>
      </trkpt>
      <trkpt lat="44.09344" lon="6.85889">
        <ele>975.6</ele>
        <time>2021-10-27T13:29:01Z</time>
      </trkpt>
      <trkpt lat="44.09345" lon="6.85885">
        <ele>976.44</ele>
        <time>2021-10-27T13:29:07Z</time>
      </trkpt>
      <trkpt lat="44.09344" lon="6.85882">
        <ele>975.5</ele>
        <time>2021-10-27T13:29:11Z</time>
      </trkpt>
      <trkpt lat="44.09344" lon="6.85878">
        <ele>975.45</ele>
        <time>2021-10-27T13:29:15Z</time>
      </trkpt>
      <trkpt lat="44.09343" lon="6.85874">
        <ele>974.51</ele>
        <time>2021-10-27T13:29:21Z</time>
      </trkpt>
      <trkpt lat="44.09342" lon="6.85871">
        <ele>973.6</ele>
        <time>2021-10-27T13:29:26Z</time>
      </trkpt>
      <trkpt lat="44.0934" lon="6.85866">
        <ele>971.8</ele>
        <time>2021-10-27T13:29:32Z</time>
      </trkpt>
      <trkpt lat="44.0934" lon="6.85863">
        <ele>971.78</ele>
        <time>2021-10-27T13:29:38Z</time>
      </trkpt>
      <trkpt lat="44.09338" lon="6.85859">
        <ele>970.06</ele>
        <time>2021-10-27T13:29:42Z</time>
      </trkpt>
      <trkpt lat="44.09335" lon="6.85857">
        <ele>967.55</ele>
        <time>2021-10-27T13:29:47Z</time>
      </trkpt>
      <trkpt lat="44.09333" lon="6.85853">
        <ele>966.1</ele>
        <time>2021-10-27T13:29:53Z</time>
      </trkpt>
      <trkpt lat="44.09331" lon="6.8585">
        <ele>965.09</ele>
        <time>2021-10-27T13:29:58Z</time>
      </trkpt>
      <trkpt lat="44.09331" lon="6.85846">
        <ele>965.25</ele>
        <time>2021-10-27T13:30:02Z</time>
      </trkpt>
      <trkpt lat="44.09331" lon="6.85843">
        <ele>965.36</ele>
        <time>2021-10-27T13:30:08Z</time>
      </trkpt>
      <trkpt lat="44.09332" lon="6.85839">
        <ele>966.07</ele>
        <time>2021-10-27T13:30:13Z</time>
      </trkpt>
      <trkpt lat="44.09331" lon="6.85835">
        <ele>965.67</ele>
        <time>2021-10-27T13:30:16Z</time>
      </trkpt>
      <trkpt lat="44.0933" lon="6.85831">
        <ele>965.54</ele>
        <time>2021-10-27T13:30:20Z</time>
      </trkpt>
      <trkpt lat="44.0933" lon="6.85826">
        <ele>966.26</ele>
        <time>2021-10-27T13:30:23Z</time>
      </trkpt>
      <trkpt lat="44.09328" lon="6.85824">
        <ele>965.46</ele>
        <time>2021-10-27T13:30:28Z</time>
      </trkpt>
      <trkpt lat="44.09326" lon="6.85821">
        <ele>964.82</ele>
        <time>2021-10-27T13:30:34Z</time>
      </trkpt>
      <trkpt lat="44.09324" lon="6.85818">
        <ele>964.17</ele>
        <time>2021-10-27T13:30:49Z</time>
      </trkpt>
      <trkpt lat="44.09321" lon="6.85815">
        <ele>962.98</ele>
        <time>2021-10-27T13:30:53Z</time>
      </trkpt>
      <trkpt lat="44.09318" lon="6.85813">
        <ele>961.65</ele>
        <time>2021-10-27T13:30:58Z</time>
      </trkpt>
      <trkpt lat="44.09316" lon="6.8581">
        <ele>961</ele>
        <time>2021-10-27T13:31:03Z</time>
      </trkpt>
      <trkpt lat="44.09314" lon="6.85807">
        <ele>960.35</ele>
        <time>2021-10-27T13:31:07Z</time>
      </trkpt>
      <trkpt lat="44.09313" lon="6.85803">
        <ele>960.35</ele>
        <time>2021-10-27T13:31:14Z</time>
      </trkpt>
      <trkpt lat="44.09311" lon="6.858">
        <ele>959.62</ele>
        <time>2021-10-27T13:31:18Z</time>
      </trkpt>
      <trkpt lat="44.0931" lon="6.85796">
        <ele>959.54</ele>
        <time>2021-10-27T13:31:22Z</time>
      </trkpt>
      <trkpt lat="44.09309" lon="6.85792">
        <ele>959.45</ele>
        <time>2021-10-27T13:31:27Z</time>
      </trkpt>
      <trkpt lat="44.09309" lon="6.85788">
        <ele>959.91</ele>
        <time>2021-10-27T13:31:30Z</time>
      </trkpt>
      <trkpt lat="44.09309" lon="6.85783">
        <ele>960.5</ele>
        <time>2021-10-27T13:31:34Z</time>
      </trkpt>
      <trkpt lat="44.09307" lon="6.8578">
        <ele>959.64</ele>
        <time>2021-10-27T13:31:39Z</time>
      </trkpt>
      <trkpt lat="44.09307" lon="6.85776">
        <ele>960.01</ele>
        <time>2021-10-27T13:31:48Z</time>
      </trkpt>
      <trkpt lat="44.09306" lon="6.85772">
        <ele>959.68</ele>
        <time>2021-10-27T13:31:53Z</time>
      </trkpt>
      <trkpt lat="44.09305" lon="6.85768">
        <ele>959.4</ele>
        <time>2021-10-27T13:31:59Z</time>
      </trkpt>
      <trkpt lat="44.09304" lon="6.85765">
        <ele>959.08</ele>
        <time>2021-10-27T13:32:04Z</time>
      </trkpt>
      <trkpt lat="44.09302" lon="6.85762">
        <ele>958.22</ele>
        <time>2021-10-27T13:32:07Z</time>
      </trkpt>
      <trkpt lat="44.093" lon="6.85758">
        <ele>957.42</ele>
        <time>2021-10-27T13:32:11Z</time>
      </trkpt>
      <trkpt lat="44.09298" lon="6.85754">
        <ele>956.63</ele>
        <time>2021-10-27T13:32:16Z</time>
      </trkpt>
      <trkpt lat="44.09297" lon="6.8575">
        <ele>956.38</ele>
        <time>2021-10-27T13:32:19Z</time>
      </trkpt>
      <trkpt lat="44.09296" lon="6.85747">
        <ele>956.27</ele>
        <time>2021-10-27T13:32:24Z</time>
      </trkpt>
      <trkpt lat="44.09295" lon="6.85743">
        <ele>956.31</ele>
        <time>2021-10-27T13:32:29Z</time>
      </trkpt>
      <trkpt lat="44.09293" lon="6.8574">
        <ele>955.66</ele>
        <time>2021-10-27T13:32:33Z</time>
      </trkpt>
      <trkpt lat="44.09291" lon="6.85737">
        <ele>955.01</ele>
        <time>2021-10-27T13:32:39Z</time>
      </trkpt>
      <trkpt lat="44.09289" lon="6.85734">
        <ele>954.36</ele>
        <time>2021-10-27T13:32:44Z</time>
      </trkpt>
      <trkpt lat="44.09287" lon="6.85732">
        <ele>953.57</ele>
        <time>2021-10-27T13:32:49Z</time>
      </trkpt>
      <trkpt lat="44.09285" lon="6.85729">
        <ele>952.92</ele>
        <time>2021-10-27T13:32:54Z</time>
      </trkpt>
      <trkpt lat="44.09282" lon="6.85726">
        <ele>951.74</ele>
        <time>2021-10-27T13:33:01Z</time>
      </trkpt>
      <trkpt lat="44.09279" lon="6.85727">
        <ele>949.97</ele>
        <time>2021-10-27T13:33:07Z</time>
      </trkpt>
      <trkpt lat="44.09276" lon="6.85725">
        <ele>948.62</ele>
        <time>2021-10-27T13:33:14Z</time>
      </trkpt>
      <trkpt lat="44.09273" lon="6.85725">
        <ele>946.97</ele>
        <time>2021-10-27T13:33:18Z</time>
      </trkpt>
      <trkpt lat="44.09271" lon="6.85723">
        <ele>946.21</ele>
        <time>2021-10-27T13:33:22Z</time>
      </trkpt>
      <trkpt lat="44.09268" lon="6.85723">
        <ele>944.58</ele>
        <time>2021-10-27T13:33:25Z</time>
      </trkpt>
      <trkpt lat="44.09265" lon="6.85721">
        <ele>943.27</ele>
        <time>2021-10-27T13:33:32Z</time>
      </trkpt>
      <trkpt lat="44.09262" lon="6.85721">
        <ele>941.67</ele>
        <time>2021-10-27T13:33:39Z</time>
      </trkpt>
      <trkpt lat="44.0926" lon="6.8572">
        <ele>940.79</ele>
        <time>2021-10-27T13:33:42Z</time>
      </trkpt>
      <trkpt lat="44.09257" lon="6.8572">
        <ele>939.22</ele>
        <time>2021-10-27T13:33:49Z</time>
      </trkpt>
      <trkpt lat="44.09254" lon="6.8572">
        <ele>937.65</ele>
        <time>2021-10-27T13:33:54Z</time>
      </trkpt>
      <trkpt lat="44.09251" lon="6.85718">
        <ele>936.57</ele>
        <time>2021-10-27T13:33:59Z</time>
      </trkpt>
      <trkpt lat="44.09248" lon="6.85716">
        <ele>935.69</ele>
        <time>2021-10-27T13:34:04Z</time>
      </trkpt>
      <trkpt lat="44.09245" lon="6.85714">
        <ele>934.86</ele>
        <time>2021-10-27T13:34:09Z</time>
      </trkpt>
      <trkpt lat="44.09243" lon="6.85711">
        <ele>934.7</ele>
        <time>2021-10-27T13:34:15Z</time>
      </trkpt>
      <trkpt lat="44.0924" lon="6.85708">
        <ele>934.08</ele>
        <time>2021-10-27T13:34:19Z</time>
      </trkpt>
      <trkpt lat="44.09238" lon="6.85707">
        <ele>933.42</ele>
        <time>2021-10-27T13:34:24Z</time>
      </trkpt>
      <trkpt lat="44.09235" lon="6.85706">
        <ele>932.29</ele>
        <time>2021-10-27T13:34:31Z</time>
      </trkpt>
      <trkpt lat="44.09235" lon="6.85702">
        <ele>933.22</ele>
        <time>2021-10-27T13:34:35Z</time>
      </trkpt>
      <trkpt lat="44.09233" lon="6.85699">
        <ele>933</ele>
        <time>2021-10-27T13:34:40Z</time>
      </trkpt>
      <trkpt lat="44.0923" lon="6.85697">
        <ele>932.06</ele>
        <time>2021-10-27T13:34:49Z</time>
      </trkpt>
      <trkpt lat="44.09228" lon="6.85695">
        <ele>931.58</ele>
        <time>2021-10-27T13:34:57Z</time>
      </trkpt>
      <trkpt lat="44.09225" lon="6.85693">
        <ele>930.46</ele>
        <time>2021-10-27T13:35:05Z</time>
      </trkpt>
      <trkpt lat="44.09223" lon="6.85694">
        <ele>929.41</ele>
        <time>2021-10-27T13:35:10Z</time>
      </trkpt>
      <trkpt lat="44.09219" lon="6.85695">
        <ele>927.84</ele>
        <time>2021-10-27T13:35:14Z</time>
      </trkpt>
      <trkpt lat="44.09217" lon="6.85697">
        <ele>926.77</ele>
        <time>2021-10-27T13:35:17Z</time>
      </trkpt>
      <trkpt lat="44.09215" lon="6.85695">
        <ele>926.55</ele>
        <time>2021-10-27T13:35:22Z</time>
      </trkpt>
      <trkpt lat="44.09214" lon="6.85691">
        <ele>926.63</ele>
        <time>2021-10-27T13:35:30Z</time>
      </trkpt>
      <trkpt lat="44.09211" lon="6.85691">
        <ele>925.64</ele>
        <time>2021-10-27T13:35:39Z</time>
      </trkpt>
      <trkpt lat="44.09208" lon="6.85688">
        <ele>924.85</ele>
        <time>2021-10-27T13:35:43Z</time>
      </trkpt>
      <trkpt lat="44.09206" lon="6.85685">
        <ele>924.37</ele>
        <time>2021-10-27T13:35:49Z</time>
      </trkpt>
      <trkpt lat="44.09204" lon="6.85683">
        <ele>923.79</ele>
        <time>2021-10-27T13:35:55Z</time>
      </trkpt>
      <trkpt lat="44.09202" lon="6.85681">
        <ele>923.2</ele>
        <time>2021-10-27T13:36:36Z</time>
      </trkpt>
      <trkpt lat="44.092" lon="6.85678">
        <ele>922.63</ele>
        <time>2021-10-27T13:36:40Z</time>
      </trkpt>
      <trkpt lat="44.09198" lon="6.85674">
        <ele>922.08</ele>
        <time>2021-10-27T13:36:44Z</time>
      </trkpt>
      <trkpt lat="44.09195" lon="6.85672">
        <ele>921.02</ele>
        <time>2021-10-27T13:36:49Z</time>
      </trkpt>
      <trkpt lat="44.09194" lon="6.85668">
        <ele>920.76</ele>
        <time>2021-10-27T13:36:54Z</time>
      </trkpt>
      <trkpt lat="44.09192" lon="6.85665">
        <ele>919.82</ele>
        <time>2021-10-27T13:37:05Z</time>
      </trkpt>
      <trkpt lat="44.0919" lon="6.85662">
        <ele>918.72</ele>
        <time>2021-10-27T13:37:11Z</time>
      </trkpt>
      <trkpt lat="44.09191" lon="6.85658">
        <ele>918.85</ele>
        <time>2021-10-27T13:37:16Z</time>
      </trkpt>
      <trkpt lat="44.09191" lon="6.85653">
        <ele>918.47</ele>
        <time>2021-10-27T13:37:22Z</time>
      </trkpt>
      <trkpt lat="44.09191" lon="6.85649">
        <ele>918.16</ele>
        <time>2021-10-27T13:37:30Z</time>
      </trkpt>
      <trkpt lat="44.09193" lon="6.85646">
        <ele>918.85</ele>
        <time>2021-10-27T13:37:36Z</time>
      </trkpt>
      <trkpt lat="44.09195" lon="6.85643">
        <ele>919.57</ele>
        <time>2021-10-27T13:37:43Z</time>
      </trkpt>
      <trkpt lat="44.09197" lon="6.85638">
        <ele>920.1</ele>
        <time>2021-10-27T13:38:03Z</time>
      </trkpt>
      <trkpt lat="44.09199" lon="6.85635">
        <ele>920.5</ele>
        <time>2021-10-27T13:38:09Z</time>
      </trkpt>
      <trkpt lat="44.092" lon="6.85631">
        <ele>920.21</ele>
        <time>2021-10-27T13:38:15Z</time>
      </trkpt>
      <trkpt lat="44.09201" lon="6.85627">
        <ele>919.94</ele>
        <time>2021-10-27T13:38:32Z</time>
      </trkpt>
      <trkpt lat="44.09203" lon="6.85623">
        <ele>920.23</ele>
        <time>2021-10-27T13:38:37Z</time>
      </trkpt>
      <trkpt lat="44.09205" lon="6.8562">
        <ele>920.76</ele>
        <time>2021-10-27T13:38:42Z</time>
      </trkpt>
      <trkpt lat="44.09208" lon="6.85621">
        <ele>922.6</ele>
        <time>2021-10-27T13:38:46Z</time>
      </trkpt>
      <trkpt lat="44.09211" lon="6.8562">
        <ele>924.07</ele>
        <time>2021-10-27T13:38:51Z</time>
      </trkpt>
      <trkpt lat="44.09212" lon="6.85616">
        <ele>923.95</ele>
        <time>2021-10-27T13:38:57Z</time>
      </trkpt>
      <trkpt lat="44.09215" lon="6.85615">
        <ele>925.47</ele>
        <time>2021-10-27T13:39:01Z</time>
      </trkpt>
      <trkpt lat="44.09218" lon="6.85613">
        <ele>926.86</ele>
        <time>2021-10-27T13:39:07Z</time>
      </trkpt>
      <trkpt lat="44.0922" lon="6.8561">
        <ele>927.28</ele>
        <time>2021-10-27T13:39:19Z</time>
      </trkpt>
      <trkpt lat="44.09222" lon="6.85607">
        <ele>927.24</ele>
        <time>2021-10-27T13:39:23Z</time>
      </trkpt>
      <trkpt lat="44.09224" lon="6.85605">
        <ele>927.44</ele>
        <time>2021-10-27T13:39:32Z</time>
      </trkpt>
      <trkpt lat="44.09225" lon="6.85601">
        <ele>926.37</ele>
        <time>2021-10-27T13:39:37Z</time>
      </trkpt>
      <trkpt lat="44.09227" lon="6.85598">
        <ele>926.21</ele>
        <time>2021-10-27T13:39:44Z</time>
      </trkpt>
      <trkpt lat="44.0923" lon="6.85596">
        <ele>926.96</ele>
        <time>2021-10-27T13:39:49Z</time>
      </trkpt>
      <trkpt lat="44.09231" lon="6.85592">
        <ele>925.97</ele>
        <time>2021-10-27T13:39:54Z</time>
      </trkpt>
      <trkpt lat="44.09233" lon="6.85591">
        <ele>926.64</ele>
        <time>2021-10-27T13:40:10Z</time>
      </trkpt>
      <trkpt lat="44.09231" lon="6.85593">
        <ele>926.35</ele>
        <time>2021-10-27T13:41:14Z</time>
      </trkpt>
      <trkpt lat="44.09229" lon="6.8559">
        <ele>924.18</ele>
        <time>2021-10-27T13:41:30Z</time>
      </trkpt>
      <trkpt lat="44.09228" lon="6.85587">
        <ele>922.52</ele>
        <time>2021-10-27T13:42:58Z</time>
      </trkpt>
      <trkpt lat="44.09229" lon="6.8559">
        <ele>924.18</ele>
        <time>2021-10-27T13:43:25Z</time>
      </trkpt>
      <trkpt lat="44.09227" lon="6.85589">
        <ele>922.75</ele>
        <time>2021-10-27T13:44:14Z</time>
      </trkpt>
      <trkpt lat="44.09224" lon="6.85589">
        <ele>921.18</ele>
        <time>2021-10-27T13:44:23Z</time>
      </trkpt>
      <trkpt lat="44.09225" lon="6.85593">
        <ele>923.26</ele>
        <time>2021-10-27T13:44:31Z</time>
      </trkpt>
      <trkpt lat="44.09228" lon="6.85592">
        <ele>924.42</ele>
        <time>2021-10-27T13:45:32Z</time>
      </trkpt>
      <trkpt lat="44.09231" lon="6.85593">
        <ele>926.35</ele>
        <time>2021-10-27T13:46:45Z</time>
      </trkpt>
      <trkpt lat="44.09228" lon="6.85591">
        <ele>924.04</ele>
        <time>2021-10-27T13:46:58Z</time>
      </trkpt>
      <trkpt lat="44.09227" lon="6.85587">
        <ele>921.99</ele>
        <time>2021-10-27T13:47:41Z</time>
      </trkpt>
      <trkpt lat="44.09229" lon="6.85589">
        <ele>923.8</ele>
        <time>2021-10-27T13:48:16Z</time>
      </trkpt>
      <trkpt lat="44.0923" lon="6.85584">
        <ele>922.45</ele>
        <time>2021-10-27T13:49:04Z</time>
      </trkpt>
      <trkpt lat="44.09231" lon="6.85581">
        <ele>921.45</ele>
        <time>2021-10-27T13:49:11Z</time>
      </trkpt>
      <trkpt lat="44.09232" lon="6.85577">
        <ele>919.79</ele>
        <time>2021-10-27T13:49:15Z</time>
      </trkpt>
      <trkpt lat="44.09233" lon="6.85573">
        <ele>918.16</ele>
        <time>2021-10-27T13:49:19Z</time>
      </trkpt>
      <trkpt lat="44.09234" lon="6.85569">
        <ele>916.54</ele>
        <time>2021-10-27T13:49:23Z</time>
      </trkpt>
      <trkpt lat="44.09235" lon="6.85565">
        <ele>914.95</ele>
        <time>2021-10-27T13:49:32Z</time>
      </trkpt>
      <trkpt lat="44.09235" lon="6.85561">
        <ele>912.78</ele>
        <time>2021-10-27T13:49:36Z</time>
      </trkpt>
      <trkpt lat="44.09236" lon="6.85557">
        <ele>911.21</ele>
        <time>2021-10-27T13:49:39Z</time>
      </trkpt>
      <trkpt lat="44.09237" lon="6.85552">
        <ele>908.92</ele>
        <time>2021-10-27T13:49:43Z</time>
      </trkpt>
      <trkpt lat="44.09237" lon="6.85548">
        <ele>906.53</ele>
        <time>2021-10-27T13:49:46Z</time>
      </trkpt>
      <trkpt lat="44.09239" lon="6.85544">
        <ele>905.27</ele>
        <time>2021-10-27T13:49:51Z</time>
      </trkpt>
      <trkpt lat="44.09241" lon="6.85541">
        <ele>904.57</ele>
        <time>2021-10-27T13:49:57Z</time>
      </trkpt>
      <trkpt lat="44.09243" lon="6.85539">
        <ele>904.44</ele>
        <time>2021-10-27T13:50:02Z</time>
      </trkpt>
      <trkpt lat="44.09246" lon="6.85536">
        <ele>904.18</ele>
        <time>2021-10-27T13:50:06Z</time>
      </trkpt>
      <trkpt lat="44.09247" lon="6.85533">
        <ele>902.81</ele>
        <time>2021-10-27T13:50:09Z</time>
      </trkpt>
      <trkpt lat="44.09249" lon="6.8553">
        <ele>901.93</ele>
        <time>2021-10-27T13:50:13Z</time>
      </trkpt>
      <trkpt lat="44.09251" lon="6.85526">
        <ele>900.36</ele>
        <time>2021-10-27T13:50:18Z</time>
      </trkpt>
      <trkpt lat="44.09252" lon="6.85523">
        <ele>899.23</ele>
        <time>2021-10-27T13:50:22Z</time>
      </trkpt>
      <trkpt lat="44.09254" lon="6.85519">
        <ele>897.72</ele>
        <time>2021-10-27T13:50:26Z</time>
      </trkpt>
      <trkpt lat="44.09257" lon="6.85517">
        <ele>897.04</ele>
        <time>2021-10-27T13:50:29Z</time>
      </trkpt>
      <trkpt lat="44.0926" lon="6.85517">
        <ele>897.17</ele>
        <time>2021-10-27T13:50:32Z</time>
      </trkpt>
      <trkpt lat="44.09264" lon="6.85516">
        <ele>896.92</ele>
        <time>2021-10-27T13:50:36Z</time>
      </trkpt>
      <trkpt lat="44.09267" lon="6.85517">
        <ele>897.48</ele>
        <time>2021-10-27T13:50:39Z</time>
      </trkpt>
      <trkpt lat="44.0927" lon="6.85518">
        <ele>898.06</ele>
        <time>2021-10-27T13:50:43Z</time>
      </trkpt>
      <trkpt lat="44.09269" lon="6.85514">
        <ele>896.23</ele>
        <time>2021-10-27T13:50:47Z</time>
      </trkpt>
      <trkpt lat="44.09267" lon="6.85511">
        <ele>894.84</ele>
        <time>2021-10-27T13:50:50Z</time>
      </trkpt>
      <trkpt lat="44.09265" lon="6.85508">
        <ele>893.48</ele>
        <time>2021-10-27T13:50:55Z</time>
      </trkpt>
      <trkpt lat="44.09261" lon="6.85507">
        <ele>892.97</ele>
        <time>2021-10-27T13:50:58Z</time>
      </trkpt>
      <trkpt lat="44.09258" lon="6.85506">
        <ele>892.5</ele>
        <time>2021-10-27T13:51:01Z</time>
      </trkpt>
      <trkpt lat="44.09255" lon="6.85505">
        <ele>892.04</ele>
        <time>2021-10-27T13:51:05Z</time>
      </trkpt>
      <trkpt lat="44.09252" lon="6.85507">
        <ele>892.81</ele>
        <time>2021-10-27T13:51:08Z</time>
      </trkpt>
      <trkpt lat="44.0925" lon="6.85509">
        <ele>893.56</ele>
        <time>2021-10-27T13:51:12Z</time>
      </trkpt>
      <trkpt lat="44.09247" lon="6.85512">
        <ele>893.12</ele>
        <time>2021-10-27T13:51:16Z</time>
      </trkpt>
      <trkpt lat="44.09245" lon="6.85515">
        <ele>893.25</ele>
        <time>2021-10-27T13:51:19Z</time>
      </trkpt>
      <trkpt lat="44.09243" lon="6.8552">
        <ele>894.25</ele>
        <time>2021-10-27T13:51:22Z</time>
      </trkpt>
      <trkpt lat="44.09242" lon="6.85523">
        <ele>894.98</ele>
        <time>2021-10-27T13:51:25Z</time>
      </trkpt>
      <trkpt lat="44.09239" lon="6.85528">
        <ele>895.59</ele>
        <time>2021-10-27T13:51:28Z</time>
      </trkpt>
      <trkpt lat="44.09237" lon="6.85531">
        <ele>896.37</ele>
        <time>2021-10-27T13:51:32Z</time>
      </trkpt>
      <trkpt lat="44.09236" lon="6.85535">
        <ele>898.23</ele>
        <time>2021-10-27T13:51:36Z</time>
      </trkpt>
      <trkpt lat="44.09235" lon="6.85539">
        <ele>900.06</ele>
        <time>2021-10-27T13:51:39Z</time>
      </trkpt>
      <trkpt lat="44.09233" lon="6.85542">
        <ele>900.71</ele>
        <time>2021-10-27T13:51:42Z</time>
      </trkpt>
      <trkpt lat="44.0923" lon="6.85546">
        <ele>901.31</ele>
        <time>2021-10-27T13:51:45Z</time>
      </trkpt>
      <trkpt lat="44.09228" lon="6.8555">
        <ele>902.41</ele>
        <time>2021-10-27T13:51:49Z</time>
      </trkpt>
      <trkpt lat="44.09226" lon="6.85553">
        <ele>902.89</ele>
        <time>2021-10-27T13:51:52Z</time>
      </trkpt>
      <trkpt lat="44.09223" lon="6.85556">
        <ele>902.73</ele>
        <time>2021-10-27T13:51:55Z</time>
      </trkpt>
      <trkpt lat="44.09221" lon="6.85558">
        <ele>902.74</ele>
        <time>2021-10-27T13:51:59Z</time>
      </trkpt>
      <trkpt lat="44.09218" lon="6.85562">
        <ele>903.4</ele>
        <time>2021-10-27T13:52:04Z</time>
      </trkpt>
      <trkpt lat="44.09216" lon="6.85565">
        <ele>904</ele>
        <time>2021-10-27T13:52:07Z</time>
      </trkpt>
      <trkpt lat="44.09214" lon="6.85569">
        <ele>905.16</ele>
        <time>2021-10-27T13:52:11Z</time>
      </trkpt>
      <trkpt lat="44.09213" lon="6.85572">
        <ele>906.3</ele>
        <time>2021-10-27T13:52:14Z</time>
      </trkpt>
      <trkpt lat="44.0921" lon="6.85576">
        <ele>906.85</ele>
        <time>2021-10-27T13:52:16Z</time>
      </trkpt>
      <trkpt lat="44.09207" lon="6.85578">
        <ele>906.27</ele>
        <time>2021-10-27T13:52:19Z</time>
      </trkpt>
      <trkpt lat="44.09204" lon="6.85579">
        <ele>905.11</ele>
        <time>2021-10-27T13:52:23Z</time>
      </trkpt>
      <trkpt lat="44.09201" lon="6.85578">
        <ele>902.85</ele>
        <time>2021-10-27T13:52:32Z</time>
      </trkpt>
      <trkpt lat="44.09199" lon="6.85578">
        <ele>901.71</ele>
        <time>2021-10-27T13:52:35Z</time>
      </trkpt>
      <trkpt lat="44.09196" lon="6.85579">
        <ele>900.55</ele>
        <time>2021-10-27T13:52:40Z</time>
      </trkpt>
      <trkpt lat="44.09193" lon="6.8558">
        <ele>899.59</ele>
        <time>2021-10-27T13:52:45Z</time>
      </trkpt>
      <trkpt lat="44.0919" lon="6.85581">
        <ele>898.86</ele>
        <time>2021-10-27T13:52:48Z</time>
      </trkpt>
      <trkpt lat="44.09188" lon="6.8558">
        <ele>897.5</ele>
        <time>2021-10-27T13:52:59Z</time>
      </trkpt>
      <trkpt lat="44.09185" lon="6.85582">
        <ele>897.25</ele>
        <time>2021-10-27T13:53:05Z</time>
      </trkpt>
      <trkpt lat="44.09182" lon="6.85583">
        <ele>896.46</ele>
        <time>2021-10-27T13:53:10Z</time>
      </trkpt>
      <trkpt lat="44.0918" lon="6.85586">
        <ele>896.72</ele>
        <time>2021-10-27T13:53:19Z</time>
      </trkpt>
      <trkpt lat="44.09178" lon="6.8559">
        <ele>897.25</ele>
        <time>2021-10-27T13:53:22Z</time>
      </trkpt>
      <trkpt lat="44.09176" lon="6.85592">
        <ele>897.05</ele>
        <time>2021-10-27T13:53:26Z</time>
      </trkpt>
      <trkpt lat="44.09173" lon="6.85594">
        <ele>896.37</ele>
        <time>2021-10-27T13:53:30Z</time>
      </trkpt>
      <trkpt lat="44.0917" lon="6.85597">
        <ele>895.99</ele>
        <time>2021-10-27T13:53:33Z</time>
      </trkpt>
      <trkpt lat="44.09168" lon="6.85599">
        <ele>895.71</ele>
        <time>2021-10-27T13:53:35Z</time>
      </trkpt>
      <trkpt lat="44.09165" lon="6.85602">
        <ele>895.49</ele>
        <time>2021-10-27T13:53:38Z</time>
      </trkpt>
      <trkpt lat="44.09162" lon="6.85604">
        <ele>895.1</ele>
        <time>2021-10-27T13:53:41Z</time>
      </trkpt>
      <trkpt lat="44.09159" lon="6.85604">
        <ele>894.08</ele>
        <time>2021-10-27T13:53:43Z</time>
      </trkpt>
      <trkpt lat="44.09156" lon="6.85605">
        <ele>893.35</ele>
        <time>2021-10-27T13:53:46Z</time>
      </trkpt>
      <trkpt lat="44.09152" lon="6.85604">
        <ele>891.69</ele>
        <time>2021-10-27T13:53:48Z</time>
      </trkpt>
      <trkpt lat="44.0915" lon="6.85603">
        <ele>890.72</ele>
        <time>2021-10-27T13:53:51Z</time>
      </trkpt>
      <trkpt lat="44.09147" lon="6.85603">
        <ele>889.71</ele>
        <time>2021-10-27T13:53:53Z</time>
      </trkpt>
      <trkpt lat="44.09143" lon="6.85602">
        <ele>888.09</ele>
        <time>2021-10-27T13:53:56Z</time>
      </trkpt>
      <trkpt lat="44.0914" lon="6.85601">
        <ele>886.82</ele>
        <time>2021-10-27T13:53:58Z</time>
      </trkpt>
      <trkpt lat="44.09136" lon="6.856">
        <ele>885.04</ele>
        <time>2021-10-27T13:54:02Z</time>
      </trkpt>
      <trkpt lat="44.09133" lon="6.856">
        <ele>883.83</ele>
        <time>2021-10-27T13:54:06Z</time>
      </trkpt>
      <trkpt lat="44.0913" lon="6.85599">
        <ele>882.39</ele>
        <time>2021-10-27T13:54:10Z</time>
      </trkpt>
      <trkpt lat="44.09126" lon="6.85598">
        <ele>880.57</ele>
        <time>2021-10-27T13:54:13Z</time>
      </trkpt>
      <trkpt lat="44.09123" lon="6.85598">
        <ele>879.37</ele>
        <time>2021-10-27T13:54:17Z</time>
      </trkpt>
      <trkpt lat="44.0912" lon="6.85597">
        <ele>877.97</ele>
        <time>2021-10-27T13:54:20Z</time>
      </trkpt>
      <trkpt lat="44.09117" lon="6.85596">
        <ele>876.59</ele>
        <time>2021-10-27T13:54:23Z</time>
      </trkpt>
      <trkpt lat="44.09114" lon="6.85596">
        <ele>875.41</ele>
        <time>2021-10-27T13:54:27Z</time>
      </trkpt>
      <trkpt lat="44.0911" lon="6.85595">
        <ele>873.71</ele>
        <time>2021-10-27T13:54:31Z</time>
      </trkpt>
      <trkpt lat="44.09108" lon="6.85593">
        <ele>872.69</ele>
        <time>2021-10-27T13:54:35Z</time>
      </trkpt>
      <trkpt lat="44.09106" lon="6.85591">
        <ele>871.7</ele>
        <time>2021-10-27T13:54:39Z</time>
      </trkpt>
      <trkpt lat="44.09103" lon="6.85588">
        <ele>870.31</ele>
        <time>2021-10-27T13:54:43Z</time>
      </trkpt>
      <trkpt lat="44.091" lon="6.85589">
        <ele>869.49</ele>
        <time>2021-10-27T13:54:48Z</time>
      </trkpt>
      <trkpt lat="44.09102" lon="6.85585">
        <ele>869.6</ele>
        <time>2021-10-27T13:55:26Z</time>
      </trkpt>
      <trkpt lat="44.09102" lon="6.85581">
        <ele>869.09</ele>
        <time>2021-10-27T13:56:29Z</time>
      </trkpt>
      <trkpt lat="44.09105" lon="6.85578">
        <ele>869.49</ele>
        <time>2021-10-27T13:56:32Z</time>
      </trkpt>
      <trkpt lat="44.09107" lon="6.85575">
        <ele>869.54</ele>
        <time>2021-10-27T13:56:36Z</time>
      </trkpt>
      <trkpt lat="44.0911" lon="6.85575">
        <ele>870.24</ele>
        <time>2021-10-27T13:56:41Z</time>
      </trkpt>
      <trkpt lat="44.09113" lon="6.85575">
        <ele>871.12</ele>
        <time>2021-10-27T13:56:46Z</time>
      </trkpt>
      <trkpt lat="44.09116" lon="6.85575">
        <ele>872.1</ele>
        <time>2021-10-27T13:56:55Z</time>
      </trkpt>
      <trkpt lat="44.09119" lon="6.85577">
        <ele>873.51</ele>
        <time>2021-10-27T13:56:58Z</time>
      </trkpt>
      <trkpt lat="44.09123" lon="6.85577">
        <ele>874.85</ele>
        <time>2021-10-27T13:57:01Z</time>
      </trkpt>
      <trkpt lat="44.09126" lon="6.85578">
        <ele>876.09</ele>
        <time>2021-10-27T13:57:05Z</time>
      </trkpt>
      <trkpt lat="44.09128" lon="6.85579">
        <ele>877.02</ele>
        <time>2021-10-27T13:57:08Z</time>
      </trkpt>
      <trkpt lat="44.09131" lon="6.85581">
        <ele>878.56</ele>
        <time>2021-10-27T13:57:11Z</time>
      </trkpt>
      <trkpt lat="44.09134" lon="6.85583">
        <ele>880.15</ele>
        <time>2021-10-27T13:57:15Z</time>
      </trkpt>
      <trkpt lat="44.09137" lon="6.85585">
        <ele>881.73</ele>
        <time>2021-10-27T13:57:17Z</time>
      </trkpt>
      <trkpt lat="44.0914" lon="6.85587">
        <ele>883.25</ele>
        <time>2021-10-27T13:57:21Z</time>
      </trkpt>
      <trkpt lat="44.09143" lon="6.85586">
        <ele>883.88</ele>
        <time>2021-10-27T13:57:25Z</time>
      </trkpt>
      <trkpt lat="44.09146" lon="6.85585">
        <ele>884.5</ele>
        <time>2021-10-27T13:57:27Z</time>
      </trkpt>
      <trkpt lat="44.09149" lon="6.85584">
        <ele>885.1</ele>
        <time>2021-10-27T13:57:30Z</time>
      </trkpt>
      <trkpt lat="44.09153" lon="6.85582">
        <ele>885.58</ele>
        <time>2021-10-27T13:57:33Z</time>
      </trkpt>
      <trkpt lat="44.09155" lon="6.85581">
        <ele>885.77</ele>
        <time>2021-10-27T13:57:36Z</time>
      </trkpt>
      <trkpt lat="44.09158" lon="6.8558">
        <ele>886.21</ele>
        <time>2021-10-27T13:57:40Z</time>
      </trkpt>
      <trkpt lat="44.09161" lon="6.85578">
        <ele>886.22</ele>
        <time>2021-10-27T13:57:43Z</time>
      </trkpt>
      <trkpt lat="44.09164" lon="6.85576">
        <ele>886.17</ele>
        <time>2021-10-27T13:57:47Z</time>
      </trkpt>
      <trkpt lat="44.09166" lon="6.85572">
        <ele>884.95</ele>
        <time>2021-10-27T13:57:51Z</time>
      </trkpt>
      <trkpt lat="44.09168" lon="6.85569">
        <ele>884.31</ele>
        <time>2021-10-27T13:57:55Z</time>
      </trkpt>
      <trkpt lat="44.09171" lon="6.85568">
        <ele>884.99</ele>
        <time>2021-10-27T13:57:58Z</time>
      </trkpt>
      <trkpt lat="44.09174" lon="6.85565">
        <ele>884.73</ele>
        <time>2021-10-27T13:58:02Z</time>
      </trkpt>
      <trkpt lat="44.09177" lon="6.85563">
        <ele>884.86</ele>
        <time>2021-10-27T13:58:05Z</time>
      </trkpt>
      <trkpt lat="44.09179" lon="6.85559">
        <ele>883.65</ele>
        <time>2021-10-27T13:58:08Z</time>
      </trkpt>
      <trkpt lat="44.09181" lon="6.85556">
        <ele>882.86</ele>
        <time>2021-10-27T13:58:11Z</time>
      </trkpt>
      <trkpt lat="44.09183" lon="6.85552">
        <ele>881.58</ele>
        <time>2021-10-27T13:58:15Z</time>
      </trkpt>
      <trkpt lat="44.09185" lon="6.85548">
        <ele>880.31</ele>
        <time>2021-10-27T13:58:17Z</time>
      </trkpt>
      <trkpt lat="44.09187" lon="6.85547">
        <ele>880.5</ele>
        <time>2021-10-27T13:58:20Z</time>
      </trkpt>
      <trkpt lat="44.0919" lon="6.85545">
        <ele>880.56</ele>
        <time>2021-10-27T13:58:23Z</time>
      </trkpt>
      <trkpt lat="44.09192" lon="6.85542">
        <ele>879.82</ele>
        <time>2021-10-27T13:58:26Z</time>
      </trkpt>
      <trkpt lat="44.09195" lon="6.85539">
        <ele>879.53</ele>
        <time>2021-10-27T13:58:30Z</time>
      </trkpt>
      <trkpt lat="44.09196" lon="6.85535">
        <ele>878.14</ele>
        <time>2021-10-27T13:58:35Z</time>
      </trkpt>
      <trkpt lat="44.09198" lon="6.85531">
        <ele>877.2</ele>
        <time>2021-10-27T13:58:38Z</time>
      </trkpt>
      <trkpt lat="44.092" lon="6.85529">
        <ele>877.19</ele>
        <time>2021-10-27T13:58:41Z</time>
      </trkpt>
      <trkpt lat="44.09201" lon="6.85525">
        <ele>875.69</ele>
        <time>2021-10-27T13:58:45Z</time>
      </trkpt>
      <trkpt lat="44.09202" lon="6.8552">
        <ele>873.69</ele>
        <time>2021-10-27T13:58:47Z</time>
      </trkpt>
      <trkpt lat="44.09204" lon="6.85517">
        <ele>873.17</ele>
        <time>2021-10-27T13:58:50Z</time>
      </trkpt>
      <trkpt lat="44.09206" lon="6.85514">
        <ele>872.67</ele>
        <time>2021-10-27T13:58:55Z</time>
      </trkpt>
      <trkpt lat="44.09208" lon="6.85511">
        <ele>872.18</ele>
        <time>2021-10-27T13:58:58Z</time>
      </trkpt>
      <trkpt lat="44.0921" lon="6.85508">
        <ele>871.71</ele>
        <time>2021-10-27T13:59:01Z</time>
      </trkpt>
      <trkpt lat="44.09212" lon="6.85505">
        <ele>871.25</ele>
        <time>2021-10-27T13:59:05Z</time>
      </trkpt>
      <trkpt lat="44.09214" lon="6.85501">
        <ele>870.33</ele>
        <time>2021-10-27T13:59:07Z</time>
      </trkpt>
      <trkpt lat="44.09215" lon="6.85498">
        <ele>869.55</ele>
        <time>2021-10-27T13:59:10Z</time>
      </trkpt>
      <trkpt lat="44.09217" lon="6.85495">
        <ele>869.31</ele>
        <time>2021-10-27T13:59:13Z</time>
      </trkpt>
      <trkpt lat="44.09219" lon="6.85491">
        <ele>868.6</ele>
        <time>2021-10-27T13:59:16Z</time>
      </trkpt>
      <trkpt lat="44.09221" lon="6.85489">
        <ele>868.68</ele>
        <time>2021-10-27T13:59:20Z</time>
      </trkpt>
      <trkpt lat="44.09224" lon="6.85486">
        <ele>868.94</ele>
        <time>2021-10-27T13:59:23Z</time>
      </trkpt>
      <trkpt lat="44.09227" lon="6.85483">
        <ele>869.3</ele>
        <time>2021-10-27T13:59:26Z</time>
      </trkpt>
      <trkpt lat="44.0923" lon="6.85481">
        <ele>870.08</ele>
        <time>2021-10-27T13:59:31Z</time>
      </trkpt>
      <trkpt lat="44.09232" lon="6.85479">
        <ele>870.29</ele>
        <time>2021-10-27T13:59:34Z</time>
      </trkpt>
      <trkpt lat="44.09235" lon="6.85476">
        <ele>870.59</ele>
        <time>2021-10-27T13:59:37Z</time>
      </trkpt>
      <trkpt lat="44.09238" lon="6.85473">
        <ele>870.87</ele>
        <time>2021-10-27T13:59:40Z</time>
      </trkpt>
      <trkpt lat="44.0924" lon="6.8547">
        <ele>870.04</ele>
        <time>2021-10-27T13:59:44Z</time>
      </trkpt>
      <trkpt lat="44.09242" lon="6.85466">
        <ele>868.2</ele>
        <time>2021-10-27T13:59:47Z</time>
      </trkpt>
      <trkpt lat="44.09244" lon="6.85463">
        <ele>866.96</ele>
        <time>2021-10-27T13:59:50Z</time>
      </trkpt>
      <trkpt lat="44.09247" lon="6.8546">
        <ele>866.03</ele>
        <time>2021-10-27T13:59:55Z</time>
      </trkpt>
      <trkpt lat="44.0925" lon="6.8546">
        <ele>867.32</ele>
        <time>2021-10-27T13:59:57Z</time>
      </trkpt>
      <trkpt lat="44.09254" lon="6.85459">
        <ele>867.43</ele>
        <time>2021-10-27T14:00:01Z</time>
      </trkpt>
      <trkpt lat="44.09257" lon="6.85458">
        <ele>867.4</ele>
        <time>2021-10-27T14:00:04Z</time>
      </trkpt>
      <trkpt lat="44.09259" lon="6.85454">
        <ele>865.13</ele>
        <time>2021-10-27T14:00:10Z</time>
      </trkpt>
      <trkpt lat="44.09257" lon="6.85451">
        <ele>862.43</ele>
        <time>2021-10-27T14:00:15Z</time>
      </trkpt>
      <trkpt lat="44.09254" lon="6.85449">
        <ele>859.98</ele>
        <time>2021-10-27T14:00:19Z</time>
      </trkpt>
      <trkpt lat="44.09251" lon="6.85449">
        <ele>858.95</ele>
        <time>2021-10-27T14:00:22Z</time>
      </trkpt>
      <trkpt lat="44.09249" lon="6.85451">
        <ele>859.84</ele>
        <time>2021-10-27T14:00:25Z</time>
      </trkpt>
      <trkpt lat="44.09247" lon="6.85454">
        <ele>861.44</ele>
        <time>2021-10-27T14:00:28Z</time>
      </trkpt>
      <trkpt lat="44.09245" lon="6.85456">
        <ele>862.19</ele>
        <time>2021-10-27T14:00:31Z</time>
      </trkpt>
      <trkpt lat="44.09242" lon="6.8546">
        <ele>863.89</ele>
        <time>2021-10-27T14:00:35Z</time>
      </trkpt>
      <trkpt lat="44.0924" lon="6.85463">
        <ele>865.13</ele>
        <time>2021-10-27T14:00:38Z</time>
      </trkpt>
      <trkpt lat="44.09238" lon="6.85466">
        <ele>866.27</ele>
        <time>2021-10-27T14:00:42Z</time>
      </trkpt>
      <trkpt lat="44.09235" lon="6.85468">
        <ele>866.13</ele>
        <time>2021-10-27T14:00:46Z</time>
      </trkpt>
      <trkpt lat="44.09233" lon="6.8547">
        <ele>866.4</ele>
        <time>2021-10-27T14:00:49Z</time>
      </trkpt>
      <trkpt lat="44.0923" lon="6.85474">
        <ele>866.99</ele>
        <time>2021-10-27T14:00:53Z</time>
      </trkpt>
      <trkpt lat="44.09228" lon="6.85476">
        <ele>866.78</ele>
        <time>2021-10-27T14:00:57Z</time>
      </trkpt>
      <trkpt lat="44.09226" lon="6.85479">
        <ele>867</ele>
        <time>2021-10-27T14:01:00Z</time>
      </trkpt>
      <trkpt lat="44.09227" lon="6.85484">
        <ele>869.74</ele>
        <time>2021-10-27T14:01:05Z</time>
      </trkpt>
      <trkpt lat="44.09225" lon="6.85487">
        <ele>869.94</ele>
        <time>2021-10-27T14:01:10Z</time>
      </trkpt>
      <trkpt lat="44.09222" lon="6.85491">
        <ele>870.01</ele>
        <time>2021-10-27T14:01:14Z</time>
      </trkpt>
      <trkpt lat="44.0922" lon="6.85494">
        <ele>870.34</ele>
        <time>2021-10-27T14:01:17Z</time>
      </trkpt>
      <trkpt lat="44.09217" lon="6.85495">
        <ele>869.31</ele>
        <time>2021-10-27T14:01:20Z</time>
      </trkpt>
      <trkpt lat="44.09213" lon="6.85496">
        <ele>867.77</ele>
        <time>2021-10-27T14:01:23Z</time>
      </trkpt>
      <trkpt lat="44.0921" lon="6.85496">
        <ele>866.3</ele>
        <time>2021-10-27T14:01:26Z</time>
      </trkpt>
      <trkpt lat="44.09207" lon="6.85498">
        <ele>865.58</ele>
        <time>2021-10-27T14:01:31Z</time>
      </trkpt>
      <trkpt lat="44.09204" lon="6.855">
        <ele>864.82</ele>
        <time>2021-10-27T14:01:33Z</time>
      </trkpt>
      <trkpt lat="44.09202" lon="6.85503">
        <ele>865.29</ele>
        <time>2021-10-27T14:01:37Z</time>
      </trkpt>
      <trkpt lat="44.092" lon="6.85507">
        <ele>866.28</ele>
        <time>2021-10-27T14:01:40Z</time>
      </trkpt>
      <trkpt lat="44.09197" lon="6.8551">
        <ele>866.29</ele>
        <time>2021-10-27T14:01:44Z</time>
      </trkpt>
      <trkpt lat="44.09195" lon="6.85513">
        <ele>866.82</ele>
        <time>2021-10-27T14:01:47Z</time>
      </trkpt>
      <trkpt lat="44.09193" lon="6.85517">
        <ele>868.05</ele>
        <time>2021-10-27T14:01:50Z</time>
      </trkpt>
      <trkpt lat="44.09191" lon="6.8552">
        <ele>868.84</ele>
        <time>2021-10-27T14:01:57Z</time>
      </trkpt>
      <trkpt lat="44.0919" lon="6.85523">
        <ele>869.99</ele>
        <time>2021-10-27T14:02:00Z</time>
      </trkpt>
      <trkpt lat="44.09187" lon="6.85526">
        <ele>870.42</ele>
        <time>2021-10-27T14:02:06Z</time>
      </trkpt>
      <trkpt lat="44.09184" lon="6.85528">
        <ele>870.35</ele>
        <time>2021-10-27T14:02:08Z</time>
      </trkpt>
      <trkpt lat="44.09181" lon="6.8553">
        <ele>870.24</ele>
        <time>2021-10-27T14:02:11Z</time>
      </trkpt>
      <trkpt lat="44.09178" lon="6.85533">
        <ele>870.64</ele>
        <time>2021-10-27T14:02:14Z</time>
      </trkpt>
      <trkpt lat="44.09175" lon="6.85534">
        <ele>870.07</ele>
        <time>2021-10-27T14:02:17Z</time>
      </trkpt>
      <trkpt lat="44.09172" lon="6.85535">
        <ele>869.51</ele>
        <time>2021-10-27T14:02:21Z</time>
      </trkpt>
      <trkpt lat="44.09169" lon="6.85536">
        <ele>868.96</ele>
        <time>2021-10-27T14:02:23Z</time>
      </trkpt>
      <trkpt lat="44.09166" lon="6.85537">
        <ele>868.62</ele>
        <time>2021-10-27T14:02:27Z</time>
      </trkpt>
      <trkpt lat="44.09162" lon="6.85538">
        <ele>868.9</ele>
        <time>2021-10-27T14:02:31Z</time>
      </trkpt>
      <trkpt lat="44.09159" lon="6.85539">
        <ele>869.21</ele>
        <time>2021-10-27T14:02:33Z</time>
      </trkpt>
      <trkpt lat="44.09157" lon="6.85542">
        <ele>870.46</ele>
        <time>2021-10-27T14:02:37Z</time>
      </trkpt>
      <trkpt lat="44.09155" lon="6.85544">
        <ele>871.19</ele>
        <time>2021-10-27T14:02:42Z</time>
      </trkpt>
      <trkpt lat="44.09152" lon="6.85546">
        <ele>871.8</ele>
        <time>2021-10-27T14:02:47Z</time>
      </trkpt>
      <trkpt lat="44.0915" lon="6.85548">
        <ele>872.44</ele>
        <time>2021-10-27T14:02:51Z</time>
      </trkpt>
      <trkpt lat="44.09146" lon="6.85549">
        <ele>872.42</ele>
        <time>2021-10-27T14:02:53Z</time>
      </trkpt>
      <trkpt lat="44.09143" lon="6.85548">
        <ele>871.71</ele>
        <time>2021-10-27T14:02:56Z</time>
      </trkpt>
      <trkpt lat="44.09141" lon="6.85546">
        <ele>870.76</ele>
        <time>2021-10-27T14:03:24Z</time>
      </trkpt>
      <trkpt lat="44.09138" lon="6.85544">
        <ele>869.67</ele>
        <time>2021-10-27T14:03:28Z</time>
      </trkpt>
      <trkpt lat="44.09135" lon="6.85543">
        <ele>868.75</ele>
        <time>2021-10-27T14:03:32Z</time>
      </trkpt>
      <trkpt lat="44.09132" lon="6.85543">
        <ele>868.19</ele>
        <time>2021-10-27T14:03:36Z</time>
      </trkpt>
      <trkpt lat="44.09129" lon="6.85542">
        <ele>867.32</ele>
        <time>2021-10-27T14:03:38Z</time>
      </trkpt>
      <trkpt lat="44.09127" lon="6.8554">
        <ele>866.36</ele>
        <time>2021-10-27T14:03:43Z</time>
      </trkpt>
      <trkpt lat="44.09123" lon="6.85537">
        <ele>864.84</ele>
        <time>2021-10-27T14:03:48Z</time>
      </trkpt>
      <trkpt lat="44.09122" lon="6.85533">
        <ele>863.6</ele>
        <time>2021-10-27T14:03:52Z</time>
      </trkpt>
      <trkpt lat="44.09122" lon="6.85528">
        <ele>862.24</ele>
        <time>2021-10-27T14:03:55Z</time>
      </trkpt>
      <trkpt lat="44.09123" lon="6.85524">
        <ele>860.94</ele>
        <time>2021-10-27T14:03:58Z</time>
      </trkpt>
      <trkpt lat="44.09127" lon="6.85524">
        <ele>861.34</ele>
        <time>2021-10-27T14:04:03Z</time>
      </trkpt>
      <trkpt lat="44.0913" lon="6.85526">
        <ele>862.38</ele>
        <time>2021-10-27T14:04:06Z</time>
      </trkpt>
      <trkpt lat="44.09133" lon="6.85527">
        <ele>863.07</ele>
        <time>2021-10-27T14:04:09Z</time>
      </trkpt>
      <trkpt lat="44.09135" lon="6.85529">
        <ele>864</ele>
        <time>2021-10-27T14:04:12Z</time>
      </trkpt>
      <trkpt lat="44.09138" lon="6.85531">
        <ele>865.05</ele>
        <time>2021-10-27T14:04:16Z</time>
      </trkpt>
      <trkpt lat="44.09141" lon="6.85533">
        <ele>865.94</ele>
        <time>2021-10-27T14:04:20Z</time>
      </trkpt>
      <trkpt lat="44.09144" lon="6.85532">
        <ele>865.63</ele>
        <time>2021-10-27T14:04:23Z</time>
      </trkpt>
      <trkpt lat="44.09147" lon="6.85533">
        <ele>866.1</ele>
        <time>2021-10-27T14:04:27Z</time>
      </trkpt>
      <trkpt lat="44.0915" lon="6.85534">
        <ele>866.6</ele>
        <time>2021-10-27T14:04:30Z</time>
      </trkpt>
      <trkpt lat="44.09153" lon="6.85532">
        <ele>865.83</ele>
        <time>2021-10-27T14:04:34Z</time>
      </trkpt>
      <trkpt lat="44.09156" lon="6.85529">
        <ele>864.55</ele>
        <time>2021-10-27T14:04:38Z</time>
      </trkpt>
      <trkpt lat="44.09158" lon="6.85527">
        <ele>863.63</ele>
        <time>2021-10-27T14:04:42Z</time>
      </trkpt>
      <trkpt lat="44.0916" lon="6.85523">
        <ele>861.72</ele>
        <time>2021-10-27T14:04:46Z</time>
      </trkpt>
      <trkpt lat="44.09163" lon="6.85521">
        <ele>860.68</ele>
        <time>2021-10-27T14:04:49Z</time>
      </trkpt>
      <trkpt lat="44.09165" lon="6.85519">
        <ele>859.63</ele>
        <time>2021-10-27T14:04:52Z</time>
      </trkpt>
      <trkpt lat="44.09168" lon="6.85516">
        <ele>858.54</ele>
        <time>2021-10-27T14:04:55Z</time>
      </trkpt>
      <trkpt lat="44.0917" lon="6.85513">
        <ele>857.75</ele>
        <time>2021-10-27T14:04:57Z</time>
      </trkpt>
      <trkpt lat="44.09172" lon="6.8551">
        <ele>856.96</ele>
        <time>2021-10-27T14:04:59Z</time>
      </trkpt>
      <trkpt lat="44.09174" lon="6.85507">
        <ele>856.17</ele>
        <time>2021-10-27T14:05:04Z</time>
      </trkpt>
      <trkpt lat="44.09175" lon="6.85503">
        <ele>854.51</ele>
        <time>2021-10-27T14:05:09Z</time>
      </trkpt>
      <trkpt lat="44.09175" lon="6.85497">
        <ele>851.8</ele>
        <time>2021-10-27T14:05:13Z</time>
      </trkpt>
      <trkpt lat="44.09176" lon="6.85493">
        <ele>850.59</ele>
        <time>2021-10-27T14:05:16Z</time>
      </trkpt>
      <trkpt lat="44.09179" lon="6.8549">
        <ele>850.6</ele>
        <time>2021-10-27T14:05:20Z</time>
      </trkpt>
      <trkpt lat="44.09181" lon="6.85486">
        <ele>849.89</ele>
        <time>2021-10-27T14:05:24Z</time>
      </trkpt>
      <trkpt lat="44.09182" lon="6.85483">
        <ele>849.19</ele>
        <time>2021-10-27T14:05:27Z</time>
      </trkpt>
      <trkpt lat="44.09184" lon="6.8548">
        <ele>848.95</ele>
        <time>2021-10-27T14:05:30Z</time>
      </trkpt>
      <trkpt lat="44.09187" lon="6.85477">
        <ele>849.2</ele>
        <time>2021-10-27T14:05:33Z</time>
      </trkpt>
      <trkpt lat="44.09189" lon="6.85475">
        <ele>849.41</ele>
        <time>2021-10-27T14:05:35Z</time>
      </trkpt>
      <trkpt lat="44.09192" lon="6.85472">
        <ele>849.75</ele>
        <time>2021-10-27T14:05:38Z</time>
      </trkpt>
      <trkpt lat="44.09195" lon="6.85469">
        <ele>849.71</ele>
        <time>2021-10-27T14:05:41Z</time>
      </trkpt>
      <trkpt lat="44.09198" lon="6.85467">
        <ele>849.92</ele>
        <time>2021-10-27T14:05:44Z</time>
      </trkpt>
      <trkpt lat="44.09199" lon="6.85463">
        <ele>848.38</ele>
        <time>2021-10-27T14:05:47Z</time>
      </trkpt>
      <trkpt lat="44.09202" lon="6.8546">
        <ele>848.03</ele>
        <time>2021-10-27T14:05:50Z</time>
      </trkpt>
      <trkpt lat="44.09204" lon="6.85458">
        <ele>847.78</ele>
        <time>2021-10-27T14:05:53Z</time>
      </trkpt>
      <trkpt lat="44.09206" lon="6.85454">
        <ele>846.5</ele>
        <time>2021-10-27T14:05:57Z</time>
      </trkpt>
      <trkpt lat="44.09208" lon="6.85451">
        <ele>845.69</ele>
        <time>2021-10-27T14:06:00Z</time>
      </trkpt>
      <trkpt lat="44.0921" lon="6.85448">
        <ele>844.85</ele>
        <time>2021-10-27T14:06:03Z</time>
      </trkpt>
      <trkpt lat="44.09213" lon="6.85445">
        <ele>844.3</ele>
        <time>2021-10-27T14:06:07Z</time>
      </trkpt>
      <trkpt lat="44.09215" lon="6.85442">
        <ele>843.69</ele>
        <time>2021-10-27T14:06:11Z</time>
      </trkpt>
      <trkpt lat="44.09216" lon="6.85438">
        <ele>842.43</ele>
        <time>2021-10-27T14:06:14Z</time>
      </trkpt>
      <trkpt lat="44.09217" lon="6.85434">
        <ele>841.17</ele>
        <time>2021-10-27T14:06:17Z</time>
      </trkpt>
      <trkpt lat="44.09217" lon="6.85429">
        <ele>839.19</ele>
        <time>2021-10-27T14:06:22Z</time>
      </trkpt>
      <trkpt lat="44.09218" lon="6.85425">
        <ele>837.93</ele>
        <time>2021-10-27T14:06:25Z</time>
      </trkpt>
      <trkpt lat="44.09221" lon="6.85424">
        <ele>838.51</ele>
        <time>2021-10-27T14:06:27Z</time>
      </trkpt>
      <trkpt lat="44.09224" lon="6.85421">
        <ele>838.01</ele>
        <time>2021-10-27T14:06:29Z</time>
      </trkpt>
      <trkpt lat="44.09226" lon="6.85418">
        <ele>837.1</ele>
        <time>2021-10-27T14:06:31Z</time>
      </trkpt>
      <trkpt lat="44.09229" lon="6.85417">
        <ele>837.12</ele>
        <time>2021-10-27T14:06:34Z</time>
      </trkpt>
      <trkpt lat="44.09232" lon="6.85417">
        <ele>837.56</ele>
        <time>2021-10-27T14:06:37Z</time>
      </trkpt>
      <trkpt lat="44.09235" lon="6.85417">
        <ele>837.99</ele>
        <time>2021-10-27T14:06:39Z</time>
      </trkpt>
      <trkpt lat="44.09238" lon="6.85415">
        <ele>837.38</ele>
        <time>2021-10-27T14:06:43Z</time>
      </trkpt>
      <trkpt lat="44.09241" lon="6.85413">
        <ele>836.77</ele>
        <time>2021-10-27T14:06:46Z</time>
      </trkpt>
      <trkpt lat="44.09245" lon="6.8541">
        <ele>835.83</ele>
        <time>2021-10-27T14:06:49Z</time>
      </trkpt>
      <trkpt lat="44.09247" lon="6.85408">
        <ele>835.13</ele>
        <time>2021-10-27T14:06:52Z</time>
      </trkpt>
      <trkpt lat="44.0925" lon="6.85406">
        <ele>834.62</ele>
        <time>2021-10-27T14:06:56Z</time>
      </trkpt>
      <trkpt lat="44.09253" lon="6.85404">
        <ele>834.59</ele>
        <time>2021-10-27T14:07:00Z</time>
      </trkpt>
      <trkpt lat="44.09256" lon="6.85402">
        <ele>834.55</ele>
        <time>2021-10-27T14:07:04Z</time>
      </trkpt>
      <trkpt lat="44.0926" lon="6.85402">
        <ele>835.85</ele>
        <time>2021-10-27T14:07:09Z</time>
      </trkpt>
      <trkpt lat="44.09263" lon="6.85401">
        <ele>836.32</ele>
        <time>2021-10-27T14:07:13Z</time>
      </trkpt>
      <trkpt lat="44.09265" lon="6.85404">
        <ele>838.48</ele>
        <time>2021-10-27T14:07:32Z</time>
      </trkpt>
      <trkpt lat="44.09268" lon="6.85402">
        <ele>838.44</ele>
        <time>2021-10-27T14:07:35Z</time>
      </trkpt>
      <trkpt lat="44.09272" lon="6.854">
        <ele>838.73</ele>
        <time>2021-10-27T14:07:39Z</time>
      </trkpt>
      <trkpt lat="44.09274" lon="6.85399">
        <ele>838.87</ele>
        <time>2021-10-27T14:07:42Z</time>
      </trkpt>
      <trkpt lat="44.09272" lon="6.85396">
        <ele>836.71</ele>
        <time>2021-10-27T14:07:46Z</time>
      </trkpt>
      <trkpt lat="44.09269" lon="6.85397">
        <ele>836.24</ele>
        <time>2021-10-27T14:07:48Z</time>
      </trkpt>
      <trkpt lat="44.09266" lon="6.85398">
        <ele>835.78</ele>
        <time>2021-10-27T14:07:51Z</time>
      </trkpt>
      <trkpt lat="44.09262" lon="6.85399">
        <ele>834.98</ele>
        <time>2021-10-27T14:07:53Z</time>
      </trkpt>
      <trkpt lat="44.09258" lon="6.85399">
        <ele>833.69</ele>
        <time>2021-10-27T14:07:56Z</time>
      </trkpt>
      <trkpt lat="44.09256" lon="6.85399">
        <ele>833.04</ele>
        <time>2021-10-27T14:07:58Z</time>
      </trkpt>
      <trkpt lat="44.09252" lon="6.854">
        <ele>832.25</ele>
        <time>2021-10-27T14:08:01Z</time>
      </trkpt>
      <trkpt lat="44.09249" lon="6.85401">
        <ele>831.92</ele>
        <time>2021-10-27T14:08:05Z</time>
      </trkpt>
      <trkpt lat="44.09246" lon="6.85403">
        <ele>832.39</ele>
        <time>2021-10-27T14:08:07Z</time>
      </trkpt>
      <trkpt lat="44.09243" lon="6.85404">
        <ele>832.38</ele>
        <time>2021-10-27T14:08:10Z</time>
      </trkpt>
      <trkpt lat="44.09239" lon="6.85405">
        <ele>832.2</ele>
        <time>2021-10-27T14:08:13Z</time>
      </trkpt>
      <trkpt lat="44.09236" lon="6.85406">
        <ele>832.22</ele>
        <time>2021-10-27T14:08:15Z</time>
      </trkpt>
      <trkpt lat="44.09234" lon="6.85407">
        <ele>832.42</ele>
        <time>2021-10-27T14:08:18Z</time>
      </trkpt>
      <trkpt lat="44.09231" lon="6.8541">
        <ele>833.58</ele>
        <time>2021-10-27T14:08:23Z</time>
      </trkpt>
      <trkpt lat="44.09229" lon="6.85413">
        <ele>834.93</ele>
        <time>2021-10-27T14:08:28Z</time>
      </trkpt>
      <trkpt lat="44.09226" lon="6.85415">
        <ele>835.6</ele>
        <time>2021-10-27T14:08:31Z</time>
      </trkpt>
      <trkpt lat="44.09224" lon="6.85418">
        <ele>836.8</ele>
        <time>2021-10-27T14:08:34Z</time>
      </trkpt>
      <trkpt lat="44.09221" lon="6.8542">
        <ele>836.92</ele>
        <time>2021-10-27T14:08:38Z</time>
      </trkpt>
      <trkpt lat="44.09218" lon="6.85423">
        <ele>837.14</ele>
        <time>2021-10-27T14:08:41Z</time>
      </trkpt>
      <trkpt lat="44.09215" lon="6.85423">
        <ele>836.17</ele>
        <time>2021-10-27T14:08:44Z</time>
      </trkpt>
      <trkpt lat="44.09214" lon="6.85427">
        <ele>837.43</ele>
        <time>2021-10-27T14:08:51Z</time>
      </trkpt>
      <trkpt lat="44.09216" lon="6.8543">
        <ele>839.26</ele>
        <time>2021-10-27T14:08:55Z</time>
      </trkpt>
      <trkpt lat="44.09213" lon="6.85433">
        <ele>839.48</ele>
        <time>2021-10-27T14:09:07Z</time>
      </trkpt>
      <trkpt lat="44.09211" lon="6.85435">
        <ele>839.62</ele>
        <time>2021-10-27T14:09:09Z</time>
      </trkpt>
      <trkpt lat="44.09209" lon="6.85438">
        <ele>840.16</ele>
        <time>2021-10-27T14:09:12Z</time>
      </trkpt>
      <trkpt lat="44.09206" lon="6.8544">
        <ele>839.98</ele>
        <time>2021-10-27T14:09:17Z</time>
      </trkpt>
      <trkpt lat="44.09203" lon="6.85439">
        <ele>838.62</ele>
        <time>2021-10-27T14:09:20Z</time>
      </trkpt>
      <trkpt lat="44.09202" lon="6.85436">
        <ele>837.1</ele>
        <time>2021-10-27T14:09:31Z</time>
      </trkpt>
      <trkpt lat="44.09199" lon="6.85437">
        <ele>836.53</ele>
        <time>2021-10-27T14:09:44Z</time>
      </trkpt>
      <trkpt lat="44.09196" lon="6.85437">
        <ele>835.56</ele>
        <time>2021-10-27T14:09:47Z</time>
      </trkpt>
      <trkpt lat="44.09193" lon="6.85438">
        <ele>834.99</ele>
        <time>2021-10-27T14:09:50Z</time>
      </trkpt>
      <trkpt lat="44.0919" lon="6.85441">
        <ele>835.22</ele>
        <time>2021-10-27T14:09:53Z</time>
      </trkpt>
      <trkpt lat="44.09187" lon="6.85444">
        <ele>835.42</ele>
        <time>2021-10-27T14:09:57Z</time>
      </trkpt>
      <trkpt lat="44.09184" lon="6.85447">
        <ele>835.67</ele>
        <time>2021-10-27T14:09:59Z</time>
      </trkpt>
      <trkpt lat="44.09182" lon="6.8545">
        <ele>836.21</ele>
        <time>2021-10-27T14:10:02Z</time>
      </trkpt>
      <trkpt lat="44.09179" lon="6.85452">
        <ele>835.93</ele>
        <time>2021-10-27T14:10:05Z</time>
      </trkpt>
      <trkpt lat="44.09175" lon="6.85454">
        <ele>835.21</ele>
        <time>2021-10-27T14:10:12Z</time>
      </trkpt>
      <trkpt lat="44.09173" lon="6.85456">
        <ele>835.18</ele>
        <time>2021-10-27T14:10:15Z</time>
      </trkpt>
      <trkpt lat="44.09171" lon="6.8546">
        <ele>835.79</ele>
        <time>2021-10-27T14:10:19Z</time>
      </trkpt>
      <trkpt lat="44.09168" lon="6.85463">
        <ele>835.57</ele>
        <time>2021-10-27T14:10:21Z</time>
      </trkpt>
      <trkpt lat="44.09165" lon="6.85466">
        <ele>836.05</ele>
        <time>2021-10-27T14:10:23Z</time>
      </trkpt>
      <trkpt lat="44.09162" lon="6.85469">
        <ele>837.21</ele>
        <time>2021-10-27T14:10:26Z</time>
      </trkpt>
      <trkpt lat="44.0916" lon="6.85471">
        <ele>838.04</ele>
        <time>2021-10-27T14:10:29Z</time>
      </trkpt>
      <trkpt lat="44.09157" lon="6.85473">
        <ele>839.04</ele>
        <time>2021-10-27T14:10:31Z</time>
      </trkpt>
      <trkpt lat="44.09154" lon="6.85475">
        <ele>840.16</ele>
        <time>2021-10-27T14:10:33Z</time>
      </trkpt>
      <trkpt lat="44.09151" lon="6.85477">
        <ele>841.29</ele>
        <time>2021-10-27T14:10:36Z</time>
      </trkpt>
      <trkpt lat="44.09149" lon="6.85478">
        <ele>841.9</ele>
        <time>2021-10-27T14:10:38Z</time>
      </trkpt>
      <trkpt lat="44.09146" lon="6.8548">
        <ele>843.06</ele>
        <time>2021-10-27T14:10:41Z</time>
      </trkpt>
      <trkpt lat="44.09142" lon="6.85481">
        <ele>843.85</ele>
        <time>2021-10-27T14:10:44Z</time>
      </trkpt>
      <trkpt lat="44.09139" lon="6.85483">
        <ele>845.03</ele>
        <time>2021-10-27T14:10:46Z</time>
      </trkpt>
      <trkpt lat="44.09136" lon="6.85483">
        <ele>845</ele>
        <time>2021-10-27T14:10:49Z</time>
      </trkpt>
      <trkpt lat="44.09133" lon="6.85483">
        <ele>844.96</ele>
        <time>2021-10-27T14:10:51Z</time>
      </trkpt>
      <trkpt lat="44.0913" lon="6.85483">
        <ele>844.92</ele>
        <time>2021-10-27T14:10:54Z</time>
      </trkpt>
      <trkpt lat="44.09127" lon="6.85482">
        <ele>844.43</ele>
        <time>2021-10-27T14:10:55Z</time>
      </trkpt>
      <trkpt lat="44.09124" lon="6.8548">
        <ele>843.49</ele>
        <time>2021-10-27T14:10:59Z</time>
      </trkpt>
      <trkpt lat="44.09121" lon="6.85479">
        <ele>843.01</ele>
        <time>2021-10-27T14:11:01Z</time>
      </trkpt>
      <trkpt lat="44.09118" lon="6.85477">
        <ele>842.11</ele>
        <time>2021-10-27T14:11:05Z</time>
      </trkpt>
      <trkpt lat="44.09115" lon="6.85475">
        <ele>841.21</ele>
        <time>2021-10-27T14:11:09Z</time>
      </trkpt>
      <trkpt lat="44.09112" lon="6.85473">
        <ele>840.34</ele>
        <time>2021-10-27T14:11:11Z</time>
      </trkpt>
      <trkpt lat="44.09109" lon="6.85472">
        <ele>839.95</ele>
        <time>2021-10-27T14:11:14Z</time>
      </trkpt>
      <trkpt lat="44.09106" lon="6.85471">
        <ele>839.46</ele>
        <time>2021-10-27T14:11:15Z</time>
      </trkpt>
      <trkpt lat="44.09103" lon="6.8547">
        <ele>838.91</ele>
        <time>2021-10-27T14:11:17Z</time>
      </trkpt>
      <trkpt lat="44.09099" lon="6.85471">
        <ele>839.62</ele>
        <time>2021-10-27T14:11:20Z</time>
      </trkpt>
      <trkpt lat="44.09096" lon="6.85471">
        <ele>839.69</ele>
        <time>2021-10-27T14:11:24Z</time>
      </trkpt>
      <trkpt lat="44.09092" lon="6.85471">
        <ele>839.79</ele>
        <time>2021-10-27T14:11:26Z</time>
      </trkpt>
      <trkpt lat="44.09089" lon="6.85471">
        <ele>839.86</ele>
        <time>2021-10-27T14:11:29Z</time>
      </trkpt>
      <trkpt lat="44.09085" lon="6.85469">
        <ele>838.33</ele>
        <time>2021-10-27T14:11:30Z</time>
      </trkpt>
      <trkpt lat="44.09082" lon="6.85469">
        <ele>837.99</ele>
        <time>2021-10-27T14:11:32Z</time>
      </trkpt>
      <trkpt lat="44.09078" lon="6.85469">
        <ele>836.95</ele>
        <time>2021-10-27T14:11:35Z</time>
      </trkpt>
      <trkpt lat="44.09074" lon="6.85469">
        <ele>835.92</ele>
        <time>2021-10-27T14:11:39Z</time>
      </trkpt>
      <trkpt lat="44.0907" lon="6.85469">
        <ele>834.88</ele>
        <time>2021-10-27T14:11:40Z</time>
      </trkpt>
      <trkpt lat="44.09067" lon="6.85469">
        <ele>834.11</ele>
        <time>2021-10-27T14:11:42Z</time>
      </trkpt>
      <trkpt lat="44.09064" lon="6.85468">
        <ele>832.68</ele>
        <time>2021-10-27T14:11:45Z</time>
      </trkpt>
      <trkpt lat="44.09061" lon="6.85467">
        <ele>831.3</ele>
        <time>2021-10-27T14:11:49Z</time>
      </trkpt>
      <trkpt lat="44.09058" lon="6.85468">
        <ele>831.18</ele>
        <time>2021-10-27T14:11:50Z</time>
      </trkpt>
      <trkpt lat="44.09054" lon="6.85469">
        <ele>830.84</ele>
        <time>2021-10-27T14:11:54Z</time>
      </trkpt>
      <trkpt lat="44.0905" lon="6.8547">
        <ele>830.6</ele>
        <time>2021-10-27T14:11:57Z</time>
      </trkpt>
      <trkpt lat="44.09047" lon="6.8547">
        <ele>830</ele>
        <time>2021-10-27T14:12:00Z</time>
      </trkpt>
      <trkpt lat="44.09044" lon="6.85471">
        <ele>829.89</ele>
        <time>2021-10-27T14:12:04Z</time>
      </trkpt>
      <trkpt lat="44.09041" lon="6.85472">
        <ele>829.75</ele>
        <time>2021-10-27T14:12:06Z</time>
      </trkpt>
      <trkpt lat="44.09038" lon="6.85473">
        <ele>829.49</ele>
        <time>2021-10-27T14:12:09Z</time>
      </trkpt>
      <trkpt lat="44.09035" lon="6.85474">
        <ele>829.17</ele>
        <time>2021-10-27T14:12:14Z</time>
      </trkpt>
      <trkpt lat="44.09031" lon="6.85474">
        <ele>828.25</ele>
        <time>2021-10-27T14:12:16Z</time>
      </trkpt>
      <trkpt lat="44.09028" lon="6.85475">
        <ele>827.85</ele>
        <time>2021-10-27T14:12:20Z</time>
      </trkpt>
      <trkpt lat="44.09026" lon="6.85477">
        <ele>827.64</ele>
        <time>2021-10-27T14:12:24Z</time>
      </trkpt>
      <trkpt lat="44.09022" lon="6.85477">
        <ele>825.98</ele>
        <time>2021-10-27T14:12:26Z</time>
      </trkpt>
      <trkpt lat="44.09019" lon="6.85478">
        <ele>824.99</ele>
        <time>2021-10-27T14:12:29Z</time>
      </trkpt>
      <trkpt lat="44.09017" lon="6.8548">
        <ele>824.65</ele>
        <time>2021-10-27T14:12:32Z</time>
      </trkpt>
      <trkpt lat="44.09014" lon="6.85481">
        <ele>823.6</ele>
        <time>2021-10-27T14:12:35Z</time>
      </trkpt>
      <trkpt lat="44.09011" lon="6.85483">
        <ele>822.76</ele>
        <time>2021-10-27T14:12:38Z</time>
      </trkpt>
      <trkpt lat="44.09009" lon="6.85486">
        <ele>822.53</ele>
        <time>2021-10-27T14:12:42Z</time>
      </trkpt>
      <trkpt lat="44.09006" lon="6.85488">
        <ele>821.58</ele>
        <time>2021-10-27T14:12:46Z</time>
      </trkpt>
      <trkpt lat="44.09003" lon="6.8549">
        <ele>820.6</ele>
        <time>2021-10-27T14:12:49Z</time>
      </trkpt>
      <trkpt lat="44.09002" lon="6.85485">
        <ele>819.19</ele>
        <time>2021-10-27T14:12:55Z</time>
      </trkpt>
      <trkpt lat="44.09004" lon="6.85481">
        <ele>819.3</ele>
        <time>2021-10-27T14:12:59Z</time>
      </trkpt>
      <trkpt lat="44.09007" lon="6.85479">
        <ele>820.18</ele>
        <time>2021-10-27T14:13:01Z</time>
      </trkpt>
      <trkpt lat="44.09009" lon="6.85476">
        <ele>820.38</ele>
        <time>2021-10-27T14:13:04Z</time>
      </trkpt>
      <trkpt lat="44.09011" lon="6.85472">
        <ele>820.3</ele>
        <time>2021-10-27T14:13:08Z</time>
      </trkpt>
      <trkpt lat="44.09013" lon="6.8547">
        <ele>820.52</ele>
        <time>2021-10-27T14:13:12Z</time>
      </trkpt>
      <trkpt lat="44.09015" lon="6.85468">
        <ele>820.69</ele>
        <time>2021-10-27T14:13:18Z</time>
      </trkpt>
      <trkpt lat="44.09012" lon="6.85469">
        <ele>819.87</ele>
        <time>2021-10-27T14:13:37Z</time>
      </trkpt>
      <trkpt lat="44.09009" lon="6.8547">
        <ele>819.01</ele>
        <time>2021-10-27T14:13:40Z</time>
      </trkpt>
      <trkpt lat="44.09007" lon="6.85469">
        <ele>818.02</ele>
        <time>2021-10-27T14:13:43Z</time>
      </trkpt>
      <trkpt lat="44.09004" lon="6.85469">
        <ele>816.9</ele>
        <time>2021-10-27T14:13:48Z</time>
      </trkpt>
      <trkpt lat="44.09001" lon="6.8547">
        <ele>815.98</ele>
        <time>2021-10-27T14:13:55Z</time>
      </trkpt>
      <trkpt lat="44.08997" lon="6.85471">
        <ele>815.25</ele>
        <time>2021-10-27T14:13:58Z</time>
      </trkpt>
      <trkpt lat="44.08994" lon="6.85471">
        <ele>814.72</ele>
        <time>2021-10-27T14:14:12Z</time>
      </trkpt>
      <trkpt lat="44.08994" lon="6.85466">
        <ele>813.9</ele>
        <time>2021-10-27T14:14:18Z</time>
      </trkpt>
      <trkpt lat="44.08996" lon="6.85462">
        <ele>813.55</ele>
        <time>2021-10-27T14:14:22Z</time>
      </trkpt>
      <trkpt lat="44.08995" lon="6.85458">
        <ele>812.72</ele>
        <time>2021-10-27T14:14:24Z</time>
      </trkpt>
      <trkpt lat="44.08996" lon="6.85455">
        <ele>812.36</ele>
        <time>2021-10-27T14:14:28Z</time>
      </trkpt>
      <trkpt lat="44.08998" lon="6.85457">
        <ele>812.98</ele>
        <time>2021-10-27T14:14:38Z</time>
      </trkpt>
      <trkpt lat="44.08997" lon="6.85461">
        <ele>813.53</ele>
        <time>2021-10-27T14:14:51Z</time>
      </trkpt>
      <trkpt lat="44.08995" lon="6.8546">
        <ele>813.06</ele>
        <time>2021-10-27T14:15:11Z</time>
      </trkpt>
      <trkpt lat="44.08991" lon="6.85459">
        <ele>812.31</ele>
        <time>2021-10-27T14:15:18Z</time>
      </trkpt>
      <trkpt lat="44.08989" lon="6.85457">
        <ele>811.71</ele>
        <time>2021-10-27T14:15:22Z</time>
      </trkpt>
      <trkpt lat="44.08987" lon="6.85454">
        <ele>810.99</ele>
        <time>2021-10-27T14:15:26Z</time>
      </trkpt>
      <trkpt lat="44.08984" lon="6.85456">
        <ele>810.87</ele>
        <time>2021-10-27T14:15:33Z</time>
      </trkpt>
      <trkpt lat="44.08981" lon="6.85458">
        <ele>810.72</ele>
        <time>2021-10-27T14:15:38Z</time>
      </trkpt>
      <trkpt lat="44.08979" lon="6.85459">
        <ele>810.56</ele>
        <time>2021-10-27T14:15:50Z</time>
      </trkpt>
      <trkpt lat="44.08977" lon="6.85456">
        <ele>809.91</ele>
        <time>2021-10-27T14:16:01Z</time>
      </trkpt>
      <trkpt lat="44.08978" lon="6.85449">
        <ele>809.18</ele>
        <time>2021-10-27T14:16:06Z</time>
      </trkpt>
      <trkpt lat="44.0898" lon="6.85443">
        <ele>808.77</ele>
        <time>2021-10-27T14:16:08Z</time>
      </trkpt>
      <trkpt lat="44.08977" lon="6.85439">
        <ele>808.35</ele>
        <time>2021-10-27T14:16:13Z</time>
      </trkpt>
      <trkpt lat="44.08974" lon="6.85438">
        <ele>808.12</ele>
        <time>2021-10-27T14:16:19Z</time>
      </trkpt>
      <trkpt lat="44.08973" lon="6.85433">
        <ele>808.03</ele>
        <time>2021-10-27T14:16:27Z</time>
      </trkpt>
      <trkpt lat="44.0897" lon="6.85429">
        <ele>808.25</ele>
        <time>2021-10-27T14:16:32Z</time>
      </trkpt>
      <trkpt lat="44.08973" lon="6.85427">
        <ele>808</ele>
        <time>2021-10-27T14:16:37Z</time>
      </trkpt>
      <trkpt lat="44.08975" lon="6.8543">
        <ele>808.04</ele>
        <time>2021-10-27T14:16:41Z</time>
      </trkpt>
      <trkpt lat="44.08978" lon="6.85431">
        <ele>808.12</ele>
        <time>2021-10-27T14:16:47Z</time>
      </trkpt>
      <trkpt lat="44.08981" lon="6.85427">
        <ele>807.96</ele>
        <time>2021-10-27T14:16:50Z</time>
      </trkpt>
      <trkpt lat="44.08983" lon="6.85424">
        <ele>807.74</ele>
        <time>2021-10-27T14:16:53Z</time>
      </trkpt>
      <trkpt lat="44.08986" lon="6.85422">
        <ele>807.48</ele>
        <time>2021-10-27T14:16:56Z</time>
      </trkpt>
      <trkpt lat="44.08989" lon="6.85421">
        <ele>807.26</ele>
        <time>2021-10-27T14:16:59Z</time>
      </trkpt>
      <trkpt lat="44.08989" lon="6.85417">
        <ele>806.83</ele>
        <time>2021-10-27T14:17:04Z</time>
      </trkpt>
      <trkpt lat="44.08988" lon="6.85413">
        <ele>806.71</ele>
        <time>2021-10-27T14:17:08Z</time>
      </trkpt>
      <trkpt lat="44.08988" lon="6.85409">
        <ele>806.55</ele>
        <time>2021-10-27T14:17:13Z</time>
      </trkpt>
      <trkpt lat="44.08991" lon="6.85411">
        <ele>806.37</ele>
        <time>2021-10-27T14:17:18Z</time>
      </trkpt>
      <trkpt lat="44.08994" lon="6.85412">
        <ele>806.17</ele>
        <time>2021-10-27T14:17:27Z</time>
      </trkpt>
      <trkpt lat="44.08997" lon="6.85414">
        <ele>806.04</ele>
        <time>2021-10-27T14:17:32Z</time>
      </trkpt>
      <trkpt lat="44.08997" lon="6.85418">
        <ele>806.43</ele>
        <time>2021-10-27T14:17:42Z</time>
      </trkpt>
      <trkpt lat="44.08999" lon="6.85416">
        <ele>806.03</ele>
        <time>2021-10-27T14:17:55Z</time>
      </trkpt>
      <trkpt lat="44.09002" lon="6.85417">
        <ele>805.99</ele>
        <time>2021-10-27T14:17:59Z</time>
      </trkpt>
      <trkpt lat="44.09005" lon="6.85418">
        <ele>806.11</ele>
        <time>2021-10-27T14:18:08Z</time>
      </trkpt>
      <trkpt lat="44.09008" lon="6.85415">
        <ele>805.49</ele>
        <time>2021-10-27T14:18:23Z</time>
      </trkpt>
      <trkpt lat="44.09006" lon="6.85408">
        <ele>804.76</ele>
        <time>2021-10-27T14:18:33Z</time>
      </trkpt>
      <trkpt lat="44.09004" lon="6.85405">
        <ele>804.65</ele>
        <time>2021-10-27T14:18:40Z</time>
      </trkpt>
      <trkpt lat="44.09003" lon="6.8541">
        <ele>805.26</ele>
        <time>2021-10-27T14:18:44Z</time>
      </trkpt>
      <trkpt lat="44.09" lon="6.85414">
        <ele>805.81</ele>
        <time>2021-10-27T14:18:55Z</time>
      </trkpt>
      <trkpt lat="44.08999" lon="6.85419">
        <ele>806.48</ele>
        <time>2021-10-27T14:19:02Z</time>
      </trkpt>
      <trkpt lat="44.09" lon="6.85425">
        <ele>807.5</ele>
        <time>2021-10-27T14:19:05Z</time>
      </trkpt>
      <trkpt lat="44.09" lon="6.85431">
        <ele>808.58</ele>
        <time>2021-10-27T14:19:08Z</time>
      </trkpt>
      <trkpt lat="44.09" lon="6.85426">
        <ele>807.68</ele>
        <time>2021-10-27T14:19:24Z</time>
      </trkpt>
      <trkpt lat="44.08997" lon="6.85423">
        <ele>807.23</ele>
        <time>2021-10-27T14:19:28Z</time>
      </trkpt>
      <trkpt lat="44.08994" lon="6.85423">
        <ele>807.33</ele>
        <time>2021-10-27T14:19:33Z</time>
      </trkpt>
      <trkpt lat="44.08992" lon="6.8542">
        <ele>807</ele>
        <time>2021-10-27T14:19:37Z</time>
      </trkpt>
      <trkpt lat="44.08989" lon="6.85417">
        <ele>806.83</ele>
        <time>2021-10-27T14:19:40Z</time>
      </trkpt>
      <trkpt lat="44.08987" lon="6.85415">
        <ele>806.87</ele>
        <time>2021-10-27T14:19:47Z</time>
      </trkpt>
      <trkpt lat="44.08987" lon="6.85409">
        <ele>806.64</ele>
        <time>2021-10-27T14:19:51Z</time>
      </trkpt>
      <trkpt lat="44.08986" lon="6.85405">
        <ele>806.59</ele>
        <time>2021-10-27T14:19:54Z</time>
      </trkpt>
      <trkpt lat="44.08984" lon="6.85402">
        <ele>806.7</ele>
        <time>2021-10-27T14:19:58Z</time>
      </trkpt>
      <trkpt lat="44.08982" lon="6.85399">
        <ele>806.85</ele>
        <time>2021-10-27T14:20:07Z</time>
      </trkpt>
      <trkpt lat="44.0898" lon="6.85396">
        <ele>807.02</ele>
        <time>2021-10-27T14:20:10Z</time>
      </trkpt>
      <trkpt lat="44.08978" lon="6.85392">
        <ele>807.21</ele>
        <time>2021-10-27T14:20:14Z</time>
      </trkpt>
      <trkpt lat="44.08975" lon="6.8539">
        <ele>807.61</ele>
        <time>2021-10-27T14:20:17Z</time>
      </trkpt>
      <trkpt lat="44.08974" lon="6.85386">
        <ele>807.33</ele>
        <time>2021-10-27T14:20:21Z</time>
      </trkpt>
      <trkpt lat="44.08972" lon="6.85384">
        <ele>807.32</ele>
        <time>2021-10-27T14:20:28Z</time>
      </trkpt>
      <trkpt lat="44.08969" lon="6.85382">
        <ele>807.33</ele>
        <time>2021-10-27T14:20:33Z</time>
      </trkpt>
      <trkpt lat="44.08967" lon="6.85378">
        <ele>806.92</ele>
        <time>2021-10-27T14:20:36Z</time>
      </trkpt>
      <trkpt lat="44.08965" lon="6.85375">
        <ele>806.65</ele>
        <time>2021-10-27T14:20:39Z</time>
      </trkpt>
      <trkpt lat="44.08965" lon="6.85371">
        <ele>806.04</ele>
        <time>2021-10-27T14:20:42Z</time>
      </trkpt>
      <trkpt lat="44.08967" lon="6.85366">
        <ele>805.11</ele>
        <time>2021-10-27T14:20:45Z</time>
      </trkpt>
      <trkpt lat="44.08967" lon="6.85362">
        <ele>804.51</ele>
        <time>2021-10-27T14:20:49Z</time>
      </trkpt>
      <trkpt lat="44.08964" lon="6.85361">
        <ele>804.58</ele>
        <time>2021-10-27T14:20:51Z</time>
      </trkpt>
      <trkpt lat="44.08961" lon="6.85361">
        <ele>804.79</ele>
        <time>2021-10-27T14:20:53Z</time>
      </trkpt>
      <trkpt lat="44.08958" lon="6.85362">
        <ele>805.17</ele>
        <time>2021-10-27T14:20:57Z</time>
      </trkpt>
      <trkpt lat="44.08956" lon="6.85359">
        <ele>804.81</ele>
        <time>2021-10-27T14:21:06Z</time>
      </trkpt>
      <trkpt lat="44.08952" lon="6.85358">
        <ele>804.88</ele>
        <time>2021-10-27T14:21:09Z</time>
      </trkpt>
      <trkpt lat="44.08951" lon="6.85354">
        <ele>804.17</ele>
        <time>2021-10-27T14:21:12Z</time>
      </trkpt>
      <trkpt lat="44.08951" lon="6.8535">
        <ele>803.41</ele>
        <time>2021-10-27T14:21:16Z</time>
      </trkpt>
      <trkpt lat="44.08948" lon="6.85347">
        <ele>802.89</ele>
        <time>2021-10-27T14:21:22Z</time>
      </trkpt>
      <trkpt lat="44.08946" lon="6.85345">
        <ele>802.51</ele>
        <time>2021-10-27T14:21:30Z</time>
      </trkpt>
      <trkpt lat="44.08943" lon="6.85344">
        <ele>802.25</ele>
        <time>2021-10-27T14:21:43Z</time>
      </trkpt>
      <trkpt lat="44.08943" lon="6.85341">
        <ele>801.6</ele>
        <time>2021-10-27T14:21:59Z</time>
      </trkpt>
      <trkpt lat="44.08944" lon="6.85337">
        <ele>800.78</ele>
        <time>2021-10-27T14:22:08Z</time>
      </trkpt>
      <trkpt lat="44.08944" lon="6.85333">
        <ele>799.9</ele>
        <time>2021-10-27T14:22:39Z</time>
      </trkpt>
      <trkpt lat="44.08941" lon="6.85335">
        <ele>800.24</ele>
        <time>2021-10-27T14:23:00Z</time>
      </trkpt>
      <trkpt lat="44.08944" lon="6.85336">
        <ele>800.56</ele>
        <time>2021-10-27T14:23:11Z</time>
      </trkpt>
      <trkpt lat="44.08947" lon="6.85336">
        <ele>800.64</ele>
        <time>2021-10-27T14:23:47Z</time>
      </trkpt>
      <trkpt lat="44.08945" lon="6.85339">
        <ele>801.23</ele>
        <time>2021-10-27T14:24:15Z</time>
      </trkpt>
      <trkpt lat="44.08942" lon="6.85338">
        <ele>800.92</ele>
        <time>2021-10-27T14:24:22Z</time>
      </trkpt>
      <trkpt lat="44.0894" lon="6.85341">
        <ele>801.5</ele>
        <time>2021-10-27T14:24:24Z</time>
      </trkpt>
      <trkpt lat="44.08943" lon="6.85342">
        <ele>801.82</ele>
        <time>2021-10-27T14:24:31Z</time>
      </trkpt>
      <trkpt lat="44.08949" lon="6.85339">
        <ele>801.29</ele>
        <time>2021-10-27T14:24:35Z</time>
      </trkpt>
      <trkpt lat="44.08952" lon="6.85329">
        <ele>799.14</ele>
        <time>2021-10-27T14:24:40Z</time>
      </trkpt>
      <trkpt lat="44.0895" lon="6.85321">
        <ele>797</ele>
        <time>2021-10-27T14:24:42Z</time>
      </trkpt>
      <trkpt lat="44.08957" lon="6.85326">
        <ele>798.48</ele>
        <time>2021-10-27T14:25:01Z</time>
      </trkpt>
      <trkpt lat="44.08952" lon="6.85308">
        <ele>793.64</ele>
        <time>2021-10-27T14:25:16Z</time>
      </trkpt>
      <trkpt lat="44.08946" lon="6.8532">
        <ele>796.67</ele>
        <time>2021-10-27T14:26:25Z</time>
      </trkpt>
      <trkpt lat="44.08946" lon="6.85325">
        <ele>797.94</ele>
        <time>2021-10-27T14:26:27Z</time>
      </trkpt>
      <trkpt lat="44.08945" lon="6.8533">
        <ele>799.18</ele>
        <time>2021-10-27T14:26:31Z</time>
      </trkpt>
      <trkpt lat="44.08944" lon="6.85334">
        <ele>800.13</ele>
        <time>2021-10-27T14:26:40Z</time>
      </trkpt>
      <trkpt lat="44.08945" lon="6.85337">
        <ele>800.8</ele>
        <time>2021-10-27T14:26:51Z</time>
      </trkpt>
      <trkpt lat="44.08947" lon="6.85334">
        <ele>800.23</ele>
        <time>2021-10-27T14:27:14Z</time>
      </trkpt>
      <trkpt lat="44.08948" lon="6.85338">
        <ele>801.07</ele>
        <time>2021-10-27T14:27:31Z</time>
      </trkpt>
      <trkpt lat="44.08948" lon="6.85334">
        <ele>800.26</ele>
        <time>2021-10-27T14:28:04Z</time>
      </trkpt>
      <trkpt lat="44.08947" lon="6.85337">
        <ele>800.85</ele>
        <time>2021-10-27T14:28:30Z</time>
      </trkpt>
      <trkpt lat="44.08949" lon="6.85335">
        <ele>800.49</ele>
        <time>2021-10-27T14:28:52Z</time>
      </trkpt>
      <trkpt lat="44.08947" lon="6.85335">
        <ele>800.44</ele>
        <time>2021-10-27T14:29:38Z</time>
      </trkpt>
      <trkpt lat="44.08944" lon="6.85335">
        <ele>800.34</ele>
        <time>2021-10-27T14:29:50Z</time>
      </trkpt>
      <trkpt lat="44.08944" lon="6.85339">
        <ele>801.21</ele>
        <time>2021-10-27T14:29:53Z</time>
      </trkpt>
      <trkpt lat="44.08945" lon="6.85335">
        <ele>800.38</ele>
        <time>2021-10-27T14:30:02Z</time>
      </trkpt>
      <trkpt lat="44.08945" lon="6.85331">
        <ele>799.43</ele>
        <time>2021-10-27T14:30:14Z</time>
      </trkpt>
      <trkpt lat="44.08941" lon="6.85323">
        <ele>797.32</ele>
        <time>2021-10-27T14:30:18Z</time>
      </trkpt>
    </trkseg>
  </trk>
</gpx>